GFSMW_prec_precacc24_015.txt.gz
Total_Precipitation_Accumulation
0.00 0.00 0.00 0.00 0.00 0.00 0.00 0.00 0.00 0.00 0.00 0.00 0.00 0.00 0.00 0.00 0.00 0.00 0.00 0.00 0.00 0.00 0.00 0.00 0.00 0.00 0.00 0.00 0.00 0.00 0.00 0.00 0.00 0.00 0.00 0.00 0.00 0.00 0.00 0.00 0.00 0.00 0.00
0.00 0.00 0.00 0.00 0.00 0.00 0.00 0.00 0.00 0.00 0.00 0.00 0.00 0.00 0.00 0.00 0.00 0.00 0.00 0.00 0.00 0.00 0.00 0.00 0.00 0.00 0.00 0.00 0.00 0.00 0.00 0.00 0.00 0.01 0.03 0.02 0.00 0.00 0.00 0.00 0.00 0.00 0.00
0.00 0.00 0.00 0.00 0.00 0.00 0.00 0.00 0.00 0.00 0.00 0.00 0.00 0.00 0.00 0.00 0.00 0.00 0.00 0.00 0.00 0.00 0.00 0.00 0.00 0.00 0.00 0.00 0.00 0.00 0.00 0.01 0.01 0.01 0.05 0.08 0.04 0.02 0.00 0.00 0.00 0.00 0.00
0.00 0.00 0.00 0.00 0.00 0.00 0.00 0.00 0.00 0.00 0.00 0.00 0.00 0.00 0.00 0.00 0.00 0.00 0.00 0.00 0.00 0.00 0.00 0.00 0.00 0.00 0.00 0.00 0.00 0.01 0.01 0.03 0.03 0.02 0.02 0.05 0.06 0.10 0.08 0.01 0.01 0.00 0.00
0.00 0.00 0.00 0.00 0.00 0.00 0.00 0.00 0.00 0.00 0.00 0.00 0.00 0.00 0.00 0.00 0.00 0.00 0.00 0.00 0.00 0.00 0.00 0.00 0.00 0.00 0.00 0.01 0.01 0.02 0.04 0.04 0.04 0.04 0.04 0.06 0.07 0.09 0.14 0.10 0.02 0.01 0.00
0.00 0.00 0.00 0.00 0.00 0.00 0.00 0.00 0.00 0.00 0.00 0.00 0.00 0.00 0.00 0.00 0.00 0.00 0.00 0.00 0.00 0.00 0.00 0.00 0.00 0.00 0.00 0.01 0.02 0.03 0.04 0.08 0.11 0.10 0.09 0.10 0.13 0.09 0.11 0.11 0.07 0.04 0.01
0.00 0.00 0.00 0.00 0.00 0.00 0.00 0.00 0.00 0.00 0.00 0.00 0.00 0.00 0.00 0.00 0.00 0.00 0.00 0.00 0.00 0.00 0.00 0.00 0.00 0.00 0.00 0.01 0.01 0.03 0.05 0.07 0.11 0.13 0.12 0.12 0.11 0.11 0.14 0.18 0.13 0.12 0.05
0.00 0.00 0.00 0.00 0.00 0.00 0.00 0.00 0.00 0.00 0.00 0.00 0.00 0.00 0.00 0.00 0.00 0.00 0.00 0.00 0.00 0.00 0.00 0.00 0.00 0.00 0.00 0.00 0.01 0.03 0.06 0.08 0.10 0.12 0.13 0.15 0.12 0.14 0.15 0.17 0.20 0.14 0.05
0.00 0.00 0.00 0.00 0.00 0.00 0.00 0.00 0.00 0.00 0.00 0.00 0.00 0.00 0.00 0.00 0.00 0.00 0.00 0.00 0.00 0.00 0.00 0.00 0.00 0.00 0.00 0.00 0.00 0.01 0.02 0.04 0.06 0.08 0.10 0.15 0.13 0.14 0.13 0.15 0.22 0.28 0.17
0.00 0.00 0.00 0.00 0.00 0.00 0.00 0.00 0.00 0.00 0.00 0.00 0.00 0.00 0.00 0.00 0.00 0.00 0.00 0.00 0.00 0.00 0.00 0.00 0.00 0.00 0.00 0.00 0.00 0.00 0.00 0.01 0.02 0.04 0.06 0.08 0.10 0.12 0.14 0.14 0.15 0.21 0.29
0.00 0.00 0.00 0.00 0.00 0.00 0.00 0.00 0.00 0.00 0.00 0.00 0.00 0.00 0.00 0.00 0.00 0.00 0.00 0.00 0.00 0.00 0.00 0.00 0.00 0.00 0.00 0.00 0.00 0.00 0.00 0.00 0.00 0.02 0.04 0.06 0.08 0.09 0.08 0.09 0.10 0.11 0.19
0.00 0.00 0.00 0.00 0.00 0.00 0.00 0.00 0.00 0.00 0.00 0.00 0.00 0.00 0.00 0.00 0.00 0.00 0.00 0.00 0.00 0.00 0.00 0.00 0.00 0.00 0.00 0.00 0.00 0.00 0.00 0.00 0.00 0.00 0.01 0.02 0.03 0.05 0.09 0.11 0.10 0.12 0.14
0.00 0.00 0.00 0.00 0.00 0.00 0.00 0.00 0.00 0.00 0.00 0.00 0.00 0.00 0.00 0.00 0.00 0.00 0.00 0.00 0.00 0.00 0.00 0.00 0.00 0.00 0.00 0.00 0.00 0.00 0.00 0.00 0.00 0.00 0.00 0.00 0.00 0.00 0.02 0.06 0.09 0.11 0.15
0.00 0.00 0.00 0.00 0.00 0.00 0.00 0.00 0.00 0.00 0.00 0.00 0.00 0.00 0.00 0.00 0.00 0.00 0.00 0.00 0.00 0.00 0.00 0.00 0.00 0.00 0.00 0.00 0.00 0.00 0.00 0.00 0.00 0.00 0.00 0.00 0.00 0.00 0.00 0.03 0.09 0.13 0.16
0.00 0.00 0.00 0.00 0.00 0.00 0.00 0.00 0.00 0.00 0.00 0.00 0.00 0.00 0.00 0.00 0.00 0.00 0.00 0.00 0.00 0.00 0.00 0.00 0.00 0.00 0.00 0.00 0.00 0.00 0.00 0.00 0.00 0.00 0.00 0.00 0.00 0.00 0.00 0.04 0.06 0.13 0.16
0.00 0.00 0.00 0.00 0.00 0.00 0.00 0.00 0.00 0.00 0.00 0.00 0.00 0.00 0.00 0.00 0.00 0.00 0.00 0.00 0.00 0.00 0.00 0.00 0.00 0.00 0.00 0.00 0.00 0.00 0.00 0.00 0.00 0.00 0.00 0.00 0.00 0.00 0.01 0.04 0.06 0.08 0.12
0.00 0.00 0.00 0.00 0.00 0.00 0.00 0.00 0.00 0.00 0.00 0.00 0.00 0.00 0.00 0.00 0.00 0.00 0.00 0.00 0.00 0.00 0.00 0.00 0.00 0.00 0.00 0.00 0.00 0.00 0.00 0.00 0.00 0.00 0.00 0.00 0.00 0.01 0.01 0.01 0.03 0.03 0.04
0.00 0.00 0.00 0.00 0.00 0.00 0.00 0.00 0.00 0.00 0.00 0.00 0.00 0.00 0.00 0.00 0.00 0.00 0.00 0.00 0.00 0.00 0.00 0.00 0.00 0.00 0.00 0.00 0.00 0.00 0.00 0.00 0.00 0.00 0.00 0.00 0.00 0.01 0.01 0.03 0.03 0.01 0.00
0.00 0.00 0.00 0.00 0.00 0.00 0.00 0.00 0.00 0.00 0.00 0.00 0.00 0.00 0.00 0.00 0.00 0.00 0.00 0.00 0.00 0.00 0.00 0.00 0.00 0.00 0.00 0.00 0.00 0.00 0.00 0.00 0.00 0.00 0.00 0.01 0.00 0.00 0.04 0.05 0.02 0.01 0.01
0.00 0.00 0.00 0.00 0.00 0.00 0.00 0.00 0.00 0.00 0.00 0.00 0.00 0.00 0.00 0.00 0.00 0.00 0.00 0.00 0.00 0.00 0.00 0.00 0.00 0.00 0.00 0.00 0.00 0.00 0.00 0.00 0.00 0.01 0.01 0.00 0.00 0.03 0.06 0.02 0.01 0.06 0.03
0.00 0.00 0.00 0.00 0.00 0.00 0.00 0.00 0.00 0.00 0.00 0.00 0.00 0.00 0.00 0.00 0.00 0.00 0.00 0.00 0.00 0.00 0.00 0.00 0.00 0.00 0.00 0.00 0.00 0.00 0.01 0.01 0.05 0.04 0.01 0.00 0.04 0.06 0.01 0.01 0.02 0.05 0.06
0.00 0.00 0.00 0.00 0.00 0.00 0.00 0.00 0.00 0.00 0.00 0.00 0.00 0.00 0.00 0.00 0.00 0.00 0.00 0.00 0.00 0.00 0.00 0.00 0.00 0.00 0.00 0.00 0.00 0.01 0.02 0.04 0.04 0.02 0.01 0.05 0.07 0.01 0.01 0.02 0.03 0.04 0.05
0.00 0.00 0.00 0.00 0.00 0.00 0.00 0.00 0.00 0.00 0.00 0.00 0.00 0.00 0.00 0.00 0.00 0.00 0.00 0.00 0.00 0.00 0.00 0.00 0.00 0.00 0.00 0.00 0.00 0.00 0.04 0.05 0.04 0.02 0.07 0.06 0.01 0.01 0.01 0.02 0.03 0.03 0.02
0.00 0.00 0.00 0.00 0.00 0.00 0.00 0.00 0.00 0.00 0.00 0.00 0.00 0.00 0.00 0.00 0.00 0.00 0.00 0.00 0.00 0.00 0.00 0.00 0.00 0.00 0.00 0.00 0.00 0.01 0.03 0.02 0.04 0.08 0.05 0.01 0.01 0.02 0.02 0.01 0.02 0.02 0.05
0.00 0.00 0.00 0.00 0.00 0.00 0.00 0.00 0.00 0.00 0.00 0.00 0.00 0.00 0.00 0.00 0.00 0.00 0.00 0.00 0.00 0.00 0.00 0.00 0.01 0.01 0.01 0.01 0.03 0.05 0.03 0.06 0.10 0.03 0.00 0.00 0.01 0.01 0.00 0.00 0.01 0.02 0.05
0.00 0.00 0.00 0.00 0.00 0.00 0.00 0.00 0.00 0.00 0.00 0.00 0.00 0.00 0.00 0.00 0.00 0.00 0.00 0.00 0.00 0.00 0.00 0.00 0.01 0.01 0.02 0.03 0.04 0.02 0.08 0.09 0.02 0.00 0.00 0.01 0.02 0.01 0.02 0.02 0.03 0.03 0.04

GFSMW_prec_precacc24_021.txt.gz
Total_Precipitation_Accumulation
0.00 0.00 0.00 0.00 0.00 0.00 0.00 0.00 0.00 0.00 0.00 0.00 0.00 0.00 0.00 0.00 0.00 0.00 0.00 0.00 0.00 0.00 0.00 0.00 0.00 0.00 0.00 0.00 0.00 0.00 0.00 0.00 0.00 0.00 0.00 0.00 0.00 0.00 0.00 0.00 0.00 0.00 0.00
0.00 0.00 0.00 0.00 0.00 0.00 0.00 0.00 0.00 0.00 0.00 0.00 0.00 0.00 0.00 0.00 0.00 0.00 0.00 0.00 0.00 0.00 0.00 0.00 0.00 0.00 0.00 0.00 0.00 0.00 0.00 0.00 0.00 0.01 0.03 0.02 0.00 0.00 0.00 0.00 0.00 0.00 0.00
0.00 0.00 0.00 0.00 0.00 0.00 0.00 0.00 0.00 0.00 0.00 0.00 0.00 0.00 0.00 0.00 0.00 0.00 0.00 0.00 0.00 0.00 0.00 0.00 0.00 0.00 0.00 0.00 0.00 0.00 0.00 0.01 0.01 0.01 0.05 0.08 0.04 0.02 0.00 0.00 0.00 0.00 0.00
0.00 0.00 0.00 0.00 0.00 0.00 0.00 0.00 0.00 0.00 0.00 0.00 0.00 0.00 0.00 0.00 0.00 0.00 0.00 0.00 0.00 0.00 0.00 0.00 0.00 0.00 0.00 0.00 0.00 0.01 0.01 0.03 0.03 0.02 0.02 0.05 0.06 0.10 0.08 0.01 0.01 0.00 0.00
0.00 0.00 0.00 0.00 0.00 0.00 0.00 0.00 0.00 0.00 0.00 0.00 0.00 0.00 0.00 0.00 0.00 0.00 0.00 0.00 0.00 0.00 0.00 0.00 0.00 0.00 0.00 0.01 0.01 0.02 0.04 0.04 0.04 0.04 0.04 0.06 0.07 0.09 0.14 0.10 0.02 0.01 0.00
0.00 0.00 0.00 0.00 0.00 0.00 0.00 0.00 0.00 0.00 0.00 0.00 0.00 0.00 0.00 0.00 0.00 0.00 0.00 0.00 0.00 0.00 0.00 0.00 0.00 0.00 0.00 0.01 0.02 0.03 0.04 0.08 0.11 0.10 0.09 0.10 0.13 0.10 0.11 0.11 0.07 0.04 0.01
0.00 0.00 0.00 0.00 0.00 0.00 0.00 0.00 0.00 0.00 0.00 0.00 0.00 0.00 0.00 0.00 0.00 0.00 0.00 0.00 0.00 0.00 0.00 0.00 0.00 0.00 0.00 0.01 0.01 0.03 0.05 0.07 0.11 0.13 0.12 0.12 0.11 0.11 0.14 0.18 0.13 0.12 0.05
0.00 0.00 0.00 0.00 0.00 0.00 0.00 0.00 0.00 0.00 0.00 0.00 0.00 0.00 0.00 0.00 0.00 0.00 0.00 0.00 0.00 0.00 0.00 0.00 0.00 0.00 0.00 0.00 0.01 0.03 0.06 0.08 0.10 0.12 0.13 0.15 0.12 0.14 0.15 0.17 0.21 0.15 0.05
0.00 0.00 0.00 0.00 0.00 0.00 0.00 0.00 0.00 0.00 0.00 0.00 0.00 0.00 0.00 0.00 0.00 0.00 0.00 0.00 0.00 0.00 0.00 0.00 0.00 0.00 0.00 0.00 0.00 0.01 0.02 0.04 0.06 0.08 0.10 0.15 0.13 0.14 0.13 0.15 0.23 0.29 0.18
0.00 0.00 0.00 0.00 0.00 0.00 0.00 0.00 0.00 0.00 0.00 0.00 0.00 0.00 0.00 0.00 0.00 0.00 0.00 0.00 0.00 0.00 0.00 0.00 0.00 0.00 0.00 0.00 0.00 0.00 0.00 0.01 0.02 0.04 0.06 0.08 0.10 0.12 0.14 0.15 0.15 0.21 0.29
0.00 0.00 0.00 0.00 0.00 0.00 0.00 0.00 0.00 0.00 0.00 0.00 0.00 0.00 0.00 0.00 0.00 0.00 0.00 0.00 0.00 0.00 0.00 0.00 0.00 0.00 0.00 0.00 0.00 0.00 0.00 0.00 0.00 0.02 0.04 0.06 0.08 0.09 0.08 0.09 0.10 0.11 0.19
0.00 0.00 0.00 0.00 0.00 0.00 0.00 0.00 0.00 0.00 0.00 0.00 0.00 0.00 0.00 0.00 0.00 0.00 0.00 0.00 0.00 0.00 0.00 0.00 0.00 0.00 0.00 0.00 0.00 0.00 0.00 0.00 0.00 0.00 0.01 0.02 0.03 0.05 0.09 0.11 0.10 0.12 0.14
0.00 0.00 0.00 0.00 0.00 0.00 0.00 0.00 0.00 0.00 0.00 0.00 0.00 0.00 0.00 0.00 0.00 0.00 0.00 0.00 0.00 0.00 0.00 0.00 0.00 0.00 0.00 0.00 0.00 0.00 0.00 0.00 0.00 0.00 0.00 0.00 0.00 0.00 0.02 0.06 0.09 0.12 0.16
0.00 0.00 0.00 0.00 0.00 0.00 0.00 0.00 0.00 0.00 0.00 0.00 0.00 0.00 0.00 0.00 0.00 0.00 0.00 0.00 0.00 0.00 0.00 0.00 0.00 0.00 0.00 0.00 0.00 0.00 0.00 0.00 0.00 0.00 0.00 0.00 0.00 0.00 0.00 0.03 0.09 0.15 0.18
0.00 0.00 0.00 0.00 0.00 0.00 0.00 0.00 0.00 0.00 0.00 0.00 0.00 0.00 0.00 0.00 0.00 0.00 0.00 0.00 0.00 0.00 0.00 0.00 0.00 0.00 0.00 0.00 0.00 0.00 0.00 0.00 0.00 0.00 0.00 0.00 0.00 0.00 0.01 0.05 0.07 0.15 0.18
0.00 0.00 0.00 0.00 0.00 0.00 0.00 0.00 0.00 0.00 0.00 0.00 0.00 0.00 0.00 0.00 0.00 0.00 0.00 0.00 0.00 0.00 0.00 0.00 0.00 0.00 0.00 0.00 0.00 0.00 0.00 0.00 0.00 0.00 0.00 0.00 0.00 0.00 0.02 0.05 0.07 0.10 0.16
0.00 0.00 0.00 0.00 0.00 0.00 0.00 0.00 0.00 0.00 0.00 0.00 0.00 0.00 0.00 0.00 0.00 0.00 0.00 0.00 0.00 0.00 0.00 0.00 0.00 0.00 0.00 0.00 0.00 0.00 0.00 0.00 0.00 0.00 0.00 0.00 0.00 0.02 0.02 0.02 0.04 0.06 0.09
0.00 0.00 0.00 0.00 0.00 0.00 0.00 0.00 0.00 0.00 0.00 0.00 0.00 0.00 0.00 0.00 0.00 0.00 0.00 0.00 0.00 0.00 0.00 0.00 0.00 0.00 0.00 0.00 0.00 0.00 0.00 0.00 0.00 0.00 0.00 0.00 0.01 0.02 0.02 0.04 0.10 0.07 0.03
0.00 0.00 0.00 0.00 0.00 0.00 0.00 0.00 0.00 0.00 0.00 0.00 0.00 0.00 0.00 0.00 0.00 0.00 0.00 0.00 0.00 0.00 0.00 0.00 0.00 0.00 0.00 0.00 0.00 0.00 0.00 0.00 0.00 0.00 0.00 0.02 0.01 0.01 0.05 0.12 0.11 0.03 0.01
0.00 0.00 0.00 0.00 0.00 0.00 0.00 0.00 0.00 0.00 0.00 0.00 0.00 0.00 0.00 0.00 0.00 0.00 0.00 0.00 0.00 0.00 0.00 0.00 0.00 0.00 0.00 0.00 0.00 0.00 0.00 0.00 0.00 0.02 0.02 0.01 0.01 0.04 0.14 0.07 0.03 0.07 0.03
0.00 0.00 0.00 0.00 0.00 0.00 0.00 0.00 0.00 0.00 0.00 0.00 0.00 0.00 0.00 0.00 0.00 0.00 0.00 0.00 0.00 0.00 0.00 0.00 0.00 0.00 0.00 0.00 0.00 0.00 0.01 0.01 0.07 0.07 0.02 0.00 0.05 0.12 0.04 0.02 0.03 0.06 0.07
0.00 0.00 0.00 0.00 0.00 0.00 0.00 0.00 0.00 0.00 0.00 0.00 0.00 0.00 0.00 0.00 0.00 0.00 0.00 0.00 0.00 0.00 0.00 0.00 0.00 0.00 0.00 0.00 0.00 0.01 0.02 0.04 0.06 0.04 0.02 0.07 0.11 0.02 0.01 0.02 0.03 0.05 0.06
0.00 0.00 0.00 0.00 0.00 0.00 0.00 0.00 0.00 0.00 0.00 0.00 0.00 0.00 0.00 0.00 0.00 0.00 0.00 0.00 0.00 0.00 0.00 0.00 0.00 0.00 0.00 0.00 0.00 0.00 0.06 0.07 0.05 0.04 0.11 0.10 0.01 0.01 0.01 0.02 0.03 0.03 0.02
0.00 0.00 0.00 0.00 0.00 0.00 0.00 0.00 0.00 0.00 0.00 0.00 0.00 0.00 0.00 0.00 0.00 0.00 0.00 0.00 0.00 0.00 0.00 0.00 0.00 0.00 0.00 0.00 0.00 0.02 0.05 0.03 0.07 0.14 0.10 0.01 0.01 0.02 0.02 0.01 0.02 0.02 0.06
0.00 0.00 0.00 0.00 0.00 0.00 0.00 0.00 0.00 0.00 0.00 0.00 0.00 0.00 0.00 0.00 0.00 0.00 0.00 0.00 0.00 0.00 0.00 0.00 0.01 0.01 0.01 0.01 0.04 0.06 0.04 0.08 0.15 0.05 0.00 0.00 0.01 0.01 0.01 0.00 0.01 0.02 0.05
0.00 0.00 0.00 0.00 0.00 0.00 0.00 0.00 0.00 0.00 0.00 0.00 0.00 0.00 0.00 0.00 0.00 0.00 0.00 0.00 0.00 0.00 0.00 0.00 0.01 0.01 0.02 0.04 0.05 0.03 0.10 0.14 0.04 0.01 0.01 0.02 0.03 0.02 0.02 0.03 0.03 0.03 0.06

GFSMW_prec_precacc24_027.txt.gz
Total_Precipitation_Accumulation
0.00 0.00 0.00 0.00 0.00 0.00 0.00 0.00 0.00 0.00 0.00 0.00 0.00 0.00 0.00 0.00 0.00 0.00 0.00 0.00 0.00 0.00 0.00 0.00 0.00 0.00 0.00 0.00 0.00 0.00 0.00 0.00 0.00 0.00 0.00 0.00 0.00 0.00 0.00 0.00 0.00 0.00 0.00
0.00 0.00 0.00 0.00 0.00 0.00 0.00 0.00 0.00 0.00 0.00 0.00 0.00 0.00 0.00 0.00 0.00 0.00 0.00 0.00 0.00 0.00 0.00 0.00 0.00 0.00 0.00 0.00 0.00 0.00 0.00 0.00 0.00 0.01 0.03 0.02 0.00 0.00 0.00 0.00 0.00 0.00 0.00
0.00 0.00 0.00 0.00 0.00 0.00 0.00 0.00 0.00 0.00 0.00 0.00 0.00 0.00 0.00 0.00 0.00 0.00 0.00 0.00 0.00 0.00 0.00 0.00 0.00 0.00 0.00 0.00 0.00 0.00 0.00 0.01 0.01 0.01 0.05 0.08 0.04 0.02 0.00 0.00 0.00 0.00 0.00
0.00 0.00 0.00 0.00 0.00 0.00 0.00 0.00 0.00 0.00 0.00 0.00 0.00 0.00 0.00 0.00 0.00 0.00 0.00 0.00 0.00 0.00 0.00 0.00 0.00 0.00 0.00 0.00 0.00 0.01 0.01 0.03 0.03 0.02 0.02 0.05 0.06 0.10 0.08 0.01 0.01 0.00 0.00
0.00 0.00 0.00 0.00 0.00 0.00 0.00 0.00 0.00 0.00 0.00 0.00 0.00 0.00 0.00 0.00 0.00 0.00 0.00 0.00 0.00 0.00 0.00 0.00 0.00 0.00 0.00 0.01 0.01 0.02 0.03 0.03 0.04 0.04 0.04 0.06 0.07 0.09 0.14 0.10 0.02 0.01 0.00
0.00 0.00 0.00 0.00 0.00 0.00 0.00 0.00 0.00 0.00 0.00 0.00 0.00 0.00 0.00 0.00 0.00 0.00 0.00 0.00 0.00 0.00 0.00 0.00 0.00 0.00 0.00 0.01 0.01 0.02 0.03 0.06 0.10 0.09 0.09 0.10 0.13 0.10 0.11 0.11 0.07 0.04 0.01
0.00 0.00 0.00 0.00 0.00 0.00 0.00 0.00 0.00 0.00 0.00 0.00 0.00 0.00 0.00 0.00 0.00 0.00 0.00 0.00 0.00 0.00 0.00 0.00 0.00 0.00 0.00 0.00 0.01 0.02 0.03 0.04 0.08 0.10 0.11 0.11 0.11 0.11 0.14 0.18 0.13 0.12 0.05
0.00 0.00 0.00 0.00 0.00 0.00 0.00 0.00 0.00 0.00 0.00 0.00 0.00 0.00 0.00 0.00 0.00 0.00 0.00 0.00 0.00 0.00 0.00 0.00 0.00 0.00 0.00 0.00 0.00 0.00 0.01 0.02 0.02 0.04 0.07 0.11 0.11 0.12 0.13 0.15 0.20 0.14 0.05
0.00 0.00 0.00 0.00 0.00 0.00 0.00 0.00 0.00 0.00 0.00 0.00 0.00 0.00 0.00 0.00 0.00 0.00 0.00 0.00 0.00 0.00 0.00 0.00 0.00 0.00 0.00 0.00 0.00 0.00 0.00 0.00 0.00 0.00 0.02 0.04 0.05 0.07 0.08 0.12 0.20 0.26 0.16
0.00 0.00 0.00 0.00 0.00 0.00 0.00 0.00 0.00 0.00 0.00 0.00 0.00 0.00 0.00 0.00 0.00 0.00 0.00 0.00 0.00 0.00 0.00 0.00 0.00 0.00 0.00 0.00 0.00 0.00 0.00 0.00 0.00 0.00 0.00 0.00 0.00 0.01 0.02 0.06 0.10 0.16 0.24
0.00 0.00 0.00 0.00 0.00 0.00 0.00 0.00 0.00 0.00 0.00 0.00 0.00 0.00 0.00 0.00 0.00 0.00 0.00 0.00 0.00 0.00 0.00 0.00 0.00 0.00 0.00 0.00 0.00 0.00 0.00 0.00 0.00 0.00 0.00 0.00 0.00 0.00 0.00 0.01 0.03 0.05 0.13
0.00 0.00 0.00 0.00 0.00 0.00 0.00 0.00 0.00 0.00 0.00 0.00 0.00 0.00 0.00 0.00 0.00 0.00 0.00 0.00 0.00 0.00 0.00 0.00 0.00 0.00 0.00 0.00 0.00 0.00 0.00 0.00 0.00 0.00 0.00 0.00 0.00 0.00 0.00 0.00 0.01 0.03 0.07
0.00 0.00 0.00 0.00 0.00 0.00 0.00 0.00 0.00 0.00 0.00 0.00 0.00 0.00 0.00 0.00 0.00 0.00 0.00 0.00 0.00 0.00 0.00 0.00 0.00 0.00 0.00 0.00 0.00 0.00 0.00 0.00 0.00 0.00 0.00 0.00 0.00 0.00 0.00 0.00 0.00 0.01 0.03
0.00 0.00 0.00 0.00 0.00 0.00 0.00 0.00 0.00 0.00 0.00 0.00 0.00 0.00 0.00 0.00 0.00 0.00 0.00 0.00 0.00 0.00 0.00 0.00 0.00 0.00 0.00 0.00 0.00 0.00 0.00 0.00 0.00 0.00 0.00 0.00 0.00 0.00 0.00 0.00 0.01 0.03 0.05
0.00 0.00 0.00 0.00 0.00 0.00 0.00 0.00 0.00 0.00 0.00 0.00 0.00 0.00 0.00 0.00 0.00 0.00 0.00 0.00 0.00 0.00 0.00 0.00 0.00 0.00 0.00 0.00 0.00 0.00 0.00 0.00 0.00 0.00 0.00 0.00 0.00 0.00 0.00 0.02 0.03 0.06 0.08
0.00 0.00 0.00 0.00 0.00 0.00 0.00 0.00 0.00 0.00 0.00 0.00 0.00 0.00 0.00 0.00 0.00 0.00 0.00 0.00 0.00 0.00 0.00 0.00 0.00 0.00 0.00 0.00 0.00 0.00 0.00 0.00 0.00 0.00 0.00 0.00 0.00 0.00 0.01 0.02 0.03 0.06 0.13
0.00 0.00 0.00 0.00 0.00 0.00 0.00 0.00 0.00 0.00 0.00 0.00 0.00 0.00 0.00 0.00 0.00 0.00 0.00 0.00 0.00 0.00 0.00 0.00 0.00 0.00 0.00 0.00 0.00 0.00 0.00 0.00 0.00 0.00 0.00 0.00 0.00 0.01 0.01 0.01 0.04 0.08 0.17
0.00 0.00 0.00 0.00 0.00 0.00 0.00 0.00 0.00 0.00 0.00 0.00 0.00 0.00 0.00 0.00 0.00 0.00 0.00 0.00 0.00 0.00 0.00 0.00 0.00 0.00 0.00 0.00 0.00 0.00 0.00 0.00 0.00 0.00 0.00 0.00 0.01 0.02 0.03 0.04 0.11 0.10 0.06
0.00 0.00 0.00 0.00 0.00 0.00 0.00 0.00 0.00 0.00 0.00 0.00 0.00 0.00 0.00 0.00 0.00 0.00 0.00 0.00 0.00 0.00 0.00 0.00 0.00 0.00 0.00 0.00 0.00 0.00 0.00 0.00 0.00 0.00 0.00 0.03 0.02 0.01 0.07 0.15 0.19 0.05 0.00
0.00 0.00 0.00 0.00 0.00 0.00 0.00 0.00 0.00 0.00 0.00 0.00 0.00 0.00 0.00 0.00 0.00 0.00 0.00 0.00 0.00 0.00 0.00 0.00 0.00 0.00 0.00 0.00 0.00 0.00 0.00 0.00 0.00 0.02 0.02 0.01 0.02 0.04 0.20 0.12 0.04 0.08 0.03
0.00 0.00 0.00 0.00 0.00 0.00 0.00 0.00 0.00 0.00 0.00 0.00 0.00 0.00 0.00 0.00 0.00 0.00 0.00 0.00 0.00 0.00 0.00 0.00 0.00 0.00 0.00 0.00 0.00 0.00 0.02 0.02 0.08 0.07 0.02 0.00 0.05 0.19 0.11 0.02 0.03 0.06 0.06
0.00 0.00 0.00 0.00 0.00 0.00 0.00 0.00 0.00 0.00 0.00 0.00 0.00 0.00 0.00 0.00 0.00 0.00 0.00 0.00 0.00 0.00 0.00 0.00 0.00 0.00 0.00 0.00 0.00 0.01 0.03 0.06 0.07 0.05 0.03 0.08 0.17 0.05 0.02 0.02 0.03 0.05 0.05
0.00 0.00 0.00 0.00 0.00 0.00 0.00 0.00 0.00 0.00 0.00 0.00 0.00 0.00 0.00 0.00 0.00 0.00 0.00 0.00 0.00 0.00 0.00 0.00 0.00 0.00 0.00 0.00 0.00 0.00 0.07 0.08 0.06 0.04 0.14 0.14 0.02 0.01 0.01 0.02 0.03 0.03 0.02
0.00 0.00 0.00 0.00 0.00 0.00 0.00 0.00 0.00 0.00 0.00 0.00 0.00 0.00 0.00 0.00 0.00 0.00 0.00 0.00 0.00 0.00 0.00 0.00 0.00 0.00 0.00 0.00 0.00 0.02 0.05 0.04 0.08 0.17 0.15 0.02 0.00 0.00 0.01 0.01 0.01 0.01 0.03
0.00 0.00 0.00 0.00 0.00 0.00 0.00 0.00 0.00 0.00 0.00 0.00 0.00 0.00 0.00 0.00 0.00 0.00 0.00 0.00 0.00 0.00 0.00 0.00 0.01 0.01 0.01 0.01 0.05 0.06 0.04 0.09 0.16 0.07 0.00 0.00 0.00 0.00 0.00 0.00 0.00 0.01 0.02
0.00 0.00 0.00 0.00 0.00 0.00 0.00 0.00 0.00 0.00 0.00 0.00 0.00 0.00 0.00 0.00 0.00 0.00 0.00 0.00 0.00 0.00 0.00 0.00 0.01 0.01 0.02 0.04 0.04 0.03 0.11 0.15 0.05 0.00 0.01 0.02 0.02 0.01 0.01 0.02 0.03 0.02 0.05

GFSMW_prec_precacc24_030.txt.gz
Total_Precipitation_Accumulation
0.00 0.00 0.00 0.00 0.00 0.00 0.00 0.00 0.00 0.00 0.00 0.00 0.00 0.00 0.00 0.00 0.00 0.00 0.00 0.00 0.00 0.00 0.00 0.00 0.00 0.00 0.00 0.00 0.00 0.00 0.00 0.00 0.00 0.00 0.00 0.00 0.00 0.00 0.00 0.00 0.00 0.00 0.00
0.00 0.00 0.00 0.00 0.00 0.00 0.00 0.00 0.00 0.00 0.00 0.00 0.00 0.00 0.00 0.00 0.00 0.00 0.00 0.00 0.00 0.00 0.00 0.00 0.00 0.00 0.00 0.00 0.00 0.00 0.00 0.00 0.00 0.01 0.03 0.02 0.00 0.00 0.00 0.00 0.00 0.00 0.00
0.00 0.00 0.00 0.00 0.00 0.00 0.00 0.00 0.00 0.00 0.00 0.00 0.00 0.00 0.00 0.00 0.00 0.00 0.00 0.00 0.00 0.00 0.00 0.00 0.00 0.00 0.00 0.00 0.00 0.00 0.00 0.01 0.01 0.01 0.04 0.06 0.03 0.02 0.00 0.00 0.00 0.00 0.00
0.00 0.00 0.00 0.00 0.00 0.00 0.00 0.00 0.00 0.00 0.00 0.00 0.00 0.00 0.00 0.00 0.00 0.00 0.00 0.00 0.00 0.00 0.00 0.00 0.00 0.00 0.00 0.00 0.00 0.00 0.01 0.02 0.03 0.02 0.01 0.04 0.06 0.09 0.07 0.01 0.01 0.00 0.00
0.00 0.00 0.00 0.00 0.00 0.00 0.00 0.00 0.00 0.00 0.00 0.00 0.00 0.00 0.00 0.00 0.00 0.00 0.00 0.00 0.00 0.00 0.00 0.00 0.00 0.00 0.00 0.00 0.00 0.01 0.01 0.01 0.02 0.03 0.03 0.05 0.06 0.08 0.12 0.07 0.02 0.01 0.00
0.00 0.00 0.00 0.00 0.00 0.00 0.00 0.00 0.00 0.00 0.00 0.00 0.00 0.00 0.00 0.00 0.00 0.00 0.00 0.00 0.00 0.00 0.00 0.00 0.00 0.00 0.00 0.00 0.00 0.00 0.00 0.01 0.04 0.05 0.06 0.07 0.10 0.09 0.10 0.09 0.06 0.04 0.01
0.00 0.00 0.00 0.00 0.00 0.00 0.00 0.00 0.00 0.00 0.00 0.00 0.00 0.00 0.00 0.00 0.00 0.00 0.00 0.00 0.00 0.00 0.00 0.00 0.00 0.00 0.00 0.00 0.00 0.00 0.00 0.00 0.01 0.01 0.02 0.03 0.05 0.07 0.10 0.13 0.10 0.10 0.05
0.00 0.00 0.00 0.00 0.00 0.00 0.00 0.00 0.00 0.00 0.00 0.00 0.00 0.00 0.00 0.00 0.00 0.00 0.00 0.00 0.00 0.00 0.00 0.00 0.00 0.00 0.00 0.00 0.00 0.00 0.00 0.00 0.00 0.00 0.00 0.00 0.00 0.01 0.03 0.05 0.11 0.09 0.04
0.00 0.00 0.00 0.00 0.00 0.00 0.00 0.00 0.00 0.00 0.00 0.00 0.00 0.00 0.00 0.00 0.00 0.00 0.00 0.00 0.00 0.00 0.00 0.00 0.00 0.00 0.00 0.00 0.00 0.00 0.00 0.00 0.00 0.00 0.00 0.00 0.00 0.00 0.00 0.01 0.10 0.15 0.07
0.00 0.00 0.00 0.00 0.00 0.00 0.00 0.00 0.00 0.00 0.00 0.00 0.00 0.00 0.00 0.00 0.00 0.00 0.00 0.00 0.00 0.00 0.00 0.00 0.00 0.00 0.00 0.00 0.00 0.00 0.00 0.00 0.00 0.00 0.00 0.00 0.00 0.00 0.00 0.02 0.03 0.06 0.11
0.00 0.00 0.00 0.00 0.00 0.00 0.00 0.00 0.00 0.00 0.00 0.00 0.00 0.00 0.00 0.00 0.00 0.00 0.00 0.00 0.00 0.00 0.00 0.00 0.00 0.00 0.00 0.00 0.00 0.00 0.00 0.00 0.00 0.00 0.00 0.00 0.00 0.00 0.00 0.00 0.00 0.01 0.04
0.00 0.00 0.00 0.00 0.00 0.00 0.00 0.00 0.00 0.00 0.00 0.00 0.00 0.00 0.00 0.00 0.00 0.00 0.00 0.00 0.00 0.00 0.00 0.00 0.00 0.00 0.00 0.00 0.00 0.00 0.00 0.00 0.00 0.00 0.00 0.00 0.00 0.00 0.00 0.00 0.00 0.00 0.02
0.00 0.00 0.00 0.00 0.00 0.00 0.00 0.00 0.00 0.00 0.00 0.00 0.00 0.00 0.00 0.00 0.00 0.00 0.00 0.00 0.00 0.00 0.00 0.00 0.00 0.00 0.00 0.00 0.00 0.00 0.00 0.00 0.00 0.00 0.00 0.00 0.00 0.00 0.00 0.00 0.00 0.01 0.02
0.00 0.00 0.00 0.00 0.00 0.00 0.00 0.00 0.00 0.00 0.00 0.00 0.00 0.00 0.00 0.00 0.00 0.00 0.00 0.00 0.00 0.00 0.00 0.00 0.00 0.00 0.00 0.00 0.00 0.00 0.00 0.00 0.00 0.00 0.00 0.00 0.00 0.00 0.00 0.00 0.01 0.02 0.04
0.00 0.00 0.00 0.00 0.00 0.00 0.00 0.00 0.00 0.00 0.00 0.00 0.00 0.00 0.00 0.00 0.00 0.00 0.00 0.00 0.00 0.00 0.00 0.00 0.00 0.00 0.00 0.00 0.00 0.00 0.00 0.00 0.00 0.00 0.00 0.00 0.00 0.00 0.00 0.02 0.02 0.04 0.06
0.00 0.00 0.00 0.00 0.00 0.00 0.00 0.00 0.00 0.00 0.00 0.00 0.00 0.00 0.00 0.00 0.00 0.00 0.00 0.00 0.00 0.00 0.00 0.00 0.00 0.00 0.00 0.00 0.00 0.00 0.00 0.00 0.00 0.00 0.00 0.00 0.00 0.00 0.01 0.01 0.03 0.06 0.13
0.00 0.00 0.00 0.00 0.00 0.00 0.00 0.00 0.00 0.00 0.00 0.00 0.00 0.00 0.00 0.00 0.00 0.00 0.00 0.00 0.00 0.00 0.00 0.00 0.00 0.00 0.00 0.00 0.00 0.00 0.00 0.00 0.00 0.00 0.00 0.00 0.00 0.01 0.01 0.01 0.05 0.08 0.20
0.00 0.00 0.00 0.00 0.00 0.00 0.00 0.00 0.00 0.00 0.00 0.00 0.00 0.00 0.00 0.00 0.00 0.00 0.00 0.00 0.00 0.00 0.00 0.00 0.00 0.00 0.00 0.00 0.00 0.00 0.00 0.00 0.00 0.00 0.00 0.00 0.01 0.02 0.03 0.04 0.13 0.16 0.11
0.00 0.00 0.00 0.00 0.00 0.00 0.00 0.00 0.00 0.00 0.00 0.00 0.00 0.00 0.00 0.00 0.00 0.00 0.00 0.00 0.00 0.00 0.00 0.00 0.00 0.00 0.00 0.00 0.00 0.00 0.00 0.00 0.00 0.00 0.00 0.03 0.02 0.01 0.07 0.18 0.25 0.06 0.00
0.00 0.00 0.00 0.00 0.00 0.00 0.00 0.00 0.00 0.00 0.00 0.00 0.00 0.00 0.00 0.00 0.00 0.00 0.00 0.00 0.00 0.00 0.00 0.00 0.00 0.00 0.00 0.00 0.00 0.00 0.00 0.00 0.00 0.02 0.02 0.02 0.02 0.05 0.25 0.14 0.04 0.08 0.03
0.00 0.00 0.00 0.00 0.00 0.00 0.00 0.00 0.00 0.00 0.00 0.00 0.00 0.00 0.00 0.00 0.00 0.00 0.00 0.00 0.00 0.00 0.00 0.00 0.00 0.00 0.00 0.00 0.00 0.00 0.02 0.02 0.09 0.07 0.01 0.00 0.06 0.23 0.12 0.02 0.02 0.05 0.05
0.00 0.00 0.00 0.00 0.00 0.00 0.00 0.00 0.00 0.00 0.00 0.00 0.00 0.00 0.00 0.00 0.00 0.00 0.00 0.00 0.00 0.00 0.00 0.00 0.00 0.00 0.00 0.00 0.00 0.01 0.03 0.06 0.06 0.04 0.02 0.08 0.19 0.05 0.01 0.01 0.02 0.04 0.04
0.00 0.00 0.00 0.00 0.00 0.00 0.00 0.00 0.00 0.00 0.00 0.00 0.00 0.00 0.00 0.00 0.00 0.00 0.00 0.00 0.00 0.00 0.00 0.00 0.00 0.00 0.00 0.00 0.00 0.00 0.06 0.08 0.05 0.04 0.15 0.14 0.02 0.00 0.00 0.01 0.01 0.01 0.01
0.00 0.00 0.00 0.00 0.00 0.00 0.00 0.00 0.00 0.00 0.00 0.00 0.00 0.00 0.00 0.00 0.00 0.00 0.00 0.00 0.00 0.00 0.00 0.00 0.00 0.00 0.00 0.00 0.00 0.02 0.05 0.03 0.08 0.17 0.15 0.01 0.00 0.00 0.00 0.00 0.00 0.00 0.02
0.00 0.00 0.00 0.00 0.00 0.00 0.00 0.00 0.00 0.00 0.00 0.00 0.00 0.00 0.00 0.00 0.00 0.00 0.00 0.00 0.00 0.00 0.00 0.00 0.01 0.01 0.01 0.01 0.04 0.05 0.04 0.08 0.16 0.06 0.00 0.00 0.00 0.00 0.00 0.00 0.00 0.00 0.02
0.00 0.00 0.00 0.00 0.00 0.00 0.00 0.00 0.00 0.00 0.00 0.00 0.00 0.00 0.00 0.00 0.00 0.00 0.00 0.00 0.00 0.00 0.00 0.00 0.01 0.01 0.02 0.03 0.04 0.02 0.09 0.14 0.05 0.00 0.00 0.01 0.02 0.01 0.01 0.01 0.02 0.01 0.04

GFSMW_prec_precacc24_033.txt.gz
Total_Precipitation_Accumulation
0.00 0.00 0.00 0.00 0.00 0.00 0.00 0.00 0.00 0.00 0.00 0.00 0.00 0.00 0.00 0.00 0.00 0.00 0.00 0.00 0.00 0.00 0.00 0.00 0.00 0.00 0.00 0.00 0.00 0.00 0.00 0.00 0.00 0.00 0.00 0.00 0.00 0.00 0.00 0.00 0.00 0.00 0.00
0.00 0.00 0.00 0.00 0.00 0.00 0.00 0.00 0.00 0.00 0.00 0.00 0.00 0.00 0.00 0.00 0.00 0.00 0.00 0.00 0.00 0.00 0.00 0.00 0.00 0.00 0.00 0.00 0.00 0.00 0.00 0.00 0.00 0.01 0.02 0.01 0.00 0.00 0.00 0.00 0.00 0.00 0.00
0.00 0.00 0.00 0.00 0.00 0.00 0.00 0.00 0.00 0.00 0.00 0.00 0.00 0.00 0.00 0.00 0.00 0.00 0.00 0.00 0.00 0.00 0.00 0.00 0.00 0.00 0.00 0.00 0.00 0.00 0.00 0.01 0.00 0.01 0.04 0.04 0.03 0.02 0.00 0.00 0.00 0.00 0.00
0.00 0.00 0.00 0.00 0.00 0.00 0.00 0.00 0.00 0.00 0.00 0.00 0.00 0.00 0.00 0.00 0.00 0.00 0.00 0.00 0.00 0.00 0.00 0.00 0.00 0.00 0.00 0.00 0.00 0.00 0.00 0.01 0.01 0.01 0.01 0.04 0.05 0.07 0.05 0.01 0.01 0.00 0.00
0.00 0.00 0.00 0.00 0.00 0.00 0.00 0.00 0.00 0.00 0.00 0.00 0.00 0.00 0.00 0.00 0.00 0.00 0.00 0.00 0.00 0.00 0.00 0.00 0.00 0.00 0.00 0.00 0.00 0.00 0.00 0.00 0.01 0.01 0.02 0.02 0.04 0.05 0.07 0.03 0.01 0.01 0.00
0.00 0.00 0.00 0.00 0.00 0.00 0.00 0.00 0.00 0.00 0.00 0.00 0.00 0.00 0.00 0.00 0.00 0.00 0.00 0.00 0.00 0.00 0.00 0.00 0.00 0.00 0.00 0.00 0.00 0.00 0.00 0.00 0.00 0.00 0.00 0.00 0.01 0.01 0.02 0.03 0.01 0.01 0.01
0.00 0.00 0.00 0.00 0.00 0.00 0.00 0.00 0.00 0.00 0.00 0.00 0.00 0.00 0.00 0.00 0.00 0.00 0.00 0.00 0.00 0.00 0.00 0.00 0.00 0.00 0.00 0.00 0.00 0.00 0.00 0.00 0.00 0.00 0.00 0.00 0.00 0.00 0.00 0.01 0.01 0.01 0.00
0.00 0.00 0.00 0.00 0.00 0.00 0.00 0.00 0.00 0.00 0.00 0.00 0.00 0.00 0.00 0.00 0.00 0.00 0.00 0.00 0.00 0.00 0.00 0.00 0.00 0.00 0.00 0.00 0.00 0.00 0.00 0.00 0.00 0.00 0.00 0.00 0.00 0.00 0.00 0.01 0.04 0.03 0.00
0.00 0.00 0.00 0.00 0.00 0.00 0.00 0.00 0.00 0.00 0.00 0.00 0.00 0.00 0.00 0.00 0.00 0.00 0.00 0.00 0.00 0.00 0.00 0.00 0.00 0.00 0.00 0.00 0.00 0.00 0.00 0.00 0.00 0.00 0.00 0.00 0.00 0.00 0.00 0.01 0.06 0.08 0.04
0.00 0.00 0.00 0.00 0.00 0.00 0.00 0.00 0.00 0.00 0.00 0.00 0.00 0.00 0.00 0.00 0.00 0.00 0.00 0.00 0.00 0.00 0.00 0.00 0.00 0.00 0.00 0.00 0.00 0.00 0.00 0.00 0.00 0.00 0.00 0.00 0.00 0.00 0.00 0.01 0.01 0.01 0.02
0.00 0.00 0.00 0.00 0.00 0.00 0.00 0.00 0.00 0.00 0.00 0.00 0.00 0.00 0.00 0.00 0.00 0.00 0.00 0.00 0.00 0.00 0.00 0.00 0.00 0.00 0.00 0.00 0.00 0.00 0.00 0.00 0.00 0.00 0.00 0.00 0.00 0.00 0.00 0.00 0.00 0.00 0.00
0.00 0.00 0.00 0.00 0.00 0.00 0.00 0.00 0.00 0.00 0.00 0.00 0.00 0.00 0.00 0.00 0.00 0.00 0.00 0.00 0.00 0.00 0.00 0.00 0.00 0.00 0.00 0.00 0.00 0.00 0.00 0.00 0.00 0.00 0.00 0.00 0.00 0.00 0.00 0.00 0.00 0.00 0.01
0.00 0.00 0.00 0.00 0.00 0.00 0.00 0.00 0.00 0.00 0.00 0.00 0.00 0.00 0.00 0.00 0.00 0.00 0.00 0.00 0.00 0.00 0.00 0.00 0.00 0.00 0.00 0.00 0.00 0.00 0.00 0.00 0.00 0.00 0.00 0.00 0.00 0.00 0.00 0.00 0.00 0.01 0.02
0.00 0.00 0.00 0.00 0.00 0.00 0.00 0.00 0.00 0.00 0.00 0.00 0.00 0.00 0.00 0.00 0.00 0.00 0.00 0.00 0.00 0.00 0.00 0.00 0.00 0.00 0.00 0.00 0.00 0.00 0.00 0.00 0.00 0.00 0.00 0.00 0.00 0.00 0.00 0.00 0.01 0.02 0.03
0.00 0.00 0.00 0.00 0.00 0.00 0.00 0.00 0.00 0.00 0.00 0.00 0.00 0.00 0.00 0.00 0.00 0.00 0.00 0.00 0.00 0.00 0.00 0.00 0.00 0.00 0.00 0.00 0.00 0.00 0.00 0.00 0.00 0.00 0.00 0.00 0.00 0.00 0.00 0.02 0.02 0.04 0.06
0.00 0.00 0.00 0.00 0.00 0.00 0.00 0.00 0.00 0.00 0.00 0.00 0.00 0.00 0.00 0.00 0.00 0.00 0.00 0.00 0.00 0.00 0.00 0.00 0.00 0.00 0.00 0.00 0.00 0.00 0.00 0.00 0.00 0.00 0.00 0.00 0.00 0.00 0.01 0.02 0.03 0.06 0.14
0.00 0.00 0.00 0.00 0.00 0.00 0.00 0.00 0.00 0.00 0.00 0.00 0.00 0.00 0.00 0.00 0.00 0.00 0.00 0.00 0.00 0.00 0.00 0.00 0.00 0.00 0.00 0.00 0.00 0.00 0.00 0.00 0.00 0.00 0.00 0.00 0.00 0.01 0.01 0.01 0.05 0.10 0.25
0.00 0.00 0.00 0.00 0.00 0.00 0.00 0.00 0.00 0.00 0.00 0.00 0.00 0.00 0.00 0.00 0.00 0.00 0.00 0.00 0.00 0.00 0.00 0.00 0.00 0.00 0.00 0.00 0.00 0.00 0.00 0.00 0.00 0.00 0.00 0.00 0.01 0.02 0.03 0.06 0.18 0.20 0.11
0.00 0.00 0.00 0.00 0.00 0.00 0.00 0.00 0.00 0.00 0.00 0.00 0.00 0.00 0.00 0.00 0.00 0.00 0.00 0.00 0.00 0.00 0.00 0.00 0.00 0.00 0.00 0.00 0.00 0.00 0.00 0.00 0.00 0.00 0.00 0.03 0.02 0.01 0.08 0.20 0.27 0.06 0.00
0.00 0.00 0.00 0.00 0.00 0.00 0.00 0.00 0.00 0.00 0.00 0.00 0.00 0.00 0.00 0.00 0.00 0.00 0.00 0.00 0.00 0.00 0.00 0.00 0.00 0.00 0.00 0.00 0.00 0.00 0.00 0.00 0.00 0.02 0.02 0.02 0.02 0.06 0.26 0.14 0.04 0.06 0.03
0.00 0.00 0.00 0.00 0.00 0.00 0.00 0.00 0.00 0.00 0.00 0.00 0.00 0.00 0.00 0.00 0.00 0.00 0.00 0.00 0.00 0.00 0.00 0.00 0.00 0.00 0.00 0.00 0.00 0.00 0.01 0.01 0.07 0.07 0.01 0.00 0.07 0.24 0.12 0.02 0.01 0.03 0.04
0.00 0.00 0.00 0.00 0.00 0.00 0.00 0.00 0.00 0.00 0.00 0.00 0.00 0.00 0.00 0.00 0.00 0.00 0.00 0.00 0.00 0.00 0.00 0.00 0.00 0.00 0.00 0.00 0.00 0.00 0.02 0.05 0.05 0.03 0.02 0.08 0.19 0.05 0.01 0.00 0.02 0.03 0.03
0.00 0.00 0.00 0.00 0.00 0.00 0.00 0.00 0.00 0.00 0.00 0.00 0.00 0.00 0.00 0.00 0.00 0.00 0.00 0.00 0.00 0.00 0.00 0.00 0.00 0.00 0.00 0.00 0.00 0.00 0.05 0.07 0.05 0.03 0.14 0.14 0.02 0.00 0.00 0.00 0.01 0.01 0.00
0.00 0.00 0.00 0.00 0.00 0.00 0.00 0.00 0.00 0.00 0.00 0.00 0.00 0.00 0.00 0.00 0.00 0.00 0.00 0.00 0.00 0.00 0.00 0.00 0.00 0.00 0.00 0.00 0.00 0.02 0.04 0.03 0.06 0.16 0.15 0.01 0.00 0.00 0.00 0.00 0.00 0.00 0.02
0.00 0.00 0.00 0.00 0.00 0.00 0.00 0.00 0.00 0.00 0.00 0.00 0.00 0.00 0.00 0.00 0.00 0.00 0.00 0.00 0.00 0.00 0.00 0.00 0.00 0.01 0.01 0.01 0.03 0.04 0.04 0.06 0.13 0.06 0.00 0.00 0.00 0.00 0.00 0.00 0.00 0.00 0.02
0.00 0.00 0.00 0.00 0.00 0.00 0.00 0.00 0.00 0.00 0.00 0.00 0.00 0.00 0.00 0.00 0.00 0.00 0.00 0.00 0.00 0.00 0.00 0.00 0.00 0.01 0.01 0.02 0.03 0.02 0.07 0.10 0.05 0.00 0.00 0.01 0.02 0.01 0.01 0.01 0.02 0.01 0.03

GFSMW_prec_precacc24_039.txt.gz
Total_Precipitation_Accumulation
0.00 0.00 0.00 0.00 0.00 0.00 0.00 0.00 0.00 0.00 0.00 0.00 0.00 0.00 0.03 0.06 0.02 0.01 0.00 0.00 0.00 0.00 0.00 0.00 0.00 0.00 0.00 0.00 0.00 0.00 0.00 0.00 0.00 0.00 0.00 0.00 0.00 0.00 0.00 0.00 0.00 0.00 0.00
0.00 0.00 0.00 0.00 0.00 0.00 0.00 0.00 0.00 0.00 0.00 0.00 0.00 0.00 0.09 0.07 0.06 0.01 0.00 0.01 0.00 0.00 0.00 0.00 0.00 0.00 0.00 0.00 0.00 0.00 0.00 0.00 0.00 0.00 0.00 0.00 0.00 0.00 0.00 0.00 0.00 0.00 0.00
0.00 0.00 0.00 0.00 0.00 0.00 0.00 0.00 0.00 0.00 0.00 0.00 0.00 0.00 0.05 0.04 0.02 0.00 0.01 0.01 0.00 0.00 0.00 0.00 0.00 0.00 0.00 0.00 0.00 0.00 0.00 0.00 0.00 0.00 0.00 0.00 0.00 0.00 0.00 0.00 0.00 0.00 0.00
0.00 0.00 0.00 0.00 0.00 0.00 0.00 0.00 0.00 0.00 0.00 0.00 0.00 0.00 0.02 0.03 0.01 0.00 0.00 0.00 0.00 0.00 0.00 0.00 0.00 0.00 0.00 0.00 0.00 0.00 0.00 0.00 0.00 0.00 0.00 0.00 0.00 0.00 0.00 0.00 0.00 0.00 0.00
0.00 0.00 0.00 0.00 0.00 0.00 0.00 0.00 0.00 0.00 0.00 0.00 0.00 0.00 0.00 0.02 0.00 0.00 0.00 0.00 0.00 0.00 0.00 0.00 0.00 0.00 0.00 0.00 0.00 0.00 0.00 0.00 0.00 0.00 0.00 0.00 0.00 0.00 0.00 0.00 0.00 0.00 0.00
0.00 0.00 0.00 0.00 0.00 0.00 0.00 0.00 0.00 0.00 0.00 0.00 0.00 0.00 0.00 0.00 0.00 0.00 0.00 0.00 0.00 0.00 0.00 0.00 0.00 0.00 0.00 0.00 0.00 0.00 0.00 0.00 0.00 0.00 0.00 0.00 0.00 0.00 0.00 0.00 0.00 0.00 0.00
0.00 0.00 0.00 0.00 0.00 0.00 0.00 0.00 0.00 0.00 0.00 0.00 0.00 0.00 0.00 0.00 0.00 0.00 0.00 0.00 0.00 0.00 0.00 0.00 0.00 0.00 0.00 0.00 0.00 0.00 0.00 0.00 0.00 0.00 0.00 0.00 0.00 0.00 0.00 0.00 0.00 0.00 0.00
0.00 0.00 0.00 0.00 0.00 0.00 0.00 0.00 0.00 0.00 0.00 0.00 0.00 0.00 0.00 0.00 0.00 0.00 0.00 0.00 0.00 0.00 0.00 0.00 0.00 0.00 0.00 0.00 0.00 0.00 0.00 0.00 0.00 0.00 0.00 0.00 0.00 0.00 0.00 0.00 0.00 0.01 0.00
0.00 0.00 0.00 0.00 0.00 0.00 0.00 0.00 0.00 0.00 0.00 0.00 0.00 0.00 0.00 0.00 0.00 0.00 0.00 0.00 0.00 0.00 0.00 0.00 0.00 0.00 0.00 0.00 0.00 0.00 0.00 0.00 0.00 0.00 0.00 0.00 0.00 0.00 0.00 0.00 0.01 0.01 0.01
0.00 0.00 0.00 0.00 0.00 0.00 0.00 0.00 0.00 0.00 0.00 0.00 0.00 0.00 0.00 0.00 0.00 0.00 0.00 0.00 0.00 0.00 0.00 0.00 0.00 0.00 0.00 0.00 0.00 0.00 0.00 0.00 0.00 0.00 0.00 0.00 0.00 0.00 0.00 0.00 0.00 0.00 0.00
0.00 0.00 0.00 0.00 0.00 0.00 0.00 0.00 0.00 0.00 0.00 0.00 0.00 0.00 0.00 0.00 0.00 0.00 0.00 0.00 0.00 0.00 0.00 0.00 0.00 0.00 0.00 0.00 0.00 0.00 0.00 0.00 0.00 0.00 0.00 0.00 0.00 0.00 0.00 0.00 0.00 0.00 0.00
0.00 0.00 0.00 0.00 0.00 0.00 0.00 0.00 0.00 0.00 0.00 0.00 0.00 0.00 0.00 0.00 0.00 0.00 0.00 0.00 0.00 0.00 0.00 0.00 0.00 0.00 0.00 0.00 0.00 0.00 0.00 0.00 0.00 0.00 0.00 0.00 0.00 0.00 0.00 0.00 0.00 0.00 0.00
0.00 0.00 0.00 0.00 0.00 0.00 0.00 0.00 0.00 0.00 0.00 0.00 0.00 0.00 0.00 0.00 0.00 0.00 0.00 0.00 0.00 0.00 0.00 0.00 0.00 0.00 0.00 0.00 0.00 0.00 0.00 0.00 0.00 0.00 0.00 0.00 0.00 0.00 0.00 0.00 0.00 0.00 0.02
0.00 0.00 0.00 0.00 0.00 0.00 0.00 0.00 0.00 0.00 0.00 0.00 0.00 0.00 0.00 0.00 0.00 0.00 0.00 0.00 0.00 0.00 0.00 0.00 0.00 0.00 0.00 0.00 0.00 0.00 0.00 0.00 0.00 0.00 0.00 0.00 0.00 0.00 0.00 0.00 0.01 0.02 0.02
0.00 0.00 0.00 0.00 0.00 0.00 0.00 0.00 0.00 0.00 0.00 0.00 0.00 0.00 0.00 0.00 0.00 0.00 0.00 0.00 0.00 0.00 0.00 0.00 0.00 0.00 0.00 0.00 0.00 0.00 0.00 0.00 0.00 0.00 0.00 0.00 0.00 0.00 0.00 0.02 0.02 0.03 0.04
0.00 0.00 0.00 0.00 0.00 0.00 0.00 0.00 0.00 0.00 0.00 0.00 0.00 0.00 0.00 0.00 0.00 0.00 0.00 0.00 0.00 0.00 0.00 0.00 0.00 0.00 0.00 0.00 0.00 0.00 0.00 0.00 0.00 0.00 0.00 0.00 0.00 0.00 0.01 0.02 0.03 0.05 0.16
0.00 0.00 0.00 0.00 0.00 0.00 0.00 0.00 0.00 0.00 0.00 0.00 0.00 0.00 0.00 0.00 0.00 0.00 0.00 0.00 0.00 0.00 0.00 0.00 0.00 0.00 0.00 0.00 0.00 0.00 0.00 0.00 0.00 0.00 0.00 0.00 0.00 0.00 0.01 0.01 0.04 0.13 0.27
0.00 0.00 0.00 0.00 0.00 0.00 0.00 0.00 0.00 0.00 0.00 0.00 0.00 0.00 0.00 0.00 0.00 0.00 0.00 0.00 0.00 0.00 0.00 0.00 0.00 0.00 0.00 0.00 0.00 0.00 0.00 0.00 0.00 0.00 0.00 0.00 0.01 0.02 0.03 0.06 0.24 0.23 0.11
0.00 0.00 0.00 0.00 0.00 0.00 0.00 0.00 0.00 0.00 0.00 0.00 0.00 0.00 0.00 0.00 0.00 0.00 0.00 0.00 0.00 0.00 0.00 0.00 0.00 0.00 0.00 0.00 0.00 0.00 0.00 0.00 0.00 0.00 0.00 0.02 0.02 0.02 0.07 0.20 0.27 0.05 0.00
0.00 0.00 0.00 0.00 0.00 0.00 0.00 0.00 0.00 0.00 0.00 0.00 0.00 0.00 0.00 0.00 0.00 0.00 0.00 0.00 0.00 0.00 0.00 0.00 0.00 0.00 0.00 0.00 0.00 0.00 0.00 0.00 0.00 0.01 0.01 0.02 0.02 0.04 0.25 0.14 0.03 0.02 0.01
0.00 0.00 0.00 0.00 0.00 0.00 0.00 0.00 0.00 0.00 0.00 0.00 0.00 0.00 0.00 0.00 0.00 0.00 0.00 0.00 0.00 0.00 0.00 0.00 0.00 0.00 0.00 0.00 0.00 0.00 0.01 0.01 0.04 0.04 0.01 0.00 0.04 0.20 0.12 0.02 0.01 0.02 0.04
0.00 0.00 0.00 0.00 0.00 0.00 0.00 0.00 0.00 0.00 0.00 0.00 0.00 0.00 0.00 0.00 0.00 0.00 0.00 0.00 0.00 0.00 0.00 0.00 0.00 0.00 0.00 0.00 0.00 0.00 0.01 0.03 0.04 0.03 0.02 0.03 0.14 0.05 0.00 0.00 0.01 0.03 0.02
0.00 0.00 0.00 0.00 0.00 0.00 0.00 0.00 0.00 0.00 0.00 0.00 0.00 0.00 0.00 0.00 0.00 0.00 0.00 0.00 0.00 0.00 0.00 0.00 0.00 0.00 0.00 0.00 0.00 0.00 0.03 0.04 0.04 0.03 0.09 0.09 0.01 0.00 0.00 0.00 0.01 0.01 0.00
0.00 0.00 0.00 0.00 0.00 0.00 0.00 0.00 0.00 0.00 0.00 0.00 0.00 0.00 0.00 0.00 0.00 0.00 0.00 0.00 0.00 0.00 0.00 0.00 0.00 0.00 0.00 0.00 0.00 0.01 0.02 0.02 0.05 0.09 0.10 0.01 0.00 0.00 0.00 0.00 0.00 0.00 0.01
0.00 0.00 0.00 0.00 0.00 0.00 0.00 0.00 0.00 0.00 0.00 0.00 0.00 0.00 0.00 0.00 0.00 0.00 0.00 0.00 0.00 0.00 0.00 0.00 0.00 0.00 0.00 0.00 0.02 0.02 0.03 0.04 0.08 0.05 0.00 0.00 0.00 0.00 0.00 0.00 0.00 0.00 0.01
0.00 0.00 0.00 0.00 0.00 0.00 0.00 0.00 0.00 0.00 0.00 0.00 0.00 0.00 0.00 0.00 0.00 0.00 0.00 0.00 0.00 0.00 0.00 0.00 0.00 0.00 0.00 0.01 0.01 0.01 0.05 0.07 0.04 0.00 0.00 0.00 0.01 0.01 0.00 0.01 0.01 0.01 0.03

GFSMW_prec_precacc24_042.txt.gz
Total_Precipitation_Accumulation
0.00 0.00 0.00 0.00 0.00 0.00 0.00 0.00 0.00 0.00 0.00 0.00 0.00 0.00 0.03 0.10 0.10 0.10 0.05 0.03 0.01 0.00 0.00 0.00 0.00 0.00 0.00 0.00 0.00 0.00 0.00 0.00 0.00 0.00 0.00 0.00 0.00 0.00 0.00 0.00 0.00 0.00 0.00
0.00 0.00 0.00 0.00 0.00 0.00 0.00 0.00 0.00 0.00 0.00 0.00 0.00 0.00 0.10 0.13 0.15 0.06 0.04 0.05 0.01 0.00 0.00 0.00 0.00 0.00 0.00 0.00 0.00 0.00 0.00 0.00 0.00 0.00 0.00 0.00 0.00 0.00 0.00 0.00 0.00 0.00 0.00
0.00 0.00 0.00 0.00 0.00 0.00 0.00 0.00 0.00 0.00 0.00 0.00 0.00 0.00 0.05 0.05 0.03 0.01 0.02 0.03 0.01 0.00 0.00 0.00 0.00 0.00 0.00 0.00 0.00 0.00 0.00 0.00 0.00 0.00 0.00 0.00 0.00 0.00 0.00 0.00 0.00 0.00 0.00
0.00 0.00 0.00 0.00 0.00 0.00 0.00 0.00 0.00 0.00 0.00 0.00 0.00 0.00 0.02 0.05 0.04 0.02 0.02 0.02 0.01 0.00 0.00 0.00 0.00 0.00 0.00 0.00 0.00 0.00 0.00 0.00 0.00 0.00 0.00 0.00 0.00 0.00 0.00 0.00 0.00 0.00 0.00
0.00 0.00 0.00 0.00 0.00 0.00 0.00 0.00 0.00 0.00 0.00 0.00 0.00 0.00 0.00 0.02 0.04 0.02 0.01 0.01 0.00 0.00 0.00 0.00 0.00 0.00 0.00 0.00 0.00 0.00 0.00 0.00 0.00 0.00 0.00 0.00 0.00 0.00 0.00 0.00 0.00 0.00 0.00
0.00 0.00 0.00 0.00 0.00 0.00 0.00 0.00 0.00 0.00 0.00 0.00 0.00 0.00 0.00 0.03 0.04 0.01 0.01 0.01 0.01 0.00 0.00 0.00 0.00 0.00 0.00 0.00 0.00 0.00 0.00 0.00 0.00 0.00 0.00 0.00 0.00 0.00 0.00 0.00 0.00 0.00 0.00
0.00 0.00 0.00 0.00 0.00 0.00 0.00 0.00 0.00 0.00 0.00 0.00 0.00 0.00 0.00 0.01 0.02 0.01 0.00 0.00 0.00 0.00 0.00 0.00 0.00 0.00 0.00 0.00 0.00 0.00 0.00 0.00 0.00 0.00 0.00 0.00 0.00 0.00 0.00 0.00 0.00 0.00 0.00
0.00 0.00 0.00 0.00 0.00 0.00 0.00 0.00 0.00 0.00 0.00 0.00 0.00 0.00 0.00 0.00 0.00 0.00 0.00 0.00 0.00 0.00 0.00 0.00 0.00 0.00 0.00 0.00 0.00 0.00 0.00 0.00 0.00 0.00 0.00 0.00 0.00 0.00 0.00 0.00 0.00 0.00 0.00
0.00 0.00 0.00 0.00 0.00 0.00 0.00 0.00 0.00 0.00 0.00 0.00 0.00 0.00 0.00 0.00 0.00 0.00 0.00 0.00 0.00 0.00 0.00 0.00 0.00 0.00 0.00 0.00 0.00 0.00 0.00 0.00 0.00 0.00 0.00 0.00 0.00 0.00 0.00 0.00 0.00 0.00 0.00
0.00 0.00 0.00 0.00 0.00 0.00 0.00 0.00 0.00 0.00 0.00 0.00 0.00 0.00 0.00 0.00 0.00 0.00 0.00 0.00 0.00 0.00 0.00 0.00 0.00 0.00 0.00 0.00 0.00 0.00 0.00 0.00 0.00 0.00 0.00 0.00 0.00 0.00 0.00 0.00 0.00 0.00 0.00
0.00 0.00 0.00 0.00 0.00 0.00 0.00 0.00 0.00 0.00 0.00 0.00 0.00 0.00 0.00 0.00 0.00 0.00 0.00 0.00 0.00 0.00 0.00 0.00 0.00 0.00 0.00 0.00 0.00 0.00 0.00 0.00 0.00 0.00 0.00 0.00 0.00 0.00 0.00 0.00 0.00 0.00 0.00
0.00 0.00 0.00 0.00 0.00 0.00 0.00 0.00 0.00 0.00 0.00 0.00 0.00 0.00 0.00 0.00 0.00 0.00 0.00 0.00 0.00 0.00 0.00 0.00 0.00 0.00 0.00 0.00 0.00 0.00 0.00 0.00 0.00 0.00 0.00 0.00 0.00 0.00 0.00 0.00 0.00 0.00 0.00
0.00 0.00 0.00 0.00 0.00 0.00 0.00 0.00 0.00 0.00 0.00 0.00 0.00 0.00 0.00 0.00 0.00 0.00 0.00 0.00 0.00 0.00 0.00 0.00 0.00 0.00 0.00 0.00 0.00 0.00 0.00 0.00 0.00 0.00 0.00 0.00 0.00 0.00 0.00 0.00 0.00 0.00 0.01
0.00 0.00 0.00 0.00 0.00 0.00 0.00 0.00 0.00 0.00 0.00 0.00 0.00 0.00 0.00 0.00 0.00 0.00 0.00 0.00 0.00 0.00 0.00 0.00 0.00 0.00 0.00 0.00 0.00 0.00 0.00 0.00 0.00 0.00 0.00 0.00 0.00 0.00 0.00 0.00 0.00 0.01 0.02
0.00 0.00 0.00 0.00 0.00 0.00 0.00 0.00 0.00 0.00 0.00 0.00 0.00 0.00 0.00 0.00 0.00 0.00 0.00 0.00 0.00 0.00 0.00 0.00 0.00 0.00 0.00 0.00 0.00 0.00 0.00 0.00 0.00 0.00 0.00 0.00 0.00 0.00 0.00 0.01 0.01 0.02 0.04
0.00 0.00 0.00 0.00 0.00 0.00 0.00 0.00 0.00 0.00 0.00 0.00 0.00 0.00 0.00 0.00 0.00 0.00 0.00 0.00 0.00 0.00 0.00 0.00 0.00 0.00 0.00 0.00 0.00 0.00 0.00 0.00 0.00 0.00 0.00 0.00 0.00 0.00 0.00 0.01 0.03 0.05 0.14
0.00 0.00 0.00 0.00 0.00 0.00 0.00 0.00 0.00 0.00 0.00 0.00 0.00 0.00 0.00 0.00 0.00 0.00 0.00 0.00 0.00 0.00 0.00 0.00 0.00 0.00 0.00 0.00 0.00 0.00 0.00 0.00 0.00 0.00 0.00 0.00 0.00 0.00 0.00 0.00 0.04 0.12 0.26
0.00 0.00 0.00 0.00 0.00 0.00 0.00 0.00 0.00 0.00 0.00 0.00 0.00 0.00 0.00 0.00 0.00 0.00 0.00 0.00 0.00 0.00 0.00 0.00 0.00 0.00 0.00 0.00 0.00 0.00 0.00 0.00 0.00 0.00 0.00 0.00 0.00 0.01 0.03 0.05 0.20 0.21 0.11
0.00 0.00 0.00 0.00 0.00 0.00 0.00 0.00 0.00 0.00 0.00 0.00 0.00 0.00 0.00 0.00 0.00 0.00 0.00 0.00 0.00 0.00 0.00 0.00 0.00 0.00 0.00 0.00 0.00 0.00 0.00 0.00 0.00 0.00 0.00 0.01 0.02 0.02 0.06 0.16 0.24 0.05 0.00
0.00 0.00 0.00 0.00 0.00 0.00 0.00 0.00 0.00 0.00 0.00 0.00 0.00 0.00 0.00 0.00 0.00 0.00 0.00 0.00 0.00 0.00 0.00 0.00 0.00 0.00 0.00 0.00 0.00 0.00 0.00 0.00 0.00 0.00 0.00 0.01 0.02 0.04 0.20 0.11 0.02 0.02 0.01
0.00 0.00 0.00 0.00 0.00 0.00 0.00 0.00 0.00 0.00 0.00 0.00 0.00 0.00 0.00 0.00 0.00 0.00 0.00 0.00 0.00 0.00 0.00 0.00 0.00 0.00 0.00 0.00 0.00 0.00 0.00 0.00 0.03 0.02 0.01 0.00 0.04 0.17 0.10 0.02 0.00 0.02 0.04
0.00 0.01 0.00 0.00 0.00 0.00 0.00 0.00 0.00 0.00 0.00 0.00 0.00 0.00 0.00 0.00 0.00 0.00 0.00 0.00 0.00 0.00 0.00 0.00 0.00 0.00 0.00 0.00 0.00 0.00 0.01 0.03 0.03 0.02 0.01 0.02 0.12 0.05 0.00 0.00 0.01 0.03 0.02
0.00 0.00 0.00 0.00 0.00 0.00 0.00 0.00 0.00 0.00 0.00 0.00 0.00 0.00 0.00 0.00 0.00 0.00 0.00 0.00 0.00 0.00 0.00 0.00 0.00 0.00 0.00 0.00 0.00 0.00 0.01 0.02 0.03 0.02 0.07 0.08 0.01 0.00 0.00 0.00 0.01 0.01 0.00
0.00 0.00 0.00 0.00 0.00 0.00 0.00 0.00 0.00 0.00 0.00 0.00 0.00 0.00 0.00 0.00 0.00 0.00 0.00 0.00 0.00 0.00 0.00 0.00 0.00 0.00 0.00 0.00 0.00 0.00 0.01 0.02 0.03 0.06 0.10 0.01 0.00 0.00 0.00 0.00 0.00 0.00 0.01
0.00 0.00 0.00 0.00 0.00 0.00 0.00 0.00 0.00 0.00 0.00 0.00 0.00 0.00 0.00 0.00 0.00 0.00 0.00 0.00 0.00 0.00 0.00 0.00 0.00 0.00 0.00 0.00 0.01 0.02 0.02 0.03 0.06 0.04 0.00 0.00 0.00 0.00 0.00 0.00 0.00 0.00 0.01
0.00 0.00 0.00 0.00 0.00 0.00 0.00 0.00 0.00 0.00 0.00 0.00 0.00 0.00 0.00 0.00 0.00 0.00 0.00 0.00 0.00 0.00 0.00 0.00 0.00 0.00 0.00 0.00 0.01 0.01 0.04 0.05 0.03 0.00 0.00 0.00 0.00 0.00 0.00 0.01 0.01 0.01 0.03

GFSMW_prec_precacc24_048.txt.gz
Total_Precipitation_Accumulation
0.00 0.00 0.00 0.00 0.00 0.00 0.00 0.00 0.00 0.00 0.00 0.00 0.00 0.00 0.05 0.13 0.16 0.18 0.10 0.08 0.04 0.00 0.00 0.00 0.00 0.00 0.00 0.00 0.00 0.00 0.00 0.00 0.00 0.00 0.00 0.00 0.00 0.00 0.00 0.00 0.00 0.00 0.00
0.00 0.00 0.00 0.00 0.00 0.00 0.00 0.00 0.00 0.00 0.00 0.00 0.00 0.00 0.11 0.14 0.20 0.16 0.10 0.11 0.10 0.07 0.02 0.00 0.00 0.00 0.00 0.00 0.00 0.00 0.00 0.00 0.00 0.00 0.00 0.00 0.00 0.00 0.00 0.00 0.00 0.00 0.00
0.00 0.00 0.00 0.00 0.00 0.00 0.00 0.00 0.00 0.00 0.00 0.00 0.00 0.00 0.06 0.06 0.07 0.05 0.05 0.09 0.11 0.11 0.08 0.05 0.02 0.00 0.00 0.00 0.00 0.00 0.00 0.00 0.00 0.00 0.00 0.00 0.00 0.00 0.00 0.00 0.00 0.00 0.00
0.00 0.00 0.00 0.00 0.00 0.00 0.00 0.00 0.00 0.00 0.00 0.00 0.00 0.00 0.02 0.06 0.08 0.12 0.10 0.08 0.08 0.06 0.05 0.03 0.01 0.00 0.00 0.00 0.00 0.00 0.00 0.00 0.00 0.00 0.00 0.00 0.00 0.00 0.00 0.00 0.00 0.00 0.00
0.00 0.00 0.00 0.00 0.00 0.00 0.00 0.00 0.00 0.00 0.00 0.00 0.00 0.00 0.00 0.03 0.07 0.05 0.04 0.07 0.07 0.04 0.01 0.00 0.00 0.00 0.00 0.00 0.00 0.00 0.00 0.00 0.00 0.00 0.00 0.00 0.00 0.00 0.00 0.00 0.00 0.00 0.00
0.00 0.00 0.00 0.00 0.00 0.00 0.00 0.00 0.00 0.00 0.00 0.00 0.00 0.00 0.00 0.03 0.05 0.04 0.06 0.09 0.06 0.03 0.01 0.00 0.00 0.00 0.00 0.00 0.00 0.00 0.00 0.00 0.00 0.00 0.00 0.00 0.00 0.00 0.00 0.00 0.00 0.00 0.00
0.00 0.00 0.00 0.00 0.00 0.00 0.00 0.00 0.00 0.00 0.00 0.00 0.00 0.00 0.00 0.01 0.05 0.06 0.04 0.04 0.03 0.02 0.01 0.01 0.00 0.00 0.00 0.00 0.00 0.00 0.00 0.00 0.00 0.00 0.00 0.00 0.00 0.00 0.00 0.00 0.00 0.00 0.00
0.00 0.00 0.00 0.00 0.00 0.00 0.00 0.00 0.00 0.00 0.00 0.00 0.00 0.00 0.00 0.00 0.01 0.01 0.01 0.04 0.03 0.02 0.01 0.00 0.00 0.00 0.00 0.00 0.00 0.00 0.00 0.00 0.00 0.00 0.00 0.00 0.00 0.00 0.00 0.00 0.00 0.00 0.00
0.00 0.00 0.00 0.00 0.00 0.00 0.00 0.00 0.00 0.00 0.00 0.00 0.00 0.00 0.00 0.00 0.01 0.01 0.01 0.02 0.01 0.01 0.00 0.00 0.00 0.00 0.00 0.00 0.00 0.00 0.00 0.00 0.00 0.00 0.00 0.00 0.00 0.00 0.00 0.00 0.00 0.00 0.00
0.00 0.00 0.00 0.00 0.00 0.00 0.00 0.00 0.00 0.00 0.00 0.00 0.00 0.00 0.00 0.00 0.00 0.00 0.00 0.00 0.00 0.00 0.00 0.00 0.00 0.00 0.00 0.00 0.00 0.00 0.00 0.00 0.00 0.00 0.00 0.00 0.00 0.00 0.00 0.00 0.00 0.00 0.00
0.00 0.00 0.00 0.00 0.00 0.00 0.00 0.00 0.00 0.00 0.00 0.00 0.00 0.00 0.00 0.00 0.00 0.00 0.00 0.00 0.00 0.00 0.00 0.00 0.00 0.00 0.00 0.00 0.00 0.00 0.00 0.00 0.00 0.00 0.00 0.00 0.00 0.00 0.00 0.00 0.00 0.00 0.00
0.00 0.00 0.00 0.00 0.00 0.00 0.00 0.00 0.00 0.00 0.00 0.00 0.00 0.00 0.00 0.00 0.00 0.00 0.00 0.00 0.00 0.00 0.00 0.00 0.00 0.00 0.00 0.00 0.00 0.00 0.00 0.00 0.00 0.00 0.00 0.00 0.00 0.00 0.00 0.00 0.00 0.00 0.00
0.00 0.00 0.00 0.00 0.00 0.01 0.04 0.04 0.01 0.00 0.00 0.00 0.00 0.00 0.00 0.00 0.00 0.00 0.00 0.00 0.00 0.00 0.00 0.00 0.00 0.00 0.00 0.00 0.00 0.00 0.00 0.00 0.00 0.00 0.00 0.00 0.00 0.00 0.00 0.00 0.00 0.00 0.00
0.00 0.00 0.00 0.00 0.00 0.04 0.05 0.01 0.00 0.00 0.00 0.00 0.00 0.00 0.00 0.00 0.00 0.00 0.00 0.00 0.00 0.00 0.00 0.00 0.00 0.00 0.00 0.00 0.00 0.00 0.00 0.00 0.00 0.00 0.00 0.00 0.00 0.00 0.00 0.00 0.00 0.00 0.00
0.02 0.00 0.00 0.00 0.00 0.01 0.01 0.00 0.00 0.00 0.00 0.00 0.00 0.00 0.00 0.00 0.00 0.00 0.00 0.00 0.00 0.00 0.00 0.00 0.00 0.00 0.00 0.00 0.00 0.00 0.00 0.00 0.00 0.00 0.00 0.00 0.00 0.00 0.00 0.01 0.01 0.01 0.02
0.03 0.01 0.00 0.00 0.00 0.00 0.00 0.00 0.00 0.00 0.00 0.01 0.02 0.01 0.00 0.00 0.00 0.00 0.00 0.00 0.00 0.00 0.00 0.00 0.00 0.00 0.00 0.00 0.00 0.00 0.00 0.00 0.00 0.00 0.00 0.00 0.00 0.00 0.00 0.01 0.02 0.03 0.11
0.01 0.01 0.00 0.00 0.00 0.00 0.00 0.00 0.00 0.01 0.01 0.02 0.02 0.01 0.00 0.00 0.00 0.00 0.00 0.00 0.00 0.00 0.00 0.00 0.00 0.00 0.00 0.00 0.00 0.00 0.00 0.00 0.00 0.00 0.00 0.00 0.00 0.00 0.00 0.00 0.03 0.10 0.20
0.00 0.00 0.00 0.00 0.00 0.00 0.01 0.01 0.01 0.01 0.02 0.01 0.01 0.00 0.00 0.00 0.00 0.00 0.00 0.00 0.00 0.00 0.00 0.00 0.00 0.00 0.00 0.00 0.00 0.00 0.00 0.00 0.00 0.00 0.00 0.00 0.00 0.01 0.02 0.04 0.18 0.18 0.08
0.00 0.00 0.00 0.00 0.00 0.01 0.02 0.02 0.01 0.01 0.02 0.01 0.01 0.02 0.01 0.00 0.00 0.00 0.00 0.00 0.00 0.00 0.00 0.00 0.00 0.00 0.00 0.00 0.00 0.00 0.00 0.00 0.00 0.00 0.00 0.01 0.01 0.01 0.05 0.14 0.18 0.03 0.00
0.00 0.00 0.00 0.01 0.04 0.08 0.08 0.06 0.05 0.06 0.06 0.06 0.05 0.04 0.02 0.01 0.00 0.00 0.00 0.00 0.00 0.00 0.00 0.00 0.00 0.00 0.00 0.00 0.00 0.00 0.00 0.00 0.00 0.00 0.00 0.01 0.01 0.03 0.15 0.08 0.02 0.01 0.01
0.10 0.12 0.07 0.16 0.22 0.33 0.31 0.27 0.22 0.23 0.19 0.14 0.15 0.07 0.01 0.00 0.00 0.00 0.00 0.00 0.00 0.00 0.00 0.00 0.00 0.00 0.00 0.00 0.00 0.00 0.00 0.00 0.02 0.01 0.00 0.00 0.03 0.12 0.07 0.02 0.00 0.01 0.04
0.05 0.07 0.16 0.19 0.24 0.35 0.27 0.24 0.19 0.10 0.07 0.02 0.00 0.00 0.00 0.00 0.00 0.00 0.00 0.00 0.00 0.00 0.00 0.00 0.00 0.00 0.00 0.00 0.00 0.00 0.00 0.02 0.01 0.00 0.00 0.01 0.07 0.02 0.00 0.00 0.01 0.03 0.02
0.01 0.04 0.03 0.01 0.01 0.01 0.00 0.00 0.00 0.00 0.00 0.00 0.00 0.00 0.00 0.00 0.00 0.00 0.00 0.00 0.00 0.00 0.00 0.00 0.00 0.00 0.00 0.00 0.00 0.00 0.01 0.01 0.02 0.02 0.04 0.04 0.01 0.00 0.00 0.00 0.00 0.00 0.00
0.02 0.04 0.04 0.04 0.02 0.01 0.01 0.00 0.00 0.00 0.00 0.00 0.00 0.00 0.00 0.00 0.00 0.00 0.00 0.00 0.00 0.00 0.00 0.00 0.00 0.00 0.00 0.00 0.00 0.00 0.00 0.01 0.02 0.02 0.03 0.00 0.00 0.00 0.00 0.00 0.00 0.00 0.01
0.00 0.00 0.00 0.00 0.00 0.00 0.00 0.00 0.00 0.00 0.00 0.00 0.00 0.00 0.00 0.00 0.00 0.00 0.00 0.00 0.00 0.00 0.00 0.00 0.00 0.00 0.00 0.00 0.00 0.01 0.01 0.02 0.02 0.01 0.00 0.00 0.00 0.00 0.00 0.00 0.00 0.00 0.00
0.00 0.00 0.00 0.00 0.00 0.00 0.00 0.00 0.00 0.00 0.00 0.00 0.00 0.00 0.00 0.00 0.00 0.00 0.00 0.00 0.00 0.00 0.00 0.00 0.00 0.00 0.00 0.00 0.00 0.01 0.03 0.02 0.02 0.00 0.00 0.00 0.00 0.00 0.00 0.00 0.01 0.00 0.01

GFSMW_prec_precacc24_051.txt.gz
Total_Precipitation_Accumulation
0.00 0.00 0.00 0.00 0.00 0.00 0.00 0.00 0.00 0.00 0.00 0.01 0.00 0.00 0.08 0.15 0.19 0.19 0.10 0.08 0.05 0.01 0.00 0.00 0.00 0.00 0.00 0.00 0.00 0.00 0.00 0.00 0.00 0.00 0.00 0.00 0.00 0.00 0.00 0.00 0.00 0.00 0.00
0.00 0.00 0.00 0.00 0.00 0.00 0.00 0.00 0.00 0.00 0.00 0.00 0.00 0.01 0.13 0.18 0.25 0.19 0.10 0.11 0.12 0.11 0.03 0.00 0.00 0.00 0.00 0.00 0.00 0.00 0.00 0.00 0.00 0.00 0.00 0.00 0.00 0.00 0.00 0.00 0.00 0.00 0.00
0.00 0.00 0.00 0.00 0.00 0.00 0.00 0.00 0.00 0.00 0.00 0.00 0.00 0.01 0.11 0.13 0.11 0.08 0.05 0.09 0.12 0.18 0.11 0.07 0.04 0.00 0.00 0.00 0.00 0.00 0.00 0.00 0.00 0.00 0.00 0.00 0.00 0.00 0.00 0.00 0.00 0.00 0.00
0.00 0.00 0.00 0.00 0.00 0.00 0.00 0.00 0.00 0.00 0.00 0.00 0.00 0.00 0.03 0.10 0.11 0.20 0.16 0.11 0.10 0.11 0.09 0.07 0.03 0.01 0.01 0.00 0.00 0.00 0.00 0.00 0.00 0.00 0.00 0.00 0.00 0.00 0.00 0.00 0.00 0.00 0.00
0.00 0.00 0.00 0.00 0.00 0.00 0.00 0.00 0.00 0.00 0.00 0.00 0.00 0.00 0.02 0.08 0.13 0.13 0.09 0.12 0.11 0.08 0.06 0.02 0.01 0.02 0.02 0.01 0.00 0.00 0.00 0.00 0.00 0.00 0.00 0.00 0.00 0.00 0.00 0.00 0.00 0.00 0.00
0.00 0.00 0.00 0.00 0.00 0.00 0.00 0.00 0.00 0.00 0.00 0.00 0.00 0.00 0.01 0.05 0.09 0.07 0.08 0.12 0.10 0.05 0.02 0.01 0.02 0.02 0.02 0.01 0.00 0.00 0.00 0.00 0.00 0.00 0.00 0.00 0.00 0.00 0.00 0.00 0.00 0.00 0.00
0.00 0.00 0.00 0.00 0.00 0.00 0.00 0.00 0.00 0.00 0.00 0.00 0.00 0.00 0.00 0.03 0.08 0.08 0.07 0.06 0.04 0.03 0.02 0.02 0.02 0.02 0.01 0.00 0.00 0.00 0.00 0.00 0.00 0.00 0.00 0.00 0.00 0.00 0.00 0.00 0.00 0.00 0.00
0.00 0.00 0.00 0.00 0.00 0.00 0.00 0.00 0.00 0.00 0.00 0.00 0.00 0.00 0.00 0.02 0.04 0.04 0.03 0.06 0.05 0.03 0.01 0.01 0.01 0.01 0.01 0.00 0.00 0.00 0.00 0.00 0.00 0.00 0.00 0.00 0.00 0.00 0.00 0.00 0.00 0.00 0.00
0.00 0.00 0.00 0.00 0.00 0.00 0.00 0.00 0.00 0.00 0.00 0.02 0.02 0.01 0.01 0.02 0.03 0.03 0.02 0.03 0.03 0.01 0.01 0.01 0.01 0.01 0.00 0.00 0.00 0.00 0.00 0.00 0.00 0.00 0.00 0.00 0.00 0.00 0.00 0.00 0.00 0.00 0.00
0.00 0.00 0.00 0.00 0.00 0.00 0.00 0.00 0.00 0.00 0.01 0.03 0.01 0.00 0.02 0.03 0.02 0.02 0.01 0.01 0.00 0.00 0.01 0.01 0.01 0.01 0.00 0.00 0.00 0.00 0.00 0.00 0.00 0.00 0.00 0.00 0.00 0.00 0.00 0.00 0.00 0.00 0.00
0.00 0.00 0.00 0.00 0.00 0.00 0.00 0.00 0.00 0.00 0.01 0.00 0.00 0.01 0.01 0.01 0.01 0.01 0.00 0.00 0.00 0.00 0.01 0.01 0.00 0.00 0.00 0.00 0.00 0.00 0.00 0.00 0.00 0.00 0.00 0.00 0.00 0.00 0.00 0.00 0.00 0.00 0.00
0.00 0.00 0.00 0.00 0.00 0.00 0.00 0.00 0.02 0.02 0.01 0.00 0.00 0.01 0.00 0.00 0.00 0.01 0.00 0.00 0.01 0.00 0.00 0.00 0.00 0.00 0.00 0.00 0.00 0.00 0.00 0.00 0.00 0.00 0.00 0.00 0.00 0.00 0.00 0.00 0.00 0.00 0.00
0.00 0.00 0.00 0.00 0.00 0.02 0.05 0.08 0.03 0.00 0.00 0.00 0.00 0.00 0.00 0.00 0.00 0.00 0.00 0.01 0.00 0.01 0.00 0.00 0.00 0.00 0.00 0.00 0.00 0.00 0.00 0.00 0.00 0.00 0.00 0.00 0.00 0.00 0.00 0.00 0.00 0.00 0.00
0.01 0.00 0.00 0.00 0.02 0.06 0.09 0.09 0.01 0.00 0.00 0.00 0.00 0.00 0.00 0.01 0.00 0.00 0.00 0.01 0.01 0.01 0.00 0.00 0.00 0.00 0.00 0.00 0.00 0.00 0.00 0.00 0.00 0.00 0.00 0.00 0.00 0.00 0.00 0.00 0.00 0.00 0.00
0.04 0.02 0.00 0.00 0.00 0.04 0.04 0.06 0.07 0.04 0.01 0.01 0.01 0.01 0.01 0.00 0.00 0.00 0.00 0.00 0.00 0.01 0.00 0.00 0.00 0.01 0.00 0.00 0.00 0.00 0.00 0.00 0.00 0.00 0.00 0.00 0.00 0.00 0.00 0.01 0.01 0.00 0.02
0.04 0.02 0.00 0.00 0.00 0.00 0.00 0.02 0.05 0.05 0.02 0.02 0.02 0.02 0.00 0.00 0.00 0.00 0.00 0.00 0.00 0.00 0.00 0.00 0.00 0.00 0.00 0.00 0.00 0.00 0.00 0.00 0.00 0.00 0.00 0.00 0.00 0.00 0.00 0.01 0.02 0.02 0.09
0.02 0.01 0.00 0.00 0.00 0.00 0.00 0.01 0.02 0.01 0.02 0.02 0.02 0.01 0.00 0.01 0.02 0.02 0.01 0.00 0.00 0.00 0.01 0.00 0.00 0.00 0.00 0.00 0.00 0.00 0.00 0.00 0.00 0.00 0.00 0.00 0.00 0.00 0.00 0.00 0.03 0.09 0.16
0.00 0.00 0.00 0.00 0.00 0.00 0.01 0.01 0.02 0.02 0.03 0.02 0.02 0.02 0.05 0.07 0.04 0.01 0.00 0.00 0.00 0.01 0.01 0.00 0.00 0.00 0.00 0.00 0.00 0.00 0.00 0.00 0.00 0.00 0.00 0.00 0.00 0.00 0.01 0.04 0.17 0.16 0.06
0.00 0.00 0.00 0.00 0.00 0.01 0.02 0.02 0.02 0.02 0.05 0.04 0.04 0.06 0.07 0.03 0.01 0.01 0.01 0.00 0.00 0.00 0.00 0.00 0.00 0.00 0.00 0.00 0.00 0.00 0.00 0.00 0.00 0.00 0.00 0.00 0.01 0.01 0.04 0.12 0.12 0.02 0.00
0.00 0.00 0.00 0.01 0.04 0.08 0.08 0.07 0.07 0.09 0.25 0.24 0.17 0.11 0.07 0.08 0.12 0.09 0.04 0.02 0.00 0.00 0.00 0.00 0.00 0.00 0.00 0.00 0.00 0.00 0.00 0.00 0.00 0.00 0.00 0.00 0.01 0.03 0.12 0.06 0.01 0.00 0.01
0.11 0.13 0.08 0.16 0.24 0.37 0.35 0.40 0.34 0.38 0.49 0.33 0.29 0.30 0.34 0.21 0.11 0.05 0.01 0.00 0.00 0.00 0.00 0.00 0.00 0.00 0.00 0.00 0.00 0.00 0.00 0.00 0.01 0.00 0.00 0.00 0.03 0.08 0.03 0.02 0.00 0.01 0.03
0.11 0.30 0.45 0.50 0.57 0.67 0.63 0.52 0.52 0.48 0.46 0.35 0.22 0.17 0.08 0.02 0.00 0.00 0.00 0.00 0.00 0.00 0.00 0.00 0.00 0.00 0.00 0.00 0.00 0.00 0.00 0.01 0.01 0.00 0.00 0.01 0.05 0.02 0.00 0.00 0.01 0.02 0.02
0.03 0.11 0.19 0.10 0.13 0.16 0.25 0.16 0.15 0.12 0.07 0.05 0.01 0.00 0.00 0.00 0.00 0.00 0.00 0.00 0.00 0.00 0.00 0.00 0.00 0.00 0.00 0.00 0.00 0.00 0.00 0.01 0.02 0.01 0.02 0.02 0.01 0.00 0.00 0.00 0.00 0.00 0.00
0.02 0.04 0.04 0.04 0.03 0.02 0.01 0.01 0.00 0.00 0.00 0.00 0.00 0.00 0.00 0.00 0.00 0.00 0.00 0.00 0.00 0.00 0.00 0.00 0.00 0.00 0.00 0.00 0.00 0.00 0.00 0.00 0.01 0.01 0.01 0.00 0.00 0.00 0.00 0.00 0.00 0.00 0.00
0.00 0.00 0.01 0.02 0.00 0.00 0.00 0.00 0.00 0.00 0.00 0.00 0.00 0.00 0.00 0.00 0.00 0.00 0.00 0.00 0.00 0.00 0.00 0.00 0.00 0.00 0.00 0.00 0.00 0.01 0.01 0.01 0.02 0.01 0.00 0.00 0.00 0.00 0.00 0.00 0.00 0.00 0.00
0.00 0.00 0.00 0.00 0.00 0.00 0.00 0.00 0.00 0.00 0.00 0.00 0.00 0.00 0.00 0.00 0.00 0.00 0.00 0.00 0.00 0.00 0.00 0.00 0.00 0.00 0.00 0.00 0.00 0.01 0.02 0.01 0.01 0.00 0.00 0.00 0.00 0.00 0.00 0.00 0.00 0.00 0.00

GFSMW_prec_precacc24_054.txt.gz
Total_Precipitation_Accumulation
0.00 0.00 0.00 0.00 0.00 0.00 0.00 0.00 0.00 0.00 0.03 0.05 0.03 0.05 0.16 0.18 0.23 0.24 0.12 0.08 0.05 0.01 0.00 0.00 0.00 0.00 0.00 0.00 0.00 0.00 0.00 0.00 0.00 0.00 0.00 0.00 0.00 0.00 0.00 0.00 0.00 0.00 0.00
0.00 0.00 0.00 0.00 0.00 0.00 0.00 0.00 0.00 0.00 0.00 0.00 0.01 0.04 0.21 0.23 0.33 0.30 0.17 0.12 0.12 0.14 0.08 0.01 0.00 0.00 0.00 0.00 0.00 0.00 0.00 0.00 0.00 0.00 0.00 0.00 0.00 0.00 0.00 0.00 0.00 0.00 0.00
0.00 0.00 0.00 0.00 0.00 0.00 0.00 0.00 0.00 0.00 0.00 0.00 0.03 0.08 0.18 0.19 0.20 0.15 0.06 0.09 0.12 0.25 0.19 0.09 0.07 0.02 0.00 0.00 0.00 0.00 0.00 0.00 0.00 0.00 0.00 0.00 0.00 0.00 0.00 0.00 0.00 0.00 0.00
0.00 0.00 0.00 0.00 0.00 0.00 0.00 0.00 0.00 0.00 0.00 0.00 0.01 0.02 0.04 0.10 0.12 0.21 0.20 0.15 0.12 0.21 0.18 0.14 0.10 0.06 0.03 0.01 0.00 0.00 0.00 0.00 0.00 0.00 0.00 0.00 0.00 0.00 0.00 0.00 0.00 0.00 0.00
0.00 0.00 0.00 0.00 0.00 0.00 0.00 0.00 0.00 0.00 0.00 0.00 0.00 0.00 0.02 0.08 0.14 0.17 0.15 0.21 0.21 0.21 0.17 0.09 0.05 0.05 0.05 0.03 0.02 0.01 0.01 0.00 0.00 0.00 0.00 0.00 0.00 0.00 0.00 0.00 0.00 0.00 0.00
0.00 0.00 0.00 0.00 0.00 0.00 0.00 0.00 0.00 0.00 0.00 0.00 0.00 0.00 0.01 0.06 0.10 0.09 0.12 0.18 0.18 0.13 0.09 0.07 0.05 0.06 0.05 0.04 0.02 0.01 0.00 0.00 0.00 0.00 0.00 0.00 0.00 0.00 0.00 0.00 0.00 0.00 0.00
0.00 0.00 0.00 0.00 0.00 0.00 0.00 0.00 0.00 0.00 0.00 0.00 0.00 0.00 0.00 0.03 0.09 0.10 0.10 0.11 0.09 0.08 0.07 0.06 0.05 0.03 0.02 0.01 0.01 0.01 0.00 0.00 0.00 0.00 0.00 0.00 0.00 0.00 0.00 0.00 0.00 0.00 0.00
0.00 0.00 0.00 0.00 0.00 0.00 0.00 0.00 0.00 0.00 0.00 0.00 0.00 0.00 0.00 0.03 0.05 0.06 0.06 0.08 0.08 0.07 0.04 0.03 0.03 0.02 0.01 0.01 0.01 0.01 0.00 0.00 0.00 0.00 0.00 0.00 0.00 0.00 0.00 0.00 0.00 0.00 0.00
0.00 0.00 0.00 0.00 0.00 0.00 0.00 0.00 0.00 0.00 0.00 0.02 0.02 0.01 0.01 0.03 0.05 0.06 0.07 0.07 0.06 0.04 0.04 0.03 0.02 0.01 0.01 0.01 0.01 0.00 0.00 0.00 0.00 0.00 0.00 0.00 0.00 0.00 0.00 0.00 0.00 0.00 0.00
0.00 0.00 0.00 0.00 0.00 0.00 0.00 0.00 0.00 0.00 0.01 0.03 0.01 0.00 0.03 0.05 0.05 0.05 0.06 0.04 0.03 0.03 0.03 0.02 0.01 0.01 0.01 0.00 0.00 0.00 0.00 0.00 0.00 0.00 0.00 0.00 0.00 0.00 0.00 0.00 0.00 0.00 0.00
0.00 0.00 0.00 0.00 0.00 0.00 0.00 0.00 0.00 0.00 0.01 0.00 0.00 0.02 0.03 0.04 0.05 0.06 0.05 0.02 0.01 0.01 0.01 0.01 0.01 0.01 0.01 0.00 0.00 0.00 0.00 0.00 0.00 0.00 0.00 0.00 0.00 0.00 0.00 0.00 0.00 0.00 0.00
0.00 0.00 0.00 0.00 0.00 0.00 0.00 0.00 0.02 0.02 0.01 0.00 0.01 0.03 0.03 0.03 0.04 0.05 0.04 0.02 0.02 0.01 0.00 0.00 0.01 0.00 0.00 0.00 0.00 0.00 0.00 0.00 0.00 0.00 0.00 0.00 0.00 0.00 0.00 0.00 0.00 0.00 0.00
0.00 0.00 0.00 0.00 0.00 0.02 0.05 0.09 0.03 0.00 0.00 0.01 0.01 0.02 0.02 0.02 0.03 0.02 0.02 0.01 0.01 0.01 0.01 0.01 0.00 0.00 0.00 0.00 0.00 0.00 0.00 0.00 0.00 0.00 0.00 0.00 0.00 0.00 0.00 0.00 0.00 0.00 0.00
0.01 0.00 0.00 0.00 0.02 0.07 0.10 0.10 0.01 0.01 0.02 0.02 0.01 0.02 0.02 0.01 0.01 0.00 0.01 0.01 0.02 0.01 0.01 0.01 0.01 0.00 0.01 0.02 0.02 0.02 0.02 0.02 0.01 0.00 0.00 0.00 0.00 0.00 0.00 0.00 0.00 0.00 0.00
0.04 0.02 0.02 0.03 0.02 0.04 0.04 0.06 0.09 0.07 0.06 0.05 0.03 0.02 0.02 0.01 0.01 0.01 0.01 0.01 0.01 0.01 0.02 0.01 0.01 0.02 0.03 0.04 0.05 0.04 0.03 0.01 0.00 0.00 0.00 0.00 0.00 0.00 0.00 0.00 0.00 0.00 0.01
0.04 0.02 0.01 0.01 0.01 0.00 0.00 0.02 0.08 0.09 0.09 0.10 0.06 0.03 0.01 0.01 0.01 0.01 0.01 0.01 0.02 0.03 0.04 0.08 0.08 0.02 0.01 0.01 0.01 0.00 0.00 0.00 0.00 0.00 0.00 0.00 0.00 0.00 0.00 0.01 0.02 0.02 0.07
0.02 0.01 0.00 0.00 0.00 0.00 0.00 0.01 0.03 0.05 0.09 0.08 0.06 0.04 0.01 0.01 0.02 0.03 0.04 0.05 0.03 0.04 0.07 0.04 0.02 0.02 0.01 0.00 0.00 0.00 0.00 0.00 0.00 0.00 0.00 0.00 0.00 0.00 0.00 0.00 0.02 0.08 0.12
0.00 0.01 0.00 0.00 0.00 0.00 0.01 0.02 0.09 0.11 0.23 0.06 0.08 0.03 0.05 0.10 0.10 0.13 0.11 0.10 0.14 0.05 0.04 0.04 0.03 0.02 0.01 0.00 0.00 0.00 0.00 0.00 0.00 0.00 0.00 0.00 0.00 0.00 0.01 0.03 0.15 0.09 0.01
0.00 0.00 0.00 0.00 0.00 0.01 0.02 0.02 0.04 0.10 0.15 0.07 0.05 0.10 0.21 0.22 0.16 0.14 0.19 0.07 0.05 0.03 0.02 0.01 0.01 0.00 0.00 0.00 0.00 0.00 0.00 0.00 0.00 0.00 0.00 0.00 0.00 0.01 0.04 0.08 0.06 0.01 0.00
0.00 0.00 0.00 0.01 0.04 0.08 0.08 0.07 0.07 0.10 0.31 0.31 0.29 0.27 0.44 0.31 0.31 0.19 0.11 0.13 0.13 0.08 0.03 0.01 0.01 0.00 0.00 0.00 0.00 0.00 0.00 0.00 0.00 0.00 0.00 0.00 0.01 0.02 0.07 0.04 0.01 0.00 0.00
0.12 0.14 0.08 0.16 0.24 0.37 0.35 0.41 0.43 0.60 0.83 0.54 0.52 0.53 0.59 0.39 0.31 0.29 0.20 0.11 0.05 0.02 0.01 0.00 0.00 0.00 0.00 0.00 0.00 0.00 0.00 0.00 0.00 0.00 0.00 0.00 0.02 0.04 0.03 0.02 0.00 0.01 0.03
0.12 0.33 0.47 0.52 0.60 0.72 0.65 0.62 0.68 0.66 0.76 0.54 0.39 0.32 0.19 0.15 0.10 0.08 0.05 0.02 0.01 0.00 0.00 0.00 0.00 0.00 0.00 0.00 0.00 0.00 0.00 0.00 0.00 0.00 0.00 0.00 0.03 0.02 0.00 0.00 0.01 0.02 0.01
0.03 0.12 0.22 0.13 0.18 0.29 0.33 0.25 0.23 0.21 0.16 0.13 0.06 0.04 0.02 0.01 0.00 0.00 0.00 0.00 0.00 0.00 0.00 0.00 0.00 0.00 0.00 0.00 0.00 0.00 0.00 0.00 0.01 0.01 0.02 0.01 0.00 0.00 0.00 0.00 0.00 0.00 0.00
0.02 0.04 0.04 0.04 0.04 0.04 0.04 0.03 0.02 0.01 0.01 0.01 0.01 0.00 0.00 0.00 0.00 0.00 0.00 0.00 0.00 0.00 0.00 0.00 0.00 0.00 0.00 0.00 0.00 0.00 0.00 0.00 0.01 0.01 0.01 0.00 0.00 0.00 0.00 0.00 0.00 0.00 0.00
0.00 0.00 0.01 0.02 0.00 0.00 0.00 0.00 0.00 0.00 0.00 0.00 0.00 0.00 0.00 0.00 0.00 0.00 0.00 0.00 0.00 0.00 0.00 0.00 0.00 0.00 0.00 0.00 0.00 0.00 0.01 0.01 0.01 0.01 0.00 0.00 0.00 0.00 0.00 0.00 0.00 0.00 0.00
0.00 0.00 0.00 0.00 0.00 0.00 0.00 0.00 0.00 0.00 0.00 0.00 0.00 0.00 0.00 0.00 0.00 0.00 0.00 0.00 0.00 0.00 0.00 0.00 0.00 0.00 0.00 0.00 0.00 0.00 0.02 0.01 0.01 0.00 0.00 0.00 0.00 0.00 0.00 0.00 0.00 0.00 0.00

GFSMW_prec_precacc24_057.txt.gz
Total_Precipitation_Accumulation
0.00 0.00 0.00 0.00 0.00 0.00 0.00 0.00 0.00 0.00 0.04 0.07 0.04 0.07 0.17 0.23 0.26 0.25 0.14 0.09 0.06 0.02 0.00 0.00 0.00 0.00 0.00 0.00 0.00 0.00 0.00 0.00 0.00 0.00 0.00 0.00 0.00 0.00 0.00 0.00 0.00 0.00 0.00
0.00 0.00 0.00 0.00 0.00 0.00 0.00 0.00 0.00 0.00 0.00 0.00 0.01 0.04 0.23 0.25 0.41 0.43 0.23 0.14 0.13 0.17 0.10 0.02 0.00 0.00 0.00 0.00 0.00 0.00 0.00 0.00 0.00 0.00 0.00 0.00 0.00 0.00 0.00 0.00 0.00 0.00 0.00
0.00 0.00 0.00 0.00 0.00 0.00 0.00 0.00 0.00 0.00 0.00 0.00 0.05 0.14 0.27 0.25 0.26 0.20 0.08 0.10 0.13 0.32 0.24 0.15 0.07 0.02 0.03 0.04 0.02 0.00 0.00 0.00 0.00 0.00 0.00 0.00 0.00 0.00 0.00 0.00 0.00 0.00 0.00
0.00 0.00 0.00 0.00 0.00 0.00 0.00 0.00 0.00 0.00 0.00 0.00 0.01 0.02 0.04 0.11 0.12 0.21 0.20 0.17 0.16 0.31 0.30 0.24 0.13 0.13 0.12 0.08 0.07 0.03 0.01 0.00 0.00 0.00 0.00 0.00 0.00 0.00 0.00 0.00 0.00 0.00 0.00
0.00 0.00 0.00 0.00 0.00 0.00 0.00 0.00 0.00 0.00 0.00 0.00 0.00 0.00 0.02 0.08 0.14 0.17 0.17 0.25 0.24 0.29 0.26 0.20 0.12 0.12 0.14 0.10 0.07 0.05 0.03 0.01 0.00 0.00 0.00 0.00 0.00 0.00 0.00 0.00 0.00 0.00 0.00
0.00 0.00 0.00 0.00 0.00 0.00 0.00 0.00 0.00 0.00 0.00 0.00 0.00 0.00 0.01 0.06 0.14 0.12 0.16 0.22 0.21 0.18 0.17 0.16 0.15 0.15 0.11 0.09 0.07 0.04 0.01 0.00 0.00 0.00 0.00 0.00 0.00 0.00 0.00 0.00 0.00 0.00 0.00
0.00 0.00 0.00 0.00 0.00 0.00 0.00 0.00 0.00 0.00 0.00 0.00 0.00 0.00 0.00 0.03 0.09 0.11 0.10 0.12 0.10 0.09 0.10 0.13 0.14 0.11 0.07 0.04 0.02 0.02 0.01 0.00 0.00 0.00 0.00 0.00 0.00 0.00 0.00 0.00 0.00 0.00 0.00
0.00 0.00 0.00 0.00 0.00 0.00 0.00 0.00 0.00 0.00 0.00 0.00 0.00 0.00 0.00 0.03 0.05 0.06 0.07 0.13 0.10 0.09 0.09 0.09 0.10 0.08 0.05 0.03 0.02 0.01 0.00 0.00 0.00 0.00 0.00 0.00 0.00 0.00 0.00 0.00 0.00 0.00 0.00
0.00 0.00 0.00 0.00 0.00 0.00 0.00 0.00 0.00 0.00 0.00 0.02 0.02 0.01 0.01 0.03 0.05 0.06 0.08 0.10 0.09 0.08 0.08 0.08 0.06 0.04 0.03 0.02 0.01 0.01 0.00 0.00 0.00 0.00 0.00 0.00 0.00 0.00 0.00 0.00 0.00 0.00 0.00
0.00 0.00 0.00 0.00 0.00 0.00 0.00 0.00 0.00 0.00 0.01 0.03 0.01 0.00 0.03 0.05 0.05 0.05 0.06 0.06 0.06 0.06 0.06 0.05 0.03 0.02 0.01 0.00 0.00 0.00 0.00 0.00 0.00 0.00 0.00 0.00 0.00 0.00 0.00 0.00 0.00 0.00 0.00
0.00 0.00 0.00 0.00 0.00 0.00 0.00 0.00 0.00 0.00 0.01 0.00 0.00 0.02 0.03 0.04 0.05 0.06 0.06 0.04 0.03 0.03 0.02 0.02 0.01 0.01 0.01 0.00 0.00 0.00 0.00 0.00 0.00 0.00 0.00 0.00 0.00 0.00 0.00 0.00 0.00 0.00 0.00
0.00 0.00 0.00 0.00 0.00 0.00 0.00 0.00 0.02 0.02 0.01 0.00 0.01 0.03 0.03 0.03 0.04 0.06 0.06 0.05 0.05 0.02 0.02 0.01 0.01 0.01 0.00 0.00 0.00 0.00 0.01 0.01 0.01 0.00 0.00 0.00 0.00 0.00 0.00 0.00 0.00 0.00 0.00
0.00 0.00 0.00 0.00 0.00 0.02 0.05 0.09 0.03 0.00 0.00 0.01 0.01 0.02 0.03 0.04 0.05 0.04 0.04 0.03 0.02 0.01 0.02 0.01 0.01 0.00 0.00 0.00 0.00 0.00 0.00 0.00 0.01 0.01 0.01 0.01 0.00 0.00 0.00 0.00 0.00 0.00 0.00
0.01 0.00 0.00 0.00 0.02 0.07 0.10 0.10 0.01 0.01 0.02 0.03 0.03 0.04 0.04 0.04 0.04 0.05 0.04 0.02 0.02 0.01 0.01 0.01 0.01 0.01 0.01 0.02 0.02 0.02 0.03 0.04 0.03 0.01 0.00 0.00 0.00 0.00 0.00 0.00 0.00 0.00 0.00
0.04 0.02 0.02 0.03 0.02 0.05 0.05 0.06 0.09 0.07 0.07 0.07 0.05 0.05 0.05 0.04 0.03 0.02 0.02 0.01 0.01 0.01 0.02 0.01 0.01 0.03 0.06 0.09 0.11 0.11 0.09 0.07 0.02 0.00 0.00 0.00 0.00 0.00 0.00 0.00 0.00 0.00 0.01
0.04 0.02 0.01 0.01 0.01 0.00 0.00 0.02 0.08 0.09 0.09 0.11 0.06 0.04 0.02 0.01 0.01 0.01 0.01 0.01 0.02 0.03 0.04 0.09 0.15 0.15 0.12 0.12 0.11 0.05 0.01 0.01 0.00 0.00 0.00 0.00 0.00 0.00 0.00 0.00 0.01 0.02 0.07
0.02 0.01 0.00 0.00 0.00 0.00 0.00 0.01 0.03 0.05 0.09 0.08 0.06 0.05 0.02 0.02 0.03 0.03 0.05 0.06 0.05 0.07 0.12 0.16 0.15 0.14 0.13 0.09 0.04 0.02 0.01 0.02 0.01 0.00 0.00 0.00 0.00 0.00 0.00 0.00 0.01 0.06 0.08
0.00 0.01 0.00 0.00 0.00 0.00 0.01 0.02 0.09 0.12 0.40 0.10 0.15 0.16 0.14 0.16 0.14 0.16 0.14 0.17 0.23 0.16 0.16 0.18 0.19 0.15 0.07 0.03 0.01 0.01 0.01 0.00 0.00 0.00 0.00 0.00 0.00 0.00 0.00 0.02 0.10 0.05 0.01
0.00 0.00 0.00 0.00 0.00 0.01 0.02 0.02 0.04 0.13 0.36 0.22 0.24 0.33 0.28 0.24 0.21 0.24 0.32 0.24 0.25 0.30 0.26 0.16 0.07 0.02 0.01 0.00 0.00 0.00 0.00 0.00 0.00 0.00 0.00 0.00 0.00 0.00 0.03 0.06 0.04 0.01 0.00
0.00 0.00 0.00 0.02 0.05 0.08 0.08 0.07 0.07 0.10 0.31 0.32 0.30 0.28 0.47 0.39 0.45 0.37 0.31 0.34 0.37 0.27 0.13 0.07 0.05 0.03 0.02 0.00 0.00 0.00 0.00 0.00 0.00 0.00 0.00 0.00 0.00 0.02 0.06 0.03 0.01 0.00 0.00
0.12 0.14 0.08 0.16 0.24 0.37 0.35 0.41 0.43 0.62 0.88 0.57 0.59 0.64 0.76 0.62 0.53 0.56 0.43 0.23 0.12 0.07 0.05 0.03 0.02 0.01 0.00 0.00 0.00 0.00 0.00 0.00 0.00 0.00 0.00 0.00 0.01 0.03 0.03 0.02 0.00 0.00 0.02
0.12 0.33 0.47 0.52 0.60 0.72 0.65 0.63 0.71 0.74 0.89 0.66 0.54 0.46 0.35 0.24 0.14 0.11 0.08 0.04 0.03 0.02 0.01 0.00 0.00 0.00 0.00 0.00 0.00 0.00 0.00 0.00 0.00 0.00 0.00 0.00 0.02 0.01 0.00 0.00 0.00 0.01 0.01
0.03 0.12 0.22 0.13 0.18 0.29 0.34 0.25 0.24 0.23 0.19 0.15 0.09 0.08 0.04 0.02 0.01 0.00 0.00 0.00 0.00 0.00 0.00 0.00 0.00 0.00 0.00 0.00 0.00 0.00 0.00 0.00 0.01 0.01 0.01 0.01 0.00 0.00 0.00 0.00 0.00 0.00 0.00
0.02 0.04 0.04 0.04 0.04 0.04 0.04 0.03 0.02 0.02 0.01 0.01 0.01 0.00 0.00 0.00 0.00 0.00 0.00 0.00 0.00 0.00 0.00 0.00 0.00 0.00 0.00 0.00 0.00 0.00 0.00 0.00 0.01 0.00 0.01 0.00 0.00 0.00 0.00 0.00 0.00 0.00 0.00
0.00 0.00 0.01 0.02 0.00 0.00 0.00 0.00 0.00 0.00 0.00 0.00 0.00 0.00 0.00 0.00 0.00 0.00 0.00 0.00 0.00 0.00 0.00 0.00 0.00 0.00 0.00 0.00 0.00 0.00 0.00 0.01 0.01 0.01 0.00 0.00 0.00 0.00 0.00 0.00 0.00 0.00 0.00
0.00 0.00 0.00 0.00 0.00 0.00 0.00 0.00 0.00 0.00 0.00 0.00 0.00 0.00 0.00 0.00 0.00 0.00 0.00 0.00 0.00 0.00 0.00 0.00 0.00 0.00 0.00 0.00 0.00 0.00 0.01 0.01 0.01 0.00 0.00 0.00 0.00 0.00 0.00 0.00 0.00 0.00 0.00

GFSMW_prec_precacc24_063.txt.gz
Total_Precipitation_Accumulation
0.00 0.00 0.00 0.00 0.00 0.00 0.00 0.00 0.00 0.00 0.04 0.07 0.04 0.09 0.15 0.23 0.26 0.31 0.27 0.19 0.11 0.12 0.04 0.01 0.00 0.00 0.00 0.00 0.00 0.00 0.00 0.00 0.00 0.00 0.00 0.00 0.00 0.00 0.00 0.00 0.00 0.00 0.00
0.00 0.00 0.00 0.00 0.00 0.00 0.00 0.00 0.00 0.00 0.00 0.00 0.01 0.04 0.16 0.20 0.40 0.54 0.29 0.25 0.21 0.32 0.16 0.04 0.05 0.02 0.00 0.00 0.00 0.00 0.00 0.00 0.00 0.00 0.00 0.00 0.00 0.00 0.00 0.00 0.00 0.00 0.00
0.00 0.00 0.00 0.00 0.00 0.00 0.00 0.00 0.00 0.00 0.00 0.00 0.05 0.14 0.22 0.22 0.26 0.21 0.08 0.10 0.21 0.48 0.35 0.24 0.21 0.03 0.04 0.07 0.04 0.03 0.03 0.01 0.00 0.00 0.00 0.00 0.00 0.00 0.00 0.00 0.00 0.00 0.00
0.00 0.00 0.00 0.00 0.00 0.00 0.00 0.00 0.00 0.00 0.00 0.00 0.01 0.02 0.02 0.08 0.11 0.21 0.20 0.17 0.17 0.39 0.45 0.38 0.27 0.22 0.19 0.14 0.17 0.12 0.09 0.07 0.04 0.01 0.00 0.00 0.00 0.00 0.00 0.00 0.00 0.00 0.00
0.00 0.00 0.00 0.00 0.00 0.00 0.00 0.00 0.00 0.00 0.00 0.00 0.00 0.00 0.02 0.06 0.14 0.17 0.17 0.25 0.25 0.34 0.39 0.27 0.22 0.18 0.22 0.20 0.20 0.16 0.10 0.08 0.05 0.03 0.02 0.01 0.00 0.00 0.00 0.00 0.00 0.00 0.00
0.00 0.00 0.00 0.00 0.00 0.00 0.00 0.00 0.00 0.00 0.00 0.00 0.00 0.00 0.01 0.06 0.14 0.13 0.16 0.23 0.25 0.23 0.25 0.26 0.22 0.24 0.20 0.16 0.16 0.14 0.07 0.04 0.03 0.02 0.01 0.01 0.00 0.00 0.00 0.00 0.00 0.00 0.00
0.00 0.00 0.00 0.00 0.00 0.00 0.00 0.00 0.00 0.00 0.00 0.00 0.00 0.00 0.00 0.03 0.10 0.12 0.11 0.16 0.16 0.13 0.16 0.23 0.24 0.23 0.21 0.18 0.12 0.10 0.07 0.05 0.03 0.01 0.01 0.00 0.00 0.00 0.00 0.01 0.00 0.00 0.00
0.00 0.00 0.00 0.00 0.00 0.00 0.00 0.00 0.00 0.00 0.00 0.00 0.00 0.00 0.00 0.03 0.05 0.07 0.07 0.14 0.13 0.16 0.17 0.20 0.24 0.24 0.24 0.20 0.14 0.10 0.07 0.04 0.03 0.02 0.00 0.00 0.00 0.00 0.00 0.00 0.01 0.00 0.00
0.00 0.00 0.00 0.00 0.00 0.00 0.00 0.00 0.00 0.00 0.00 0.02 0.02 0.01 0.01 0.03 0.05 0.06 0.08 0.10 0.09 0.10 0.13 0.15 0.15 0.17 0.17 0.16 0.13 0.09 0.05 0.02 0.01 0.01 0.00 0.01 0.00 0.00 0.00 0.00 0.00 0.00 0.00
0.00 0.00 0.00 0.00 0.00 0.00 0.00 0.00 0.00 0.00 0.01 0.03 0.01 0.00 0.03 0.05 0.05 0.05 0.06 0.06 0.07 0.07 0.10 0.10 0.10 0.09 0.09 0.08 0.07 0.04 0.02 0.00 0.00 0.00 0.00 0.00 0.00 0.00 0.00 0.02 0.03 0.04 0.03
0.00 0.00 0.00 0.00 0.00 0.00 0.00 0.00 0.00 0.00 0.01 0.00 0.00 0.02 0.03 0.04 0.05 0.06 0.06 0.04 0.03 0.04 0.03 0.03 0.04 0.03 0.02 0.01 0.01 0.01 0.01 0.01 0.01 0.00 0.00 0.01 0.02 0.02 0.03 0.05 0.05 0.05 0.03
0.00 0.00 0.00 0.00 0.00 0.00 0.00 0.00 0.02 0.02 0.01 0.00 0.01 0.03 0.03 0.03 0.04 0.06 0.06 0.05 0.05 0.03 0.02 0.01 0.01 0.01 0.00 0.00 0.00 0.00 0.01 0.01 0.01 0.01 0.01 0.02 0.03 0.06 0.07 0.08 0.07 0.03 0.01
0.00 0.00 0.00 0.00 0.00 0.02 0.05 0.09 0.03 0.00 0.00 0.01 0.01 0.02 0.03 0.04 0.05 0.04 0.04 0.03 0.02 0.02 0.02 0.02 0.01 0.01 0.00 0.00 0.00 0.00 0.00 0.01 0.02 0.04 0.06 0.10 0.16 0.18 0.18 0.11 0.04 0.02 0.01
0.01 0.00 0.00 0.00 0.02 0.07 0.10 0.10 0.01 0.01 0.02 0.03 0.03 0.04 0.05 0.05 0.04 0.05 0.05 0.03 0.03 0.02 0.02 0.02 0.01 0.01 0.01 0.03 0.03 0.04 0.05 0.06 0.09 0.11 0.15 0.19 0.19 0.13 0.08 0.04 0.02 0.01 0.01
0.04 0.02 0.02 0.03 0.02 0.05 0.05 0.06 0.09 0.07 0.07 0.07 0.05 0.05 0.05 0.05 0.04 0.04 0.05 0.05 0.04 0.04 0.04 0.03 0.02 0.04 0.08 0.10 0.13 0.16 0.20 0.25 0.30 0.31 0.26 0.19 0.10 0.05 0.02 0.00 0.00 0.00 0.01
0.04 0.02 0.01 0.01 0.01 0.00 0.00 0.02 0.08 0.09 0.09 0.11 0.06 0.04 0.02 0.05 0.05 0.06 0.06 0.06 0.14 0.12 0.08 0.11 0.16 0.16 0.15 0.22 0.19 0.17 0.18 0.18 0.16 0.11 0.08 0.05 0.03 0.02 0.01 0.00 0.00 0.01 0.02
0.02 0.01 0.00 0.00 0.00 0.00 0.00 0.01 0.03 0.05 0.09 0.08 0.06 0.05 0.03 0.04 0.07 0.09 0.16 0.20 0.21 0.46 0.41 0.32 0.25 0.20 0.23 0.29 0.24 0.20 0.17 0.14 0.10 0.08 0.06 0.04 0.02 0.00 0.00 0.00 0.00 0.01 0.03
0.00 0.01 0.00 0.00 0.00 0.00 0.01 0.02 0.09 0.12 0.40 0.10 0.15 0.16 0.14 0.17 0.20 0.33 0.42 0.42 0.35 0.27 0.32 0.52 0.49 0.41 0.39 0.29 0.15 0.08 0.07 0.06 0.05 0.03 0.01 0.00 0.00 0.00 0.00 0.00 0.02 0.02 0.01
0.00 0.00 0.00 0.00 0.00 0.02 0.02 0.02 0.04 0.14 0.36 0.22 0.25 0.36 0.31 0.28 0.26 0.40 0.48 0.33 0.46 0.56 0.48 0.39 0.29 0.18 0.11 0.06 0.05 0.05 0.06 0.04 0.02 0.00 0.00 0.00 0.00 0.00 0.01 0.02 0.02 0.01 0.00
0.00 0.00 0.00 0.02 0.05 0.08 0.08 0.07 0.07 0.10 0.31 0.32 0.31 0.30 0.48 0.40 0.48 0.44 0.49 0.71 0.56 0.52 0.39 0.28 0.18 0.11 0.08 0.05 0.03 0.01 0.01 0.00 0.00 0.00 0.00 0.00 0.00 0.00 0.02 0.03 0.01 0.00 0.00
0.12 0.14 0.08 0.16 0.24 0.37 0.35 0.41 0.43 0.62 0.88 0.57 0.60 0.64 0.78 0.67 0.60 0.65 0.56 0.48 0.34 0.24 0.18 0.11 0.05 0.03 0.02 0.00 0.00 0.00 0.00 0.00 0.00 0.00 0.00 0.00 0.00 0.01 0.02 0.01 0.00 0.00 0.01
0.12 0.33 0.48 0.53 0.60 0.72 0.65 0.63 0.71 0.75 0.91 0.67 0.59 0.57 0.49 0.43 0.34 0.27 0.18 0.10 0.09 0.05 0.03 0.01 0.00 0.00 0.00 0.00 0.00 0.00 0.00 0.00 0.00 0.00 0.00 0.00 0.01 0.01 0.00 0.00 0.00 0.00 0.00
0.03 0.12 0.22 0.13 0.18 0.29 0.34 0.25 0.24 0.23 0.20 0.16 0.13 0.13 0.08 0.05 0.03 0.00 0.00 0.00 0.00 0.00 0.00 0.00 0.00 0.00 0.00 0.00 0.00 0.00 0.00 0.00 0.00 0.00 0.01 0.00 0.00 0.00 0.00 0.00 0.00 0.00 0.00
0.02 0.04 0.04 0.04 0.04 0.04 0.04 0.03 0.02 0.02 0.01 0.01 0.01 0.00 0.00 0.00 0.00 0.00 0.00 0.00 0.00 0.00 0.00 0.00 0.00 0.00 0.00 0.00 0.00 0.00 0.00 0.00 0.00 0.00 0.00 0.00 0.00 0.00 0.00 0.00 0.00 0.00 0.00
0.00 0.00 0.01 0.02 0.00 0.00 0.00 0.00 0.00 0.00 0.00 0.00 0.00 0.00 0.00 0.00 0.00 0.00 0.00 0.00 0.00 0.00 0.00 0.00 0.00 0.00 0.00 0.00 0.00 0.00 0.00 0.00 0.01 0.00 0.00 0.00 0.00 0.00 0.00 0.00 0.00 0.00 0.00
0.00 0.00 0.00 0.00 0.00 0.00 0.00 0.00 0.00 0.00 0.00 0.00 0.00 0.00 0.00 0.00 0.00 0.00 0.00 0.00 0.00 0.00 0.00 0.00 0.00 0.00 0.00 0.00 0.00 0.00 0.01 0.00 0.00 0.00 0.00 0.00 0.00 0.00 0.00 0.00 0.00 0.00 0.00

GFSMW_prec_precacc24_066.txt.gz
Total_Precipitation_Accumulation
0.00 0.00 0.00 0.00 0.00 0.00 0.00 0.00 0.00 0.00 0.04 0.07 0.04 0.09 0.15 0.19 0.19 0.23 0.24 0.20 0.12 0.12 0.06 0.01 0.00 0.00 0.00 0.00 0.00 0.00 0.00 0.00 0.00 0.00 0.00 0.00 0.00 0.00 0.00 0.00 0.00 0.00 0.00
0.00 0.00 0.00 0.00 0.00 0.00 0.00 0.00 0.00 0.00 0.00 0.00 0.01 0.04 0.16 0.15 0.32 0.51 0.27 0.22 0.20 0.31 0.16 0.06 0.06 0.02 0.00 0.00 0.00 0.00 0.00 0.00 0.00 0.00 0.00 0.00 0.00 0.00 0.00 0.00 0.00 0.00 0.00
0.00 0.00 0.00 0.00 0.00 0.00 0.00 0.00 0.00 0.00 0.00 0.00 0.05 0.14 0.22 0.20 0.25 0.20 0.07 0.08 0.20 0.48 0.36 0.27 0.24 0.12 0.07 0.07 0.04 0.03 0.03 0.01 0.00 0.00 0.00 0.00 0.00 0.00 0.00 0.00 0.00 0.00 0.00
0.00 0.00 0.00 0.00 0.00 0.00 0.00 0.00 0.00 0.00 0.00 0.00 0.01 0.02 0.01 0.06 0.08 0.20 0.18 0.14 0.17 0.39 0.47 0.41 0.31 0.28 0.24 0.16 0.20 0.14 0.09 0.08 0.04 0.01 0.00 0.00 0.00 0.00 0.00 0.00 0.00 0.00 0.00
0.00 0.00 0.00 0.00 0.00 0.00 0.00 0.00 0.00 0.00 0.00 0.00 0.00 0.00 0.02 0.06 0.10 0.16 0.16 0.23 0.25 0.35 0.41 0.32 0.26 0.20 0.25 0.25 0.23 0.19 0.14 0.12 0.06 0.05 0.02 0.01 0.00 0.00 0.00 0.00 0.00 0.00 0.00
0.00 0.00 0.00 0.00 0.00 0.00 0.00 0.00 0.00 0.00 0.00 0.00 0.00 0.00 0.00 0.03 0.10 0.12 0.16 0.22 0.25 0.23 0.26 0.30 0.27 0.31 0.24 0.21 0.21 0.20 0.14 0.10 0.07 0.05 0.03 0.02 0.00 0.00 0.00 0.00 0.00 0.00 0.00
0.00 0.00 0.00 0.00 0.00 0.00 0.00 0.00 0.00 0.00 0.00 0.00 0.00 0.00 0.00 0.02 0.07 0.12 0.11 0.15 0.16 0.13 0.16 0.24 0.27 0.27 0.26 0.25 0.20 0.16 0.14 0.10 0.07 0.05 0.03 0.01 0.00 0.00 0.01 0.01 0.01 0.01 0.00
0.00 0.00 0.00 0.00 0.00 0.00 0.00 0.00 0.00 0.00 0.00 0.00 0.00 0.00 0.00 0.03 0.05 0.07 0.07 0.14 0.13 0.16 0.17 0.20 0.24 0.26 0.27 0.25 0.20 0.17 0.14 0.11 0.08 0.05 0.02 0.00 0.00 0.00 0.00 0.00 0.01 0.02 0.02
0.00 0.00 0.00 0.00 0.00 0.00 0.00 0.00 0.00 0.00 0.00 0.02 0.02 0.01 0.01 0.03 0.05 0.06 0.08 0.10 0.09 0.10 0.13 0.15 0.15 0.17 0.19 0.19 0.18 0.16 0.14 0.12 0.11 0.10 0.09 0.05 0.02 0.02 0.02 0.03 0.02 0.01 0.01
0.00 0.00 0.00 0.00 0.00 0.00 0.00 0.00 0.00 0.00 0.01 0.03 0.01 0.00 0.03 0.05 0.05 0.05 0.06 0.06 0.07 0.07 0.10 0.10 0.10 0.09 0.09 0.08 0.08 0.07 0.07 0.10 0.11 0.11 0.11 0.07 0.01 0.01 0.01 0.03 0.04 0.05 0.05
0.00 0.00 0.00 0.00 0.00 0.00 0.00 0.00 0.00 0.00 0.01 0.00 0.00 0.02 0.03 0.04 0.05 0.06 0.06 0.04 0.03 0.04 0.03 0.03 0.04 0.03 0.03 0.02 0.01 0.02 0.02 0.03 0.06 0.09 0.09 0.07 0.05 0.03 0.04 0.06 0.07 0.11 0.16
0.00 0.00 0.00 0.00 0.00 0.00 0.00 0.00 0.02 0.02 0.01 0.00 0.01 0.03 0.03 0.03 0.04 0.06 0.06 0.05 0.05 0.03 0.02 0.01 0.01 0.01 0.01 0.00 0.01 0.01 0.01 0.01 0.01 0.01 0.01 0.02 0.03 0.06 0.09 0.12 0.15 0.17 0.16
0.00 0.00 0.00 0.00 0.00 0.02 0.05 0.09 0.03 0.00 0.00 0.01 0.01 0.02 0.03 0.04 0.05 0.04 0.04 0.03 0.02 0.02 0.02 0.02 0.01 0.01 0.00 0.00 0.00 0.00 0.01 0.02 0.03 0.04 0.06 0.10 0.17 0.23 0.27 0.29 0.27 0.22 0.14
0.01 0.00 0.00 0.00 0.02 0.07 0.10 0.10 0.01 0.01 0.02 0.03 0.03 0.04 0.05 0.05 0.04 0.05 0.05 0.03 0.03 0.02 0.02 0.02 0.01 0.01 0.02 0.03 0.04 0.05 0.06 0.07 0.09 0.11 0.15 0.20 0.23 0.23 0.20 0.14 0.08 0.04 0.02
0.04 0.02 0.02 0.03 0.02 0.05 0.05 0.06 0.09 0.07 0.07 0.07 0.05 0.05 0.05 0.05 0.04 0.04 0.05 0.05 0.04 0.04 0.04 0.03 0.02 0.04 0.08 0.12 0.16 0.18 0.22 0.26 0.31 0.33 0.32 0.27 0.19 0.12 0.05 0.01 0.00 0.00 0.00
0.04 0.02 0.01 0.01 0.01 0.00 0.00 0.02 0.08 0.09 0.09 0.11 0.06 0.04 0.02 0.05 0.05 0.06 0.06 0.07 0.14 0.12 0.10 0.13 0.17 0.17 0.17 0.27 0.23 0.19 0.19 0.21 0.20 0.16 0.12 0.08 0.05 0.03 0.02 0.00 0.00 0.00 0.01
0.02 0.01 0.00 0.00 0.00 0.00 0.00 0.01 0.03 0.05 0.09 0.08 0.06 0.05 0.03 0.04 0.07 0.09 0.16 0.21 0.27 0.56 0.55 0.55 0.39 0.36 0.38 0.40 0.30 0.24 0.21 0.21 0.17 0.12 0.08 0.05 0.03 0.01 0.00 0.00 0.00 0.00 0.01
0.00 0.01 0.00 0.00 0.00 0.00 0.01 0.02 0.09 0.12 0.40 0.10 0.15 0.16 0.14 0.17 0.20 0.33 0.45 0.48 0.47 0.47 0.53 0.86 0.87 0.84 0.71 0.53 0.32 0.17 0.10 0.07 0.06 0.04 0.01 0.00 0.00 0.00 0.00 0.00 0.00 0.01 0.00
0.00 0.00 0.00 0.00 0.00 0.02 0.02 0.02 0.04 0.14 0.36 0.22 0.25 0.36 0.31 0.28 0.26 0.40 0.50 0.37 0.51 0.67 0.61 0.53 0.42 0.33 0.25 0.15 0.09 0.07 0.07 0.05 0.03 0.01 0.00 0.00 0.00 0.00 0.00 0.01 0.01 0.00 0.00
0.00 0.00 0.00 0.02 0.05 0.08 0.08 0.07 0.07 0.10 0.31 0.33 0.31 0.30 0.48 0.40 0.48 0.44 0.49 0.75 0.60 0.54 0.44 0.34 0.22 0.16 0.10 0.07 0.04 0.01 0.01 0.00 0.00 0.00 0.00 0.00 0.00 0.00 0.01 0.02 0.01 0.00 0.00
0.12 0.14 0.08 0.16 0.24 0.37 0.35 0.41 0.43 0.62 0.88 0.57 0.60 0.64 0.78 0.67 0.61 0.66 0.57 0.50 0.37 0.26 0.20 0.12 0.06 0.03 0.02 0.00 0.00 0.00 0.00 0.00 0.00 0.00 0.00 0.00 0.00 0.01 0.01 0.01 0.00 0.00 0.00
0.12 0.33 0.47 0.53 0.60 0.72 0.65 0.63 0.71 0.75 0.91 0.67 0.59 0.57 0.49 0.44 0.35 0.27 0.18 0.10 0.09 0.05 0.03 0.01 0.00 0.00 0.00 0.00 0.00 0.00 0.00 0.00 0.00 0.00 0.00 0.00 0.01 0.01 0.00 0.00 0.00 0.00 0.00
0.03 0.12 0.22 0.13 0.18 0.29 0.34 0.25 0.24 0.23 0.20 0.16 0.13 0.13 0.08 0.05 0.03 0.00 0.00 0.00 0.00 0.00 0.00 0.00 0.00 0.00 0.00 0.00 0.00 0.00 0.00 0.00 0.00 0.00 0.00 0.00 0.00 0.00 0.00 0.00 0.00 0.00 0.00
0.02 0.04 0.04 0.04 0.04 0.05 0.04 0.03 0.02 0.02 0.01 0.01 0.01 0.00 0.00 0.00 0.00 0.00 0.00 0.00 0.00 0.00 0.00 0.00 0.00 0.00 0.00 0.00 0.00 0.00 0.00 0.00 0.00 0.00 0.00 0.00 0.00 0.00 0.00 0.00 0.00 0.00 0.00
0.00 0.00 0.01 0.02 0.00 0.00 0.00 0.00 0.00 0.00 0.00 0.00 0.00 0.00 0.00 0.00 0.00 0.00 0.00 0.00 0.00 0.00 0.00 0.00 0.00 0.00 0.00 0.00 0.00 0.00 0.00 0.00 0.00 0.00 0.00 0.00 0.00 0.00 0.00 0.00 0.00 0.00 0.00
0.00 0.00 0.00 0.00 0.00 0.00 0.00 0.00 0.00 0.00 0.00 0.00 0.00 0.00 0.00 0.00 0.00 0.00 0.00 0.00 0.00 0.00 0.00 0.00 0.00 0.00 0.00 0.00 0.00 0.00 0.00 0.00 0.00 0.00 0.00 0.00 0.00 0.00 0.00 0.00 0.00 0.00 0.00

GFSMW_prec_precacc24_069.txt.gz
Total_Precipitation_Accumulation
0.00 0.00 0.00 0.00 0.00 0.00 0.00 0.00 0.00 0.00 0.04 0.07 0.05 0.10 0.18 0.22 0.14 0.17 0.21 0.19 0.11 0.13 0.06 0.01 0.00 0.00 0.00 0.00 0.00 0.00 0.00 0.00 0.00 0.00 0.00 0.00 0.00 0.00 0.00 0.00 0.00 0.00 0.00
0.00 0.00 0.00 0.00 0.00 0.00 0.00 0.00 0.00 0.00 0.00 0.00 0.01 0.04 0.17 0.16 0.27 0.45 0.23 0.17 0.13 0.27 0.16 0.06 0.07 0.03 0.00 0.00 0.00 0.00 0.00 0.00 0.00 0.00 0.00 0.00 0.00 0.00 0.00 0.00 0.00 0.00 0.00
0.00 0.00 0.00 0.00 0.00 0.00 0.00 0.00 0.00 0.00 0.00 0.00 0.05 0.14 0.22 0.20 0.23 0.18 0.04 0.04 0.13 0.42 0.34 0.27 0.24 0.13 0.07 0.07 0.04 0.03 0.03 0.01 0.00 0.00 0.00 0.00 0.00 0.00 0.00 0.00 0.00 0.00 0.00
0.00 0.00 0.00 0.00 0.00 0.00 0.00 0.00 0.00 0.00 0.00 0.00 0.01 0.02 0.01 0.06 0.06 0.15 0.13 0.10 0.13 0.38 0.50 0.44 0.32 0.29 0.25 0.17 0.22 0.14 0.10 0.08 0.04 0.01 0.00 0.00 0.00 0.00 0.00 0.00 0.00 0.00 0.00
0.00 0.00 0.00 0.00 0.00 0.00 0.00 0.00 0.00 0.00 0.00 0.00 0.00 0.00 0.02 0.06 0.09 0.13 0.14 0.20 0.21 0.34 0.45 0.41 0.31 0.24 0.31 0.30 0.28 0.22 0.17 0.14 0.08 0.07 0.04 0.01 0.00 0.00 0.00 0.00 0.00 0.00 0.00
0.00 0.00 0.00 0.00 0.00 0.00 0.00 0.00 0.00 0.00 0.00 0.00 0.00 0.00 0.00 0.03 0.09 0.09 0.12 0.17 0.21 0.23 0.27 0.31 0.31 0.40 0.29 0.28 0.29 0.28 0.21 0.15 0.11 0.07 0.05 0.05 0.03 0.02 0.02 0.02 0.00 0.00 0.00
0.00 0.00 0.00 0.00 0.00 0.00 0.00 0.00 0.00 0.00 0.00 0.00 0.00 0.00 0.00 0.02 0.05 0.07 0.07 0.13 0.14 0.12 0.16 0.24 0.28 0.29 0.29 0.28 0.24 0.22 0.19 0.16 0.13 0.10 0.08 0.05 0.03 0.02 0.02 0.02 0.02 0.01 0.00
0.00 0.00 0.00 0.00 0.00 0.00 0.00 0.00 0.00 0.00 0.00 0.00 0.00 0.00 0.00 0.03 0.05 0.05 0.06 0.14 0.13 0.16 0.17 0.20 0.25 0.27 0.27 0.27 0.22 0.19 0.17 0.16 0.14 0.12 0.09 0.05 0.03 0.02 0.01 0.01 0.02 0.03 0.03
0.00 0.00 0.00 0.00 0.00 0.00 0.00 0.00 0.00 0.00 0.00 0.02 0.02 0.01 0.01 0.03 0.04 0.05 0.08 0.09 0.09 0.09 0.13 0.16 0.15 0.18 0.19 0.20 0.21 0.21 0.18 0.17 0.17 0.16 0.15 0.15 0.14 0.14 0.15 0.16 0.18 0.18 0.16
0.00 0.00 0.00 0.00 0.00 0.00 0.00 0.00 0.00 0.00 0.01 0.03 0.01 0.00 0.03 0.05 0.05 0.05 0.06 0.06 0.06 0.07 0.10 0.10 0.10 0.10 0.09 0.09 0.09 0.10 0.10 0.14 0.15 0.16 0.17 0.19 0.19 0.20 0.21 0.20 0.18 0.19 0.17
0.00 0.00 0.00 0.00 0.00 0.00 0.00 0.00 0.00 0.00 0.01 0.00 0.00 0.02 0.03 0.04 0.05 0.06 0.06 0.04 0.03 0.04 0.03 0.03 0.04 0.03 0.03 0.02 0.02 0.03 0.03 0.05 0.09 0.12 0.12 0.11 0.10 0.14 0.18 0.22 0.21 0.22 0.25
0.00 0.00 0.00 0.00 0.00 0.00 0.00 0.00 0.02 0.02 0.01 0.00 0.01 0.03 0.03 0.03 0.04 0.06 0.05 0.05 0.05 0.03 0.02 0.01 0.01 0.01 0.01 0.00 0.01 0.01 0.01 0.02 0.02 0.03 0.04 0.05 0.06 0.09 0.13 0.17 0.18 0.19 0.18
0.00 0.00 0.00 0.00 0.00 0.02 0.05 0.09 0.03 0.00 0.00 0.01 0.01 0.02 0.03 0.04 0.05 0.04 0.04 0.03 0.02 0.02 0.02 0.02 0.01 0.01 0.00 0.00 0.00 0.00 0.01 0.02 0.04 0.06 0.08 0.13 0.18 0.24 0.28 0.30 0.28 0.24 0.17
0.01 0.00 0.00 0.00 0.02 0.07 0.10 0.10 0.01 0.01 0.02 0.03 0.03 0.04 0.05 0.05 0.04 0.05 0.05 0.03 0.03 0.02 0.02 0.02 0.01 0.01 0.02 0.03 0.04 0.05 0.07 0.09 0.11 0.14 0.17 0.21 0.24 0.24 0.21 0.17 0.11 0.06 0.03
0.03 0.01 0.02 0.03 0.02 0.05 0.05 0.06 0.09 0.07 0.07 0.06 0.05 0.05 0.05 0.05 0.04 0.04 0.05 0.05 0.04 0.04 0.04 0.03 0.02 0.04 0.08 0.12 0.16 0.19 0.23 0.29 0.34 0.36 0.33 0.28 0.21 0.14 0.07 0.02 0.01 0.00 0.00
0.02 0.01 0.01 0.01 0.01 0.00 0.00 0.02 0.08 0.08 0.09 0.10 0.06 0.04 0.02 0.05 0.05 0.06 0.06 0.07 0.14 0.12 0.10 0.13 0.17 0.18 0.18 0.29 0.23 0.20 0.22 0.24 0.24 0.21 0.16 0.10 0.07 0.04 0.03 0.02 0.01 0.01 0.00
0.02 0.01 0.00 0.00 0.00 0.00 0.00 0.01 0.03 0.05 0.09 0.08 0.05 0.05 0.03 0.04 0.07 0.09 0.16 0.21 0.27 0.56 0.55 0.55 0.41 0.43 0.49 0.52 0.41 0.39 0.39 0.36 0.31 0.23 0.14 0.06 0.04 0.02 0.01 0.00 0.00 0.00 0.00
0.00 0.01 0.00 0.00 0.00 0.00 0.00 0.01 0.08 0.12 0.39 0.10 0.15 0.16 0.14 0.17 0.20 0.33 0.45 0.48 0.47 0.48 0.55 0.89 0.94 0.94 0.89 0.77 0.56 0.37 0.26 0.16 0.11 0.07 0.03 0.01 0.00 0.00 0.00 0.00 0.00 0.00 0.00
0.00 0.00 0.00 0.00 0.00 0.00 0.00 0.01 0.03 0.13 0.35 0.21 0.25 0.36 0.31 0.28 0.26 0.40 0.50 0.37 0.51 0.67 0.62 0.54 0.44 0.36 0.29 0.20 0.14 0.11 0.11 0.09 0.05 0.02 0.00 0.00 0.00 0.00 0.00 0.00 0.00 0.00 0.00
0.00 0.00 0.00 0.00 0.01 0.01 0.03 0.04 0.04 0.08 0.30 0.32 0.31 0.30 0.48 0.40 0.48 0.44 0.49 0.75 0.60 0.54 0.44 0.34 0.23 0.16 0.10 0.07 0.04 0.01 0.01 0.00 0.00 0.00 0.00 0.00 0.00 0.00 0.01 0.01 0.00 0.00 0.00
0.11 0.13 0.07 0.15 0.21 0.35 0.34 0.40 0.43 0.62 0.88 0.57 0.60 0.64 0.78 0.67 0.61 0.66 0.57 0.50 0.37 0.26 0.20 0.12 0.06 0.03 0.02 0.00 0.00 0.00 0.00 0.00 0.00 0.00 0.00 0.00 0.00 0.01 0.01 0.01 0.00 0.00 0.00
0.12 0.33 0.47 0.53 0.60 0.72 0.65 0.63 0.71 0.75 0.91 0.67 0.59 0.57 0.49 0.44 0.35 0.27 0.18 0.10 0.09 0.05 0.03 0.01 0.00 0.00 0.00 0.00 0.00 0.00 0.00 0.00 0.00 0.00 0.00 0.00 0.00 0.01 0.00 0.00 0.00 0.00 0.00
0.02 0.09 0.19 0.12 0.17 0.29 0.34 0.25 0.24 0.23 0.20 0.16 0.13 0.13 0.08 0.05 0.03 0.00 0.00 0.00 0.00 0.00 0.00 0.00 0.00 0.00 0.00 0.00 0.00 0.00 0.00 0.00 0.00 0.00 0.00 0.00 0.00 0.00 0.00 0.00 0.00 0.00 0.00
0.02 0.03 0.04 0.04 0.04 0.05 0.04 0.03 0.02 0.02 0.01 0.01 0.01 0.00 0.00 0.00 0.00 0.00 0.00 0.00 0.00 0.00 0.00 0.00 0.00 0.00 0.00 0.00 0.00 0.00 0.00 0.00 0.00 0.00 0.00 0.00 0.00 0.00 0.00 0.00 0.00 0.00 0.00
0.00 0.00 0.01 0.02 0.00 0.00 0.00 0.00 0.00 0.00 0.00 0.00 0.00 0.00 0.00 0.00 0.00 0.00 0.00 0.00 0.00 0.00 0.00 0.00 0.00 0.00 0.00 0.00 0.00 0.00 0.00 0.00 0.00 0.00 0.00 0.00 0.00 0.00 0.00 0.00 0.00 0.00 0.00
0.00 0.00 0.00 0.00 0.00 0.00 0.00 0.00 0.00 0.00 0.00 0.00 0.00 0.00 0.00 0.00 0.00 0.00 0.00 0.00 0.00 0.00 0.00 0.00 0.00 0.00 0.00 0.00 0.00 0.00 0.00 0.00 0.00 0.00 0.00 0.00 0.00 0.00 0.00 0.00 0.00 0.00 0.00

GFSMW_prec_precacc24_072.txt.gz
Total_Precipitation_Accumulation
0.00 0.00 0.00 0.00 0.00 0.00 0.00 0.00 0.00 0.00 0.04 0.07 0.05 0.11 0.18 0.23 0.13 0.15 0.20 0.16 0.10 0.12 0.06 0.01 0.00 0.00 0.00 0.00 0.00 0.00 0.00 0.00 0.00 0.00 0.00 0.00 0.00 0.00 0.00 0.00 0.00 0.00 0.00
0.00 0.00 0.00 0.00 0.00 0.00 0.00 0.00 0.00 0.00 0.00 0.00 0.02 0.04 0.16 0.15 0.28 0.45 0.21 0.16 0.13 0.28 0.16 0.06 0.07 0.04 0.01 0.01 0.00 0.00 0.00 0.00 0.00 0.00 0.00 0.00 0.00 0.00 0.00 0.00 0.00 0.00 0.00
0.00 0.00 0.00 0.00 0.00 0.00 0.00 0.00 0.00 0.00 0.00 0.00 0.05 0.14 0.21 0.20 0.22 0.17 0.04 0.05 0.15 0.41 0.33 0.28 0.24 0.15 0.08 0.12 0.06 0.11 0.06 0.02 0.01 0.00 0.00 0.00 0.00 0.00 0.00 0.00 0.00 0.00 0.00
0.00 0.00 0.00 0.00 0.00 0.00 0.00 0.00 0.00 0.00 0.00 0.00 0.01 0.02 0.01 0.05 0.04 0.10 0.10 0.09 0.11 0.40 0.54 0.47 0.34 0.31 0.26 0.21 0.32 0.20 0.20 0.15 0.07 0.04 0.01 0.00 0.00 0.00 0.00 0.00 0.00 0.00 0.00
0.00 0.00 0.00 0.00 0.00 0.00 0.00 0.00 0.00 0.00 0.00 0.00 0.00 0.00 0.02 0.05 0.07 0.12 0.13 0.18 0.19 0.32 0.45 0.46 0.34 0.27 0.32 0.32 0.34 0.32 0.23 0.22 0.14 0.11 0.09 0.04 0.02 0.01 0.01 0.00 0.00 0.00 0.00
0.00 0.00 0.00 0.00 0.00 0.00 0.00 0.00 0.00 0.00 0.00 0.00 0.00 0.00 0.00 0.03 0.09 0.09 0.11 0.15 0.19 0.21 0.27 0.31 0.32 0.43 0.31 0.31 0.33 0.36 0.29 0.18 0.15 0.10 0.10 0.12 0.10 0.06 0.05 0.04 0.01 0.01 0.00
0.00 0.00 0.00 0.00 0.00 0.00 0.00 0.00 0.00 0.00 0.00 0.00 0.00 0.00 0.00 0.02 0.05 0.07 0.07 0.12 0.13 0.11 0.17 0.25 0.28 0.30 0.30 0.29 0.25 0.24 0.21 0.19 0.17 0.15 0.14 0.12 0.10 0.08 0.08 0.07 0.05 0.03 0.01
0.00 0.00 0.00 0.00 0.00 0.00 0.00 0.00 0.00 0.00 0.00 0.00 0.00 0.00 0.00 0.03 0.05 0.05 0.06 0.10 0.10 0.14 0.17 0.20 0.25 0.27 0.28 0.27 0.24 0.21 0.20 0.20 0.20 0.18 0.15 0.10 0.07 0.08 0.07 0.07 0.07 0.11 0.12
0.00 0.00 0.00 0.00 0.00 0.00 0.00 0.00 0.00 0.00 0.00 0.02 0.02 0.01 0.01 0.03 0.04 0.05 0.07 0.08 0.08 0.09 0.13 0.15 0.15 0.19 0.21 0.22 0.23 0.24 0.23 0.23 0.24 0.23 0.23 0.18 0.18 0.18 0.18 0.18 0.21 0.30 0.40
0.00 0.00 0.00 0.00 0.00 0.00 0.00 0.00 0.00 0.00 0.01 0.03 0.01 0.00 0.03 0.05 0.05 0.05 0.06 0.06 0.06 0.07 0.09 0.10 0.10 0.10 0.09 0.09 0.10 0.11 0.12 0.18 0.21 0.21 0.25 0.25 0.23 0.23 0.24 0.27 0.32 0.39 0.47
0.00 0.00 0.00 0.00 0.00 0.00 0.00 0.00 0.00 0.00 0.01 0.00 0.00 0.02 0.03 0.04 0.05 0.06 0.06 0.04 0.03 0.04 0.03 0.03 0.04 0.03 0.03 0.02 0.02 0.03 0.03 0.06 0.11 0.14 0.16 0.16 0.13 0.17 0.24 0.30 0.34 0.40 0.45
0.00 0.00 0.00 0.00 0.00 0.00 0.00 0.00 0.01 0.02 0.01 0.00 0.01 0.03 0.03 0.03 0.04 0.06 0.05 0.05 0.04 0.03 0.02 0.01 0.01 0.01 0.01 0.00 0.01 0.01 0.02 0.02 0.03 0.03 0.05 0.07 0.09 0.12 0.16 0.19 0.23 0.25 0.25
0.00 0.00 0.00 0.00 0.00 0.00 0.01 0.05 0.03 0.00 0.00 0.01 0.01 0.02 0.03 0.03 0.05 0.04 0.04 0.03 0.02 0.01 0.02 0.02 0.01 0.01 0.00 0.00 0.00 0.00 0.01 0.03 0.04 0.06 0.09 0.14 0.20 0.26 0.30 0.32 0.30 0.25 0.19
0.01 0.00 0.00 0.00 0.02 0.03 0.04 0.08 0.01 0.01 0.02 0.03 0.03 0.04 0.05 0.05 0.04 0.05 0.04 0.03 0.03 0.02 0.02 0.02 0.01 0.01 0.02 0.03 0.04 0.05 0.08 0.10 0.12 0.14 0.18 0.22 0.25 0.25 0.23 0.19 0.12 0.07 0.03
0.02 0.01 0.02 0.03 0.02 0.04 0.03 0.06 0.09 0.07 0.07 0.06 0.04 0.05 0.05 0.05 0.04 0.04 0.05 0.05 0.04 0.04 0.04 0.03 0.02 0.04 0.08 0.12 0.16 0.19 0.23 0.29 0.34 0.36 0.35 0.31 0.26 0.19 0.12 0.06 0.02 0.00 0.00
0.01 0.01 0.01 0.01 0.01 0.00 0.00 0.02 0.08 0.08 0.09 0.09 0.04 0.03 0.02 0.05 0.05 0.06 0.06 0.07 0.14 0.12 0.10 0.13 0.17 0.18 0.18 0.29 0.24 0.20 0.22 0.25 0.24 0.22 0.21 0.21 0.21 0.15 0.08 0.03 0.02 0.01 0.00
0.01 0.00 0.00 0.00 0.00 0.00 0.00 0.01 0.03 0.04 0.08 0.06 0.04 0.04 0.03 0.04 0.07 0.09 0.16 0.21 0.27 0.56 0.55 0.55 0.41 0.43 0.49 0.52 0.41 0.39 0.41 0.40 0.36 0.33 0.29 0.19 0.12 0.07 0.04 0.01 0.00 0.00 0.00
0.00 0.00 0.00 0.00 0.00 0.00 0.00 0.00 0.07 0.11 0.37 0.09 0.14 0.16 0.14 0.17 0.20 0.33 0.45 0.48 0.47 0.48 0.55 0.89 0.94 0.94 0.90 0.77 0.56 0.38 0.29 0.20 0.16 0.12 0.08 0.04 0.02 0.00 0.00 0.00 0.00 0.00 0.00
0.00 0.00 0.00 0.00 0.00 0.00 0.00 0.00 0.02 0.13 0.34 0.21 0.24 0.34 0.30 0.28 0.26 0.40 0.50 0.37 0.51 0.67 0.62 0.54 0.44 0.36 0.29 0.20 0.14 0.11 0.11 0.09 0.06 0.02 0.00 0.00 0.00 0.00 0.00 0.00 0.00 0.00 0.00
0.00 0.00 0.00 0.00 0.00 0.00 0.00 0.01 0.02 0.04 0.25 0.26 0.26 0.26 0.46 0.39 0.48 0.44 0.49 0.75 0.60 0.54 0.44 0.34 0.23 0.16 0.10 0.07 0.04 0.01 0.01 0.00 0.00 0.00 0.00 0.00 0.00 0.00 0.00 0.01 0.00 0.00 0.00
0.01 0.01 0.00 0.01 0.02 0.04 0.04 0.14 0.21 0.39 0.69 0.44 0.45 0.57 0.77 0.67 0.61 0.66 0.57 0.50 0.37 0.26 0.20 0.12 0.06 0.03 0.02 0.00 0.00 0.00 0.00 0.00 0.00 0.00 0.00 0.00 0.00 0.01 0.01 0.00 0.00 0.00 0.00
0.07 0.27 0.32 0.34 0.36 0.37 0.38 0.39 0.52 0.64 0.84 0.65 0.58 0.57 0.49 0.44 0.35 0.27 0.18 0.10 0.09 0.05 0.03 0.01 0.00 0.00 0.00 0.00 0.00 0.00 0.00 0.00 0.00 0.00 0.00 0.00 0.00 0.00 0.00 0.00 0.00 0.00 0.00
0.02 0.08 0.19 0.12 0.17 0.28 0.33 0.25 0.24 0.23 0.20 0.16 0.13 0.13 0.08 0.05 0.03 0.00 0.00 0.00 0.00 0.00 0.00 0.00 0.00 0.00 0.00 0.00 0.00 0.00 0.00 0.00 0.00 0.00 0.00 0.00 0.00 0.00 0.00 0.00 0.00 0.00 0.00
0.00 0.00 0.00 0.01 0.01 0.03 0.04 0.02 0.02 0.02 0.01 0.01 0.01 0.00 0.00 0.00 0.00 0.00 0.00 0.00 0.00 0.00 0.00 0.00 0.00 0.00 0.00 0.00 0.00 0.00 0.00 0.00 0.00 0.00 0.00 0.00 0.00 0.00 0.00 0.00 0.00 0.00 0.00
0.00 0.00 0.01 0.02 0.00 0.00 0.00 0.00 0.00 0.00 0.00 0.00 0.00 0.00 0.00 0.00 0.00 0.00 0.00 0.00 0.00 0.00 0.00 0.00 0.00 0.00 0.00 0.00 0.00 0.00 0.00 0.00 0.00 0.00 0.00 0.00 0.00 0.00 0.00 0.00 0.00 0.00 0.00
0.00 0.00 0.00 0.00 0.00 0.00 0.00 0.00 0.00 0.00 0.00 0.00 0.00 0.00 0.00 0.00 0.00 0.00 0.00 0.00 0.00 0.00 0.00 0.00 0.00 0.00 0.00 0.00 0.00 0.00 0.00 0.00 0.00 0.00 0.00 0.00 0.00 0.00 0.00 0.00 0.00 0.00 0.00

GFSMW_prec_precacc24_075.txt.gz
Total_Precipitation_Accumulation
0.00 0.00 0.00 0.00 0.00 0.00 0.00 0.00 0.00 0.00 0.04 0.10 0.09 0.12 0.16 0.22 0.09 0.18 0.23 0.17 0.09 0.12 0.06 0.01 0.00 0.00 0.00 0.00 0.00 0.00 0.00 0.00 0.00 0.00 0.00 0.00 0.00 0.00 0.00 0.00 0.00 0.00 0.00
0.00 0.00 0.00 0.00 0.00 0.00 0.00 0.00 0.00 0.00 0.00 0.01 0.02 0.06 0.16 0.13 0.27 0.46 0.21 0.17 0.15 0.27 0.15 0.06 0.07 0.04 0.01 0.01 0.00 0.01 0.01 0.01 0.00 0.00 0.00 0.00 0.00 0.00 0.00 0.00 0.00 0.00 0.00
0.00 0.00 0.00 0.00 0.00 0.00 0.00 0.00 0.00 0.00 0.00 0.00 0.05 0.13 0.16 0.13 0.18 0.15 0.05 0.10 0.19 0.36 0.32 0.29 0.22 0.15 0.09 0.14 0.07 0.16 0.15 0.07 0.04 0.01 0.00 0.00 0.00 0.00 0.00 0.00 0.00 0.00 0.00
0.00 0.00 0.00 0.00 0.00 0.00 0.00 0.00 0.00 0.00 0.00 0.00 0.01 0.02 0.01 0.01 0.01 0.01 0.05 0.06 0.11 0.39 0.55 0.49 0.36 0.31 0.28 0.23 0.41 0.30 0.30 0.27 0.15 0.10 0.03 0.02 0.00 0.00 0.00 0.01 0.01 0.00 0.00
0.00 0.00 0.00 0.00 0.00 0.00 0.00 0.00 0.00 0.00 0.00 0.00 0.00 0.00 0.00 0.00 0.01 0.05 0.09 0.13 0.14 0.29 0.41 0.45 0.35 0.27 0.32 0.33 0.36 0.38 0.28 0.30 0.22 0.17 0.18 0.12 0.06 0.03 0.02 0.02 0.02 0.01 0.01
0.00 0.00 0.00 0.00 0.00 0.00 0.00 0.00 0.00 0.00 0.00 0.00 0.00 0.00 0.00 0.01 0.05 0.06 0.09 0.12 0.16 0.19 0.25 0.30 0.31 0.41 0.29 0.31 0.35 0.38 0.32 0.22 0.19 0.16 0.17 0.25 0.21 0.14 0.11 0.08 0.04 0.04 0.02
0.00 0.00 0.00 0.00 0.00 0.00 0.00 0.00 0.00 0.00 0.00 0.00 0.00 0.00 0.00 0.00 0.02 0.04 0.05 0.10 0.12 0.10 0.16 0.25 0.27 0.28 0.29 0.29 0.26 0.25 0.23 0.22 0.23 0.22 0.19 0.17 0.17 0.16 0.16 0.13 0.11 0.09 0.09
0.00 0.00 0.00 0.00 0.00 0.00 0.00 0.00 0.00 0.00 0.00 0.00 0.00 0.00 0.00 0.00 0.01 0.02 0.03 0.08 0.08 0.12 0.16 0.19 0.23 0.26 0.27 0.28 0.25 0.22 0.21 0.21 0.25 0.27 0.25 0.20 0.16 0.16 0.14 0.14 0.12 0.15 0.16
0.00 0.00 0.00 0.00 0.00 0.00 0.00 0.00 0.00 0.00 0.00 0.00 0.00 0.00 0.00 0.01 0.02 0.02 0.05 0.06 0.06 0.08 0.12 0.15 0.14 0.18 0.20 0.22 0.23 0.25 0.24 0.24 0.26 0.27 0.29 0.26 0.25 0.26 0.26 0.25 0.27 0.38 0.46
0.00 0.00 0.00 0.00 0.00 0.00 0.00 0.00 0.00 0.00 0.00 0.00 0.00 0.00 0.01 0.02 0.03 0.04 0.05 0.06 0.06 0.07 0.09 0.09 0.09 0.09 0.09 0.09 0.10 0.11 0.12 0.19 0.21 0.23 0.28 0.28 0.27 0.29 0.29 0.33 0.38 0.45 0.57
0.00 0.00 0.00 0.00 0.00 0.00 0.00 0.00 0.00 0.00 0.00 0.00 0.00 0.00 0.01 0.03 0.04 0.06 0.06 0.04 0.03 0.03 0.02 0.02 0.03 0.03 0.03 0.02 0.02 0.03 0.03 0.06 0.11 0.14 0.16 0.16 0.14 0.19 0.25 0.32 0.37 0.44 0.51
0.00 0.00 0.00 0.00 0.00 0.00 0.00 0.00 0.00 0.00 0.00 0.00 0.01 0.02 0.03 0.03 0.04 0.05 0.05 0.04 0.04 0.03 0.02 0.01 0.01 0.01 0.01 0.00 0.00 0.01 0.02 0.02 0.03 0.04 0.05 0.07 0.09 0.12 0.17 0.20 0.24 0.27 0.27
0.00 0.00 0.00 0.00 0.00 0.00 0.00 0.00 0.00 0.00 0.00 0.01 0.01 0.02 0.03 0.03 0.05 0.04 0.03 0.02 0.02 0.01 0.01 0.02 0.01 0.01 0.00 0.00 0.00 0.00 0.01 0.03 0.04 0.06 0.09 0.14 0.20 0.26 0.30 0.32 0.31 0.26 0.20
0.00 0.00 0.00 0.00 0.00 0.00 0.00 0.00 0.00 0.01 0.02 0.03 0.03 0.04 0.05 0.04 0.04 0.05 0.04 0.02 0.01 0.01 0.01 0.02 0.01 0.01 0.01 0.03 0.04 0.05 0.08 0.10 0.12 0.15 0.18 0.23 0.26 0.26 0.23 0.19 0.14 0.09 0.07
0.00 0.00 0.02 0.03 0.01 0.01 0.01 0.00 0.01 0.03 0.05 0.05 0.04 0.04 0.04 0.04 0.04 0.04 0.05 0.05 0.04 0.03 0.04 0.03 0.02 0.03 0.08 0.12 0.16 0.19 0.23 0.29 0.34 0.37 0.35 0.31 0.27 0.21 0.13 0.09 0.08 0.06 0.03
0.00 0.00 0.01 0.01 0.00 0.00 0.00 0.00 0.02 0.04 0.07 0.09 0.04 0.02 0.02 0.04 0.04 0.06 0.06 0.06 0.14 0.12 0.10 0.13 0.17 0.18 0.18 0.29 0.24 0.20 0.22 0.25 0.24 0.22 0.21 0.21 0.23 0.18 0.13 0.10 0.08 0.04 0.02
0.00 0.00 0.00 0.00 0.00 0.00 0.00 0.00 0.01 0.04 0.07 0.06 0.04 0.04 0.02 0.03 0.05 0.08 0.14 0.20 0.27 0.55 0.54 0.55 0.41 0.43 0.49 0.52 0.41 0.39 0.41 0.40 0.36 0.33 0.29 0.20 0.14 0.10 0.07 0.04 0.01 0.00 0.00
0.00 0.00 0.00 0.00 0.00 0.00 0.00 0.00 0.07 0.11 0.37 0.08 0.13 0.14 0.09 0.10 0.16 0.32 0.45 0.48 0.47 0.47 0.53 0.89 0.94 0.94 0.90 0.77 0.56 0.38 0.29 0.20 0.16 0.12 0.08 0.04 0.02 0.00 0.00 0.00 0.00 0.00 0.00
0.00 0.00 0.00 0.00 0.00 0.00 0.00 0.00 0.02 0.12 0.31 0.18 0.21 0.30 0.24 0.25 0.25 0.39 0.49 0.37 0.50 0.67 0.62 0.54 0.44 0.36 0.29 0.20 0.14 0.11 0.11 0.09 0.06 0.02 0.00 0.00 0.00 0.00 0.00 0.00 0.00 0.00 0.00
0.00 0.00 0.00 0.00 0.00 0.00 0.00 0.00 0.00 0.01 0.06 0.09 0.14 0.19 0.41 0.32 0.36 0.35 0.46 0.73 0.59 0.54 0.44 0.34 0.23 0.16 0.10 0.07 0.04 0.01 0.01 0.00 0.00 0.00 0.00 0.00 0.00 0.00 0.00 0.00 0.00 0.00 0.00
0.00 0.00 0.00 0.00 0.00 0.00 0.00 0.01 0.09 0.23 0.39 0.25 0.31 0.35 0.44 0.46 0.50 0.61 0.56 0.50 0.37 0.26 0.20 0.12 0.06 0.03 0.02 0.00 0.00 0.00 0.00 0.00 0.00 0.00 0.00 0.00 0.00 0.00 0.00 0.00 0.00 0.00 0.00
0.01 0.03 0.02 0.03 0.04 0.05 0.02 0.11 0.19 0.26 0.45 0.32 0.36 0.41 0.41 0.41 0.34 0.27 0.18 0.10 0.09 0.05 0.03 0.01 0.00 0.00 0.00 0.00 0.00 0.00 0.00 0.00 0.00 0.00 0.00 0.00 0.00 0.00 0.00 0.00 0.00 0.00 0.00
0.00 0.01 0.02 0.03 0.05 0.13 0.09 0.09 0.09 0.11 0.13 0.12 0.11 0.13 0.08 0.05 0.03 0.00 0.00 0.00 0.00 0.00 0.00 0.00 0.00 0.00 0.00 0.00 0.00 0.00 0.00 0.00 0.00 0.00 0.00 0.00 0.00 0.00 0.00 0.00 0.00 0.00 0.00
0.00 0.00 0.00 0.00 0.01 0.03 0.03 0.02 0.02 0.01 0.01 0.01 0.01 0.00 0.00 0.00 0.00 0.00 0.00 0.00 0.00 0.00 0.00 0.00 0.00 0.00 0.00 0.00 0.00 0.00 0.00 0.00 0.00 0.00 0.00 0.00 0.00 0.00 0.00 0.00 0.00 0.00 0.00
0.00 0.00 0.00 0.00 0.00 0.00 0.00 0.00 0.00 0.00 0.00 0.00 0.00 0.00 0.00 0.00 0.00 0.00 0.00 0.00 0.00 0.00 0.00 0.00 0.00 0.00 0.00 0.00 0.00 0.00 0.00 0.00 0.00 0.00 0.00 0.00 0.00 0.00 0.00 0.00 0.00 0.00 0.00
0.00 0.00 0.00 0.00 0.00 0.00 0.00 0.00 0.00 0.00 0.00 0.00 0.00 0.00 0.00 0.00 0.00 0.00 0.00 0.00 0.00 0.00 0.00 0.00 0.00 0.00 0.00 0.00 0.00 0.00 0.00 0.00 0.00 0.00 0.00 0.00 0.00 0.00 0.00 0.00 0.00 0.00 0.00

GFSMW_prec_precacc24_078.txt.gz
Total_Precipitation_Accumulation
0.00 0.00 0.00 0.00 0.00 0.00 0.00 0.00 0.00 0.00 0.03 0.08 0.07 0.07 0.09 0.18 0.06 0.13 0.22 0.18 0.09 0.12 0.05 0.01 0.00 0.00 0.00 0.00 0.00 0.00 0.00 0.00 0.00 0.00 0.00 0.00 0.00 0.00 0.00 0.00 0.00 0.00 0.00
0.00 0.00 0.00 0.00 0.00 0.00 0.00 0.00 0.00 0.00 0.00 0.03 0.05 0.04 0.11 0.12 0.21 0.34 0.15 0.17 0.16 0.25 0.10 0.05 0.08 0.04 0.01 0.01 0.00 0.01 0.01 0.01 0.01 0.00 0.00 0.00 0.00 0.00 0.00 0.00 0.00 0.00 0.00
0.00 0.00 0.00 0.00 0.00 0.00 0.00 0.00 0.00 0.00 0.00 0.00 0.03 0.08 0.10 0.07 0.09 0.08 0.04 0.15 0.23 0.33 0.26 0.27 0.20 0.14 0.09 0.14 0.07 0.16 0.16 0.10 0.08 0.03 0.02 0.00 0.00 0.00 0.00 0.00 0.00 0.00 0.00
0.00 0.00 0.00 0.00 0.00 0.00 0.00 0.00 0.00 0.00 0.00 0.00 0.00 0.00 0.00 0.01 0.00 0.01 0.03 0.06 0.12 0.31 0.49 0.44 0.31 0.28 0.26 0.23 0.40 0.31 0.33 0.32 0.19 0.16 0.06 0.04 0.01 0.00 0.00 0.02 0.03 0.01 0.00
0.00 0.00 0.00 0.00 0.00 0.00 0.00 0.00 0.00 0.00 0.00 0.00 0.00 0.00 0.00 0.00 0.00 0.00 0.02 0.04 0.05 0.15 0.30 0.39 0.34 0.26 0.29 0.31 0.35 0.38 0.29 0.32 0.25 0.20 0.23 0.16 0.10 0.05 0.03 0.03 0.05 0.04 0.02
0.00 0.00 0.00 0.00 0.00 0.00 0.00 0.00 0.00 0.00 0.00 0.00 0.00 0.00 0.00 0.00 0.03 0.04 0.04 0.06 0.08 0.11 0.18 0.25 0.28 0.37 0.26 0.28 0.34 0.42 0.37 0.27 0.24 0.20 0.22 0.31 0.28 0.20 0.15 0.11 0.07 0.07 0.04
0.00 0.00 0.00 0.00 0.00 0.00 0.00 0.00 0.00 0.00 0.00 0.00 0.00 0.00 0.00 0.00 0.01 0.02 0.02 0.04 0.07 0.05 0.11 0.20 0.24 0.27 0.29 0.29 0.25 0.25 0.24 0.24 0.27 0.27 0.24 0.23 0.22 0.22 0.22 0.21 0.16 0.13 0.12
0.00 0.00 0.00 0.00 0.00 0.00 0.00 0.00 0.00 0.00 0.00 0.00 0.00 0.00 0.00 0.00 0.00 0.01 0.01 0.06 0.05 0.09 0.13 0.17 0.22 0.25 0.28 0.27 0.24 0.21 0.21 0.22 0.26 0.29 0.27 0.22 0.19 0.21 0.21 0.21 0.20 0.22 0.20
0.00 0.00 0.00 0.00 0.00 0.00 0.00 0.00 0.00 0.00 0.00 0.00 0.00 0.00 0.00 0.00 0.00 0.00 0.01 0.02 0.03 0.05 0.09 0.12 0.13 0.17 0.20 0.21 0.23 0.25 0.24 0.24 0.26 0.27 0.29 0.27 0.27 0.29 0.29 0.31 0.35 0.49 0.57
0.00 0.00 0.00 0.00 0.00 0.00 0.00 0.00 0.00 0.00 0.00 0.00 0.00 0.00 0.00 0.00 0.00 0.00 0.00 0.02 0.03 0.04 0.06 0.07 0.09 0.09 0.09 0.09 0.09 0.11 0.12 0.19 0.21 0.23 0.28 0.28 0.27 0.29 0.29 0.33 0.39 0.47 0.62
0.00 0.00 0.00 0.00 0.00 0.00 0.00 0.00 0.00 0.00 0.00 0.00 0.00 0.00 0.00 0.00 0.00 0.00 0.01 0.02 0.02 0.02 0.02 0.02 0.03 0.03 0.02 0.02 0.02 0.03 0.03 0.06 0.11 0.14 0.16 0.16 0.14 0.19 0.26 0.32 0.37 0.44 0.51
0.00 0.00 0.00 0.00 0.00 0.00 0.00 0.00 0.00 0.00 0.00 0.00 0.00 0.00 0.00 0.00 0.00 0.01 0.02 0.03 0.03 0.02 0.02 0.01 0.00 0.00 0.00 0.00 0.00 0.01 0.01 0.02 0.02 0.04 0.05 0.08 0.09 0.13 0.17 0.21 0.25 0.28 0.28
0.00 0.00 0.00 0.00 0.00 0.00 0.00 0.00 0.00 0.00 0.00 0.00 0.00 0.00 0.00 0.01 0.02 0.02 0.02 0.02 0.01 0.01 0.01 0.01 0.01 0.00 0.00 0.00 0.00 0.00 0.01 0.03 0.04 0.06 0.09 0.14 0.21 0.27 0.31 0.33 0.32 0.27 0.20
0.00 0.00 0.00 0.00 0.00 0.00 0.00 0.00 0.00 0.00 0.00 0.01 0.01 0.02 0.03 0.03 0.04 0.05 0.04 0.02 0.01 0.01 0.01 0.01 0.01 0.01 0.01 0.01 0.02 0.03 0.05 0.08 0.11 0.15 0.18 0.23 0.26 0.26 0.24 0.19 0.14 0.10 0.07
0.00 0.00 0.00 0.00 0.00 0.01 0.00 0.00 0.00 0.00 0.00 0.01 0.02 0.03 0.04 0.03 0.03 0.03 0.04 0.04 0.03 0.03 0.02 0.02 0.01 0.03 0.05 0.08 0.11 0.15 0.21 0.28 0.34 0.37 0.35 0.31 0.27 0.21 0.13 0.09 0.09 0.07 0.04
0.00 0.00 0.00 0.00 0.00 0.00 0.00 0.00 0.00 0.00 0.00 0.00 0.01 0.01 0.02 0.04 0.04 0.05 0.05 0.06 0.12 0.10 0.06 0.05 0.10 0.16 0.17 0.28 0.23 0.20 0.22 0.25 0.24 0.22 0.21 0.22 0.23 0.18 0.13 0.10 0.08 0.05 0.03
0.00 0.00 0.00 0.00 0.00 0.00 0.00 0.00 0.00 0.00 0.00 0.00 0.00 0.01 0.02 0.03 0.05 0.07 0.12 0.15 0.24 0.52 0.48 0.51 0.38 0.41 0.48 0.52 0.41 0.39 0.41 0.40 0.36 0.33 0.29 0.20 0.14 0.10 0.07 0.04 0.01 0.01 0.00
0.00 0.00 0.00 0.00 0.00 0.00 0.00 0.00 0.00 0.02 0.17 0.05 0.07 0.13 0.09 0.08 0.10 0.20 0.34 0.38 0.33 0.42 0.51 0.85 0.91 0.92 0.89 0.77 0.56 0.38 0.29 0.20 0.16 0.12 0.08 0.04 0.02 0.00 0.00 0.00 0.00 0.00 0.00
0.00 0.00 0.00 0.00 0.00 0.00 0.00 0.00 0.00 0.04 0.21 0.15 0.20 0.26 0.09 0.06 0.10 0.26 0.31 0.30 0.46 0.64 0.60 0.53 0.43 0.35 0.29 0.20 0.14 0.11 0.11 0.09 0.06 0.02 0.00 0.00 0.00 0.00 0.00 0.00 0.00 0.00 0.00
0.00 0.00 0.00 0.00 0.00 0.00 0.00 0.00 0.00 0.00 0.01 0.02 0.02 0.03 0.04 0.08 0.17 0.25 0.38 0.62 0.47 0.46 0.41 0.33 0.22 0.16 0.10 0.07 0.04 0.01 0.01 0.00 0.00 0.00 0.00 0.00 0.00 0.00 0.00 0.00 0.00 0.00 0.00
0.00 0.00 0.00 0.00 0.00 0.00 0.00 0.00 0.00 0.02 0.05 0.03 0.07 0.12 0.19 0.28 0.30 0.37 0.37 0.39 0.32 0.24 0.19 0.12 0.06 0.03 0.02 0.00 0.00 0.00 0.00 0.00 0.00 0.00 0.00 0.00 0.00 0.00 0.00 0.00 0.00 0.00 0.00
0.00 0.00 0.00 0.00 0.00 0.00 0.00 0.01 0.03 0.08 0.15 0.14 0.19 0.26 0.30 0.29 0.25 0.19 0.14 0.09 0.08 0.05 0.03 0.01 0.00 0.00 0.00 0.00 0.00 0.00 0.00 0.00 0.00 0.00 0.00 0.00 0.00 0.00 0.00 0.00 0.00 0.00 0.00
0.00 0.00 0.00 0.00 0.00 0.00 0.00 0.00 0.01 0.03 0.03 0.04 0.07 0.09 0.06 0.04 0.02 0.00 0.00 0.00 0.00 0.00 0.00 0.00 0.00 0.00 0.00 0.00 0.00 0.00 0.00 0.00 0.00 0.00 0.00 0.00 0.00 0.00 0.00 0.00 0.00 0.00 0.00
0.00 0.00 0.00 0.00 0.00 0.00 0.00 0.00 0.00 0.00 0.00 0.01 0.01 0.00 0.00 0.00 0.00 0.00 0.00 0.00 0.00 0.00 0.00 0.00 0.00 0.00 0.00 0.00 0.00 0.00 0.00 0.00 0.00 0.00 0.00 0.00 0.00 0.00 0.00 0.00 0.00 0.00 0.00
0.00 0.00 0.00 0.00 0.00 0.00 0.00 0.00 0.00 0.00 0.00 0.00 0.00 0.00 0.00 0.00 0.00 0.00 0.00 0.00 0.00 0.00 0.00 0.00 0.00 0.00 0.00 0.00 0.00 0.00 0.00 0.00 0.00 0.00 0.00 0.00 0.00 0.00 0.00 0.00 0.00 0.00 0.00
0.00 0.00 0.00 0.00 0.00 0.00 0.00 0.00 0.00 0.00 0.00 0.00 0.00 0.00 0.00 0.00 0.00 0.00 0.00 0.00 0.00 0.00 0.00 0.00 0.00 0.00 0.00 0.00 0.00 0.00 0.00 0.00 0.00 0.00 0.00 0.00 0.00 0.00 0.00 0.00 0.00 0.00 0.00

GFSMW_prec_precacc24_081.txt.gz
Total_Precipitation_Accumulation
0.00 0.00 0.00 0.00 0.00 0.00 0.00 0.00 0.00 0.00 0.04 0.07 0.07 0.06 0.08 0.14 0.03 0.13 0.20 0.16 0.08 0.11 0.05 0.01 0.00 0.00 0.00 0.00 0.00 0.00 0.00 0.00 0.00 0.00 0.00 0.00 0.00 0.00 0.00 0.00 0.00 0.00 0.00
0.00 0.00 0.00 0.00 0.00 0.00 0.00 0.00 0.00 0.00 0.03 0.06 0.07 0.06 0.10 0.11 0.13 0.23 0.10 0.16 0.19 0.25 0.10 0.04 0.08 0.04 0.01 0.01 0.00 0.01 0.01 0.01 0.01 0.01 0.00 0.00 0.00 0.00 0.00 0.00 0.00 0.00 0.00
0.00 0.00 0.00 0.00 0.00 0.00 0.00 0.00 0.00 0.00 0.01 0.02 0.03 0.02 0.01 0.01 0.03 0.02 0.04 0.19 0.31 0.29 0.22 0.22 0.20 0.14 0.07 0.10 0.06 0.16 0.16 0.10 0.10 0.07 0.06 0.01 0.00 0.00 0.00 0.00 0.00 0.00 0.00
0.00 0.00 0.00 0.00 0.00 0.00 0.00 0.00 0.00 0.00 0.00 0.00 0.00 0.00 0.01 0.01 0.01 0.05 0.09 0.10 0.11 0.21 0.38 0.35 0.29 0.22 0.17 0.15 0.34 0.31 0.33 0.32 0.20 0.18 0.09 0.06 0.02 0.01 0.01 0.02 0.04 0.02 0.01
0.00 0.00 0.00 0.00 0.00 0.00 0.00 0.00 0.00 0.00 0.00 0.00 0.00 0.00 0.00 0.00 0.00 0.00 0.00 0.00 0.01 0.07 0.20 0.29 0.28 0.19 0.21 0.24 0.30 0.34 0.28 0.32 0.28 0.25 0.29 0.20 0.12 0.05 0.04 0.05 0.06 0.05 0.03
0.00 0.00 0.00 0.00 0.00 0.00 0.00 0.00 0.00 0.00 0.00 0.00 0.00 0.00 0.00 0.00 0.00 0.00 0.01 0.02 0.05 0.06 0.11 0.16 0.18 0.29 0.20 0.23 0.30 0.39 0.37 0.28 0.26 0.23 0.26 0.36 0.33 0.22 0.17 0.13 0.07 0.07 0.05
0.00 0.00 0.00 0.00 0.00 0.00 0.00 0.00 0.00 0.00 0.00 0.00 0.00 0.00 0.00 0.00 0.01 0.01 0.02 0.03 0.06 0.04 0.08 0.13 0.15 0.21 0.26 0.27 0.25 0.25 0.24 0.24 0.27 0.28 0.25 0.24 0.24 0.23 0.24 0.23 0.19 0.14 0.13
0.00 0.00 0.00 0.00 0.00 0.00 0.00 0.00 0.00 0.00 0.00 0.00 0.00 0.00 0.00 0.00 0.00 0.00 0.00 0.01 0.03 0.06 0.09 0.11 0.15 0.20 0.25 0.27 0.24 0.21 0.21 0.21 0.26 0.29 0.27 0.22 0.19 0.21 0.22 0.22 0.21 0.23 0.21
0.00 0.00 0.00 0.00 0.00 0.00 0.00 0.00 0.00 0.00 0.00 0.00 0.00 0.00 0.00 0.00 0.00 0.00 0.00 0.00 0.00 0.02 0.05 0.08 0.09 0.15 0.18 0.20 0.23 0.25 0.24 0.24 0.26 0.27 0.29 0.27 0.27 0.29 0.30 0.31 0.36 0.51 0.59
0.00 0.00 0.00 0.00 0.00 0.00 0.00 0.00 0.00 0.00 0.00 0.00 0.00 0.00 0.00 0.00 0.00 0.00 0.00 0.00 0.00 0.01 0.03 0.05 0.07 0.08 0.08 0.09 0.09 0.11 0.12 0.19 0.21 0.23 0.28 0.28 0.27 0.29 0.29 0.33 0.39 0.47 0.62
0.00 0.00 0.00 0.00 0.00 0.00 0.00 0.00 0.00 0.00 0.00 0.00 0.00 0.00 0.00 0.00 0.00 0.00 0.00 0.00 0.00 0.01 0.01 0.01 0.02 0.02 0.02 0.02 0.02 0.03 0.03 0.06 0.10 0.13 0.16 0.16 0.14 0.19 0.26 0.32 0.37 0.44 0.51
0.00 0.00 0.00 0.00 0.00 0.00 0.00 0.00 0.00 0.00 0.00 0.00 0.00 0.00 0.00 0.00 0.00 0.00 0.00 0.00 0.00 0.00 0.00 0.00 0.00 0.00 0.00 0.00 0.00 0.01 0.01 0.01 0.02 0.03 0.05 0.08 0.09 0.13 0.17 0.21 0.25 0.28 0.28
0.00 0.00 0.00 0.00 0.00 0.00 0.00 0.00 0.00 0.00 0.00 0.00 0.00 0.00 0.00 0.00 0.00 0.00 0.00 0.00 0.00 0.00 0.00 0.00 0.00 0.00 0.00 0.00 0.00 0.00 0.01 0.02 0.03 0.05 0.08 0.13 0.21 0.27 0.31 0.33 0.32 0.27 0.20
0.00 0.00 0.00 0.00 0.00 0.00 0.00 0.00 0.00 0.00 0.00 0.00 0.00 0.00 0.01 0.01 0.00 0.00 0.01 0.01 0.01 0.01 0.01 0.01 0.00 0.01 0.01 0.01 0.02 0.03 0.05 0.06 0.09 0.13 0.18 0.22 0.26 0.26 0.24 0.19 0.14 0.10 0.07
0.00 0.00 0.00 0.00 0.00 0.00 0.00 0.00 0.00 0.00 0.00 0.00 0.00 0.00 0.01 0.01 0.01 0.02 0.03 0.04 0.03 0.03 0.02 0.01 0.01 0.01 0.02 0.03 0.05 0.08 0.14 0.22 0.32 0.36 0.35 0.31 0.28 0.21 0.13 0.09 0.09 0.07 0.04
0.00 0.00 0.00 0.00 0.00 0.00 0.00 0.00 0.00 0.00 0.00 0.00 0.00 0.00 0.01 0.03 0.04 0.05 0.05 0.06 0.12 0.09 0.05 0.04 0.03 0.03 0.06 0.17 0.13 0.15 0.20 0.24 0.24 0.22 0.21 0.22 0.24 0.18 0.13 0.10 0.08 0.05 0.03
0.00 0.00 0.00 0.00 0.00 0.00 0.00 0.00 0.00 0.00 0.00 0.00 0.00 0.00 0.01 0.02 0.04 0.06 0.10 0.15 0.22 0.49 0.43 0.40 0.26 0.29 0.36 0.43 0.37 0.37 0.39 0.38 0.35 0.32 0.29 0.20 0.14 0.10 0.07 0.04 0.01 0.01 0.00
0.00 0.00 0.00 0.00 0.00 0.00 0.00 0.00 0.00 0.00 0.00 0.00 0.00 0.00 0.00 0.01 0.06 0.16 0.31 0.31 0.24 0.31 0.38 0.71 0.75 0.79 0.83 0.75 0.55 0.37 0.28 0.20 0.16 0.12 0.08 0.04 0.02 0.00 0.00 0.00 0.00 0.00 0.00
0.00 0.00 0.00 0.00 0.00 0.00 0.00 0.00 0.00 0.00 0.00 0.00 0.01 0.02 0.02 0.04 0.05 0.16 0.18 0.13 0.26 0.38 0.36 0.38 0.37 0.33 0.28 0.19 0.13 0.11 0.11 0.09 0.06 0.02 0.00 0.00 0.00 0.00 0.00 0.00 0.00 0.00 0.00
0.00 0.00 0.00 0.00 0.00 0.00 0.00 0.00 0.00 0.00 0.00 0.00 0.01 0.02 0.01 0.00 0.03 0.07 0.19 0.41 0.23 0.27 0.31 0.28 0.18 0.13 0.09 0.06 0.04 0.01 0.01 0.00 0.00 0.00 0.00 0.00 0.00 0.00 0.00 0.00 0.00 0.00 0.00
0.00 0.00 0.00 0.00 0.00 0.00 0.00 0.00 0.00 0.00 0.00 0.00 0.00 0.01 0.02 0.05 0.08 0.10 0.15 0.27 0.25 0.19 0.15 0.09 0.04 0.02 0.02 0.00 0.00 0.00 0.00 0.00 0.00 0.00 0.00 0.00 0.00 0.00 0.00 0.00 0.00 0.00 0.00
0.00 0.00 0.00 0.00 0.00 0.00 0.00 0.00 0.00 0.01 0.01 0.02 0.05 0.12 0.14 0.20 0.20 0.16 0.11 0.06 0.05 0.03 0.01 0.00 0.00 0.00 0.00 0.00 0.00 0.00 0.00 0.00 0.00 0.00 0.00 0.00 0.00 0.00 0.00 0.00 0.00 0.00 0.00
0.00 0.00 0.00 0.00 0.00 0.00 0.00 0.00 0.00 0.00 0.00 0.01 0.03 0.05 0.04 0.03 0.02 0.00 0.00 0.00 0.00 0.00 0.00 0.00 0.00 0.00 0.00 0.00 0.00 0.00 0.00 0.00 0.00 0.00 0.00 0.00 0.00 0.00 0.00 0.00 0.00 0.00 0.00
0.00 0.00 0.00 0.00 0.00 0.00 0.00 0.00 0.00 0.00 0.00 0.00 0.01 0.00 0.00 0.00 0.00 0.00 0.00 0.00 0.00 0.00 0.00 0.00 0.00 0.00 0.00 0.00 0.00 0.00 0.00 0.00 0.00 0.00 0.00 0.00 0.00 0.00 0.00 0.00 0.00 0.00 0.00
0.00 0.00 0.00 0.00 0.00 0.00 0.00 0.00 0.00 0.00 0.00 0.00 0.00 0.00 0.00 0.00 0.00 0.00 0.00 0.00 0.00 0.00 0.00 0.00 0.00 0.00 0.00 0.00 0.00 0.00 0.00 0.00 0.00 0.00 0.00 0.00 0.00 0.00 0.00 0.00 0.00 0.00 0.00
0.00 0.00 0.00 0.00 0.00 0.00 0.00 0.00 0.00 0.00 0.00 0.00 0.00 0.00 0.00 0.00 0.00 0.00 0.00 0.00 0.00 0.00 0.00 0.00 0.00 0.00 0.00 0.00 0.00 0.00 0.00 0.00 0.00 0.00 0.00 0.00 0.00 0.00 0.00 0.00 0.00 0.00 0.00

GFSMW_prec_precacc24_084.txt.gz
Total_Precipitation_Accumulation
0.00 0.00 0.01 0.02 0.01 0.00 0.00 0.00 0.00 0.03 0.05 0.08 0.07 0.06 0.08 0.11 0.03 0.11 0.16 0.12 0.05 0.06 0.03 0.00 0.00 0.00 0.00 0.00 0.00 0.00 0.00 0.00 0.00 0.00 0.00 0.00 0.00 0.00 0.00 0.00 0.00 0.00 0.00
0.00 0.00 0.00 0.00 0.00 0.00 0.00 0.00 0.00 0.00 0.03 0.07 0.10 0.08 0.10 0.09 0.10 0.16 0.07 0.13 0.18 0.20 0.08 0.02 0.03 0.03 0.01 0.01 0.00 0.01 0.01 0.01 0.01 0.01 0.00 0.00 0.00 0.00 0.00 0.00 0.00 0.00 0.00
0.00 0.00 0.00 0.00 0.00 0.00 0.00 0.00 0.00 0.00 0.01 0.04 0.05 0.04 0.02 0.01 0.03 0.03 0.08 0.28 0.29 0.19 0.16 0.14 0.14 0.14 0.06 0.08 0.04 0.15 0.16 0.10 0.11 0.08 0.09 0.02 0.00 0.00 0.00 0.00 0.00 0.00 0.00
0.00 0.00 0.00 0.00 0.00 0.00 0.00 0.00 0.00 0.00 0.00 0.00 0.00 0.01 0.01 0.01 0.03 0.08 0.13 0.15 0.13 0.17 0.32 0.28 0.25 0.22 0.16 0.12 0.29 0.25 0.28 0.29 0.18 0.18 0.09 0.07 0.03 0.02 0.01 0.02 0.04 0.02 0.01
0.00 0.00 0.00 0.00 0.00 0.00 0.00 0.00 0.00 0.00 0.00 0.00 0.00 0.00 0.00 0.00 0.00 0.01 0.01 0.01 0.02 0.04 0.15 0.29 0.28 0.20 0.16 0.18 0.23 0.29 0.23 0.29 0.26 0.24 0.29 0.21 0.12 0.06 0.05 0.06 0.06 0.05 0.03
0.00 0.00 0.00 0.00 0.00 0.00 0.00 0.00 0.00 0.00 0.00 0.00 0.00 0.00 0.00 0.00 0.00 0.00 0.00 0.00 0.01 0.02 0.06 0.11 0.15 0.25 0.14 0.18 0.24 0.36 0.35 0.27 0.25 0.22 0.25 0.36 0.33 0.23 0.17 0.14 0.08 0.08 0.05
0.00 0.00 0.00 0.00 0.00 0.00 0.00 0.00 0.00 0.00 0.00 0.00 0.00 0.00 0.00 0.00 0.00 0.00 0.00 0.00 0.01 0.02 0.06 0.10 0.11 0.15 0.19 0.21 0.20 0.22 0.22 0.23 0.26 0.28 0.25 0.25 0.25 0.23 0.24 0.24 0.20 0.15 0.13
0.00 0.00 0.00 0.00 0.00 0.00 0.00 0.00 0.00 0.00 0.00 0.00 0.00 0.00 0.00 0.00 0.00 0.00 0.00 0.00 0.00 0.01 0.02 0.04 0.08 0.13 0.16 0.19 0.19 0.19 0.20 0.21 0.26 0.29 0.27 0.23 0.20 0.21 0.22 0.22 0.21 0.24 0.22
0.00 0.00 0.00 0.00 0.00 0.00 0.00 0.00 0.00 0.00 0.00 0.00 0.00 0.00 0.00 0.00 0.00 0.00 0.00 0.00 0.00 0.00 0.00 0.01 0.02 0.08 0.12 0.16 0.20 0.23 0.23 0.24 0.26 0.27 0.29 0.27 0.27 0.29 0.30 0.31 0.37 0.51 0.59
0.00 0.00 0.00 0.00 0.00 0.00 0.00 0.00 0.00 0.00 0.00 0.00 0.00 0.00 0.00 0.00 0.00 0.00 0.00 0.00 0.00 0.00 0.00 0.01 0.01 0.03 0.05 0.07 0.09 0.11 0.12 0.19 0.21 0.23 0.28 0.28 0.27 0.29 0.29 0.32 0.38 0.47 0.62
0.00 0.00 0.00 0.00 0.00 0.00 0.00 0.00 0.00 0.00 0.00 0.00 0.00 0.00 0.00 0.00 0.00 0.00 0.00 0.00 0.00 0.00 0.00 0.00 0.00 0.00 0.01 0.01 0.02 0.03 0.03 0.06 0.10 0.13 0.16 0.15 0.12 0.17 0.24 0.31 0.37 0.44 0.51
0.00 0.00 0.00 0.00 0.00 0.00 0.00 0.00 0.00 0.00 0.00 0.00 0.00 0.00 0.00 0.00 0.00 0.00 0.00 0.00 0.00 0.00 0.00 0.00 0.00 0.00 0.00 0.00 0.00 0.01 0.01 0.01 0.02 0.03 0.04 0.06 0.07 0.10 0.16 0.20 0.25 0.28 0.28
0.00 0.00 0.00 0.00 0.00 0.00 0.00 0.00 0.00 0.00 0.00 0.00 0.00 0.00 0.00 0.00 0.00 0.00 0.00 0.00 0.00 0.00 0.00 0.00 0.00 0.00 0.00 0.00 0.00 0.00 0.01 0.02 0.03 0.04 0.06 0.11 0.18 0.24 0.29 0.32 0.31 0.27 0.20
0.00 0.00 0.00 0.00 0.00 0.00 0.00 0.00 0.00 0.00 0.00 0.00 0.00 0.00 0.00 0.00 0.00 0.00 0.00 0.00 0.00 0.00 0.00 0.00 0.00 0.00 0.00 0.00 0.01 0.01 0.03 0.04 0.05 0.09 0.14 0.18 0.22 0.23 0.22 0.19 0.14 0.10 0.07
0.00 0.00 0.00 0.00 0.00 0.00 0.00 0.00 0.00 0.00 0.00 0.00 0.00 0.00 0.00 0.00 0.00 0.00 0.00 0.01 0.01 0.01 0.01 0.01 0.01 0.01 0.01 0.02 0.03 0.04 0.10 0.16 0.22 0.26 0.26 0.24 0.24 0.19 0.12 0.09 0.09 0.07 0.04
0.00 0.00 0.00 0.00 0.00 0.00 0.00 0.00 0.00 0.00 0.00 0.00 0.00 0.00 0.00 0.00 0.00 0.01 0.01 0.02 0.05 0.07 0.05 0.04 0.03 0.03 0.04 0.12 0.09 0.07 0.09 0.13 0.15 0.16 0.17 0.20 0.23 0.18 0.13 0.11 0.08 0.05 0.03
0.00 0.00 0.00 0.00 0.00 0.00 0.00 0.00 0.00 0.00 0.00 0.00 0.00 0.00 0.00 0.00 0.01 0.02 0.04 0.11 0.22 0.47 0.40 0.37 0.23 0.26 0.31 0.31 0.24 0.28 0.32 0.33 0.31 0.29 0.27 0.19 0.13 0.10 0.07 0.04 0.01 0.01 0.00
0.00 0.00 0.00 0.00 0.00 0.00 0.00 0.00 0.00 0.00 0.00 0.00 0.00 0.00 0.00 0.00 0.00 0.06 0.24 0.29 0.22 0.29 0.35 0.65 0.67 0.64 0.63 0.59 0.48 0.34 0.24 0.17 0.14 0.11 0.08 0.04 0.02 0.00 0.00 0.00 0.00 0.00 0.00
0.00 0.00 0.00 0.00 0.00 0.00 0.00 0.00 0.00 0.00 0.00 0.00 0.00 0.00 0.00 0.00 0.00 0.10 0.12 0.07 0.11 0.22 0.19 0.19 0.23 0.26 0.23 0.16 0.10 0.08 0.09 0.08 0.06 0.02 0.00 0.00 0.00 0.00 0.00 0.00 0.00 0.00 0.00
0.00 0.00 0.00 0.00 0.00 0.00 0.00 0.00 0.00 0.00 0.00 0.00 0.01 0.00 0.00 0.00 0.01 0.02 0.05 0.18 0.11 0.10 0.21 0.21 0.14 0.09 0.06 0.04 0.02 0.01 0.01 0.00 0.00 0.00 0.00 0.00 0.00 0.00 0.00 0.00 0.00 0.00 0.00
0.00 0.00 0.00 0.00 0.00 0.00 0.00 0.00 0.00 0.00 0.00 0.00 0.00 0.00 0.01 0.01 0.02 0.01 0.04 0.12 0.13 0.11 0.11 0.06 0.02 0.01 0.01 0.00 0.00 0.00 0.00 0.00 0.00 0.00 0.00 0.00 0.00 0.00 0.00 0.00 0.00 0.00 0.00
0.00 0.00 0.00 0.00 0.00 0.00 0.00 0.00 0.00 0.00 0.00 0.00 0.01 0.03 0.02 0.05 0.06 0.03 0.02 0.01 0.01 0.01 0.00 0.00 0.00 0.00 0.00 0.00 0.00 0.00 0.00 0.00 0.00 0.00 0.00 0.00 0.00 0.00 0.00 0.00 0.00 0.00 0.00
0.00 0.00 0.00 0.00 0.00 0.00 0.00 0.00 0.00 0.00 0.00 0.00 0.00 0.00 0.00 0.00 0.00 0.00 0.00 0.00 0.00 0.00 0.00 0.00 0.00 0.00 0.00 0.00 0.00 0.00 0.00 0.00 0.00 0.00 0.00 0.00 0.00 0.00 0.00 0.00 0.00 0.00 0.00
0.00 0.00 0.00 0.00 0.00 0.00 0.00 0.00 0.00 0.00 0.00 0.00 0.00 0.00 0.00 0.00 0.00 0.00 0.00 0.00 0.00 0.00 0.00 0.00 0.00 0.00 0.00 0.00 0.00 0.00 0.00 0.00 0.00 0.00 0.00 0.00 0.00 0.00 0.00 0.00 0.00 0.00 0.00
0.00 0.00 0.00 0.00 0.00 0.00 0.00 0.00 0.00 0.00 0.00 0.00 0.00 0.00 0.00 0.00 0.00 0.00 0.00 0.00 0.00 0.00 0.00 0.00 0.00 0.00 0.00 0.00 0.00 0.00 0.00 0.00 0.00 0.00 0.00 0.00 0.00 0.00 0.00 0.00 0.00 0.00 0.00
0.00 0.00 0.00 0.00 0.00 0.00 0.00 0.00 0.00 0.00 0.00 0.00 0.00 0.00 0.00 0.00 0.00 0.00 0.00 0.00 0.00 0.00 0.00 0.00 0.00 0.00 0.00 0.00 0.00 0.00 0.00 0.00 0.00 0.00 0.00 0.00 0.00 0.00 0.00 0.00 0.00 0.00 0.00

GFSMW_prec_precacc24_087.txt.gz
Total_Precipitation_Accumulation
0.00 0.00 0.01 0.04 0.04 0.03 0.06 0.11 0.11 0.16 0.16 0.21 0.15 0.09 0.09 0.12 0.03 0.07 0.08 0.06 0.03 0.01 0.01 0.00 0.00 0.00 0.00 0.00 0.00 0.00 0.00 0.00 0.00 0.00 0.00 0.00 0.00 0.00 0.00 0.00 0.00 0.00 0.00
0.00 0.00 0.00 0.00 0.00 0.01 0.02 0.03 0.05 0.06 0.08 0.17 0.18 0.13 0.15 0.10 0.09 0.14 0.06 0.13 0.17 0.16 0.06 0.03 0.04 0.02 0.01 0.01 0.00 0.01 0.01 0.01 0.01 0.01 0.00 0.00 0.00 0.00 0.00 0.00 0.00 0.00 0.00
0.00 0.00 0.00 0.00 0.00 0.00 0.00 0.00 0.01 0.04 0.09 0.12 0.11 0.06 0.02 0.02 0.05 0.04 0.11 0.34 0.34 0.16 0.11 0.13 0.06 0.17 0.08 0.09 0.06 0.15 0.15 0.09 0.10 0.08 0.09 0.02 0.00 0.00 0.00 0.00 0.00 0.00 0.00
0.00 0.00 0.00 0.00 0.00 0.00 0.00 0.00 0.00 0.01 0.02 0.04 0.02 0.01 0.02 0.02 0.03 0.09 0.14 0.15 0.13 0.18 0.26 0.23 0.17 0.16 0.14 0.13 0.27 0.23 0.26 0.26 0.16 0.17 0.09 0.07 0.03 0.02 0.01 0.02 0.04 0.02 0.01
0.00 0.00 0.00 0.00 0.00 0.00 0.00 0.00 0.00 0.00 0.00 0.01 0.01 0.01 0.00 0.00 0.00 0.01 0.01 0.01 0.03 0.05 0.12 0.28 0.27 0.19 0.15 0.15 0.17 0.24 0.20 0.25 0.24 0.23 0.29 0.21 0.12 0.06 0.06 0.07 0.06 0.05 0.03
0.00 0.00 0.00 0.00 0.00 0.00 0.00 0.00 0.00 0.00 0.00 0.00 0.00 0.01 0.00 0.00 0.00 0.00 0.00 0.00 0.01 0.01 0.03 0.06 0.12 0.20 0.11 0.16 0.21 0.30 0.31 0.24 0.23 0.21 0.25 0.36 0.33 0.23 0.18 0.14 0.08 0.08 0.05
0.00 0.00 0.00 0.00 0.00 0.00 0.00 0.00 0.00 0.00 0.00 0.00 0.00 0.00 0.00 0.00 0.00 0.00 0.00 0.00 0.00 0.00 0.02 0.04 0.05 0.09 0.12 0.14 0.15 0.16 0.18 0.20 0.24 0.26 0.25 0.25 0.25 0.23 0.23 0.22 0.19 0.15 0.13
0.00 0.00 0.00 0.00 0.00 0.00 0.00 0.00 0.00 0.00 0.00 0.00 0.00 0.00 0.00 0.00 0.00 0.00 0.00 0.00 0.00 0.00 0.00 0.00 0.01 0.04 0.06 0.09 0.12 0.13 0.15 0.17 0.23 0.28 0.27 0.23 0.20 0.21 0.22 0.21 0.21 0.24 0.22
0.00 0.00 0.00 0.00 0.00 0.00 0.00 0.00 0.00 0.00 0.00 0.00 0.00 0.00 0.00 0.00 0.00 0.00 0.00 0.00 0.00 0.00 0.00 0.00 0.00 0.02 0.04 0.06 0.11 0.17 0.19 0.22 0.25 0.26 0.28 0.26 0.27 0.29 0.30 0.31 0.36 0.51 0.58
0.00 0.00 0.00 0.00 0.00 0.00 0.00 0.00 0.00 0.00 0.00 0.00 0.00 0.00 0.00 0.00 0.00 0.00 0.00 0.00 0.00 0.00 0.00 0.00 0.01 0.01 0.01 0.02 0.03 0.07 0.10 0.18 0.21 0.23 0.28 0.28 0.27 0.29 0.29 0.31 0.36 0.44 0.59
0.00 0.00 0.00 0.00 0.00 0.00 0.00 0.00 0.00 0.00 0.00 0.00 0.00 0.00 0.00 0.00 0.00 0.00 0.00 0.00 0.00 0.00 0.00 0.00 0.00 0.00 0.00 0.01 0.01 0.02 0.03 0.06 0.10 0.13 0.16 0.15 0.12 0.16 0.22 0.27 0.32 0.39 0.49
0.00 0.00 0.00 0.00 0.00 0.00 0.00 0.00 0.00 0.00 0.00 0.00 0.00 0.00 0.00 0.00 0.00 0.00 0.00 0.00 0.00 0.00 0.00 0.00 0.00 0.00 0.00 0.00 0.00 0.01 0.01 0.01 0.02 0.03 0.04 0.05 0.06 0.07 0.10 0.13 0.18 0.25 0.27
0.00 0.00 0.00 0.00 0.00 0.00 0.00 0.00 0.00 0.00 0.00 0.00 0.00 0.00 0.00 0.00 0.00 0.00 0.00 0.00 0.00 0.00 0.00 0.00 0.00 0.00 0.00 0.00 0.00 0.00 0.01 0.01 0.02 0.02 0.03 0.04 0.05 0.08 0.12 0.22 0.27 0.25 0.19
0.00 0.00 0.00 0.00 0.00 0.00 0.00 0.00 0.00 0.00 0.00 0.00 0.00 0.00 0.00 0.00 0.00 0.00 0.00 0.00 0.00 0.00 0.00 0.00 0.00 0.00 0.00 0.00 0.01 0.01 0.03 0.04 0.03 0.04 0.03 0.04 0.07 0.13 0.16 0.16 0.12 0.08 0.06
0.00 0.00 0.00 0.00 0.00 0.00 0.00 0.00 0.00 0.00 0.00 0.00 0.00 0.00 0.00 0.00 0.00 0.00 0.00 0.00 0.00 0.00 0.00 0.00 0.00 0.00 0.00 0.02 0.03 0.03 0.04 0.04 0.04 0.06 0.10 0.13 0.18 0.16 0.11 0.09 0.08 0.07 0.04
0.00 0.00 0.00 0.00 0.00 0.00 0.00 0.00 0.00 0.00 0.00 0.00 0.00 0.00 0.00 0.00 0.00 0.00 0.00 0.00 0.00 0.00 0.01 0.02 0.01 0.02 0.03 0.08 0.05 0.03 0.04 0.06 0.08 0.11 0.13 0.16 0.20 0.16 0.12 0.10 0.08 0.05 0.03
0.00 0.00 0.00 0.00 0.00 0.00 0.00 0.00 0.00 0.00 0.00 0.00 0.00 0.00 0.00 0.00 0.00 0.00 0.00 0.01 0.06 0.10 0.14 0.24 0.16 0.22 0.26 0.25 0.17 0.19 0.23 0.26 0.26 0.25 0.23 0.16 0.12 0.10 0.06 0.04 0.01 0.01 0.00
0.00 0.00 0.00 0.00 0.00 0.00 0.00 0.00 0.00 0.00 0.00 0.00 0.00 0.00 0.00 0.00 0.00 0.00 0.03 0.06 0.11 0.21 0.23 0.38 0.46 0.53 0.51 0.48 0.41 0.30 0.21 0.14 0.11 0.09 0.07 0.04 0.02 0.00 0.00 0.00 0.00 0.00 0.00
0.00 0.00 0.00 0.00 0.00 0.00 0.00 0.00 0.00 0.00 0.00 0.00 0.00 0.00 0.00 0.00 0.00 0.00 0.02 0.04 0.04 0.12 0.14 0.15 0.15 0.18 0.19 0.14 0.09 0.06 0.05 0.05 0.03 0.01 0.00 0.00 0.00 0.00 0.00 0.00 0.00 0.00 0.00
0.00 0.00 0.00 0.00 0.00 0.00 0.00 0.00 0.00 0.00 0.00 0.00 0.00 0.00 0.00 0.00 0.00 0.00 0.01 0.04 0.03 0.02 0.05 0.07 0.05 0.04 0.03 0.02 0.01 0.00 0.00 0.00 0.00 0.00 0.00 0.00 0.00 0.00 0.00 0.00 0.00 0.00 0.00
0.00 0.00 0.00 0.00 0.00 0.00 0.00 0.00 0.00 0.00 0.00 0.00 0.00 0.00 0.00 0.00 0.00 0.00 0.01 0.02 0.03 0.02 0.02 0.01 0.01 0.00 0.00 0.00 0.00 0.00 0.00 0.00 0.00 0.00 0.00 0.00 0.00 0.00 0.00 0.00 0.00 0.00 0.00
0.00 0.00 0.00 0.00 0.00 0.00 0.00 0.00 0.00 0.00 0.00 0.00 0.00 0.00 0.00 0.00 0.00 0.00 0.00 0.00 0.00 0.00 0.00 0.00 0.00 0.00 0.00 0.00 0.00 0.00 0.00 0.00 0.00 0.00 0.00 0.00 0.00 0.00 0.00 0.00 0.00 0.00 0.00
0.00 0.00 0.00 0.00 0.00 0.00 0.00 0.00 0.00 0.00 0.00 0.00 0.00 0.00 0.00 0.00 0.00 0.00 0.00 0.00 0.00 0.00 0.00 0.00 0.00 0.00 0.00 0.00 0.00 0.00 0.00 0.00 0.00 0.00 0.00 0.00 0.00 0.00 0.00 0.00 0.00 0.00 0.00
0.00 0.00 0.00 0.00 0.00 0.00 0.00 0.00 0.00 0.00 0.00 0.00 0.00 0.00 0.00 0.01 0.00 0.00 0.00 0.00 0.00 0.00 0.00 0.00 0.00 0.00 0.00 0.00 0.00 0.00 0.00 0.00 0.00 0.00 0.00 0.00 0.00 0.00 0.00 0.00 0.00 0.00 0.00
0.00 0.00 0.00 0.00 0.00 0.00 0.00 0.00 0.00 0.00 0.00 0.00 0.00 0.00 0.00 0.01 0.00 0.00 0.00 0.00 0.00 0.00 0.00 0.00 0.00 0.00 0.00 0.00 0.00 0.00 0.00 0.00 0.00 0.00 0.00 0.00 0.00 0.00 0.00 0.00 0.00 0.00 0.00
0.00 0.00 0.00 0.00 0.00 0.00 0.00 0.00 0.00 0.00 0.00 0.00 0.00 0.00 0.00 0.00 0.00 0.00 0.00 0.00 0.00 0.00 0.00 0.00 0.00 0.00 0.00 0.00 0.00 0.00 0.00 0.00 0.00 0.00 0.00 0.00 0.00 0.00 0.00 0.00 0.00 0.00 0.00

GFSMW_prec_precacc24_090.txt.gz
Total_Precipitation_Accumulation
0.00 0.00 0.01 0.04 0.04 0.03 0.07 0.16 0.23 0.28 0.22 0.25 0.25 0.19 0.14 0.16 0.03 0.06 0.06 0.02 0.01 0.00 0.00 0.00 0.00 0.00 0.00 0.00 0.00 0.00 0.00 0.00 0.00 0.00 0.00 0.00 0.00 0.00 0.00 0.00 0.00 0.00 0.00
0.00 0.00 0.01 0.00 0.02 0.02 0.03 0.05 0.06 0.11 0.12 0.22 0.28 0.24 0.25 0.20 0.13 0.14 0.05 0.15 0.18 0.18 0.05 0.01 0.02 0.02 0.01 0.01 0.00 0.01 0.01 0.01 0.01 0.01 0.00 0.00 0.00 0.00 0.00 0.00 0.00 0.00 0.00
0.00 0.00 0.01 0.01 0.00 0.01 0.01 0.01 0.02 0.05 0.11 0.19 0.19 0.14 0.13 0.16 0.22 0.17 0.25 0.46 0.42 0.20 0.11 0.10 0.03 0.08 0.05 0.10 0.06 0.16 0.15 0.10 0.10 0.08 0.09 0.02 0.01 0.00 0.00 0.00 0.00 0.00 0.00
0.00 0.00 0.00 0.01 0.00 0.00 0.00 0.00 0.01 0.03 0.05 0.07 0.09 0.11 0.11 0.11 0.11 0.12 0.17 0.16 0.13 0.18 0.26 0.22 0.13 0.09 0.09 0.12 0.26 0.23 0.26 0.26 0.16 0.17 0.09 0.07 0.03 0.02 0.01 0.02 0.04 0.02 0.01
0.00 0.00 0.00 0.00 0.00 0.00 0.00 0.00 0.00 0.00 0.03 0.06 0.06 0.07 0.04 0.03 0.05 0.07 0.07 0.04 0.04 0.05 0.13 0.25 0.25 0.18 0.12 0.11 0.15 0.20 0.16 0.21 0.23 0.21 0.28 0.21 0.12 0.06 0.06 0.07 0.06 0.05 0.03
0.00 0.00 0.00 0.00 0.00 0.00 0.00 0.00 0.00 0.00 0.00 0.02 0.04 0.07 0.04 0.03 0.03 0.03 0.01 0.00 0.01 0.01 0.01 0.02 0.08 0.13 0.07 0.11 0.16 0.23 0.25 0.19 0.19 0.18 0.23 0.35 0.33 0.23 0.18 0.14 0.08 0.08 0.05
0.00 0.00 0.00 0.00 0.00 0.00 0.00 0.00 0.00 0.00 0.00 0.00 0.00 0.01 0.01 0.01 0.01 0.00 0.00 0.00 0.00 0.00 0.02 0.02 0.02 0.05 0.07 0.07 0.07 0.10 0.11 0.15 0.20 0.23 0.23 0.24 0.25 0.23 0.23 0.23 0.19 0.14 0.13
0.00 0.00 0.00 0.00 0.00 0.00 0.00 0.00 0.00 0.00 0.00 0.00 0.00 0.00 0.00 0.00 0.00 0.00 0.00 0.00 0.00 0.00 0.00 0.00 0.00 0.01 0.03 0.05 0.06 0.06 0.08 0.11 0.18 0.24 0.25 0.22 0.19 0.21 0.22 0.21 0.21 0.23 0.20
0.00 0.00 0.00 0.00 0.00 0.00 0.00 0.00 0.00 0.00 0.00 0.00 0.00 0.00 0.00 0.00 0.00 0.00 0.00 0.00 0.00 0.00 0.00 0.00 0.00 0.01 0.02 0.03 0.06 0.09 0.11 0.13 0.15 0.17 0.20 0.22 0.25 0.27 0.27 0.29 0.34 0.51 0.58
0.00 0.00 0.00 0.00 0.00 0.00 0.00 0.00 0.00 0.00 0.00 0.00 0.00 0.00 0.00 0.00 0.00 0.00 0.00 0.00 0.00 0.00 0.00 0.00 0.01 0.01 0.01 0.01 0.02 0.05 0.05 0.09 0.11 0.12 0.16 0.21 0.26 0.28 0.28 0.31 0.35 0.43 0.57
0.00 0.00 0.00 0.00 0.00 0.00 0.00 0.00 0.00 0.00 0.00 0.00 0.00 0.00 0.00 0.00 0.00 0.00 0.00 0.00 0.00 0.00 0.00 0.00 0.00 0.00 0.00 0.00 0.01 0.01 0.02 0.04 0.04 0.04 0.07 0.09 0.09 0.16 0.22 0.27 0.30 0.33 0.36
0.00 0.00 0.00 0.00 0.00 0.00 0.00 0.00 0.00 0.00 0.00 0.00 0.00 0.00 0.00 0.00 0.00 0.00 0.00 0.00 0.00 0.00 0.00 0.00 0.00 0.00 0.00 0.00 0.00 0.00 0.01 0.01 0.02 0.03 0.04 0.05 0.06 0.07 0.09 0.09 0.10 0.11 0.12
0.00 0.00 0.00 0.00 0.00 0.00 0.00 0.00 0.00 0.00 0.00 0.00 0.00 0.00 0.00 0.00 0.00 0.00 0.00 0.00 0.00 0.00 0.00 0.00 0.00 0.00 0.00 0.00 0.00 0.00 0.00 0.01 0.01 0.02 0.03 0.04 0.04 0.03 0.03 0.04 0.05 0.05 0.06
0.00 0.00 0.00 0.00 0.00 0.00 0.00 0.00 0.00 0.00 0.00 0.00 0.00 0.00 0.00 0.00 0.00 0.00 0.00 0.00 0.00 0.00 0.00 0.00 0.00 0.00 0.00 0.00 0.00 0.00 0.01 0.03 0.03 0.03 0.03 0.02 0.03 0.02 0.03 0.05 0.06 0.06 0.06
0.00 0.00 0.00 0.00 0.00 0.00 0.00 0.00 0.00 0.00 0.00 0.00 0.00 0.00 0.00 0.00 0.00 0.00 0.00 0.00 0.00 0.00 0.00 0.00 0.00 0.00 0.00 0.00 0.00 0.01 0.02 0.03 0.03 0.04 0.04 0.04 0.09 0.09 0.07 0.08 0.08 0.06 0.03
0.00 0.00 0.00 0.00 0.00 0.00 0.00 0.00 0.00 0.00 0.00 0.00 0.00 0.00 0.00 0.00 0.00 0.00 0.00 0.00 0.00 0.00 0.00 0.00 0.00 0.00 0.01 0.03 0.01 0.01 0.02 0.04 0.04 0.06 0.09 0.14 0.18 0.16 0.12 0.10 0.08 0.05 0.03
0.00 0.00 0.00 0.00 0.00 0.00 0.00 0.00 0.00 0.00 0.00 0.00 0.00 0.00 0.00 0.00 0.00 0.00 0.00 0.00 0.00 0.00 0.00 0.01 0.02 0.07 0.11 0.14 0.12 0.16 0.20 0.19 0.19 0.20 0.21 0.15 0.11 0.09 0.06 0.04 0.01 0.01 0.00
0.00 0.00 0.00 0.00 0.00 0.00 0.00 0.00 0.00 0.00 0.00 0.00 0.00 0.00 0.00 0.00 0.00 0.00 0.00 0.00 0.00 0.00 0.01 0.04 0.07 0.10 0.20 0.25 0.25 0.21 0.18 0.13 0.10 0.08 0.06 0.04 0.02 0.00 0.00 0.00 0.00 0.00 0.00
0.00 0.00 0.00 0.00 0.00 0.00 0.00 0.00 0.00 0.00 0.00 0.00 0.00 0.00 0.00 0.00 0.00 0.00 0.00 0.00 0.00 0.00 0.00 0.01 0.02 0.03 0.04 0.05 0.04 0.04 0.04 0.04 0.03 0.01 0.00 0.00 0.00 0.00 0.00 0.00 0.00 0.00 0.00
0.00 0.00 0.00 0.00 0.00 0.00 0.00 0.00 0.00 0.00 0.00 0.00 0.00 0.00 0.00 0.00 0.00 0.00 0.00 0.00 0.00 0.00 0.00 0.01 0.00 0.00 0.00 0.00 0.00 0.00 0.00 0.00 0.00 0.00 0.00 0.00 0.00 0.00 0.00 0.00 0.00 0.00 0.00
0.00 0.00 0.00 0.00 0.00 0.00 0.00 0.00 0.00 0.00 0.00 0.00 0.00 0.00 0.00 0.00 0.00 0.00 0.00 0.00 0.00 0.00 0.00 0.00 0.00 0.00 0.00 0.00 0.00 0.00 0.00 0.00 0.00 0.00 0.00 0.00 0.00 0.00 0.00 0.00 0.00 0.00 0.00
0.00 0.00 0.00 0.00 0.00 0.00 0.00 0.00 0.00 0.00 0.00 0.00 0.00 0.00 0.00 0.00 0.00 0.00 0.00 0.00 0.00 0.00 0.00 0.00 0.00 0.00 0.00 0.00 0.00 0.00 0.00 0.00 0.00 0.00 0.00 0.00 0.00 0.00 0.00 0.00 0.00 0.00 0.00
0.00 0.00 0.00 0.00 0.00 0.00 0.00 0.00 0.00 0.00 0.00 0.00 0.00 0.00 0.00 0.00 0.00 0.00 0.00 0.00 0.00 0.00 0.00 0.00 0.00 0.00 0.00 0.00 0.00 0.00 0.00 0.00 0.00 0.00 0.00 0.00 0.00 0.00 0.00 0.00 0.00 0.00 0.00
0.00 0.00 0.00 0.00 0.00 0.00 0.00 0.00 0.00 0.00 0.00 0.00 0.00 0.00 0.00 0.01 0.00 0.00 0.00 0.00 0.00 0.00 0.00 0.00 0.00 0.00 0.00 0.00 0.00 0.00 0.00 0.00 0.00 0.00 0.00 0.00 0.00 0.00 0.00 0.00 0.00 0.00 0.00
0.00 0.00 0.00 0.00 0.00 0.00 0.00 0.00 0.00 0.00 0.00 0.00 0.00 0.00 0.00 0.01 0.00 0.00 0.00 0.00 0.00 0.00 0.00 0.00 0.00 0.00 0.00 0.00 0.00 0.00 0.00 0.00 0.00 0.00 0.00 0.00 0.00 0.00 0.00 0.00 0.00 0.00 0.00
0.00 0.00 0.00 0.00 0.00 0.00 0.00 0.00 0.00 0.00 0.00 0.00 0.00 0.00 0.00 0.00 0.00 0.00 0.00 0.00 0.00 0.00 0.00 0.00 0.00 0.00 0.00 0.00 0.00 0.00 0.00 0.00 0.00 0.00 0.00 0.00 0.00 0.00 0.00 0.00 0.00 0.00 0.00

GFSMW_prec_precacc24_093.txt.gz
Total_Precipitation_Accumulation
0.00 0.00 0.01 0.04 0.04 0.03 0.11 0.18 0.24 0.34 0.25 0.26 0.29 0.23 0.18 0.18 0.07 0.06 0.05 0.03 0.01 0.00 0.00 0.00 0.00 0.00 0.00 0.00 0.00 0.00 0.00 0.00 0.00 0.00 0.00 0.00 0.00 0.00 0.00 0.00 0.00 0.00 0.00
0.00 0.00 0.01 0.00 0.02 0.02 0.06 0.14 0.07 0.11 0.14 0.24 0.31 0.28 0.32 0.21 0.16 0.14 0.13 0.18 0.19 0.18 0.05 0.00 0.02 0.01 0.01 0.01 0.00 0.01 0.01 0.01 0.01 0.01 0.00 0.00 0.00 0.00 0.00 0.00 0.00 0.00 0.00
0.00 0.00 0.01 0.01 0.01 0.02 0.02 0.05 0.07 0.07 0.11 0.19 0.21 0.16 0.19 0.18 0.23 0.20 0.32 0.55 0.55 0.23 0.13 0.10 0.03 0.07 0.05 0.10 0.06 0.16 0.15 0.10 0.10 0.09 0.09 0.02 0.01 0.00 0.00 0.00 0.00 0.00 0.00
0.00 0.00 0.00 0.01 0.02 0.01 0.02 0.01 0.03 0.04 0.09 0.10 0.10 0.12 0.14 0.17 0.17 0.17 0.21 0.17 0.29 0.31 0.36 0.30 0.18 0.09 0.09 0.11 0.25 0.23 0.26 0.26 0.16 0.18 0.09 0.07 0.03 0.03 0.02 0.02 0.04 0.02 0.01
0.00 0.00 0.00 0.00 0.01 0.01 0.01 0.00 0.00 0.00 0.05 0.08 0.09 0.12 0.07 0.11 0.13 0.10 0.11 0.06 0.09 0.16 0.21 0.26 0.28 0.20 0.07 0.06 0.10 0.18 0.14 0.19 0.21 0.19 0.27 0.20 0.12 0.06 0.06 0.07 0.06 0.05 0.03
0.00 0.00 0.00 0.00 0.01 0.00 0.00 0.00 0.00 0.00 0.01 0.04 0.08 0.13 0.07 0.08 0.10 0.09 0.05 0.03 0.01 0.02 0.02 0.05 0.08 0.08 0.05 0.05 0.08 0.16 0.18 0.14 0.16 0.16 0.21 0.32 0.31 0.21 0.16 0.13 0.08 0.08 0.05
0.00 0.00 0.00 0.00 0.00 0.00 0.00 0.00 0.00 0.00 0.00 0.00 0.02 0.04 0.06 0.05 0.05 0.07 0.08 0.07 0.03 0.01 0.04 0.03 0.02 0.03 0.05 0.04 0.03 0.04 0.06 0.09 0.14 0.18 0.18 0.20 0.22 0.22 0.21 0.22 0.19 0.14 0.14
0.00 0.00 0.00 0.00 0.00 0.00 0.00 0.00 0.00 0.00 0.00 0.00 0.00 0.00 0.01 0.01 0.01 0.01 0.00 0.00 0.00 0.00 0.00 0.00 0.00 0.01 0.02 0.03 0.04 0.05 0.06 0.06 0.12 0.18 0.19 0.18 0.16 0.20 0.21 0.20 0.20 0.21 0.19
0.00 0.00 0.00 0.00 0.00 0.00 0.00 0.00 0.00 0.00 0.00 0.00 0.00 0.00 0.00 0.00 0.00 0.00 0.00 0.00 0.00 0.00 0.00 0.00 0.00 0.01 0.02 0.02 0.03 0.05 0.07 0.08 0.09 0.12 0.15 0.13 0.13 0.15 0.15 0.15 0.19 0.33 0.43
0.00 0.00 0.00 0.00 0.00 0.00 0.00 0.00 0.00 0.00 0.00 0.00 0.00 0.00 0.00 0.00 0.00 0.00 0.00 0.00 0.00 0.00 0.00 0.00 0.00 0.01 0.01 0.00 0.01 0.02 0.03 0.05 0.07 0.08 0.11 0.11 0.08 0.09 0.09 0.13 0.21 0.29 0.45
0.00 0.00 0.00 0.00 0.00 0.00 0.00 0.00 0.00 0.00 0.00 0.00 0.00 0.00 0.00 0.00 0.00 0.00 0.00 0.00 0.00 0.00 0.00 0.00 0.00 0.00 0.00 0.00 0.00 0.00 0.01 0.02 0.02 0.03 0.05 0.05 0.04 0.05 0.08 0.10 0.16 0.22 0.26
0.00 0.00 0.00 0.00 0.00 0.00 0.00 0.00 0.00 0.00 0.00 0.00 0.00 0.00 0.00 0.00 0.00 0.00 0.00 0.00 0.00 0.00 0.00 0.00 0.00 0.00 0.00 0.00 0.00 0.00 0.00 0.00 0.00 0.01 0.01 0.02 0.03 0.04 0.04 0.04 0.06 0.09 0.10
0.00 0.00 0.00 0.00 0.00 0.00 0.00 0.00 0.00 0.00 0.00 0.00 0.00 0.00 0.00 0.00 0.00 0.00 0.00 0.00 0.00 0.00 0.00 0.00 0.00 0.00 0.00 0.00 0.00 0.00 0.00 0.00 0.00 0.01 0.01 0.01 0.02 0.02 0.03 0.03 0.04 0.03 0.03
0.00 0.00 0.00 0.00 0.00 0.00 0.00 0.00 0.00 0.00 0.00 0.00 0.00 0.00 0.00 0.00 0.00 0.00 0.00 0.00 0.00 0.00 0.00 0.00 0.00 0.00 0.00 0.00 0.00 0.00 0.00 0.01 0.01 0.01 0.01 0.01 0.02 0.02 0.02 0.02 0.03 0.03 0.04
0.00 0.00 0.00 0.00 0.00 0.00 0.00 0.00 0.00 0.00 0.00 0.00 0.00 0.00 0.00 0.00 0.00 0.00 0.00 0.00 0.00 0.00 0.00 0.00 0.00 0.00 0.00 0.00 0.00 0.00 0.00 0.00 0.00 0.01 0.02 0.03 0.06 0.07 0.06 0.07 0.08 0.06 0.03
0.00 0.00 0.00 0.00 0.00 0.00 0.00 0.00 0.00 0.00 0.00 0.00 0.00 0.00 0.00 0.00 0.00 0.00 0.00 0.00 0.00 0.00 0.00 0.00 0.00 0.00 0.00 0.01 0.01 0.00 0.00 0.00 0.00 0.01 0.05 0.11 0.16 0.14 0.10 0.09 0.06 0.04 0.03
0.00 0.00 0.00 0.00 0.00 0.00 0.00 0.00 0.00 0.00 0.00 0.00 0.00 0.00 0.00 0.00 0.00 0.00 0.00 0.00 0.00 0.00 0.00 0.00 0.00 0.00 0.00 0.03 0.01 0.01 0.02 0.04 0.05 0.10 0.15 0.14 0.10 0.08 0.05 0.03 0.01 0.01 0.00
0.00 0.00 0.00 0.00 0.00 0.00 0.00 0.00 0.00 0.00 0.00 0.00 0.00 0.00 0.00 0.00 0.00 0.00 0.00 0.00 0.00 0.00 0.00 0.00 0.00 0.00 0.01 0.02 0.01 0.01 0.02 0.04 0.05 0.05 0.05 0.03 0.02 0.00 0.00 0.00 0.00 0.00 0.00
0.00 0.00 0.00 0.00 0.00 0.00 0.00 0.00 0.00 0.00 0.00 0.00 0.00 0.00 0.00 0.00 0.00 0.00 0.00 0.00 0.00 0.00 0.00 0.00 0.00 0.00 0.00 0.01 0.00 0.00 0.00 0.01 0.00 0.00 0.00 0.00 0.00 0.00 0.00 0.00 0.00 0.00 0.00
0.00 0.00 0.00 0.00 0.00 0.00 0.00 0.00 0.00 0.00 0.00 0.00 0.00 0.00 0.00 0.00 0.00 0.00 0.00 0.00 0.00 0.00 0.00 0.00 0.00 0.00 0.00 0.00 0.00 0.00 0.00 0.00 0.00 0.00 0.00 0.00 0.00 0.00 0.00 0.00 0.00 0.00 0.00
0.00 0.00 0.00 0.00 0.00 0.00 0.00 0.00 0.00 0.00 0.00 0.00 0.00 0.00 0.00 0.00 0.00 0.00 0.00 0.00 0.00 0.00 0.00 0.00 0.00 0.00 0.00 0.00 0.00 0.00 0.00 0.00 0.00 0.00 0.00 0.00 0.00 0.00 0.00 0.00 0.00 0.00 0.00
0.00 0.00 0.00 0.00 0.00 0.00 0.00 0.00 0.00 0.00 0.00 0.00 0.00 0.00 0.00 0.00 0.00 0.00 0.00 0.00 0.00 0.00 0.00 0.00 0.00 0.00 0.00 0.00 0.00 0.00 0.00 0.00 0.00 0.00 0.00 0.00 0.00 0.00 0.00 0.00 0.00 0.00 0.00
0.00 0.00 0.00 0.00 0.00 0.00 0.00 0.00 0.00 0.00 0.00 0.00 0.00 0.00 0.00 0.00 0.00 0.00 0.00 0.00 0.00 0.00 0.00 0.00 0.00 0.00 0.00 0.00 0.00 0.00 0.00 0.00 0.00 0.00 0.00 0.00 0.00 0.00 0.00 0.00 0.00 0.00 0.00
0.00 0.00 0.00 0.00 0.00 0.00 0.00 0.00 0.00 0.00 0.00 0.00 0.00 0.00 0.00 0.01 0.00 0.00 0.00 0.00 0.00 0.00 0.00 0.00 0.00 0.00 0.00 0.00 0.00 0.00 0.00 0.00 0.00 0.00 0.00 0.00 0.00 0.00 0.00 0.00 0.00 0.00 0.00
0.00 0.00 0.00 0.00 0.00 0.00 0.00 0.00 0.00 0.00 0.00 0.00 0.00 0.00 0.00 0.01 0.00 0.00 0.00 0.00 0.00 0.00 0.00 0.00 0.00 0.00 0.00 0.00 0.00 0.00 0.00 0.00 0.00 0.00 0.00 0.00 0.00 0.00 0.00 0.00 0.00 0.00 0.00
0.00 0.00 0.00 0.01 0.00 0.00 0.00 0.00 0.00 0.00 0.00 0.00 0.00 0.00 0.00 0.00 0.00 0.00 0.01 0.00 0.00 0.00 0.00 0.00 0.00 0.00 0.00 0.00 0.00 0.00 0.00 0.00 0.00 0.00 0.00 0.00 0.00 0.00 0.00 0.00 0.00 0.00 0.00

GFSMW_prec_precacc24_096.txt.gz
Total_Precipitation_Accumulation
0.00 0.00 0.01 0.04 0.04 0.06 0.12 0.18 0.25 0.36 0.25 0.27 0.29 0.30 0.18 0.19 0.12 0.08 0.06 0.02 0.01 0.00 0.00 0.00 0.00 0.00 0.00 0.00 0.00 0.00 0.00 0.00 0.00 0.00 0.00 0.00 0.00 0.00 0.00 0.00 0.00 0.00 0.00
0.00 0.00 0.01 0.00 0.02 0.03 0.07 0.14 0.08 0.14 0.15 0.24 0.34 0.31 0.49 0.32 0.32 0.23 0.22 0.26 0.19 0.17 0.04 0.00 0.02 0.00 0.00 0.00 0.00 0.01 0.01 0.01 0.01 0.01 0.00 0.00 0.00 0.00 0.00 0.00 0.00 0.00 0.00
0.00 0.00 0.01 0.01 0.01 0.02 0.03 0.05 0.07 0.07 0.16 0.27 0.32 0.29 0.29 0.27 0.38 0.34 0.51 0.64 0.64 0.32 0.20 0.14 0.10 0.13 0.08 0.06 0.06 0.08 0.12 0.09 0.10 0.09 0.09 0.02 0.01 0.00 0.00 0.00 0.00 0.00 0.00
0.00 0.00 0.00 0.01 0.02 0.02 0.05 0.02 0.03 0.05 0.10 0.21 0.25 0.22 0.22 0.28 0.31 0.33 0.34 0.26 0.42 0.36 0.43 0.39 0.28 0.21 0.16 0.19 0.24 0.25 0.25 0.23 0.16 0.16 0.09 0.07 0.04 0.03 0.02 0.02 0.04 0.02 0.01
0.00 0.00 0.00 0.00 0.01 0.01 0.04 0.06 0.01 0.01 0.05 0.13 0.18 0.24 0.16 0.16 0.17 0.14 0.16 0.15 0.18 0.22 0.25 0.24 0.26 0.19 0.10 0.12 0.16 0.19 0.16 0.15 0.16 0.15 0.22 0.17 0.11 0.05 0.06 0.07 0.06 0.05 0.03
0.00 0.00 0.00 0.00 0.01 0.01 0.01 0.02 0.02 0.02 0.03 0.08 0.12 0.16 0.10 0.12 0.16 0.14 0.09 0.07 0.08 0.10 0.11 0.16 0.17 0.11 0.12 0.11 0.16 0.17 0.16 0.16 0.13 0.13 0.17 0.25 0.24 0.17 0.13 0.10 0.07 0.08 0.05
0.00 0.00 0.00 0.00 0.00 0.00 0.01 0.02 0.01 0.01 0.00 0.01 0.04 0.07 0.09 0.09 0.06 0.09 0.09 0.08 0.05 0.04 0.07 0.08 0.11 0.09 0.08 0.05 0.04 0.06 0.05 0.06 0.09 0.13 0.12 0.14 0.16 0.17 0.16 0.17 0.16 0.13 0.12
0.00 0.00 0.00 0.00 0.00 0.00 0.00 0.00 0.00 0.00 0.00 0.00 0.00 0.00 0.03 0.05 0.05 0.03 0.00 0.00 0.01 0.01 0.01 0.00 0.00 0.01 0.02 0.03 0.03 0.04 0.03 0.04 0.08 0.13 0.15 0.15 0.14 0.14 0.15 0.15 0.15 0.14 0.11
0.00 0.00 0.00 0.00 0.00 0.00 0.00 0.00 0.00 0.00 0.00 0.00 0.00 0.00 0.00 0.00 0.00 0.00 0.00 0.00 0.00 0.00 0.00 0.00 0.00 0.00 0.00 0.00 0.01 0.01 0.02 0.02 0.03 0.06 0.08 0.10 0.10 0.11 0.12 0.13 0.16 0.22 0.19
0.00 0.00 0.00 0.00 0.00 0.00 0.00 0.00 0.00 0.00 0.00 0.00 0.00 0.00 0.00 0.00 0.00 0.00 0.00 0.00 0.00 0.00 0.00 0.00 0.00 0.01 0.01 0.00 0.00 0.01 0.01 0.01 0.01 0.03 0.04 0.06 0.06 0.06 0.06 0.07 0.07 0.08 0.15
0.00 0.00 0.00 0.00 0.00 0.00 0.00 0.00 0.00 0.00 0.00 0.00 0.00 0.00 0.00 0.00 0.00 0.00 0.00 0.00 0.00 0.00 0.00 0.00 0.00 0.00 0.00 0.00 0.00 0.00 0.00 0.00 0.01 0.01 0.01 0.01 0.01 0.02 0.02 0.02 0.03 0.04 0.06
0.00 0.00 0.00 0.00 0.00 0.00 0.00 0.00 0.00 0.00 0.00 0.00 0.00 0.00 0.00 0.00 0.00 0.00 0.00 0.00 0.00 0.00 0.00 0.00 0.00 0.00 0.00 0.00 0.00 0.00 0.00 0.01 0.00 0.00 0.00 0.01 0.01 0.01 0.01 0.01 0.02 0.03 0.03
0.00 0.00 0.00 0.00 0.00 0.00 0.00 0.00 0.00 0.00 0.00 0.00 0.00 0.00 0.00 0.00 0.00 0.00 0.00 0.00 0.00 0.00 0.00 0.00 0.00 0.00 0.00 0.00 0.00 0.00 0.00 0.00 0.00 0.00 0.00 0.00 0.01 0.01 0.01 0.01 0.01 0.01 0.01
0.00 0.00 0.00 0.00 0.00 0.00 0.00 0.00 0.00 0.00 0.00 0.00 0.00 0.00 0.00 0.00 0.00 0.00 0.00 0.00 0.00 0.00 0.00 0.00 0.00 0.00 0.00 0.00 0.00 0.00 0.00 0.00 0.00 0.00 0.00 0.00 0.01 0.00 0.00 0.01 0.02 0.03 0.04
0.00 0.00 0.00 0.00 0.00 0.00 0.00 0.00 0.00 0.00 0.00 0.00 0.00 0.00 0.00 0.00 0.00 0.00 0.00 0.00 0.00 0.00 0.00 0.00 0.00 0.00 0.00 0.00 0.00 0.00 0.00 0.00 0.00 0.00 0.00 0.01 0.02 0.02 0.01 0.03 0.06 0.06 0.03
0.00 0.00 0.00 0.00 0.00 0.00 0.00 0.00 0.00 0.00 0.00 0.00 0.00 0.00 0.00 0.00 0.00 0.00 0.00 0.00 0.00 0.00 0.00 0.00 0.00 0.00 0.00 0.01 0.00 0.00 0.00 0.00 0.00 0.00 0.00 0.01 0.02 0.03 0.06 0.07 0.06 0.04 0.03
0.00 0.00 0.00 0.00 0.00 0.00 0.00 0.00 0.00 0.00 0.00 0.00 0.00 0.00 0.00 0.00 0.00 0.00 0.00 0.00 0.00 0.00 0.00 0.00 0.00 0.00 0.00 0.02 0.01 0.00 0.00 0.00 0.00 0.00 0.00 0.01 0.02 0.03 0.03 0.02 0.01 0.01 0.00
0.00 0.00 0.00 0.00 0.00 0.00 0.00 0.00 0.00 0.00 0.00 0.00 0.00 0.00 0.00 0.00 0.00 0.00 0.00 0.00 0.00 0.00 0.00 0.00 0.00 0.00 0.01 0.02 0.02 0.00 0.00 0.00 0.00 0.00 0.00 0.00 0.00 0.00 0.00 0.00 0.00 0.00 0.00
0.00 0.00 0.00 0.00 0.00 0.00 0.00 0.00 0.00 0.00 0.00 0.00 0.00 0.00 0.00 0.00 0.00 0.00 0.00 0.00 0.00 0.00 0.00 0.00 0.00 0.00 0.00 0.01 0.01 0.00 0.00 0.00 0.00 0.00 0.00 0.00 0.00 0.00 0.00 0.00 0.00 0.00 0.00
0.00 0.00 0.00 0.00 0.00 0.00 0.00 0.00 0.00 0.00 0.00 0.00 0.00 0.00 0.00 0.00 0.00 0.00 0.00 0.00 0.00 0.00 0.00 0.00 0.00 0.00 0.00 0.01 0.00 0.00 0.00 0.00 0.00 0.00 0.00 0.00 0.00 0.00 0.00 0.00 0.00 0.00 0.00
0.00 0.00 0.00 0.00 0.00 0.00 0.00 0.00 0.00 0.00 0.00 0.00 0.00 0.00 0.00 0.00 0.00 0.00 0.00 0.00 0.00 0.00 0.00 0.00 0.00 0.00 0.00 0.00 0.00 0.00 0.00 0.00 0.00 0.00 0.00 0.00 0.00 0.00 0.00 0.00 0.00 0.00 0.00
0.00 0.00 0.00 0.00 0.00 0.00 0.00 0.00 0.00 0.00 0.00 0.00 0.00 0.00 0.00 0.00 0.00 0.00 0.00 0.00 0.00 0.00 0.00 0.00 0.00 0.00 0.00 0.00 0.00 0.00 0.00 0.00 0.00 0.00 0.00 0.00 0.00 0.00 0.00 0.00 0.00 0.00 0.00
0.00 0.00 0.00 0.00 0.00 0.00 0.00 0.00 0.00 0.00 0.00 0.00 0.00 0.00 0.00 0.00 0.00 0.00 0.00 0.00 0.00 0.00 0.00 0.00 0.00 0.00 0.00 0.00 0.00 0.00 0.00 0.00 0.00 0.00 0.00 0.00 0.00 0.00 0.00 0.00 0.00 0.00 0.00
0.00 0.00 0.00 0.00 0.00 0.00 0.00 0.00 0.00 0.00 0.00 0.00 0.00 0.00 0.00 0.01 0.00 0.00 0.00 0.00 0.00 0.00 0.00 0.00 0.00 0.00 0.00 0.00 0.00 0.00 0.00 0.00 0.00 0.00 0.00 0.00 0.00 0.00 0.00 0.00 0.00 0.00 0.00
0.00 0.00 0.00 0.00 0.00 0.00 0.00 0.00 0.00 0.00 0.00 0.00 0.00 0.00 0.00 0.01 0.00 0.00 0.00 0.00 0.00 0.00 0.00 0.00 0.00 0.00 0.00 0.00 0.00 0.00 0.00 0.00 0.00 0.00 0.00 0.00 0.00 0.00 0.00 0.00 0.00 0.00 0.00
0.00 0.00 0.00 0.01 0.00 0.00 0.00 0.00 0.00 0.00 0.00 0.00 0.00 0.00 0.00 0.00 0.00 0.00 0.01 0.00 0.00 0.00 0.00 0.00 0.00 0.00 0.00 0.00 0.00 0.00 0.00 0.00 0.00 0.00 0.00 0.00 0.00 0.00 0.00 0.00 0.00 0.00 0.00

GFSMW_prec_precacc24_099.txt.gz
Total_Precipitation_Accumulation
0.00 0.00 0.01 0.04 0.05 0.10 0.16 0.20 0.27 0.36 0.27 0.24 0.26 0.29 0.19 0.19 0.14 0.05 0.05 0.01 0.00 0.00 0.00 0.00 0.00 0.00 0.00 0.00 0.00 0.00 0.00 0.00 0.00 0.00 0.00 0.00 0.00 0.00 0.00 0.00 0.00 0.00 0.00
0.00 0.00 0.01 0.00 0.02 0.05 0.12 0.27 0.15 0.15 0.15 0.24 0.36 0.33 0.53 0.33 0.33 0.26 0.26 0.32 0.24 0.15 0.04 0.00 0.02 0.00 0.00 0.00 0.00 0.00 0.00 0.00 0.00 0.01 0.00 0.00 0.00 0.00 0.00 0.00 0.00 0.00 0.00
0.00 0.00 0.01 0.01 0.01 0.02 0.03 0.07 0.16 0.19 0.23 0.32 0.52 0.50 0.52 0.41 0.42 0.42 0.68 0.84 0.88 0.55 0.29 0.16 0.15 0.18 0.10 0.08 0.08 0.04 0.03 0.05 0.06 0.08 0.09 0.02 0.01 0.00 0.00 0.00 0.00 0.00 0.00
0.00 0.00 0.00 0.01 0.02 0.02 0.05 0.03 0.04 0.05 0.14 0.31 0.31 0.29 0.31 0.41 0.43 0.51 0.58 0.46 0.59 0.53 0.59 0.55 0.43 0.33 0.20 0.24 0.26 0.25 0.24 0.21 0.21 0.17 0.12 0.09 0.04 0.03 0.02 0.02 0.03 0.01 0.01
0.00 0.00 0.00 0.00 0.01 0.01 0.04 0.06 0.01 0.01 0.09 0.18 0.26 0.28 0.16 0.16 0.19 0.20 0.21 0.21 0.22 0.25 0.29 0.31 0.35 0.29 0.19 0.19 0.22 0.20 0.21 0.17 0.21 0.22 0.24 0.17 0.10 0.04 0.05 0.06 0.04 0.04 0.02
0.00 0.00 0.00 0.00 0.01 0.01 0.02 0.02 0.04 0.06 0.16 0.15 0.16 0.17 0.12 0.14 0.18 0.16 0.12 0.11 0.14 0.15 0.16 0.20 0.22 0.21 0.19 0.13 0.17 0.20 0.18 0.20 0.15 0.16 0.19 0.18 0.16 0.09 0.07 0.07 0.04 0.05 0.03
0.00 0.00 0.00 0.00 0.00 0.00 0.01 0.04 0.03 0.05 0.05 0.06 0.06 0.09 0.12 0.11 0.08 0.10 0.10 0.11 0.08 0.07 0.12 0.13 0.16 0.14 0.14 0.10 0.07 0.07 0.06 0.06 0.06 0.09 0.10 0.11 0.12 0.11 0.09 0.12 0.10 0.07 0.05
0.00 0.00 0.00 0.00 0.00 0.00 0.00 0.00 0.01 0.03 0.01 0.00 0.00 0.00 0.03 0.05 0.06 0.03 0.01 0.01 0.02 0.02 0.02 0.02 0.02 0.03 0.04 0.05 0.04 0.04 0.05 0.05 0.06 0.07 0.09 0.09 0.09 0.08 0.09 0.09 0.11 0.10 0.07
0.00 0.00 0.00 0.00 0.00 0.00 0.00 0.00 0.00 0.00 0.00 0.00 0.00 0.00 0.00 0.00 0.00 0.00 0.00 0.00 0.00 0.00 0.00 0.00 0.00 0.00 0.00 0.00 0.00 0.00 0.01 0.02 0.02 0.03 0.04 0.03 0.04 0.05 0.05 0.08 0.10 0.15 0.13
0.00 0.00 0.00 0.00 0.00 0.00 0.00 0.00 0.00 0.00 0.00 0.00 0.00 0.00 0.00 0.00 0.00 0.00 0.00 0.00 0.00 0.00 0.00 0.00 0.00 0.01 0.01 0.00 0.00 0.01 0.00 0.00 0.01 0.01 0.02 0.03 0.02 0.01 0.01 0.02 0.03 0.03 0.07
0.00 0.00 0.00 0.00 0.00 0.00 0.00 0.00 0.00 0.00 0.00 0.00 0.00 0.00 0.00 0.00 0.00 0.00 0.00 0.00 0.00 0.00 0.00 0.00 0.00 0.00 0.00 0.00 0.00 0.00 0.00 0.00 0.01 0.01 0.01 0.02 0.01 0.01 0.01 0.01 0.01 0.01 0.01
0.00 0.00 0.00 0.00 0.00 0.00 0.00 0.00 0.00 0.00 0.00 0.00 0.00 0.00 0.00 0.00 0.00 0.00 0.00 0.00 0.00 0.00 0.00 0.00 0.00 0.00 0.00 0.00 0.00 0.00 0.00 0.01 0.00 0.00 0.00 0.01 0.01 0.01 0.01 0.01 0.01 0.01 0.01
0.00 0.00 0.00 0.00 0.00 0.00 0.00 0.00 0.00 0.00 0.00 0.00 0.00 0.00 0.00 0.00 0.00 0.00 0.00 0.00 0.00 0.00 0.00 0.00 0.00 0.00 0.00 0.00 0.00 0.00 0.00 0.00 0.00 0.00 0.00 0.00 0.00 0.01 0.01 0.01 0.01 0.01 0.00
0.00 0.00 0.00 0.00 0.00 0.00 0.00 0.00 0.00 0.00 0.00 0.00 0.00 0.00 0.00 0.00 0.00 0.00 0.00 0.00 0.00 0.00 0.00 0.00 0.00 0.00 0.00 0.00 0.00 0.00 0.00 0.00 0.00 0.00 0.00 0.00 0.00 0.00 0.00 0.00 0.00 0.00 0.00
0.00 0.00 0.00 0.00 0.00 0.00 0.00 0.00 0.00 0.00 0.00 0.00 0.00 0.00 0.00 0.00 0.00 0.00 0.00 0.00 0.00 0.00 0.00 0.00 0.00 0.00 0.00 0.00 0.00 0.00 0.00 0.00 0.00 0.00 0.00 0.00 0.01 0.00 0.00 0.00 0.00 0.00 0.00
0.00 0.00 0.00 0.00 0.00 0.00 0.00 0.00 0.00 0.00 0.00 0.00 0.00 0.00 0.00 0.00 0.00 0.00 0.00 0.00 0.00 0.00 0.00 0.00 0.00 0.00 0.00 0.01 0.00 0.00 0.00 0.00 0.00 0.00 0.00 0.00 0.00 0.01 0.01 0.00 0.00 0.00 0.01
0.00 0.00 0.00 0.00 0.00 0.00 0.00 0.00 0.00 0.00 0.00 0.00 0.00 0.00 0.00 0.00 0.00 0.00 0.00 0.00 0.00 0.00 0.00 0.00 0.00 0.00 0.00 0.02 0.01 0.01 0.00 0.00 0.00 0.00 0.00 0.00 0.00 0.00 0.00 0.00 0.00 0.00 0.00
0.00 0.00 0.00 0.00 0.00 0.00 0.00 0.00 0.00 0.00 0.00 0.00 0.00 0.00 0.00 0.00 0.00 0.00 0.00 0.00 0.00 0.00 0.00 0.00 0.00 0.00 0.01 0.02 0.02 0.01 0.00 0.00 0.00 0.00 0.00 0.00 0.00 0.00 0.00 0.00 0.00 0.00 0.00
0.00 0.00 0.00 0.00 0.00 0.00 0.00 0.00 0.00 0.00 0.00 0.00 0.00 0.00 0.00 0.00 0.00 0.00 0.00 0.00 0.00 0.00 0.00 0.00 0.00 0.00 0.00 0.01 0.01 0.00 0.00 0.00 0.00 0.00 0.00 0.00 0.00 0.00 0.00 0.00 0.00 0.00 0.00
0.00 0.00 0.00 0.00 0.00 0.00 0.00 0.00 0.00 0.00 0.00 0.00 0.00 0.00 0.00 0.00 0.00 0.00 0.00 0.00 0.00 0.00 0.00 0.00 0.00 0.00 0.00 0.01 0.01 0.00 0.00 0.00 0.00 0.00 0.00 0.00 0.00 0.00 0.00 0.00 0.00 0.00 0.00
0.00 0.00 0.00 0.00 0.00 0.00 0.00 0.00 0.00 0.00 0.00 0.00 0.00 0.00 0.00 0.00 0.00 0.00 0.00 0.00 0.00 0.00 0.00 0.00 0.00 0.00 0.00 0.00 0.00 0.00 0.00 0.00 0.00 0.00 0.00 0.00 0.00 0.00 0.00 0.00 0.00 0.00 0.00
0.00 0.00 0.00 0.00 0.00 0.00 0.00 0.00 0.00 0.00 0.00 0.00 0.00 0.00 0.00 0.00 0.00 0.00 0.00 0.00 0.00 0.00 0.00 0.00 0.00 0.00 0.00 0.00 0.00 0.00 0.00 0.00 0.00 0.00 0.00 0.00 0.00 0.00 0.00 0.00 0.00 0.00 0.00
0.00 0.00 0.00 0.00 0.00 0.00 0.00 0.00 0.00 0.00 0.00 0.00 0.00 0.00 0.00 0.00 0.00 0.00 0.00 0.00 0.00 0.00 0.00 0.00 0.00 0.00 0.00 0.00 0.00 0.00 0.00 0.00 0.00 0.00 0.00 0.00 0.00 0.00 0.00 0.00 0.00 0.00 0.00
0.00 0.00 0.00 0.00 0.00 0.00 0.00 0.00 0.00 0.00 0.00 0.00 0.00 0.00 0.00 0.01 0.00 0.00 0.00 0.00 0.00 0.00 0.00 0.00 0.00 0.00 0.00 0.00 0.00 0.00 0.00 0.00 0.00 0.00 0.00 0.00 0.00 0.00 0.00 0.00 0.00 0.00 0.00
0.00 0.00 0.00 0.00 0.00 0.00 0.00 0.00 0.00 0.00 0.00 0.00 0.00 0.00 0.00 0.01 0.00 0.00 0.00 0.00 0.00 0.00 0.00 0.00 0.00 0.00 0.00 0.00 0.00 0.00 0.00 0.00 0.00 0.00 0.00 0.00 0.00 0.00 0.00 0.00 0.00 0.00 0.00
0.00 0.00 0.00 0.01 0.00 0.00 0.00 0.00 0.00 0.00 0.00 0.00 0.00 0.00 0.00 0.00 0.00 0.00 0.01 0.00 0.00 0.00 0.00 0.00 0.00 0.00 0.00 0.00 0.00 0.00 0.00 0.00 0.00 0.00 0.00 0.00 0.00 0.00 0.00 0.00 0.00 0.00 0.00

GFSMW_prec_precacc24_102.txt.gz
Total_Precipitation_Accumulation
0.00 0.00 0.02 0.06 0.08 0.17 0.25 0.26 0.39 0.49 0.35 0.26 0.28 0.30 0.18 0.19 0.15 0.07 0.05 0.02 0.01 0.00 0.00 0.00 0.00 0.00 0.00 0.00 0.00 0.00 0.00 0.00 0.00 0.00 0.00 0.00 0.00 0.00 0.00 0.00 0.00 0.00 0.00
0.00 0.00 0.01 0.00 0.02 0.10 0.14 0.32 0.24 0.17 0.17 0.34 0.43 0.38 0.51 0.29 0.33 0.27 0.26 0.34 0.24 0.16 0.05 0.02 0.01 0.00 0.00 0.00 0.00 0.00 0.00 0.00 0.00 0.00 0.00 0.00 0.00 0.00 0.00 0.00 0.00 0.00 0.00
0.00 0.00 0.01 0.01 0.02 0.04 0.04 0.08 0.17 0.19 0.32 0.40 0.80 0.75 0.63 0.51 0.51 0.44 0.68 0.81 0.89 0.58 0.34 0.23 0.16 0.18 0.12 0.15 0.18 0.15 0.11 0.09 0.09 0.09 0.08 0.02 0.01 0.00 0.00 0.02 0.01 0.01 0.00
0.00 0.00 0.00 0.01 0.03 0.04 0.07 0.04 0.04 0.05 0.14 0.39 0.40 0.32 0.40 0.56 0.47 0.61 0.73 0.56 0.63 0.59 0.70 0.74 0.60 0.47 0.35 0.36 0.36 0.32 0.32 0.31 0.29 0.19 0.15 0.13 0.08 0.07 0.04 0.01 0.01 0.01 0.00
0.00 0.00 0.00 0.00 0.01 0.03 0.07 0.10 0.04 0.01 0.09 0.21 0.32 0.35 0.22 0.18 0.20 0.25 0.34 0.36 0.37 0.39 0.41 0.39 0.49 0.47 0.39 0.39 0.38 0.30 0.28 0.24 0.25 0.26 0.25 0.23 0.18 0.15 0.16 0.10 0.01 0.01 0.01
0.00 0.00 0.00 0.00 0.01 0.02 0.05 0.06 0.08 0.08 0.19 0.24 0.26 0.23 0.15 0.16 0.26 0.37 0.29 0.22 0.22 0.24 0.22 0.29 0.32 0.34 0.30 0.16 0.18 0.19 0.16 0.19 0.14 0.15 0.20 0.21 0.21 0.13 0.10 0.08 0.04 0.03 0.02
0.00 0.00 0.00 0.00 0.00 0.01 0.02 0.06 0.06 0.12 0.17 0.12 0.08 0.10 0.14 0.16 0.14 0.16 0.16 0.14 0.09 0.07 0.13 0.15 0.21 0.22 0.22 0.16 0.11 0.08 0.06 0.06 0.05 0.07 0.07 0.07 0.10 0.09 0.08 0.08 0.07 0.04 0.02
0.00 0.00 0.00 0.00 0.00 0.01 0.02 0.04 0.05 0.05 0.07 0.05 0.02 0.01 0.03 0.06 0.06 0.04 0.01 0.01 0.02 0.02 0.02 0.02 0.03 0.04 0.05 0.05 0.05 0.05 0.05 0.06 0.07 0.07 0.10 0.10 0.10 0.07 0.05 0.04 0.05 0.04 0.03
0.00 0.00 0.00 0.00 0.00 0.00 0.00 0.01 0.01 0.02 0.03 0.02 0.00 0.00 0.00 0.00 0.00 0.00 0.00 0.00 0.00 0.00 0.00 0.00 0.00 0.00 0.00 0.00 0.00 0.00 0.01 0.02 0.02 0.04 0.05 0.03 0.03 0.03 0.03 0.02 0.03 0.06 0.04
0.00 0.00 0.00 0.00 0.00 0.00 0.00 0.00 0.00 0.00 0.01 0.01 0.00 0.00 0.00 0.00 0.00 0.00 0.00 0.00 0.00 0.00 0.00 0.00 0.00 0.01 0.01 0.00 0.00 0.01 0.00 0.00 0.01 0.01 0.02 0.02 0.02 0.01 0.01 0.02 0.02 0.03 0.04
0.00 0.00 0.00 0.00 0.00 0.00 0.00 0.00 0.00 0.00 0.00 0.00 0.00 0.01 0.00 0.00 0.00 0.00 0.00 0.00 0.00 0.00 0.00 0.00 0.00 0.00 0.00 0.00 0.00 0.00 0.00 0.00 0.01 0.01 0.01 0.02 0.01 0.01 0.01 0.01 0.01 0.01 0.01
0.00 0.00 0.00 0.00 0.00 0.00 0.00 0.00 0.00 0.00 0.00 0.00 0.00 0.00 0.00 0.00 0.00 0.00 0.00 0.00 0.00 0.00 0.00 0.00 0.00 0.00 0.00 0.00 0.00 0.00 0.00 0.01 0.00 0.00 0.00 0.00 0.01 0.01 0.00 0.00 0.00 0.00 0.00
0.00 0.00 0.00 0.00 0.00 0.00 0.00 0.00 0.00 0.00 0.00 0.00 0.00 0.00 0.00 0.00 0.00 0.00 0.00 0.00 0.00 0.00 0.00 0.00 0.00 0.00 0.00 0.00 0.00 0.00 0.00 0.00 0.00 0.00 0.00 0.00 0.00 0.00 0.00 0.00 0.00 0.00 0.00
0.00 0.00 0.00 0.00 0.00 0.00 0.00 0.00 0.00 0.00 0.00 0.00 0.00 0.00 0.00 0.00 0.00 0.00 0.00 0.00 0.00 0.00 0.00 0.00 0.00 0.00 0.00 0.00 0.00 0.00 0.00 0.00 0.00 0.00 0.00 0.00 0.00 0.00 0.00 0.01 0.00 0.00 0.00
0.00 0.00 0.00 0.00 0.00 0.00 0.00 0.00 0.00 0.00 0.00 0.00 0.00 0.00 0.00 0.00 0.00 0.00 0.00 0.00 0.00 0.00 0.00 0.00 0.00 0.00 0.00 0.00 0.00 0.00 0.00 0.00 0.00 0.00 0.00 0.00 0.01 0.01 0.00 0.00 0.00 0.00 0.00
0.00 0.00 0.00 0.00 0.00 0.00 0.00 0.00 0.00 0.00 0.00 0.00 0.00 0.00 0.00 0.00 0.00 0.00 0.00 0.00 0.00 0.00 0.00 0.00 0.00 0.00 0.00 0.01 0.00 0.00 0.00 0.00 0.00 0.00 0.00 0.00 0.00 0.01 0.01 0.00 0.00 0.00 0.00
0.00 0.00 0.00 0.00 0.00 0.00 0.00 0.00 0.00 0.00 0.00 0.00 0.00 0.00 0.00 0.00 0.00 0.00 0.00 0.00 0.00 0.00 0.00 0.00 0.00 0.00 0.00 0.02 0.01 0.01 0.00 0.00 0.00 0.00 0.00 0.00 0.00 0.00 0.00 0.00 0.00 0.00 0.00
0.00 0.00 0.00 0.00 0.00 0.00 0.00 0.00 0.00 0.00 0.00 0.00 0.00 0.00 0.00 0.00 0.00 0.00 0.00 0.00 0.00 0.00 0.00 0.00 0.00 0.00 0.01 0.02 0.02 0.01 0.00 0.00 0.00 0.00 0.00 0.00 0.00 0.00 0.00 0.00 0.00 0.00 0.00
0.00 0.00 0.00 0.00 0.00 0.00 0.00 0.00 0.00 0.00 0.00 0.00 0.00 0.00 0.00 0.00 0.00 0.00 0.00 0.00 0.00 0.00 0.00 0.00 0.00 0.00 0.00 0.01 0.01 0.00 0.00 0.00 0.00 0.00 0.00 0.00 0.00 0.00 0.00 0.00 0.00 0.00 0.00
0.00 0.00 0.00 0.00 0.00 0.00 0.00 0.00 0.00 0.00 0.00 0.00 0.00 0.00 0.00 0.00 0.00 0.00 0.00 0.00 0.00 0.00 0.00 0.00 0.00 0.00 0.00 0.01 0.01 0.00 0.00 0.00 0.00 0.00 0.00 0.00 0.00 0.00 0.00 0.00 0.00 0.00 0.00
0.00 0.00 0.00 0.00 0.00 0.00 0.00 0.00 0.00 0.00 0.00 0.00 0.00 0.00 0.00 0.00 0.00 0.00 0.00 0.00 0.00 0.00 0.00 0.00 0.00 0.00 0.00 0.00 0.00 0.00 0.00 0.00 0.00 0.00 0.00 0.00 0.00 0.00 0.00 0.00 0.00 0.00 0.00
0.00 0.00 0.00 0.00 0.00 0.00 0.00 0.00 0.00 0.00 0.00 0.00 0.00 0.00 0.00 0.00 0.00 0.00 0.00 0.00 0.00 0.00 0.00 0.00 0.00 0.00 0.00 0.00 0.00 0.00 0.00 0.00 0.00 0.00 0.00 0.00 0.00 0.00 0.00 0.00 0.00 0.00 0.00
0.00 0.00 0.00 0.00 0.00 0.00 0.00 0.00 0.00 0.00 0.00 0.00 0.00 0.00 0.00 0.00 0.00 0.00 0.00 0.00 0.00 0.00 0.00 0.00 0.00 0.00 0.00 0.00 0.00 0.00 0.00 0.00 0.00 0.00 0.00 0.00 0.00 0.00 0.00 0.00 0.00 0.00 0.00
0.00 0.00 0.00 0.00 0.00 0.00 0.00 0.00 0.00 0.00 0.00 0.00 0.00 0.00 0.00 0.01 0.00 0.00 0.00 0.00 0.00 0.00 0.00 0.00 0.00 0.00 0.00 0.00 0.00 0.00 0.00 0.00 0.00 0.00 0.00 0.00 0.00 0.00 0.00 0.00 0.00 0.00 0.00
0.00 0.00 0.00 0.00 0.00 0.00 0.00 0.00 0.00 0.00 0.00 0.00 0.00 0.00 0.00 0.01 0.00 0.00 0.00 0.00 0.00 0.00 0.00 0.00 0.00 0.00 0.00 0.00 0.00 0.00 0.00 0.00 0.00 0.00 0.00 0.00 0.00 0.00 0.00 0.00 0.00 0.00 0.00
0.00 0.00 0.00 0.01 0.00 0.00 0.00 0.00 0.00 0.00 0.00 0.00 0.00 0.00 0.00 0.00 0.00 0.00 0.01 0.01 0.01 0.01 0.00 0.00 0.00 0.00 0.00 0.00 0.00 0.00 0.00 0.00 0.00 0.00 0.00 0.00 0.00 0.00 0.00 0.00 0.00 0.00 0.00

GFSMW_prec_precacc24_108.txt.gz
Total_Precipitation_Accumulation
0.07 0.12 0.31 0.38 0.45 0.75 0.96 0.78 0.90 0.93 0.78 0.41 0.29 0.34 0.17 0.17 0.15 0.07 0.06 0.03 0.01 0.00 0.00 0.00 0.00 0.00 0.00 0.00 0.00 0.00 0.00 0.00 0.00 0.00 0.00 0.00 0.00 0.00 0.00 0.00 0.00 0.00 0.00
0.03 0.04 0.14 0.35 0.32 0.37 0.71 0.94 0.84 0.68 0.58 0.77 0.65 0.64 0.55 0.31 0.36 0.32 0.28 0.27 0.19 0.10 0.04 0.04 0.03 0.00 0.00 0.00 0.00 0.00 0.00 0.00 0.00 0.00 0.00 0.00 0.00 0.00 0.00 0.00 0.00 0.00 0.01
0.01 0.02 0.04 0.21 0.30 0.28 0.41 0.80 0.81 0.63 0.70 0.98 1.55 1.39 1.12 0.78 0.71 0.51 0.67 0.76 0.79 0.55 0.35 0.25 0.21 0.19 0.11 0.16 0.17 0.14 0.11 0.10 0.10 0.08 0.07 0.08 0.05 0.03 0.02 0.04 0.04 0.05 0.05
0.00 0.00 0.01 0.06 0.15 0.12 0.24 0.62 0.65 0.60 0.50 0.84 0.93 0.84 0.76 0.92 0.67 0.70 0.77 0.64 0.70 0.58 0.70 0.76 0.71 0.63 0.54 0.49 0.45 0.40 0.45 0.48 0.50 0.47 0.43 0.39 0.26 0.16 0.08 0.02 0.01 0.01 0.01
0.00 0.00 0.00 0.02 0.05 0.14 0.25 0.33 0.47 0.47 0.69 0.67 0.77 0.67 0.56 0.53 0.49 0.44 0.49 0.53 0.55 0.51 0.54 0.62 0.83 0.93 0.89 0.86 0.94 0.91 0.96 0.84 0.72 0.54 0.40 0.36 0.36 0.36 0.37 0.22 0.06 0.03 0.02
0.00 0.00 0.00 0.00 0.01 0.05 0.18 0.32 0.39 0.34 0.50 0.59 0.67 0.58 0.48 0.44 0.46 0.61 0.72 0.69 0.81 0.85 0.86 0.87 0.76 0.71 0.66 0.51 0.57 0.58 0.51 0.44 0.30 0.27 0.33 0.33 0.33 0.28 0.28 0.23 0.09 0.05 0.02
0.00 0.00 0.00 0.00 0.00 0.02 0.06 0.19 0.23 0.31 0.48 0.45 0.37 0.32 0.41 0.30 0.28 0.40 0.56 0.40 0.38 0.33 0.29 0.22 0.29 0.24 0.21 0.16 0.13 0.12 0.11 0.11 0.10 0.12 0.12 0.11 0.12 0.13 0.11 0.11 0.09 0.05 0.03
0.00 0.00 0.00 0.00 0.00 0.01 0.05 0.12 0.14 0.19 0.22 0.16 0.11 0.07 0.10 0.14 0.17 0.18 0.14 0.02 0.04 0.04 0.02 0.02 0.03 0.03 0.04 0.04 0.04 0.05 0.06 0.07 0.07 0.07 0.10 0.12 0.12 0.11 0.10 0.08 0.07 0.04 0.02
0.00 0.00 0.00 0.00 0.00 0.00 0.01 0.01 0.02 0.05 0.07 0.06 0.03 0.01 0.02 0.03 0.04 0.03 0.01 0.00 0.00 0.00 0.00 0.00 0.00 0.00 0.00 0.00 0.00 0.00 0.01 0.02 0.02 0.04 0.05 0.03 0.03 0.04 0.06 0.07 0.10 0.15 0.05
0.00 0.00 0.00 0.00 0.00 0.00 0.00 0.00 0.01 0.02 0.03 0.03 0.02 0.02 0.01 0.01 0.01 0.00 0.00 0.00 0.00 0.00 0.00 0.00 0.00 0.00 0.01 0.00 0.00 0.01 0.00 0.00 0.01 0.01 0.02 0.02 0.02 0.01 0.01 0.03 0.04 0.06 0.08
0.00 0.00 0.00 0.00 0.00 0.00 0.00 0.01 0.00 0.01 0.01 0.02 0.02 0.02 0.01 0.01 0.00 0.00 0.00 0.00 0.00 0.00 0.00 0.00 0.00 0.00 0.00 0.00 0.00 0.00 0.00 0.00 0.01 0.01 0.01 0.02 0.01 0.01 0.01 0.01 0.01 0.02 0.04
0.00 0.00 0.00 0.00 0.00 0.00 0.00 0.01 0.01 0.00 0.00 0.02 0.03 0.02 0.01 0.01 0.01 0.00 0.00 0.00 0.00 0.00 0.00 0.00 0.00 0.00 0.00 0.00 0.00 0.00 0.00 0.01 0.00 0.00 0.00 0.00 0.01 0.01 0.01 0.00 0.01 0.00 0.01
0.00 0.00 0.00 0.00 0.00 0.00 0.00 0.00 0.00 0.00 0.00 0.01 0.01 0.01 0.00 0.00 0.00 0.00 0.00 0.00 0.00 0.00 0.00 0.00 0.00 0.00 0.00 0.00 0.00 0.00 0.00 0.00 0.00 0.00 0.00 0.00 0.00 0.00 0.00 0.00 0.00 0.00 0.00
0.00 0.00 0.00 0.00 0.00 0.00 0.00 0.00 0.00 0.00 0.00 0.00 0.00 0.00 0.00 0.00 0.00 0.00 0.00 0.00 0.00 0.00 0.00 0.00 0.00 0.00 0.00 0.00 0.00 0.00 0.00 0.00 0.00 0.00 0.00 0.00 0.00 0.00 0.01 0.01 0.01 0.01 0.02
0.00 0.00 0.00 0.00 0.00 0.00 0.00 0.00 0.00 0.00 0.00 0.00 0.00 0.00 0.00 0.00 0.00 0.00 0.00 0.00 0.00 0.00 0.00 0.00 0.00 0.00 0.00 0.00 0.00 0.00 0.00 0.00 0.00 0.00 0.00 0.00 0.00 0.01 0.00 0.00 0.00 0.01 0.01
0.00 0.00 0.00 0.00 0.00 0.00 0.00 0.00 0.00 0.00 0.00 0.00 0.00 0.00 0.00 0.00 0.00 0.00 0.00 0.00 0.00 0.00 0.00 0.00 0.00 0.00 0.00 0.00 0.00 0.00 0.00 0.00 0.00 0.00 0.00 0.00 0.00 0.00 0.00 0.00 0.00 0.00 0.00
0.00 0.00 0.00 0.00 0.00 0.00 0.00 0.00 0.00 0.00 0.00 0.00 0.00 0.00 0.00 0.00 0.00 0.00 0.00 0.00 0.00 0.00 0.00 0.00 0.00 0.00 0.00 0.02 0.01 0.01 0.00 0.00 0.00 0.00 0.00 0.00 0.00 0.00 0.00 0.00 0.00 0.00 0.00
0.00 0.00 0.00 0.00 0.00 0.00 0.00 0.00 0.00 0.00 0.00 0.00 0.00 0.00 0.00 0.00 0.00 0.00 0.00 0.00 0.00 0.00 0.00 0.00 0.00 0.00 0.01 0.02 0.02 0.01 0.00 0.00 0.00 0.00 0.00 0.00 0.00 0.01 0.00 0.00 0.00 0.00 0.00
0.00 0.00 0.00 0.00 0.00 0.00 0.00 0.00 0.00 0.00 0.00 0.00 0.00 0.00 0.00 0.00 0.00 0.00 0.00 0.00 0.00 0.00 0.00 0.00 0.00 0.00 0.00 0.01 0.01 0.00 0.00 0.00 0.00 0.00 0.00 0.00 0.00 0.02 0.01 0.00 0.00 0.00 0.00
0.00 0.00 0.00 0.00 0.00 0.00 0.00 0.00 0.00 0.00 0.00 0.00 0.00 0.00 0.00 0.00 0.00 0.00 0.00 0.00 0.00 0.00 0.00 0.00 0.00 0.00 0.00 0.01 0.01 0.00 0.00 0.00 0.00 0.00 0.00 0.02 0.01 0.01 0.01 0.00 0.00 0.00 0.00
0.00 0.00 0.00 0.00 0.00 0.00 0.00 0.00 0.00 0.00 0.00 0.00 0.00 0.00 0.00 0.00 0.00 0.00 0.00 0.00 0.00 0.00 0.00 0.00 0.00 0.00 0.00 0.00 0.00 0.00 0.00 0.00 0.00 0.00 0.00 0.00 0.02 0.01 0.00 0.00 0.00 0.00 0.00
0.00 0.00 0.00 0.00 0.00 0.00 0.00 0.00 0.00 0.00 0.00 0.00 0.00 0.00 0.00 0.00 0.00 0.00 0.00 0.00 0.00 0.00 0.00 0.00 0.00 0.00 0.00 0.00 0.00 0.00 0.00 0.00 0.00 0.00 0.00 0.00 0.00 0.00 0.00 0.00 0.00 0.00 0.00
0.00 0.00 0.00 0.00 0.00 0.00 0.00 0.00 0.00 0.00 0.00 0.00 0.00 0.00 0.00 0.00 0.00 0.00 0.00 0.00 0.00 0.00 0.00 0.00 0.00 0.00 0.00 0.00 0.00 0.00 0.00 0.00 0.00 0.00 0.00 0.00 0.00 0.00 0.00 0.00 0.00 0.00 0.00
0.00 0.00 0.00 0.00 0.00 0.00 0.00 0.00 0.00 0.00 0.00 0.00 0.00 0.00 0.00 0.00 0.00 0.00 0.00 0.00 0.00 0.00 0.00 0.00 0.00 0.00 0.00 0.00 0.00 0.00 0.00 0.00 0.00 0.00 0.00 0.00 0.00 0.00 0.00 0.00 0.00 0.00 0.00
0.00 0.00 0.00 0.00 0.00 0.00 0.00 0.00 0.00 0.00 0.00 0.00 0.00 0.00 0.00 0.00 0.00 0.00 0.00 0.00 0.00 0.00 0.00 0.00 0.00 0.00 0.00 0.00 0.00 0.00 0.00 0.00 0.00 0.00 0.00 0.00 0.00 0.00 0.00 0.00 0.00 0.00 0.00
0.00 0.00 0.00 0.00 0.00 0.00 0.00 0.00 0.00 0.00 0.00 0.00 0.00 0.00 0.00 0.00 0.00 0.00 0.01 0.01 0.01 0.01 0.00 0.00 0.00 0.00 0.00 0.00 0.00 0.00 0.00 0.00 0.00 0.00 0.00 0.00 0.00 0.00 0.00 0.00 0.00 0.00 0.00

GFSMW_prec_precacc24_111.txt.gz
Total_Precipitation_Accumulation
0.13 0.28 0.42 0.67 0.69 0.88 0.96 0.67 0.79 0.81 0.66 0.29 0.21 0.30 0.16 0.16 0.14 0.07 0.06 0.03 0.01 0.00 0.00 0.00 0.00 0.00 0.00 0.00 0.00 0.00 0.00 0.00 0.00 0.00 0.00 0.00 0.00 0.00 0.00 0.00 0.00 0.00 0.00
0.07 0.14 0.27 0.53 0.74 0.59 0.90 1.13 1.02 0.64 0.60 0.72 0.58 0.59 0.50 0.30 0.36 0.31 0.28 0.27 0.17 0.08 0.03 0.03 0.02 0.00 0.00 0.00 0.00 0.00 0.00 0.00 0.00 0.00 0.00 0.00 0.00 0.00 0.00 0.00 0.00 0.00 0.01
0.03 0.09 0.15 0.32 0.54 0.64 0.63 1.15 1.71 1.11 0.78 1.05 1.59 1.48 1.18 0.77 0.70 0.51 0.65 0.73 0.77 0.57 0.37 0.27 0.27 0.19 0.14 0.18 0.17 0.13 0.11 0.10 0.10 0.09 0.08 0.13 0.12 0.09 0.04 0.05 0.04 0.07 0.07
0.01 0.02 0.10 0.16 0.23 0.29 0.59 1.02 1.37 2.10 1.03 1.05 1.14 1.05 0.93 0.99 0.77 0.81 0.89 0.74 0.75 0.59 0.72 0.82 0.77 0.67 0.64 0.60 0.52 0.44 0.49 0.54 0.54 0.49 0.47 0.45 0.33 0.24 0.12 0.04 0.03 0.05 0.04
0.00 0.01 0.04 0.08 0.15 0.21 0.41 0.63 0.99 1.24 2.13 1.39 1.16 0.91 0.71 0.62 0.61 0.56 0.58 0.57 0.59 0.58 0.61 0.68 0.91 1.07 1.16 1.13 1.16 1.09 1.10 0.90 0.73 0.55 0.41 0.36 0.37 0.40 0.54 0.39 0.20 0.13 0.06
0.00 0.00 0.00 0.01 0.06 0.12 0.28 0.41 0.57 0.64 1.49 2.13 1.58 1.29 0.69 0.54 0.64 0.70 0.78 0.77 0.94 1.05 1.08 1.13 1.01 0.91 0.87 0.72 0.72 0.74 0.61 0.52 0.34 0.28 0.33 0.34 0.34 0.29 0.32 0.27 0.11 0.05 0.02
0.00 0.00 0.00 0.01 0.04 0.10 0.15 0.25 0.35 0.44 0.86 1.06 1.17 1.62 1.25 0.59 0.57 0.71 0.78 0.60 0.63 0.60 0.52 0.40 0.49 0.39 0.26 0.20 0.17 0.15 0.12 0.11 0.10 0.12 0.13 0.12 0.12 0.13 0.12 0.12 0.09 0.05 0.03
0.00 0.00 0.00 0.00 0.01 0.04 0.12 0.17 0.20 0.28 0.35 0.53 0.74 0.82 1.20 1.29 0.82 0.59 0.37 0.24 0.21 0.22 0.15 0.06 0.06 0.04 0.04 0.04 0.04 0.05 0.06 0.07 0.07 0.07 0.10 0.12 0.12 0.12 0.11 0.08 0.08 0.04 0.01
0.00 0.00 0.00 0.00 0.00 0.01 0.03 0.03 0.05 0.10 0.15 0.16 0.37 0.21 0.15 0.28 0.27 0.24 0.16 0.08 0.06 0.04 0.00 0.00 0.00 0.00 0.00 0.00 0.00 0.00 0.01 0.02 0.02 0.04 0.05 0.03 0.03 0.04 0.06 0.08 0.11 0.17 0.06
0.01 0.00 0.00 0.00 0.00 0.00 0.00 0.01 0.03 0.04 0.04 0.06 0.07 0.09 0.11 0.14 0.10 0.08 0.07 0.02 0.00 0.00 0.00 0.00 0.00 0.00 0.00 0.00 0.00 0.00 0.00 0.00 0.01 0.01 0.02 0.02 0.02 0.01 0.01 0.03 0.04 0.06 0.10
0.01 0.00 0.00 0.00 0.00 0.00 0.01 0.03 0.02 0.02 0.02 0.02 0.04 0.04 0.03 0.04 0.05 0.02 0.01 0.00 0.00 0.00 0.00 0.00 0.00 0.00 0.00 0.00 0.00 0.00 0.00 0.00 0.01 0.01 0.01 0.02 0.01 0.01 0.01 0.01 0.01 0.02 0.04
0.01 0.00 0.00 0.00 0.00 0.00 0.00 0.03 0.04 0.01 0.00 0.02 0.03 0.03 0.01 0.02 0.01 0.01 0.00 0.00 0.00 0.00 0.00 0.00 0.00 0.00 0.00 0.00 0.00 0.00 0.00 0.01 0.00 0.00 0.00 0.00 0.01 0.01 0.01 0.00 0.01 0.00 0.01
0.00 0.00 0.00 0.00 0.00 0.00 0.00 0.00 0.00 0.00 0.00 0.01 0.01 0.01 0.01 0.01 0.00 0.00 0.00 0.00 0.00 0.00 0.00 0.00 0.00 0.00 0.00 0.00 0.00 0.00 0.00 0.00 0.00 0.00 0.00 0.00 0.00 0.00 0.00 0.00 0.00 0.00 0.01
0.00 0.00 0.00 0.00 0.00 0.00 0.00 0.00 0.00 0.00 0.00 0.00 0.01 0.01 0.01 0.01 0.00 0.00 0.00 0.00 0.00 0.00 0.00 0.00 0.00 0.00 0.00 0.00 0.00 0.00 0.00 0.00 0.00 0.00 0.00 0.00 0.00 0.00 0.01 0.01 0.01 0.01 0.02
0.00 0.00 0.00 0.00 0.00 0.00 0.00 0.00 0.00 0.00 0.00 0.00 0.00 0.00 0.00 0.00 0.00 0.00 0.00 0.00 0.00 0.00 0.00 0.00 0.00 0.00 0.00 0.00 0.00 0.00 0.00 0.00 0.00 0.00 0.00 0.00 0.00 0.01 0.00 0.00 0.00 0.01 0.01
0.00 0.00 0.00 0.00 0.00 0.00 0.00 0.00 0.00 0.00 0.00 0.00 0.00 0.00 0.00 0.00 0.00 0.00 0.00 0.00 0.00 0.00 0.00 0.00 0.00 0.00 0.00 0.00 0.00 0.00 0.00 0.00 0.00 0.00 0.00 0.00 0.00 0.00 0.00 0.00 0.00 0.00 0.00
0.00 0.00 0.00 0.00 0.00 0.00 0.00 0.00 0.00 0.00 0.00 0.00 0.00 0.00 0.00 0.00 0.00 0.00 0.00 0.00 0.00 0.00 0.00 0.00 0.00 0.00 0.00 0.01 0.01 0.01 0.00 0.00 0.00 0.00 0.00 0.00 0.00 0.00 0.00 0.00 0.00 0.00 0.01
0.00 0.00 0.00 0.00 0.00 0.00 0.00 0.00 0.00 0.00 0.00 0.00 0.00 0.00 0.00 0.00 0.00 0.00 0.00 0.00 0.00 0.00 0.00 0.00 0.00 0.00 0.00 0.02 0.02 0.01 0.00 0.00 0.00 0.00 0.00 0.00 0.00 0.01 0.00 0.00 0.00 0.00 0.00
0.00 0.00 0.00 0.00 0.00 0.00 0.00 0.00 0.00 0.00 0.00 0.00 0.00 0.00 0.00 0.00 0.00 0.00 0.00 0.00 0.00 0.00 0.00 0.00 0.00 0.00 0.00 0.01 0.01 0.00 0.00 0.00 0.00 0.00 0.00 0.00 0.00 0.02 0.01 0.00 0.00 0.00 0.00
0.00 0.00 0.00 0.00 0.00 0.00 0.00 0.00 0.00 0.00 0.00 0.00 0.00 0.00 0.00 0.00 0.00 0.00 0.00 0.00 0.00 0.00 0.00 0.00 0.00 0.00 0.00 0.01 0.01 0.00 0.00 0.00 0.00 0.00 0.00 0.02 0.01 0.01 0.01 0.00 0.00 0.00 0.00
0.00 0.00 0.00 0.00 0.00 0.00 0.00 0.00 0.00 0.00 0.00 0.00 0.00 0.00 0.00 0.00 0.00 0.00 0.00 0.00 0.00 0.00 0.00 0.00 0.00 0.00 0.00 0.00 0.00 0.00 0.00 0.00 0.00 0.00 0.00 0.00 0.02 0.01 0.00 0.00 0.00 0.00 0.00
0.00 0.00 0.00 0.00 0.00 0.00 0.00 0.00 0.00 0.00 0.00 0.00 0.00 0.00 0.00 0.00 0.00 0.00 0.00 0.00 0.00 0.00 0.00 0.00 0.00 0.00 0.00 0.00 0.00 0.00 0.00 0.00 0.00 0.00 0.00 0.00 0.00 0.00 0.00 0.00 0.00 0.00 0.00
0.00 0.00 0.00 0.00 0.00 0.00 0.00 0.00 0.00 0.00 0.00 0.00 0.00 0.00 0.00 0.00 0.00 0.00 0.00 0.00 0.00 0.00 0.00 0.00 0.00 0.00 0.00 0.00 0.00 0.00 0.00 0.00 0.00 0.00 0.00 0.00 0.00 0.00 0.00 0.00 0.00 0.00 0.00
0.00 0.00 0.00 0.00 0.00 0.00 0.00 0.00 0.00 0.00 0.00 0.00 0.00 0.00 0.00 0.00 0.00 0.00 0.00 0.00 0.00 0.00 0.00 0.00 0.00 0.00 0.00 0.00 0.00 0.00 0.00 0.00 0.00 0.00 0.00 0.00 0.00 0.00 0.00 0.00 0.00 0.00 0.00
0.00 0.00 0.00 0.00 0.00 0.00 0.00 0.00 0.00 0.01 0.01 0.01 0.02 0.03 0.02 0.01 0.00 0.00 0.00 0.00 0.00 0.00 0.00 0.00 0.00 0.00 0.00 0.00 0.00 0.00 0.00 0.00 0.00 0.00 0.00 0.00 0.00 0.00 0.00 0.00 0.00 0.00 0.00
0.00 0.00 0.00 0.00 0.00 0.00 0.00 0.00 0.00 0.00 0.00 0.00 0.00 0.02 0.03 0.02 0.03 0.02 0.01 0.01 0.01 0.01 0.00 0.00 0.00 0.00 0.00 0.00 0.00 0.00 0.00 0.00 0.00 0.00 0.00 0.00 0.00 0.00 0.00 0.00 0.00 0.00 0.00

GFSMW_prec_precacc24_114.txt.gz
Total_Precipitation_Accumulation
0.14 0.31 0.70 2.09 2.08 1.21 1.09 0.69 0.70 0.69 0.62 0.25 0.13 0.20 0.11 0.11 0.14 0.07 0.06 0.03 0.01 0.00 0.00 0.00 0.00 0.00 0.00 0.00 0.00 0.00 0.00 0.00 0.00 0.00 0.00 0.00 0.00 0.00 0.00 0.00 0.00 0.00 0.00
0.07 0.16 0.45 1.03 2.35 1.17 1.06 1.21 1.07 0.62 0.57 0.67 0.50 0.49 0.39 0.19 0.31 0.29 0.27 0.25 0.16 0.06 0.03 0.03 0.02 0.00 0.00 0.00 0.00 0.00 0.00 0.00 0.00 0.00 0.00 0.00 0.00 0.00 0.00 0.01 0.00 0.00 0.01
0.03 0.10 0.22 0.55 1.31 1.74 0.91 1.32 1.77 1.13 0.78 0.98 1.54 1.41 1.07 0.64 0.52 0.38 0.51 0.61 0.69 0.53 0.37 0.27 0.27 0.19 0.14 0.18 0.17 0.13 0.12 0.11 0.10 0.09 0.08 0.13 0.12 0.09 0.04 0.05 0.05 0.07 0.07
0.01 0.03 0.14 0.31 0.55 1.51 1.24 1.28 1.56 2.17 1.08 1.08 1.13 0.99 0.85 0.91 0.68 0.77 0.85 0.74 0.76 0.59 0.70 0.82 0.77 0.68 0.66 0.62 0.52 0.46 0.52 0.54 0.54 0.49 0.47 0.45 0.34 0.26 0.13 0.04 0.03 0.05 0.06
0.00 0.01 0.08 0.22 0.33 0.51 1.06 1.14 1.36 1.44 2.29 1.48 1.25 1.01 0.85 0.69 0.62 0.53 0.54 0.58 0.64 0.61 0.63 0.70 0.93 1.14 1.24 1.20 1.22 1.16 1.13 0.91 0.73 0.55 0.41 0.36 0.37 0.41 0.56 0.42 0.24 0.19 0.09
0.00 0.00 0.03 0.15 0.19 0.24 0.54 0.88 1.20 1.05 1.78 2.44 1.97 1.43 0.91 0.76 0.77 0.76 0.82 0.82 1.00 1.11 1.15 1.21 1.09 1.04 0.99 0.77 0.74 0.76 0.63 0.52 0.34 0.29 0.34 0.34 0.33 0.29 0.32 0.28 0.11 0.05 0.03
0.01 0.00 0.01 0.07 0.15 0.16 0.27 0.46 0.62 0.78 1.14 1.37 1.71 2.39 1.87 0.98 0.78 0.91 1.01 0.68 0.64 0.63 0.60 0.52 0.67 0.66 0.54 0.29 0.18 0.16 0.16 0.13 0.11 0.13 0.14 0.12 0.12 0.14 0.12 0.12 0.09 0.05 0.03
0.02 0.01 0.01 0.03 0.08 0.15 0.26 0.37 0.41 0.47 0.51 0.72 1.04 1.71 2.06 2.16 1.42 1.04 0.71 0.55 0.35 0.32 0.35 0.24 0.31 0.23 0.19 0.09 0.05 0.06 0.06 0.08 0.08 0.08 0.10 0.12 0.12 0.12 0.11 0.09 0.09 0.04 0.01
0.02 0.01 0.00 0.00 0.03 0.10 0.18 0.40 0.35 0.30 0.24 0.30 0.73 0.90 0.81 0.90 0.90 0.78 0.64 0.59 0.50 0.38 0.29 0.33 0.15 0.11 0.04 0.01 0.00 0.00 0.01 0.02 0.02 0.04 0.05 0.03 0.03 0.04 0.06 0.08 0.12 0.18 0.07
0.01 0.00 0.00 0.00 0.01 0.03 0.11 0.16 0.16 0.16 0.18 0.19 0.18 0.26 0.26 0.35 0.36 0.41 0.41 0.36 0.33 0.26 0.17 0.11 0.10 0.04 0.00 0.00 0.00 0.00 0.00 0.00 0.00 0.01 0.02 0.02 0.02 0.01 0.01 0.03 0.04 0.06 0.10
0.01 0.00 0.00 0.00 0.00 0.00 0.05 0.11 0.10 0.08 0.10 0.09 0.06 0.09 0.11 0.13 0.18 0.18 0.14 0.10 0.12 0.10 0.05 0.03 0.01 0.00 0.00 0.00 0.00 0.00 0.00 0.00 0.00 0.01 0.01 0.02 0.01 0.01 0.01 0.01 0.01 0.02 0.04
0.04 0.01 0.00 0.00 0.00 0.00 0.02 0.08 0.10 0.08 0.06 0.07 0.06 0.06 0.07 0.09 0.10 0.09 0.08 0.07 0.04 0.02 0.00 0.00 0.00 0.00 0.00 0.00 0.00 0.00 0.00 0.00 0.00 0.00 0.00 0.00 0.01 0.01 0.01 0.00 0.01 0.00 0.01
0.05 0.01 0.00 0.00 0.00 0.00 0.00 0.02 0.03 0.05 0.05 0.05 0.04 0.03 0.03 0.05 0.06 0.05 0.03 0.02 0.01 0.00 0.00 0.00 0.00 0.00 0.00 0.00 0.00 0.00 0.00 0.00 0.00 0.00 0.00 0.00 0.00 0.00 0.00 0.00 0.00 0.00 0.01
0.01 0.01 0.00 0.00 0.00 0.00 0.00 0.01 0.03 0.04 0.05 0.05 0.04 0.03 0.02 0.03 0.04 0.04 0.03 0.01 0.00 0.00 0.00 0.00 0.00 0.00 0.00 0.00 0.00 0.00 0.00 0.00 0.00 0.00 0.00 0.00 0.00 0.00 0.01 0.01 0.01 0.01 0.02
0.00 0.00 0.00 0.00 0.00 0.00 0.00 0.00 0.00 0.01 0.02 0.03 0.03 0.02 0.02 0.02 0.03 0.03 0.02 0.00 0.00 0.00 0.00 0.00 0.00 0.00 0.00 0.00 0.00 0.00 0.00 0.00 0.00 0.00 0.00 0.00 0.00 0.01 0.00 0.00 0.00 0.01 0.01
0.00 0.00 0.00 0.00 0.00 0.00 0.00 0.00 0.00 0.00 0.00 0.02 0.02 0.00 0.00 0.00 0.00 0.00 0.00 0.00 0.00 0.00 0.00 0.00 0.00 0.00 0.00 0.00 0.00 0.00 0.00 0.00 0.00 0.00 0.00 0.00 0.00 0.00 0.00 0.00 0.00 0.00 0.00
0.00 0.00 0.00 0.00 0.00 0.00 0.00 0.00 0.00 0.00 0.00 0.00 0.00 0.00 0.00 0.00 0.00 0.00 0.00 0.00 0.00 0.00 0.00 0.00 0.00 0.00 0.00 0.00 0.00 0.01 0.00 0.00 0.00 0.00 0.00 0.00 0.00 0.00 0.00 0.00 0.00 0.00 0.01
0.00 0.00 0.00 0.00 0.00 0.00 0.00 0.00 0.00 0.00 0.00 0.00 0.00 0.00 0.00 0.00 0.00 0.00 0.00 0.00 0.00 0.00 0.00 0.00 0.00 0.00 0.00 0.01 0.01 0.01 0.00 0.00 0.00 0.00 0.00 0.00 0.00 0.01 0.00 0.00 0.00 0.00 0.00
0.00 0.00 0.00 0.00 0.00 0.00 0.00 0.00 0.00 0.00 0.00 0.00 0.00 0.00 0.00 0.00 0.00 0.00 0.00 0.00 0.00 0.00 0.00 0.00 0.00 0.00 0.00 0.01 0.01 0.00 0.00 0.00 0.00 0.00 0.00 0.00 0.00 0.02 0.01 0.00 0.00 0.00 0.00
0.00 0.00 0.00 0.00 0.00 0.00 0.00 0.00 0.00 0.00 0.00 0.00 0.00 0.00 0.00 0.00 0.00 0.00 0.00 0.00 0.00 0.00 0.00 0.00 0.00 0.00 0.00 0.01 0.01 0.00 0.00 0.00 0.00 0.00 0.00 0.02 0.01 0.01 0.01 0.00 0.00 0.00 0.00
0.00 0.00 0.00 0.00 0.00 0.00 0.00 0.00 0.00 0.00 0.00 0.00 0.00 0.00 0.00 0.00 0.00 0.00 0.00 0.00 0.00 0.00 0.00 0.00 0.00 0.00 0.00 0.00 0.00 0.00 0.00 0.00 0.00 0.00 0.00 0.00 0.02 0.01 0.00 0.00 0.00 0.00 0.00
0.00 0.00 0.00 0.00 0.00 0.00 0.00 0.00 0.00 0.00 0.00 0.00 0.00 0.00 0.00 0.00 0.00 0.00 0.00 0.00 0.00 0.00 0.00 0.00 0.00 0.00 0.00 0.00 0.00 0.00 0.00 0.00 0.00 0.00 0.00 0.00 0.00 0.00 0.00 0.00 0.00 0.00 0.00
0.00 0.00 0.00 0.00 0.00 0.00 0.00 0.00 0.00 0.00 0.00 0.00 0.00 0.00 0.00 0.00 0.00 0.00 0.00 0.00 0.00 0.00 0.00 0.00 0.00 0.00 0.00 0.00 0.00 0.00 0.00 0.00 0.00 0.00 0.00 0.00 0.00 0.00 0.00 0.00 0.00 0.00 0.00
0.00 0.00 0.00 0.00 0.00 0.00 0.00 0.00 0.00 0.00 0.00 0.00 0.00 0.00 0.00 0.00 0.00 0.00 0.00 0.00 0.00 0.00 0.00 0.00 0.00 0.00 0.00 0.00 0.00 0.00 0.00 0.00 0.00 0.00 0.00 0.00 0.00 0.00 0.00 0.00 0.00 0.00 0.00
0.00 0.00 0.00 0.00 0.00 0.00 0.00 0.00 0.01 0.03 0.05 0.05 0.07 0.09 0.08 0.05 0.02 0.01 0.00 0.00 0.00 0.00 0.00 0.00 0.00 0.00 0.00 0.00 0.00 0.00 0.00 0.00 0.00 0.00 0.00 0.00 0.00 0.00 0.00 0.00 0.00 0.00 0.00
0.00 0.00 0.00 0.00 0.00 0.00 0.00 0.00 0.00 0.00 0.00 0.01 0.01 0.03 0.07 0.15 0.19 0.16 0.12 0.10 0.06 0.04 0.02 0.01 0.01 0.01 0.00 0.00 0.00 0.00 0.00 0.00 0.00 0.00 0.00 0.00 0.00 0.00 0.00 0.00 0.00 0.00 0.00

GFSMW_prec_precacc24_117.txt.gz
Total_Precipitation_Accumulation
0.14 0.31 0.71 2.18 2.46 1.71 1.68 1.29 0.98 0.71 0.63 0.27 0.11 0.17 0.04 0.04 0.10 0.06 0.06 0.02 0.00 0.00 0.00 0.00 0.00 0.00 0.00 0.00 0.00 0.00 0.00 0.00 0.00 0.00 0.00 0.00 0.00 0.00 0.00 0.00 0.00 0.00 0.00
0.07 0.16 0.46 1.19 2.64 1.78 1.44 1.57 1.34 0.75 0.56 0.67 0.48 0.46 0.31 0.17 0.28 0.26 0.19 0.21 0.16 0.06 0.03 0.03 0.02 0.00 0.00 0.00 0.00 0.00 0.00 0.00 0.00 0.00 0.00 0.00 0.01 0.00 0.00 0.01 0.00 0.00 0.01
0.03 0.10 0.23 0.67 1.53 2.54 1.45 1.62 2.11 1.33 0.83 0.98 1.56 1.42 1.04 0.62 0.51 0.35 0.44 0.51 0.56 0.49 0.35 0.26 0.27 0.19 0.14 0.18 0.17 0.13 0.12 0.11 0.10 0.09 0.08 0.13 0.13 0.10 0.05 0.05 0.05 0.07 0.07
0.01 0.03 0.14 0.36 0.76 2.01 1.89 1.72 2.27 2.50 1.12 1.09 1.17 1.00 0.82 0.85 0.62 0.73 0.82 0.73 0.60 0.44 0.55 0.70 0.72 0.67 0.66 0.62 0.52 0.46 0.53 0.59 0.57 0.49 0.47 0.45 0.34 0.28 0.13 0.03 0.03 0.05 0.06
0.00 0.01 0.08 0.26 0.53 0.94 1.98 1.91 2.35 2.12 2.43 1.55 1.34 0.99 0.82 0.62 0.54 0.50 0.51 0.57 0.59 0.48 0.51 0.60 0.85 1.08 1.23 1.20 1.23 1.18 1.14 0.93 0.73 0.55 0.41 0.36 0.37 0.42 0.56 0.42 0.23 0.19 0.09
0.00 0.00 0.03 0.19 0.34 0.61 1.40 2.02 2.43 1.66 2.16 2.60 2.09 1.46 0.95 0.78 0.73 0.70 0.78 0.80 1.01 1.12 1.16 1.20 1.07 1.02 0.98 0.82 0.83 0.87 0.66 0.52 0.34 0.30 0.35 0.36 0.34 0.29 0.33 0.28 0.11 0.05 0.02
0.01 0.00 0.01 0.10 0.21 0.46 0.88 1.22 2.33 1.78 1.66 1.81 1.85 2.54 1.99 1.11 0.90 0.94 1.04 0.65 0.63 0.63 0.62 0.54 0.69 0.72 0.62 0.39 0.32 0.26 0.18 0.14 0.12 0.14 0.15 0.15 0.13 0.14 0.13 0.12 0.08 0.05 0.02
0.02 0.01 0.01 0.06 0.13 0.30 0.68 0.76 0.92 1.04 0.90 1.20 1.44 1.98 2.63 2.47 1.62 1.21 0.88 0.75 0.43 0.33 0.35 0.25 0.37 0.41 0.34 0.27 0.14 0.07 0.07 0.09 0.09 0.08 0.11 0.12 0.12 0.12 0.12 0.09 0.09 0.04 0.01
0.02 0.02 0.00 0.03 0.06 0.22 0.32 0.59 0.55 0.46 0.46 0.50 1.09 1.14 1.06 1.21 1.34 1.20 0.81 0.72 0.68 0.49 0.31 0.37 0.26 0.25 0.26 0.18 0.09 0.04 0.02 0.03 0.02 0.04 0.04 0.03 0.03 0.04 0.06 0.08 0.12 0.18 0.07
0.02 0.03 0.02 0.04 0.03 0.10 0.25 0.27 0.31 0.31 0.38 0.37 0.38 0.46 0.43 0.52 0.62 0.82 0.78 0.59 0.53 0.52 0.44 0.30 0.26 0.21 0.26 0.33 0.08 0.01 0.00 0.00 0.00 0.00 0.01 0.01 0.02 0.01 0.01 0.03 0.04 0.06 0.10
0.05 0.03 0.04 0.02 0.01 0.05 0.15 0.18 0.18 0.25 0.47 0.33 0.20 0.21 0.18 0.17 0.24 0.31 0.35 0.33 0.34 0.29 0.30 0.28 0.21 0.13 0.10 0.09 0.02 0.00 0.00 0.00 0.00 0.00 0.00 0.01 0.01 0.01 0.01 0.01 0.01 0.02 0.04
0.09 0.04 0.07 0.01 0.01 0.01 0.06 0.12 0.17 0.22 0.28 0.25 0.12 0.09 0.07 0.09 0.11 0.11 0.14 0.15 0.14 0.14 0.11 0.11 0.12 0.09 0.04 0.01 0.00 0.00 0.00 0.00 0.00 0.00 0.00 0.00 0.01 0.01 0.01 0.00 0.01 0.00 0.01
0.10 0.02 0.05 0.00 0.01 0.04 0.05 0.05 0.09 0.12 0.15 0.16 0.09 0.07 0.04 0.06 0.08 0.08 0.09 0.09 0.09 0.08 0.06 0.04 0.04 0.02 0.00 0.00 0.00 0.00 0.00 0.00 0.00 0.00 0.00 0.00 0.00 0.00 0.00 0.00 0.00 0.00 0.01
0.10 0.03 0.00 0.00 0.00 0.03 0.04 0.04 0.06 0.07 0.10 0.12 0.09 0.08 0.05 0.06 0.09 0.09 0.12 0.10 0.09 0.07 0.04 0.01 0.00 0.00 0.00 0.00 0.00 0.00 0.00 0.00 0.00 0.00 0.00 0.00 0.00 0.00 0.01 0.01 0.01 0.01 0.02
0.05 0.09 0.04 0.00 0.00 0.00 0.01 0.01 0.03 0.03 0.04 0.04 0.04 0.03 0.03 0.04 0.06 0.06 0.07 0.06 0.04 0.02 0.01 0.00 0.00 0.00 0.00 0.00 0.00 0.00 0.00 0.00 0.00 0.00 0.00 0.00 0.00 0.01 0.00 0.00 0.00 0.01 0.01
0.00 0.01 0.03 0.03 0.01 0.00 0.00 0.00 0.01 0.02 0.01 0.02 0.03 0.02 0.02 0.02 0.03 0.02 0.02 0.02 0.01 0.00 0.00 0.00 0.00 0.00 0.00 0.00 0.00 0.00 0.00 0.00 0.00 0.00 0.00 0.00 0.00 0.00 0.00 0.00 0.00 0.00 0.00
0.00 0.00 0.00 0.00 0.00 0.00 0.00 0.00 0.00 0.00 0.01 0.01 0.01 0.01 0.02 0.02 0.02 0.03 0.02 0.02 0.01 0.00 0.00 0.00 0.00 0.00 0.00 0.00 0.00 0.00 0.00 0.00 0.00 0.00 0.00 0.00 0.00 0.00 0.00 0.00 0.00 0.00 0.01
0.00 0.00 0.00 0.00 0.00 0.00 0.00 0.00 0.00 0.00 0.01 0.02 0.03 0.02 0.01 0.01 0.01 0.01 0.00 0.00 0.00 0.00 0.00 0.00 0.00 0.00 0.00 0.00 0.01 0.01 0.00 0.00 0.00 0.00 0.00 0.00 0.00 0.01 0.00 0.00 0.00 0.00 0.00
0.00 0.00 0.00 0.00 0.00 0.00 0.00 0.00 0.00 0.00 0.00 0.00 0.00 0.00 0.00 0.00 0.00 0.00 0.00 0.00 0.00 0.00 0.00 0.00 0.00 0.00 0.00 0.00 0.01 0.00 0.00 0.00 0.00 0.00 0.00 0.00 0.00 0.02 0.01 0.00 0.00 0.00 0.00
0.00 0.00 0.00 0.00 0.00 0.00 0.00 0.00 0.00 0.00 0.00 0.00 0.00 0.00 0.00 0.00 0.00 0.00 0.00 0.00 0.00 0.00 0.00 0.00 0.00 0.00 0.00 0.01 0.01 0.00 0.00 0.00 0.00 0.00 0.00 0.02 0.01 0.01 0.01 0.00 0.00 0.00 0.00
0.00 0.00 0.00 0.00 0.00 0.00 0.00 0.00 0.00 0.00 0.00 0.00 0.00 0.00 0.00 0.00 0.00 0.00 0.00 0.00 0.00 0.00 0.00 0.00 0.00 0.00 0.00 0.00 0.00 0.00 0.00 0.00 0.00 0.00 0.00 0.00 0.02 0.01 0.00 0.00 0.00 0.00 0.00
0.00 0.00 0.00 0.00 0.00 0.00 0.00 0.00 0.00 0.00 0.00 0.00 0.00 0.00 0.00 0.00 0.00 0.00 0.00 0.00 0.00 0.00 0.00 0.00 0.00 0.00 0.00 0.00 0.00 0.00 0.00 0.00 0.00 0.00 0.00 0.00 0.00 0.00 0.00 0.00 0.00 0.00 0.00
0.00 0.00 0.00 0.00 0.00 0.00 0.00 0.00 0.00 0.00 0.00 0.00 0.00 0.00 0.00 0.00 0.00 0.00 0.00 0.00 0.00 0.00 0.00 0.00 0.00 0.00 0.00 0.00 0.00 0.00 0.00 0.00 0.00 0.00 0.00 0.00 0.00 0.00 0.00 0.00 0.00 0.00 0.00
0.00 0.00 0.00 0.00 0.00 0.00 0.00 0.00 0.00 0.00 0.00 0.00 0.00 0.00 0.00 0.00 0.00 0.00 0.00 0.00 0.00 0.00 0.00 0.00 0.00 0.00 0.00 0.00 0.00 0.00 0.00 0.00 0.00 0.00 0.00 0.00 0.00 0.00 0.00 0.00 0.00 0.00 0.00
0.00 0.00 0.00 0.00 0.00 0.00 0.00 0.00 0.01 0.03 0.06 0.09 0.13 0.16 0.13 0.09 0.04 0.02 0.02 0.01 0.00 0.00 0.00 0.00 0.00 0.00 0.00 0.00 0.00 0.00 0.00 0.00 0.00 0.00 0.00 0.00 0.00 0.00 0.00 0.00 0.00 0.00 0.00
0.00 0.00 0.00 0.00 0.00 0.00 0.00 0.00 0.00 0.00 0.00 0.01 0.01 0.04 0.11 0.22 0.31 0.31 0.31 0.30 0.25 0.20 0.13 0.10 0.08 0.06 0.04 0.03 0.02 0.02 0.01 0.00 0.00 0.00 0.00 0.00 0.00 0.00 0.00 0.00 0.00 0.00 0.00

GFSMW_prec_precacc24_120.txt.gz
Total_Precipitation_Accumulation
0.14 0.31 0.71 2.18 2.46 1.68 1.81 2.34 2.00 1.08 0.85 0.31 0.11 0.09 0.02 0.02 0.05 0.05 0.05 0.02 0.00 0.00 0.00 0.00 0.00 0.00 0.00 0.00 0.00 0.00 0.00 0.00 0.00 0.00 0.00 0.00 0.00 0.00 0.00 0.00 0.00 0.00 0.00
0.07 0.17 0.47 1.19 2.64 1.77 1.48 2.22 2.61 1.16 0.80 0.70 0.45 0.42 0.14 0.07 0.11 0.16 0.10 0.13 0.13 0.04 0.02 0.03 0.02 0.00 0.00 0.00 0.00 0.00 0.00 0.00 0.00 0.00 0.00 0.00 0.00 0.00 0.00 0.01 0.00 0.00 0.01
0.03 0.11 0.23 0.67 1.53 2.53 1.48 1.94 3.02 2.13 1.03 0.97 1.46 1.32 1.00 0.56 0.37 0.20 0.25 0.40 0.43 0.37 0.24 0.18 0.18 0.11 0.10 0.17 0.16 0.13 0.11 0.10 0.11 0.09 0.08 0.13 0.14 0.12 0.05 0.05 0.05 0.07 0.07
0.02 0.03 0.14 0.36 0.75 2.00 1.86 1.82 2.60 3.47 1.56 1.12 1.05 0.92 0.76 0.76 0.49 0.57 0.69 0.63 0.46 0.34 0.41 0.56 0.58 0.54 0.58 0.50 0.43 0.37 0.45 0.57 0.59 0.50 0.46 0.45 0.35 0.28 0.14 0.03 0.03 0.05 0.06
0.01 0.01 0.08 0.26 0.54 0.95 1.95 1.88 2.57 2.71 3.35 1.81 1.31 0.91 0.74 0.59 0.50 0.46 0.47 0.48 0.49 0.43 0.45 0.56 0.83 1.07 1.19 1.13 1.11 1.07 1.05 0.90 0.72 0.55 0.42 0.37 0.37 0.42 0.56 0.42 0.23 0.18 0.09
0.01 0.00 0.03 0.19 0.36 0.62 1.40 2.05 2.58 2.14 3.37 3.20 2.47 1.58 0.94 0.79 0.70 0.65 0.75 0.77 0.94 1.03 1.07 1.09 0.96 0.96 0.90 0.74 0.73 0.79 0.61 0.46 0.33 0.30 0.35 0.36 0.36 0.30 0.33 0.28 0.11 0.05 0.02
0.02 0.00 0.01 0.10 0.23 0.47 0.89 1.29 2.71 2.37 2.84 2.66 2.50 2.86 2.21 1.25 0.95 0.94 1.03 0.63 0.61 0.60 0.56 0.47 0.59 0.65 0.57 0.37 0.30 0.24 0.19 0.14 0.12 0.15 0.16 0.16 0.15 0.14 0.12 0.12 0.08 0.04 0.02
0.02 0.01 0.01 0.07 0.16 0.30 0.70 0.84 1.27 2.01 2.13 2.18 2.39 2.50 2.99 2.78 1.75 1.28 0.89 0.75 0.42 0.32 0.35 0.25 0.37 0.42 0.35 0.28 0.14 0.07 0.08 0.09 0.08 0.08 0.09 0.11 0.11 0.12 0.11 0.09 0.09 0.04 0.01
0.02 0.02 0.01 0.08 0.10 0.24 0.34 0.68 0.79 0.91 1.52 1.27 1.90 1.64 1.50 1.49 1.51 1.36 0.89 0.76 0.71 0.52 0.33 0.38 0.29 0.28 0.26 0.19 0.12 0.08 0.04 0.03 0.02 0.03 0.03 0.02 0.02 0.03 0.06 0.08 0.12 0.19 0.07
0.03 0.03 0.03 0.14 0.08 0.14 0.25 0.29 0.38 0.56 0.81 0.93 0.80 0.73 0.81 0.81 0.83 1.02 0.94 0.68 0.58 0.56 0.47 0.32 0.29 0.23 0.27 0.35 0.17 0.09 0.06 0.01 0.00 0.00 0.00 0.00 0.00 0.00 0.01 0.03 0.04 0.06 0.10
0.08 0.10 0.19 0.17 0.05 0.06 0.17 0.20 0.21 0.35 0.75 0.59 0.46 0.45 0.41 0.44 0.44 0.50 0.49 0.51 0.46 0.35 0.38 0.35 0.29 0.19 0.14 0.16 0.25 0.11 0.04 0.01 0.00 0.00 0.00 0.00 0.00 0.00 0.01 0.01 0.01 0.02 0.05
0.27 0.31 0.33 0.16 0.09 0.07 0.10 0.14 0.20 0.33 0.96 0.64 0.40 0.30 0.24 0.26 0.24 0.19 0.24 0.29 0.29 0.27 0.22 0.22 0.27 0.21 0.14 0.11 0.11 0.10 0.03 0.00 0.00 0.00 0.00 0.00 0.01 0.01 0.01 0.00 0.01 0.00 0.01
0.28 0.18 0.17 0.07 0.05 0.06 0.06 0.06 0.12 0.20 0.41 0.48 0.32 0.16 0.09 0.10 0.12 0.10 0.11 0.14 0.16 0.18 0.14 0.11 0.12 0.11 0.09 0.07 0.04 0.05 0.02 0.00 0.00 0.00 0.00 0.00 0.00 0.00 0.00 0.00 0.00 0.00 0.01
0.27 0.13 0.12 0.03 0.01 0.03 0.05 0.04 0.07 0.09 0.14 0.18 0.17 0.13 0.06 0.09 0.12 0.11 0.13 0.11 0.10 0.08 0.06 0.04 0.04 0.04 0.03 0.02 0.01 0.00 0.00 0.00 0.00 0.00 0.00 0.00 0.00 0.00 0.01 0.01 0.01 0.01 0.02
0.15 0.16 0.10 0.05 0.05 0.07 0.05 0.05 0.04 0.03 0.04 0.05 0.06 0.06 0.05 0.06 0.10 0.11 0.12 0.09 0.08 0.05 0.05 0.03 0.03 0.02 0.01 0.01 0.01 0.00 0.00 0.00 0.00 0.00 0.00 0.00 0.00 0.01 0.00 0.00 0.00 0.01 0.01
0.03 0.05 0.06 0.04 0.03 0.05 0.06 0.03 0.02 0.02 0.02 0.02 0.04 0.03 0.03 0.03 0.04 0.05 0.06 0.07 0.07 0.05 0.06 0.03 0.02 0.01 0.00 0.00 0.00 0.00 0.00 0.00 0.00 0.00 0.00 0.00 0.00 0.00 0.00 0.00 0.00 0.00 0.00
0.00 0.00 0.01 0.01 0.01 0.01 0.01 0.01 0.01 0.01 0.01 0.02 0.02 0.02 0.02 0.03 0.03 0.04 0.04 0.05 0.06 0.07 0.08 0.05 0.01 0.01 0.00 0.00 0.00 0.00 0.00 0.00 0.00 0.00 0.00 0.00 0.00 0.00 0.00 0.00 0.00 0.00 0.01
0.00 0.00 0.00 0.00 0.00 0.00 0.00 0.00 0.00 0.00 0.01 0.02 0.05 0.07 0.05 0.02 0.02 0.02 0.02 0.02 0.02 0.02 0.03 0.02 0.01 0.00 0.00 0.00 0.00 0.01 0.00 0.00 0.00 0.00 0.00 0.00 0.00 0.01 0.00 0.00 0.00 0.00 0.00
0.00 0.00 0.00 0.00 0.00 0.00 0.00 0.00 0.00 0.00 0.00 0.00 0.00 0.02 0.04 0.03 0.02 0.01 0.01 0.01 0.01 0.00 0.00 0.00 0.00 0.00 0.00 0.00 0.00 0.00 0.00 0.00 0.00 0.00 0.00 0.00 0.00 0.02 0.01 0.00 0.00 0.00 0.00
0.00 0.00 0.00 0.00 0.00 0.00 0.00 0.00 0.00 0.00 0.00 0.00 0.00 0.00 0.01 0.01 0.01 0.01 0.01 0.01 0.01 0.01 0.00 0.00 0.00 0.00 0.00 0.00 0.00 0.00 0.00 0.00 0.00 0.00 0.00 0.02 0.01 0.01 0.01 0.00 0.00 0.00 0.00
0.00 0.00 0.00 0.00 0.00 0.00 0.00 0.00 0.00 0.00 0.00 0.00 0.00 0.00 0.00 0.00 0.00 0.00 0.00 0.00 0.00 0.00 0.00 0.00 0.00 0.00 0.00 0.00 0.00 0.00 0.00 0.00 0.00 0.00 0.00 0.00 0.02 0.01 0.00 0.00 0.00 0.00 0.00
0.00 0.00 0.00 0.00 0.00 0.00 0.00 0.00 0.00 0.00 0.00 0.00 0.00 0.00 0.00 0.00 0.00 0.00 0.00 0.00 0.00 0.00 0.00 0.00 0.00 0.00 0.00 0.00 0.00 0.00 0.00 0.00 0.00 0.00 0.00 0.00 0.00 0.00 0.00 0.00 0.00 0.00 0.00
0.00 0.00 0.00 0.00 0.00 0.00 0.00 0.00 0.00 0.00 0.00 0.00 0.00 0.00 0.00 0.00 0.00 0.00 0.00 0.00 0.00 0.00 0.00 0.00 0.00 0.00 0.00 0.00 0.00 0.00 0.00 0.00 0.00 0.00 0.00 0.00 0.00 0.00 0.00 0.00 0.00 0.00 0.00
0.00 0.00 0.00 0.00 0.00 0.00 0.00 0.00 0.00 0.00 0.00 0.00 0.00 0.00 0.00 0.00 0.00 0.00 0.00 0.00 0.00 0.00 0.00 0.00 0.00 0.00 0.00 0.00 0.00 0.00 0.00 0.00 0.00 0.00 0.00 0.00 0.00 0.00 0.00 0.00 0.00 0.00 0.00
0.00 0.00 0.00 0.00 0.00 0.00 0.00 0.00 0.01 0.03 0.06 0.09 0.13 0.16 0.14 0.11 0.06 0.03 0.03 0.02 0.01 0.01 0.00 0.00 0.00 0.00 0.00 0.00 0.00 0.00 0.00 0.00 0.00 0.00 0.00 0.00 0.00 0.00 0.00 0.00 0.00 0.00 0.00
0.00 0.00 0.00 0.00 0.00 0.00 0.00 0.00 0.00 0.00 0.00 0.01 0.01 0.04 0.11 0.22 0.32 0.34 0.38 0.39 0.35 0.34 0.27 0.22 0.17 0.14 0.14 0.09 0.08 0.06 0.04 0.03 0.01 0.00 0.00 0.00 0.00 0.00 0.00 0.00 0.00 0.00 0.00

GFSMW_prec_precacc24_123.txt.gz
Total_Precipitation_Accumulation
0.14 0.31 0.71 2.18 2.46 1.64 1.77 2.33 2.07 1.63 0.97 0.39 0.28 0.34 0.45 0.11 0.04 0.04 0.03 0.02 0.00 0.00 0.00 0.00 0.00 0.00 0.00 0.00 0.00 0.00 0.00 0.00 0.00 0.00 0.00 0.00 0.00 0.00 0.00 0.00 0.00 0.00 0.00
0.07 0.17 0.47 1.19 2.64 1.76 1.45 2.09 2.62 1.87 1.33 0.78 0.47 0.46 0.15 0.07 0.06 0.10 0.06 0.06 0.06 0.03 0.02 0.03 0.02 0.00 0.00 0.00 0.00 0.00 0.00 0.00 0.00 0.00 0.00 0.00 0.00 0.00 0.00 0.01 0.00 0.00 0.01
0.04 0.12 0.23 0.67 1.54 2.55 1.49 1.92 2.96 2.43 1.74 1.28 1.29 1.13 0.80 0.44 0.33 0.13 0.07 0.15 0.14 0.13 0.12 0.12 0.14 0.06 0.07 0.13 0.13 0.13 0.11 0.09 0.10 0.09 0.08 0.13 0.14 0.12 0.05 0.05 0.05 0.07 0.07
0.03 0.06 0.14 0.36 0.76 2.01 1.88 1.82 2.62 3.83 2.21 1.72 1.10 0.87 0.68 0.63 0.38 0.39 0.45 0.43 0.27 0.14 0.19 0.34 0.40 0.40 0.50 0.42 0.31 0.28 0.36 0.47 0.46 0.43 0.41 0.42 0.34 0.28 0.14 0.03 0.03 0.05 0.06
0.01 0.01 0.08 0.26 0.55 0.98 1.97 1.88 2.61 2.92 4.22 2.60 1.55 0.92 0.75 0.59 0.49 0.40 0.41 0.42 0.45 0.40 0.42 0.49 0.72 0.94 1.08 1.03 1.02 1.00 0.96 0.79 0.60 0.42 0.31 0.29 0.33 0.41 0.55 0.41 0.23 0.18 0.09
0.03 0.00 0.03 0.19 0.38 0.66 1.43 2.06 2.58 2.25 3.86 4.25 3.08 1.78 0.96 0.78 0.67 0.63 0.72 0.73 0.88 0.99 1.02 1.05 0.91 0.87 0.82 0.71 0.69 0.73 0.56 0.39 0.26 0.21 0.25 0.30 0.33 0.30 0.32 0.28 0.11 0.04 0.02
0.07 0.01 0.01 0.10 0.27 0.51 0.92 1.30 2.73 2.39 3.06 3.44 3.69 3.33 2.46 1.35 0.98 0.94 1.02 0.62 0.59 0.59 0.52 0.42 0.53 0.61 0.51 0.32 0.27 0.22 0.16 0.11 0.09 0.11 0.13 0.13 0.12 0.13 0.11 0.11 0.08 0.04 0.02
0.04 0.02 0.01 0.07 0.19 0.37 0.74 0.86 1.28 2.00 2.17 2.50 3.50 3.39 3.60 3.11 1.90 1.39 0.91 0.74 0.41 0.31 0.34 0.23 0.35 0.40 0.32 0.26 0.12 0.06 0.06 0.06 0.05 0.04 0.05 0.07 0.08 0.10 0.10 0.08 0.08 0.04 0.01
0.02 0.02 0.01 0.09 0.18 0.32 0.39 0.71 0.84 0.93 1.56 1.40 2.36 2.68 2.20 1.93 1.80 1.55 1.02 0.78 0.71 0.52 0.33 0.38 0.29 0.28 0.26 0.19 0.13 0.08 0.05 0.02 0.01 0.01 0.02 0.01 0.01 0.02 0.05 0.07 0.12 0.18 0.07
0.03 0.03 0.04 0.19 0.21 0.23 0.32 0.38 0.45 0.60 0.89 1.07 1.21 1.54 1.54 1.51 1.24 1.26 1.15 0.77 0.62 0.59 0.47 0.32 0.29 0.23 0.27 0.35 0.18 0.09 0.06 0.02 0.00 0.00 0.00 0.00 0.00 0.00 0.01 0.02 0.03 0.05 0.09
0.09 0.10 0.28 0.39 0.24 0.12 0.21 0.22 0.23 0.36 0.78 0.71 0.84 0.89 1.02 1.09 0.84 0.84 0.88 0.70 0.54 0.39 0.40 0.36 0.29 0.19 0.14 0.16 0.25 0.11 0.04 0.02 0.01 0.00 0.00 0.00 0.00 0.00 0.00 0.01 0.01 0.02 0.05
0.34 0.55 0.74 0.50 0.21 0.10 0.14 0.17 0.23 0.35 0.99 0.77 0.63 0.55 0.46 0.47 0.45 0.42 0.54 0.90 0.46 0.32 0.27 0.25 0.29 0.22 0.15 0.11 0.11 0.10 0.04 0.02 0.01 0.01 0.01 0.00 0.00 0.00 0.00 0.00 0.01 0.00 0.01
0.73 0.65 0.54 0.35 0.20 0.18 0.17 0.15 0.17 0.24 0.83 0.88 0.58 0.33 0.25 0.26 0.29 0.25 0.23 0.44 0.58 0.38 0.29 0.23 0.21 0.15 0.12 0.08 0.06 0.07 0.07 0.05 0.04 0.04 0.02 0.00 0.00 0.00 0.00 0.00 0.00 0.00 0.01
0.75 0.54 0.45 0.33 0.18 0.13 0.18 0.09 0.08 0.14 0.29 0.47 0.33 0.19 0.15 0.18 0.16 0.14 0.18 0.17 0.19 0.26 0.31 0.32 0.25 0.17 0.12 0.10 0.07 0.05 0.06 0.06 0.03 0.02 0.02 0.00 0.00 0.00 0.01 0.01 0.01 0.01 0.02
0.57 0.52 0.32 0.23 0.16 0.14 0.08 0.06 0.05 0.06 0.09 0.15 0.16 0.11 0.07 0.08 0.12 0.12 0.13 0.12 0.11 0.10 0.15 0.16 0.17 0.23 0.22 0.13 0.09 0.07 0.05 0.05 0.06 0.01 0.00 0.00 0.00 0.00 0.00 0.00 0.00 0.01 0.01
0.31 0.11 0.10 0.09 0.07 0.08 0.08 0.05 0.07 0.03 0.04 0.08 0.08 0.04 0.06 0.07 0.08 0.07 0.08 0.08 0.08 0.07 0.07 0.04 0.03 0.03 0.03 0.04 0.04 0.04 0.02 0.02 0.01 0.00 0.00 0.00 0.00 0.00 0.00 0.00 0.00 0.00 0.00
0.10 0.08 0.07 0.07 0.07 0.05 0.05 0.04 0.03 0.01 0.01 0.02 0.02 0.03 0.04 0.04 0.04 0.05 0.05 0.08 0.11 0.16 0.13 0.14 0.11 0.11 0.06 0.03 0.04 0.03 0.02 0.00 0.00 0.00 0.00 0.00 0.00 0.00 0.00 0.00 0.00 0.00 0.01
0.01 0.01 0.02 0.03 0.05 0.03 0.02 0.02 0.01 0.00 0.01 0.02 0.05 0.07 0.05 0.03 0.02 0.02 0.03 0.03 0.02 0.03 0.06 0.10 0.19 0.20 0.08 0.01 0.00 0.00 0.00 0.00 0.00 0.00 0.00 0.00 0.00 0.01 0.00 0.00 0.00 0.00 0.00
0.00 0.00 0.00 0.00 0.00 0.00 0.00 0.00 0.00 0.00 0.00 0.00 0.00 0.02 0.04 0.04 0.02 0.01 0.01 0.02 0.02 0.01 0.01 0.02 0.04 0.06 0.01 0.02 0.02 0.00 0.00 0.00 0.00 0.00 0.00 0.00 0.00 0.02 0.01 0.00 0.00 0.00 0.00
0.00 0.00 0.00 0.00 0.00 0.00 0.00 0.00 0.00 0.00 0.00 0.00 0.00 0.00 0.01 0.01 0.03 0.02 0.02 0.01 0.01 0.01 0.01 0.01 0.01 0.04 0.04 0.02 0.04 0.01 0.00 0.00 0.00 0.00 0.00 0.02 0.01 0.01 0.01 0.00 0.00 0.00 0.00
0.00 0.00 0.00 0.00 0.00 0.00 0.00 0.00 0.00 0.00 0.00 0.00 0.00 0.00 0.00 0.00 0.01 0.01 0.01 0.00 0.00 0.00 0.00 0.00 0.00 0.00 0.00 0.00 0.00 0.00 0.00 0.00 0.00 0.00 0.00 0.00 0.02 0.01 0.00 0.00 0.00 0.00 0.00
0.00 0.00 0.00 0.00 0.00 0.00 0.00 0.00 0.00 0.00 0.00 0.00 0.00 0.00 0.00 0.00 0.00 0.00 0.00 0.00 0.00 0.00 0.01 0.01 0.01 0.01 0.01 0.00 0.00 0.00 0.00 0.00 0.00 0.00 0.00 0.00 0.00 0.00 0.00 0.00 0.00 0.00 0.00
0.00 0.00 0.00 0.00 0.00 0.00 0.00 0.00 0.00 0.00 0.00 0.00 0.00 0.00 0.00 0.00 0.00 0.00 0.00 0.00 0.00 0.00 0.00 0.00 0.00 0.00 0.00 0.00 0.00 0.00 0.00 0.00 0.00 0.00 0.00 0.00 0.00 0.00 0.00 0.00 0.00 0.00 0.00
0.00 0.00 0.00 0.00 0.00 0.00 0.00 0.00 0.00 0.00 0.00 0.00 0.00 0.00 0.00 0.00 0.00 0.00 0.00 0.00 0.00 0.00 0.00 0.00 0.00 0.00 0.00 0.00 0.00 0.00 0.00 0.00 0.00 0.00 0.00 0.00 0.00 0.00 0.00 0.00 0.00 0.00 0.00
0.00 0.00 0.00 0.00 0.00 0.00 0.00 0.00 0.01 0.03 0.06 0.09 0.13 0.16 0.14 0.11 0.06 0.03 0.03 0.02 0.01 0.02 0.01 0.00 0.01 0.01 0.01 0.01 0.01 0.00 0.00 0.00 0.00 0.00 0.00 0.00 0.00 0.00 0.00 0.00 0.00 0.00 0.00
0.00 0.00 0.00 0.00 0.00 0.00 0.00 0.00 0.00 0.00 0.00 0.01 0.01 0.04 0.11 0.22 0.32 0.34 0.38 0.40 0.38 0.37 0.29 0.25 0.21 0.18 0.22 0.19 0.19 0.17 0.13 0.11 0.09 0.06 0.02 0.01 0.01 0.01 0.01 0.00 0.00 0.00 0.00

GFSMW_prec_precacc24_126.txt.gz
Total_Precipitation_Accumulation
0.14 0.31 0.71 2.16 2.43 1.57 1.68 2.27 1.95 1.51 0.87 0.36 0.26 0.35 0.64 0.58 0.48 0.26 0.13 0.04 0.03 0.00 0.00 0.00 0.00 0.00 0.00 0.00 0.00 0.00 0.00 0.00 0.00 0.00 0.00 0.00 0.00 0.00 0.00 0.00 0.00 0.00 0.00
0.07 0.17 0.47 1.19 2.63 1.72 1.42 2.04 2.53 1.84 1.31 0.67 0.37 0.43 0.23 0.31 0.25 0.28 0.24 0.08 0.07 0.02 0.01 0.02 0.02 0.00 0.00 0.00 0.00 0.00 0.00 0.00 0.00 0.00 0.00 0.00 0.00 0.00 0.00 0.01 0.00 0.00 0.01
0.04 0.12 0.23 0.66 1.53 2.54 1.49 1.92 2.95 2.43 1.66 1.25 1.04 0.95 0.84 0.51 0.41 0.35 0.27 0.22 0.11 0.06 0.05 0.05 0.11 0.05 0.05 0.06 0.02 0.02 0.02 0.03 0.04 0.05 0.08 0.13 0.14 0.12 0.04 0.03 0.04 0.07 0.07
0.03 0.06 0.14 0.36 0.75 1.99 1.86 1.82 2.64 3.84 2.21 1.75 1.33 0.92 0.77 0.69 0.45 0.41 0.46 0.39 0.22 0.07 0.06 0.12 0.21 0.25 0.35 0.31 0.22 0.18 0.24 0.32 0.34 0.34 0.35 0.36 0.29 0.23 0.11 0.03 0.03 0.05 0.06
0.01 0.01 0.08 0.26 0.55 0.95 1.95 1.86 2.60 2.94 4.24 2.73 1.97 1.07 0.76 0.70 0.56 0.42 0.34 0.33 0.33 0.26 0.30 0.39 0.56 0.75 0.88 0.82 0.86 0.88 0.87 0.71 0.52 0.35 0.24 0.19 0.22 0.28 0.42 0.36 0.23 0.18 0.09
0.03 0.00 0.03 0.19 0.38 0.66 1.42 2.05 2.56 2.26 3.86 4.23 3.52 2.11 1.15 0.86 0.83 0.51 0.62 0.66 0.82 0.90 0.95 0.96 0.81 0.73 0.71 0.67 0.66 0.70 0.52 0.36 0.23 0.18 0.20 0.21 0.21 0.21 0.25 0.23 0.08 0.04 0.02
0.07 0.01 0.01 0.10 0.28 0.53 0.94 1.33 2.73 2.35 2.97 3.41 4.12 3.83 2.90 1.47 1.01 0.96 1.02 0.61 0.59 0.58 0.51 0.40 0.49 0.52 0.42 0.25 0.23 0.20 0.15 0.09 0.07 0.09 0.10 0.11 0.09 0.08 0.06 0.07 0.05 0.03 0.02
0.07 0.07 0.04 0.09 0.20 0.39 0.78 0.91 1.31 2.02 2.15 2.48 3.86 4.12 4.35 3.53 2.06 1.43 0.94 0.74 0.41 0.31 0.34 0.23 0.34 0.39 0.31 0.25 0.11 0.05 0.05 0.04 0.04 0.03 0.02 0.03 0.03 0.05 0.07 0.06 0.06 0.03 0.01
0.05 0.06 0.07 0.11 0.18 0.38 0.51 0.82 0.93 0.98 1.58 1.41 2.55 3.09 2.92 2.49 2.07 1.67 1.05 0.79 0.71 0.52 0.33 0.38 0.29 0.28 0.26 0.20 0.14 0.08 0.05 0.02 0.03 0.02 0.00 0.00 0.00 0.01 0.04 0.06 0.10 0.15 0.05
0.03 0.03 0.04 0.19 0.22 0.36 0.51 0.61 0.68 0.73 0.94 1.06 1.27 1.64 1.85 1.97 1.49 1.43 1.19 0.77 0.62 0.59 0.48 0.33 0.29 0.24 0.28 0.36 0.20 0.10 0.08 0.02 0.01 0.01 0.00 0.00 0.00 0.00 0.00 0.01 0.02 0.04 0.06
0.09 0.10 0.28 0.39 0.38 0.70 0.49 0.43 0.36 0.44 0.81 0.72 0.86 0.99 1.25 1.37 1.11 1.04 0.98 0.74 0.58 0.43 0.44 0.41 0.32 0.21 0.15 0.17 0.27 0.12 0.06 0.05 0.02 0.01 0.00 0.00 0.00 0.00 0.00 0.00 0.00 0.01 0.04
0.34 0.55 0.76 0.79 1.15 0.81 0.38 0.25 0.28 0.38 1.03 0.81 0.68 0.66 0.73 0.85 0.72 0.69 0.74 1.04 0.57 0.42 0.35 0.32 0.37 0.31 0.22 0.17 0.13 0.10 0.05 0.02 0.01 0.01 0.02 0.01 0.00 0.00 0.00 0.00 0.00 0.00 0.01
0.84 0.93 1.21 1.31 0.61 0.39 0.24 0.21 0.22 0.29 0.89 0.96 0.70 0.50 0.40 0.63 0.52 0.54 0.59 0.86 0.88 0.57 0.40 0.34 0.28 0.21 0.18 0.16 0.12 0.10 0.10 0.05 0.04 0.04 0.03 0.02 0.01 0.00 0.00 0.00 0.00 0.00 0.01
1.30 1.21 0.96 0.53 0.34 0.34 0.42 0.28 0.25 0.31 0.38 0.58 0.49 0.37 0.31 0.42 0.48 0.41 0.54 0.59 0.74 0.65 0.57 0.49 0.36 0.28 0.21 0.18 0.15 0.09 0.07 0.07 0.05 0.04 0.04 0.03 0.02 0.01 0.01 0.00 0.01 0.01 0.02
1.40 1.28 0.95 0.70 0.56 0.39 0.23 0.22 0.30 0.18 0.20 0.23 0.20 0.14 0.13 0.24 0.26 0.27 0.29 0.32 0.42 0.41 0.47 0.59 0.63 0.50 0.44 0.30 0.19 0.13 0.10 0.10 0.14 0.09 0.03 0.02 0.02 0.02 0.01 0.00 0.00 0.01 0.01
0.89 0.53 0.39 0.37 0.24 0.14 0.13 0.11 0.13 0.13 0.22 0.23 0.16 0.07 0.07 0.09 0.11 0.11 0.11 0.13 0.16 0.16 0.20 0.29 0.41 0.47 0.36 0.46 0.47 0.34 0.19 0.14 0.15 0.18 0.13 0.05 0.02 0.01 0.00 0.00 0.00 0.00 0.00
0.33 0.29 0.24 0.19 0.14 0.09 0.08 0.07 0.04 0.03 0.05 0.05 0.05 0.07 0.14 0.12 0.15 0.09 0.07 0.12 0.17 0.21 0.22 0.29 0.28 0.26 0.19 0.23 0.31 0.39 0.32 0.21 0.14 0.09 0.07 0.06 0.01 0.00 0.00 0.00 0.00 0.00 0.01
0.14 0.17 0.17 0.14 0.14 0.09 0.06 0.04 0.01 0.00 0.01 0.02 0.05 0.07 0.06 0.03 0.02 0.02 0.03 0.04 0.05 0.08 0.14 0.17 0.26 0.33 0.36 0.29 0.24 0.31 0.35 0.30 0.20 0.15 0.10 0.02 0.01 0.01 0.00 0.00 0.00 0.00 0.00
0.00 0.00 0.00 0.00 0.00 0.00 0.00 0.00 0.00 0.00 0.00 0.00 0.00 0.02 0.04 0.04 0.02 0.02 0.01 0.02 0.02 0.02 0.02 0.03 0.08 0.09 0.08 0.12 0.13 0.10 0.09 0.11 0.07 0.03 0.01 0.00 0.00 0.02 0.01 0.00 0.00 0.00 0.00
0.00 0.00 0.00 0.00 0.00 0.00 0.00 0.00 0.00 0.00 0.00 0.00 0.00 0.00 0.01 0.01 0.03 0.02 0.02 0.01 0.01 0.01 0.01 0.01 0.02 0.09 0.19 0.23 0.22 0.19 0.12 0.06 0.03 0.03 0.02 0.02 0.01 0.01 0.01 0.00 0.00 0.00 0.00
0.00 0.00 0.00 0.00 0.00 0.00 0.00 0.00 0.00 0.00 0.00 0.00 0.00 0.00 0.00 0.00 0.01 0.02 0.01 0.01 0.00 0.00 0.00 0.00 0.01 0.01 0.02 0.06 0.09 0.08 0.07 0.05 0.03 0.01 0.01 0.02 0.03 0.01 0.00 0.00 0.00 0.00 0.00
0.00 0.00 0.00 0.00 0.00 0.00 0.00 0.00 0.00 0.00 0.00 0.00 0.00 0.00 0.00 0.00 0.00 0.00 0.00 0.00 0.00 0.00 0.01 0.02 0.03 0.02 0.02 0.03 0.03 0.02 0.01 0.00 0.00 0.00 0.00 0.00 0.00 0.00 0.00 0.00 0.00 0.00 0.00
0.00 0.00 0.00 0.00 0.00 0.00 0.00 0.00 0.00 0.00 0.00 0.00 0.00 0.00 0.00 0.00 0.00 0.00 0.00 0.00 0.00 0.00 0.00 0.00 0.00 0.00 0.00 0.00 0.02 0.03 0.05 0.06 0.05 0.04 0.03 0.01 0.00 0.00 0.00 0.00 0.00 0.00 0.00
0.00 0.00 0.00 0.00 0.00 0.00 0.00 0.00 0.00 0.00 0.00 0.00 0.00 0.00 0.00 0.00 0.00 0.00 0.00 0.00 0.00 0.00 0.00 0.00 0.00 0.00 0.00 0.00 0.00 0.00 0.00 0.01 0.00 0.00 0.00 0.00 0.00 0.00 0.00 0.00 0.00 0.00 0.00
0.00 0.00 0.00 0.00 0.00 0.00 0.00 0.00 0.01 0.03 0.06 0.09 0.13 0.16 0.14 0.11 0.06 0.03 0.03 0.02 0.01 0.02 0.01 0.00 0.01 0.01 0.02 0.02 0.02 0.01 0.01 0.01 0.01 0.02 0.01 0.00 0.00 0.00 0.00 0.00 0.00 0.00 0.00
0.00 0.00 0.00 0.00 0.00 0.00 0.00 0.00 0.00 0.00 0.00 0.01 0.01 0.04 0.11 0.22 0.32 0.34 0.38 0.40 0.37 0.36 0.29 0.25 0.21 0.19 0.23 0.21 0.24 0.24 0.22 0.22 0.24 0.23 0.12 0.08 0.05 0.03 0.03 0.04 0.04 0.03 0.01

GFSMW_prec_precacc24_129.txt.gz
Total_Precipitation_Accumulation
0.13 0.28 0.54 1.99 2.25 1.31 1.43 2.10 1.65 1.16 0.55 0.22 0.23 0.30 0.64 0.59 0.61 0.49 0.16 0.11 0.11 0.05 0.02 0.01 0.00 0.00 0.00 0.00 0.00 0.00 0.00 0.00 0.00 0.00 0.00 0.00 0.00 0.00 0.00 0.00 0.00 0.00 0.00
0.07 0.17 0.42 0.98 2.40 1.53 1.25 1.91 2.39 1.65 1.09 0.43 0.21 0.22 0.20 0.31 0.21 0.27 0.31 0.17 0.13 0.08 0.05 0.02 0.00 0.00 0.00 0.00 0.00 0.00 0.00 0.00 0.00 0.00 0.00 0.00 0.00 0.00 0.00 0.01 0.00 0.00 0.01
0.04 0.12 0.23 0.61 1.38 2.34 1.32 1.85 2.90 2.38 1.56 1.00 0.74 0.66 0.61 0.38 0.37 0.35 0.31 0.46 0.30 0.14 0.10 0.06 0.07 0.04 0.05 0.06 0.02 0.01 0.01 0.01 0.02 0.02 0.05 0.11 0.13 0.10 0.03 0.02 0.02 0.04 0.04
0.03 0.06 0.14 0.36 0.74 1.98 1.80 1.63 2.56 3.82 2.17 1.61 1.11 0.67 0.69 0.56 0.38 0.36 0.46 0.43 0.44 0.33 0.21 0.17 0.11 0.12 0.29 0.27 0.17 0.14 0.17 0.21 0.21 0.20 0.20 0.23 0.21 0.18 0.08 0.02 0.02 0.05 0.06
0.01 0.01 0.08 0.26 0.55 0.95 1.93 1.84 2.48 2.81 4.15 2.59 1.80 0.97 0.60 0.53 0.44 0.34 0.33 0.31 0.28 0.30 0.44 0.48 0.46 0.54 0.70 0.62 0.52 0.42 0.48 0.53 0.43 0.27 0.20 0.17 0.18 0.23 0.36 0.30 0.20 0.17 0.09
0.03 0.00 0.03 0.19 0.38 0.65 1.40 2.02 2.55 2.26 3.84 4.22 3.48 2.07 1.12 0.85 0.88 0.45 0.34 0.45 0.61 0.72 0.83 0.92 0.76 0.62 0.51 0.41 0.38 0.41 0.26 0.17 0.10 0.08 0.14 0.18 0.18 0.17 0.19 0.15 0.04 0.03 0.02
0.07 0.01 0.01 0.10 0.28 0.52 0.93 1.30 2.70 2.32 2.89 3.31 4.11 3.83 2.87 1.48 1.07 1.02 0.92 0.53 0.58 0.61 0.58 0.50 0.58 0.55 0.41 0.23 0.20 0.17 0.11 0.04 0.03 0.05 0.07 0.10 0.08 0.06 0.03 0.03 0.03 0.01 0.01
0.07 0.07 0.04 0.09 0.20 0.38 0.77 0.88 1.29 1.98 2.10 2.45 3.86 4.12 4.38 3.70 2.11 1.58 1.07 0.82 0.44 0.36 0.41 0.33 0.40 0.40 0.31 0.25 0.11 0.04 0.04 0.04 0.04 0.02 0.02 0.06 0.05 0.04 0.03 0.03 0.04 0.02 0.00
0.05 0.06 0.07 0.11 0.18 0.37 0.51 0.82 0.94 1.00 1.59 1.40 2.54 3.10 2.99 2.93 2.42 1.92 1.24 0.96 0.81 0.56 0.40 0.50 0.37 0.29 0.26 0.20 0.14 0.08 0.05 0.02 0.03 0.03 0.04 0.04 0.03 0.01 0.01 0.03 0.06 0.10 0.04
0.03 0.03 0.04 0.19 0.22 0.37 0.53 0.67 0.78 0.91 1.00 1.08 1.26 1.65 1.88 2.18 2.08 1.88 1.48 0.96 0.85 0.71 0.57 0.43 0.37 0.27 0.28 0.36 0.20 0.11 0.08 0.03 0.02 0.04 0.06 0.04 0.00 0.00 0.00 0.00 0.01 0.02 0.04
0.09 0.10 0.28 0.40 0.40 0.78 0.64 0.63 0.74 0.82 0.94 0.83 0.88 1.00 1.29 1.41 1.28 1.53 1.31 0.93 0.70 0.57 0.56 0.49 0.36 0.24 0.16 0.17 0.28 0.14 0.07 0.06 0.05 0.04 0.04 0.03 0.00 0.00 0.00 0.00 0.00 0.01 0.03
0.34 0.55 0.78 0.87 1.31 1.25 0.86 0.76 0.82 0.58 1.13 0.88 0.69 0.66 0.74 0.87 0.75 0.80 0.88 1.21 0.62 0.46 0.40 0.34 0.39 0.33 0.25 0.19 0.17 0.15 0.10 0.07 0.04 0.03 0.04 0.02 0.00 0.00 0.00 0.00 0.00 0.00 0.00
0.86 0.99 1.37 1.71 1.29 1.07 0.62 0.54 0.55 0.47 1.18 1.27 0.85 0.58 0.46 0.68 0.57 0.58 0.62 0.89 0.92 0.60 0.45 0.40 0.31 0.25 0.25 0.24 0.22 0.22 0.22 0.18 0.13 0.09 0.06 0.03 0.01 0.01 0.00 0.00 0.00 0.00 0.01
1.39 1.39 1.37 1.05 0.71 0.56 0.62 0.50 0.62 0.71 0.77 1.01 0.98 0.67 0.57 0.73 0.70 0.55 0.69 0.71 0.88 0.73 0.65 0.57 0.48 0.37 0.29 0.26 0.23 0.19 0.18 0.18 0.13 0.09 0.08 0.07 0.04 0.02 0.01 0.00 0.00 0.00 0.01
2.04 2.09 1.98 1.68 1.27 0.83 0.75 0.75 0.62 0.45 0.34 0.30 0.37 0.36 0.37 0.57 0.62 0.60 0.66 0.62 0.77 0.67 0.63 0.70 0.75 0.62 0.53 0.36 0.27 0.24 0.18 0.16 0.17 0.14 0.08 0.04 0.03 0.04 0.02 0.01 0.00 0.00 0.01
1.45 1.06 0.82 0.66 0.51 0.47 0.48 0.43 0.50 0.50 0.36 0.29 0.22 0.13 0.16 0.22 0.31 0.27 0.31 0.36 0.37 0.48 0.55 0.51 0.58 0.67 0.53 0.60 0.62 0.46 0.29 0.22 0.22 0.25 0.19 0.11 0.08 0.07 0.09 0.10 0.07 0.03 0.01
0.58 0.52 0.48 0.34 0.28 0.27 0.28 0.32 0.33 0.34 0.28 0.13 0.06 0.09 0.18 0.23 0.26 0.13 0.09 0.18 0.28 0.34 0.33 0.43 0.46 0.62 0.73 0.71 0.73 0.89 0.82 0.63 0.46 0.37 0.35 0.39 0.40 0.35 0.24 0.17 0.10 0.04 0.02
0.29 0.34 0.33 0.29 0.29 0.19 0.10 0.05 0.02 0.01 0.03 0.04 0.06 0.10 0.09 0.05 0.04 0.03 0.04 0.05 0.07 0.13 0.23 0.29 0.35 0.44 0.53 0.49 0.49 0.62 0.70 0.81 0.81 0.72 0.66 0.55 0.45 0.37 0.27 0.15 0.04 0.01 0.00
0.00 0.00 0.00 0.00 0.00 0.00 0.00 0.00 0.00 0.00 0.00 0.00 0.00 0.02 0.06 0.04 0.02 0.02 0.01 0.02 0.02 0.02 0.02 0.05 0.11 0.14 0.10 0.15 0.19 0.25 0.24 0.30 0.35 0.37 0.40 0.40 0.35 0.30 0.16 0.07 0.03 0.01 0.00
0.00 0.00 0.00 0.00 0.00 0.00 0.00 0.00 0.00 0.00 0.00 0.00 0.00 0.00 0.01 0.01 0.03 0.02 0.02 0.01 0.01 0.01 0.01 0.01 0.03 0.11 0.23 0.28 0.28 0.28 0.25 0.21 0.18 0.18 0.16 0.15 0.13 0.10 0.06 0.03 0.02 0.02 0.01
0.00 0.00 0.00 0.00 0.00 0.00 0.00 0.00 0.00 0.00 0.00 0.00 0.00 0.00 0.00 0.00 0.01 0.02 0.01 0.01 0.00 0.00 0.00 0.00 0.01 0.01 0.03 0.09 0.15 0.16 0.17 0.17 0.16 0.16 0.18 0.20 0.21 0.17 0.14 0.10 0.07 0.05 0.03
0.00 0.00 0.00 0.00 0.00 0.00 0.00 0.00 0.00 0.00 0.00 0.00 0.00 0.00 0.00 0.00 0.00 0.00 0.00 0.00 0.00 0.00 0.01 0.02 0.03 0.02 0.02 0.03 0.03 0.03 0.04 0.04 0.04 0.06 0.05 0.04 0.05 0.04 0.05 0.05 0.02 0.01 0.00
0.00 0.00 0.00 0.00 0.00 0.00 0.00 0.00 0.00 0.00 0.00 0.00 0.00 0.00 0.00 0.00 0.00 0.00 0.00 0.00 0.00 0.00 0.00 0.00 0.00 0.00 0.00 0.00 0.02 0.04 0.06 0.08 0.09 0.10 0.12 0.12 0.11 0.11 0.10 0.08 0.07 0.05 0.03
0.00 0.00 0.00 0.00 0.00 0.00 0.00 0.00 0.00 0.00 0.00 0.00 0.00 0.00 0.00 0.00 0.00 0.00 0.00 0.00 0.00 0.00 0.00 0.00 0.00 0.00 0.00 0.00 0.00 0.00 0.00 0.01 0.01 0.02 0.05 0.06 0.07 0.07 0.06 0.06 0.05 0.03 0.02
0.00 0.00 0.00 0.00 0.00 0.00 0.00 0.00 0.01 0.03 0.06 0.09 0.13 0.16 0.14 0.11 0.06 0.03 0.03 0.02 0.01 0.02 0.01 0.00 0.01 0.01 0.02 0.02 0.02 0.01 0.01 0.01 0.02 0.03 0.01 0.01 0.02 0.02 0.03 0.03 0.04 0.05 0.04
0.00 0.00 0.00 0.00 0.00 0.00 0.00 0.00 0.00 0.00 0.00 0.01 0.01 0.04 0.11 0.22 0.32 0.34 0.38 0.39 0.37 0.36 0.29 0.25 0.21 0.19 0.23 0.22 0.24 0.24 0.22 0.23 0.25 0.25 0.13 0.11 0.10 0.10 0.11 0.16 0.19 0.21 0.17

GFSMW_prec_precacc24_132.txt.gz
Total_Precipitation_Accumulation
0.07 0.20 0.41 1.82 2.04 0.99 0.97 1.75 1.44 1.04 0.42 0.18 0.23 0.30 0.64 0.59 0.65 0.80 0.40 0.17 0.17 0.12 0.08 0.05 0.01 0.00 0.00 0.00 0.00 0.00 0.00 0.00 0.00 0.00 0.00 0.00 0.00 0.00 0.00 0.00 0.00 0.00 0.00
0.04 0.14 0.34 0.84 2.34 1.44 0.85 1.42 1.92 1.33 0.87 0.20 0.09 0.13 0.17 0.29 0.21 0.26 0.44 0.33 0.17 0.13 0.12 0.10 0.07 0.02 0.00 0.00 0.00 0.00 0.00 0.00 0.00 0.00 0.00 0.00 0.00 0.00 0.00 0.00 0.00 0.00 0.00
0.03 0.09 0.19 0.47 1.25 2.30 1.12 1.20 2.31 1.98 1.26 0.64 0.25 0.28 0.35 0.24 0.21 0.28 0.30 0.41 0.31 0.16 0.16 0.14 0.15 0.09 0.05 0.04 0.02 0.01 0.01 0.01 0.01 0.01 0.02 0.05 0.09 0.09 0.02 0.01 0.01 0.03 0.02
0.03 0.06 0.13 0.31 0.63 1.91 1.69 1.24 2.03 3.29 1.85 1.30 0.81 0.38 0.41 0.32 0.23 0.26 0.34 0.28 0.37 0.34 0.25 0.24 0.17 0.15 0.18 0.17 0.12 0.08 0.10 0.13 0.12 0.04 0.04 0.07 0.09 0.13 0.07 0.01 0.02 0.04 0.04
0.01 0.01 0.08 0.25 0.51 0.85 1.77 1.63 2.19 2.50 3.66 2.29 1.54 0.75 0.42 0.34 0.27 0.22 0.19 0.23 0.21 0.28 0.37 0.42 0.39 0.35 0.43 0.38 0.30 0.27 0.18 0.09 0.02 0.01 0.02 0.01 0.01 0.06 0.20 0.22 0.17 0.15 0.07
0.03 0.00 0.03 0.19 0.38 0.63 1.29 1.79 2.26 2.02 3.58 3.91 3.14 1.77 0.81 0.58 0.68 0.31 0.19 0.23 0.34 0.39 0.43 0.56 0.64 0.61 0.53 0.39 0.29 0.30 0.17 0.09 0.04 0.03 0.03 0.03 0.03 0.02 0.05 0.06 0.02 0.01 0.00
0.07 0.01 0.01 0.10 0.28 0.52 0.90 1.20 2.57 2.16 2.67 3.09 3.88 3.63 2.63 1.35 0.95 0.87 0.65 0.38 0.39 0.44 0.45 0.44 0.54 0.60 0.50 0.31 0.22 0.16 0.10 0.03 0.02 0.03 0.04 0.06 0.05 0.03 0.01 0.01 0.01 0.00 0.00
0.07 0.07 0.04 0.09 0.20 0.38 0.76 0.83 1.23 1.89 2.01 2.39 3.79 4.10 4.34 3.64 2.03 1.47 0.96 0.82 0.43 0.35 0.41 0.33 0.41 0.42 0.33 0.26 0.11 0.05 0.04 0.04 0.04 0.02 0.02 0.05 0.04 0.03 0.02 0.02 0.02 0.01 0.00
0.05 0.06 0.07 0.11 0.18 0.37 0.51 0.82 0.94 0.99 1.57 1.38 2.54 3.11 2.99 2.93 2.39 1.90 1.25 0.97 0.82 0.57 0.40 0.53 0.48 0.36 0.28 0.21 0.14 0.08 0.06 0.04 0.04 0.03 0.04 0.05 0.03 0.01 0.01 0.01 0.02 0.05 0.02
0.03 0.03 0.04 0.19 0.22 0.37 0.53 0.67 0.78 0.91 1.02 1.11 1.26 1.65 1.88 2.18 2.09 1.89 1.49 0.98 0.87 0.75 0.59 0.45 0.49 0.51 0.40 0.40 0.22 0.12 0.10 0.05 0.04 0.06 0.07 0.07 0.05 0.04 0.04 0.03 0.01 0.01 0.01
0.09 0.10 0.28 0.40 0.40 0.78 0.65 0.66 0.79 0.87 0.99 0.88 0.90 1.02 1.33 1.42 1.30 1.58 1.38 0.95 0.75 0.65 0.62 0.58 0.47 0.40 0.39 0.33 0.36 0.16 0.09 0.09 0.08 0.06 0.04 0.04 0.06 0.05 0.04 0.01 0.00 0.00 0.01
0.34 0.55 0.78 0.88 1.31 1.25 0.88 0.81 0.87 0.61 1.18 0.97 0.80 0.70 0.81 0.94 0.77 0.84 1.06 1.41 0.72 0.58 0.58 0.54 0.61 0.54 0.45 0.37 0.27 0.20 0.13 0.10 0.08 0.05 0.05 0.06 0.06 0.04 0.03 0.01 0.00 0.00 0.01
0.87 1.00 1.39 1.75 1.35 1.14 0.78 0.94 1.01 0.87 1.39 1.42 1.10 0.63 0.50 0.74 0.62 0.61 0.69 1.09 1.24 0.71 0.61 0.63 0.57 0.48 0.47 0.47 0.40 0.32 0.31 0.27 0.23 0.16 0.12 0.12 0.10 0.07 0.05 0.06 0.06 0.04 0.02
1.40 1.41 1.45 1.25 0.94 0.98 1.27 1.37 1.56 1.68 1.73 1.80 1.64 1.03 0.69 0.78 0.75 0.66 0.85 0.84 1.09 1.01 0.74 0.71 0.66 0.60 0.46 0.41 0.39 0.32 0.29 0.25 0.18 0.14 0.13 0.14 0.12 0.10 0.10 0.08 0.06 0.03 0.02
2.38 2.48 2.43 2.19 1.86 1.66 1.48 1.46 1.32 1.18 1.00 1.01 1.20 0.97 0.78 0.92 0.94 0.95 1.00 0.81 0.97 0.84 0.70 0.78 0.87 0.78 0.71 0.54 0.43 0.34 0.26 0.22 0.22 0.17 0.11 0.09 0.08 0.08 0.06 0.05 0.03 0.01 0.01
2.00 1.59 1.34 1.16 1.01 0.97 1.02 0.85 0.85 0.78 0.59 0.57 0.58 0.57 0.66 0.66 0.77 0.71 0.65 0.59 0.54 0.68 0.72 0.59 0.63 0.73 0.61 0.68 0.70 0.55 0.37 0.28 0.26 0.28 0.22 0.14 0.12 0.13 0.15 0.16 0.14 0.09 0.06
0.81 0.71 0.70 0.62 0.60 0.65 0.65 0.61 0.54 0.44 0.32 0.19 0.16 0.24 0.36 0.38 0.44 0.29 0.27 0.36 0.41 0.47 0.52 0.72 0.54 0.66 0.77 0.74 0.77 0.92 0.85 0.65 0.48 0.39 0.38 0.41 0.44 0.44 0.40 0.37 0.35 0.32 0.29
0.34 0.39 0.40 0.35 0.34 0.23 0.14 0.08 0.04 0.02 0.04 0.04 0.07 0.11 0.10 0.07 0.06 0.04 0.05 0.07 0.13 0.24 0.28 0.39 0.49 0.57 0.66 0.65 0.62 0.76 0.86 0.98 0.98 0.93 0.86 0.75 0.64 0.63 0.65 0.60 0.56 0.50 0.44
0.00 0.00 0.00 0.00 0.00 0.00 0.00 0.00 0.01 0.01 0.01 0.00 0.01 0.03 0.06 0.04 0.02 0.02 0.01 0.02 0.02 0.04 0.05 0.09 0.17 0.23 0.21 0.30 0.31 0.35 0.36 0.45 0.52 0.58 0.62 0.69 0.75 0.79 0.72 0.61 0.54 0.41 0.26
0.00 0.00 0.00 0.00 0.00 0.00 0.00 0.00 0.00 0.00 0.00 0.00 0.00 0.00 0.01 0.01 0.03 0.02 0.02 0.01 0.01 0.01 0.01 0.01 0.03 0.12 0.24 0.30 0.30 0.31 0.30 0.33 0.36 0.37 0.33 0.35 0.32 0.35 0.35 0.31 0.27 0.20 0.16
0.00 0.00 0.00 0.00 0.00 0.00 0.00 0.00 0.00 0.00 0.00 0.00 0.00 0.00 0.00 0.00 0.01 0.02 0.01 0.01 0.00 0.00 0.00 0.00 0.01 0.01 0.03 0.09 0.15 0.16 0.18 0.19 0.20 0.24 0.32 0.38 0.42 0.37 0.37 0.35 0.30 0.27 0.27
0.00 0.00 0.00 0.00 0.00 0.00 0.00 0.00 0.00 0.00 0.00 0.00 0.00 0.00 0.00 0.00 0.00 0.00 0.00 0.00 0.00 0.00 0.01 0.02 0.03 0.02 0.02 0.03 0.03 0.03 0.04 0.04 0.05 0.08 0.10 0.13 0.16 0.17 0.20 0.22 0.23 0.22 0.18
0.00 0.00 0.00 0.00 0.00 0.00 0.00 0.00 0.00 0.00 0.00 0.00 0.00 0.00 0.00 0.00 0.00 0.00 0.00 0.00 0.00 0.00 0.00 0.00 0.00 0.00 0.00 0.00 0.02 0.04 0.06 0.08 0.09 0.11 0.13 0.13 0.13 0.15 0.17 0.20 0.22 0.22 0.20
0.00 0.00 0.00 0.00 0.00 0.00 0.00 0.00 0.00 0.00 0.00 0.00 0.00 0.00 0.00 0.00 0.00 0.00 0.00 0.00 0.00 0.00 0.00 0.00 0.00 0.00 0.00 0.00 0.00 0.00 0.00 0.01 0.01 0.02 0.05 0.07 0.08 0.09 0.09 0.12 0.13 0.13 0.11
0.00 0.00 0.00 0.00 0.00 0.00 0.00 0.00 0.01 0.03 0.06 0.09 0.13 0.16 0.14 0.11 0.06 0.03 0.03 0.02 0.01 0.02 0.01 0.00 0.01 0.01 0.02 0.03 0.03 0.01 0.01 0.01 0.02 0.03 0.01 0.01 0.02 0.03 0.05 0.08 0.13 0.16 0.17
0.00 0.00 0.00 0.00 0.00 0.00 0.00 0.00 0.00 0.00 0.00 0.01 0.01 0.04 0.11 0.22 0.32 0.34 0.38 0.39 0.37 0.36 0.29 0.25 0.21 0.19 0.23 0.22 0.25 0.25 0.23 0.23 0.25 0.25 0.13 0.11 0.10 0.10 0.13 0.18 0.24 0.30 0.30

GFSMW_prec_precacc24_135.txt.gz
Total_Precipitation_Accumulation
0.00 0.04 0.29 1.51 1.78 0.83 0.91 1.75 1.44 1.04 0.42 0.18 0.23 0.30 0.64 0.59 0.65 0.81 0.41 0.18 0.17 0.13 0.09 0.07 0.04 0.01 0.00 0.00 0.00 0.00 0.00 0.00 0.00 0.00 0.00 0.00 0.00 0.00 0.00 0.00 0.00 0.00 0.00
0.00 0.03 0.21 0.66 1.92 1.22 0.64 1.20 1.70 1.30 0.80 0.14 0.08 0.12 0.17 0.29 0.21 0.26 0.45 0.38 0.23 0.15 0.14 0.12 0.10 0.04 0.01 0.00 0.00 0.00 0.00 0.00 0.00 0.00 0.00 0.00 0.00 0.00 0.00 0.00 0.00 0.00 0.00
0.01 0.02 0.08 0.35 1.01 1.93 0.90 0.85 1.41 1.47 1.10 0.49 0.15 0.17 0.29 0.23 0.20 0.28 0.31 0.40 0.36 0.21 0.18 0.13 0.11 0.09 0.04 0.01 0.01 0.01 0.01 0.01 0.00 0.00 0.00 0.01 0.02 0.02 0.00 0.00 0.00 0.00 0.00
0.03 0.04 0.05 0.22 0.55 1.74 1.34 0.84 1.31 1.78 1.30 1.06 0.58 0.17 0.23 0.23 0.13 0.14 0.22 0.18 0.31 0.32 0.24 0.19 0.13 0.10 0.09 0.06 0.04 0.03 0.06 0.08 0.08 0.02 0.00 0.01 0.02 0.04 0.02 0.00 0.00 0.00 0.02
0.01 0.01 0.05 0.18 0.41 0.77 1.61 1.32 1.66 1.73 2.21 1.56 1.13 0.50 0.27 0.26 0.15 0.10 0.11 0.18 0.17 0.20 0.28 0.34 0.28 0.20 0.16 0.14 0.11 0.10 0.04 0.04 0.01 0.00 0.01 0.00 0.00 0.01 0.02 0.03 0.04 0.05 0.03
0.03 0.00 0.03 0.18 0.33 0.57 1.19 1.70 2.08 1.71 2.59 2.37 2.22 1.05 0.60 0.48 0.50 0.22 0.13 0.16 0.21 0.19 0.23 0.30 0.38 0.42 0.34 0.23 0.19 0.19 0.09 0.01 0.00 0.01 0.03 0.03 0.02 0.01 0.01 0.01 0.00 0.00 0.00
0.07 0.01 0.01 0.09 0.23 0.44 0.81 1.13 2.45 2.03 2.30 2.48 3.08 2.33 1.78 1.06 0.66 0.56 0.43 0.18 0.15 0.18 0.25 0.28 0.35 0.46 0.45 0.31 0.27 0.20 0.12 0.04 0.02 0.02 0.04 0.05 0.04 0.02 0.00 0.01 0.01 0.00 0.00
0.08 0.07 0.04 0.09 0.19 0.35 0.69 0.78 1.16 1.80 1.88 2.02 3.16 3.35 3.24 2.50 1.39 1.06 0.73 0.60 0.25 0.17 0.29 0.30 0.38 0.41 0.33 0.26 0.13 0.08 0.07 0.05 0.04 0.02 0.02 0.05 0.04 0.02 0.02 0.01 0.01 0.01 0.00
0.05 0.06 0.07 0.11 0.18 0.37 0.49 0.80 0.91 0.94 1.49 1.27 2.20 2.91 2.87 2.69 2.16 1.69 1.10 0.90 0.76 0.53 0.40 0.53 0.49 0.36 0.28 0.22 0.15 0.09 0.07 0.05 0.05 0.04 0.05 0.05 0.03 0.01 0.01 0.01 0.01 0.02 0.00
0.03 0.03 0.04 0.19 0.22 0.37 0.53 0.66 0.77 0.90 1.01 1.09 1.21 1.58 1.80 2.08 2.03 1.83 1.45 0.97 0.87 0.75 0.59 0.46 0.51 0.53 0.42 0.41 0.22 0.12 0.10 0.06 0.04 0.06 0.09 0.09 0.06 0.04 0.05 0.06 0.04 0.03 0.04
0.08 0.10 0.28 0.40 0.40 0.78 0.65 0.64 0.77 0.87 0.99 0.87 0.88 1.01 1.33 1.42 1.30 1.58 1.39 0.97 0.76 0.65 0.63 0.58 0.47 0.41 0.41 0.34 0.39 0.17 0.10 0.10 0.09 0.07 0.06 0.05 0.09 0.07 0.07 0.06 0.06 0.06 0.07
0.33 0.54 0.78 0.88 1.31 1.25 0.87 0.79 0.84 0.60 1.18 0.98 0.81 0.70 0.81 0.95 0.80 0.86 1.07 1.45 0.74 0.59 0.59 0.54 0.61 0.54 0.46 0.40 0.36 0.28 0.16 0.12 0.09 0.09 0.08 0.08 0.08 0.06 0.06 0.06 0.07 0.08 0.08
0.87 1.00 1.40 1.76 1.37 1.15 0.78 0.94 1.00 0.87 1.40 1.44 1.13 0.65 0.51 0.75 0.62 0.61 0.71 1.14 1.28 0.73 0.62 0.64 0.59 0.50 0.53 0.51 0.46 0.40 0.40 0.35 0.28 0.22 0.18 0.18 0.18 0.13 0.14 0.17 0.18 0.18 0.14
1.41 1.44 1.50 1.33 1.07 1.04 1.31 1.43 1.65 1.77 1.80 1.84 1.69 1.09 0.74 0.84 0.82 0.68 0.86 0.88 1.18 1.13 0.80 0.76 0.81 0.88 0.74 0.66 0.65 0.55 0.46 0.40 0.33 0.28 0.27 0.28 0.25 0.20 0.20 0.21 0.16 0.14 0.11
2.46 2.63 2.66 2.49 2.18 2.03 2.03 2.07 1.96 1.77 1.38 1.26 1.53 1.35 1.05 1.13 1.40 1.28 1.12 0.88 1.14 1.15 1.03 0.92 0.98 0.96 1.08 1.07 1.00 0.86 0.72 0.60 0.47 0.36 0.24 0.18 0.16 0.16 0.15 0.13 0.08 0.06 0.06
2.36 1.97 1.75 1.59 1.45 1.42 1.46 1.35 1.40 1.27 1.11 1.22 1.24 1.11 1.39 1.37 1.53 1.48 1.26 0.77 0.94 0.97 1.20 0.94 0.81 0.83 0.74 0.89 1.05 0.93 0.69 0.56 0.52 0.43 0.28 0.19 0.20 0.21 0.24 0.25 0.21 0.15 0.13
0.98 0.90 0.95 0.89 0.83 0.85 0.80 0.79 0.82 0.74 0.70 0.71 0.71 0.78 0.94 0.94 1.05 0.89 0.88 0.81 0.78 0.69 0.69 0.90 0.72 0.77 0.86 0.90 0.95 1.15 1.09 0.88 0.69 0.57 0.52 0.52 0.50 0.50 0.46 0.44 0.43 0.42 0.43
0.35 0.40 0.41 0.36 0.37 0.25 0.16 0.12 0.08 0.08 0.10 0.11 0.17 0.28 0.29 0.29 0.28 0.23 0.20 0.19 0.27 0.36 0.34 0.46 0.65 0.65 0.78 0.78 0.77 0.91 0.98 1.09 1.09 1.04 0.97 0.85 0.74 0.73 0.78 0.72 0.69 0.66 0.64
0.00 0.00 0.00 0.00 0.00 0.00 0.00 0.01 0.01 0.01 0.01 0.01 0.01 0.03 0.07 0.05 0.03 0.03 0.02 0.04 0.05 0.06 0.05 0.10 0.18 0.25 0.27 0.38 0.36 0.40 0.40 0.48 0.58 0.68 0.75 0.83 0.87 0.92 0.88 0.78 0.79 0.76 0.72
0.00 0.00 0.00 0.00 0.00 0.00 0.00 0.00 0.00 0.00 0.00 0.00 0.00 0.00 0.01 0.01 0.03 0.02 0.02 0.01 0.01 0.01 0.01 0.01 0.03 0.12 0.24 0.31 0.31 0.32 0.30 0.33 0.38 0.40 0.37 0.42 0.42 0.49 0.50 0.48 0.51 0.53 0.53
0.00 0.00 0.00 0.00 0.00 0.00 0.00 0.00 0.00 0.00 0.00 0.00 0.00 0.00 0.00 0.00 0.01 0.02 0.01 0.01 0.00 0.00 0.00 0.00 0.01 0.01 0.03 0.09 0.15 0.16 0.18 0.19 0.21 0.26 0.34 0.42 0.48 0.47 0.47 0.46 0.42 0.42 0.48
0.00 0.00 0.00 0.00 0.00 0.00 0.00 0.00 0.00 0.00 0.00 0.00 0.00 0.00 0.00 0.00 0.00 0.00 0.00 0.00 0.00 0.00 0.01 0.02 0.03 0.02 0.02 0.03 0.03 0.03 0.04 0.04 0.05 0.08 0.10 0.13 0.18 0.20 0.25 0.27 0.29 0.29 0.25
0.00 0.00 0.00 0.00 0.00 0.00 0.00 0.00 0.00 0.00 0.00 0.00 0.00 0.00 0.00 0.00 0.00 0.00 0.00 0.00 0.00 0.00 0.00 0.00 0.00 0.00 0.00 0.00 0.02 0.04 0.06 0.08 0.09 0.11 0.13 0.13 0.13 0.15 0.18 0.22 0.26 0.28 0.24
0.00 0.00 0.00 0.00 0.00 0.00 0.00 0.00 0.00 0.00 0.00 0.00 0.00 0.00 0.00 0.00 0.00 0.00 0.00 0.00 0.00 0.00 0.00 0.00 0.00 0.00 0.00 0.00 0.00 0.00 0.00 0.01 0.01 0.02 0.05 0.07 0.08 0.09 0.10 0.13 0.15 0.15 0.14
0.00 0.00 0.00 0.00 0.00 0.00 0.00 0.00 0.00 0.02 0.05 0.07 0.10 0.14 0.12 0.10 0.06 0.03 0.03 0.02 0.01 0.02 0.01 0.00 0.01 0.01 0.02 0.03 0.03 0.01 0.01 0.01 0.02 0.03 0.01 0.01 0.02 0.03 0.05 0.09 0.15 0.20 0.21
0.00 0.00 0.00 0.00 0.00 0.00 0.00 0.00 0.00 0.00 0.00 0.01 0.01 0.02 0.07 0.21 0.29 0.33 0.38 0.39 0.37 0.36 0.29 0.25 0.21 0.19 0.23 0.22 0.25 0.25 0.23 0.23 0.26 0.25 0.13 0.11 0.10 0.10 0.13 0.18 0.24 0.30 0.32

GFSMW_prec_precacc24_138.txt.gz
Total_Precipitation_Accumulation
0.00 0.00 0.01 0.08 0.38 0.50 0.77 1.68 1.41 1.03 0.41 0.18 0.21 0.30 0.64 0.59 0.65 0.82 0.42 0.20 0.20 0.14 0.10 0.07 0.05 0.02 0.00 0.00 0.00 0.00 0.00 0.00 0.00 0.00 0.00 0.00 0.00 0.00 0.00 0.00 0.00 0.00 0.00
0.00 0.01 0.01 0.16 0.29 0.62 0.47 1.10 1.64 1.29 0.79 0.14 0.06 0.11 0.17 0.29 0.21 0.26 0.46 0.40 0.26 0.17 0.15 0.13 0.11 0.06 0.01 0.00 0.00 0.00 0.00 0.00 0.00 0.00 0.00 0.00 0.00 0.00 0.00 0.00 0.00 0.00 0.00
0.01 0.02 0.01 0.12 0.24 0.82 0.61 0.67 1.32 1.44 1.09 0.48 0.13 0.16 0.28 0.23 0.20 0.28 0.31 0.43 0.39 0.23 0.19 0.14 0.13 0.11 0.05 0.01 0.00 0.00 0.00 0.00 0.00 0.00 0.00 0.00 0.02 0.02 0.00 0.00 0.00 0.00 0.00
0.03 0.03 0.00 0.06 0.23 0.52 0.69 0.58 1.11 1.69 1.23 0.99 0.51 0.13 0.21 0.23 0.13 0.14 0.22 0.17 0.31 0.34 0.24 0.19 0.14 0.12 0.10 0.04 0.01 0.00 0.02 0.07 0.07 0.01 0.00 0.00 0.01 0.02 0.01 0.00 0.00 0.00 0.00
0.01 0.00 0.00 0.04 0.23 0.47 0.96 0.82 1.29 1.53 2.02 1.42 1.00 0.34 0.10 0.15 0.10 0.07 0.08 0.15 0.11 0.20 0.26 0.33 0.27 0.15 0.11 0.10 0.06 0.04 0.02 0.02 0.00 0.00 0.01 0.00 0.00 0.01 0.00 0.00 0.00 0.00 0.00
0.03 0.00 0.00 0.04 0.20 0.44 0.93 1.23 1.45 1.30 2.30 2.03 1.80 0.84 0.34 0.23 0.34 0.14 0.08 0.11 0.16 0.14 0.18 0.26 0.32 0.29 0.24 0.20 0.19 0.20 0.09 0.02 0.00 0.00 0.02 0.02 0.02 0.01 0.00 0.00 0.00 0.00 0.00
0.06 0.01 0.00 0.03 0.13 0.38 0.69 0.93 2.18 1.69 2.01 2.17 2.53 1.54 1.15 0.65 0.43 0.36 0.20 0.10 0.14 0.16 0.17 0.19 0.20 0.19 0.17 0.22 0.26 0.22 0.13 0.05 0.02 0.02 0.02 0.04 0.04 0.02 0.00 0.00 0.00 0.00 0.00
0.06 0.06 0.03 0.06 0.12 0.25 0.55 0.58 0.96 1.61 1.72 1.83 2.86 2.46 2.38 1.63 0.78 0.61 0.39 0.29 0.12 0.06 0.09 0.13 0.16 0.24 0.18 0.22 0.13 0.08 0.07 0.05 0.04 0.03 0.02 0.05 0.04 0.02 0.01 0.00 0.00 0.00 0.00
0.03 0.06 0.07 0.11 0.15 0.28 0.34 0.43 0.61 0.74 1.40 1.14 1.84 2.22 2.20 2.07 1.54 1.15 0.62 0.39 0.32 0.18 0.11 0.21 0.36 0.27 0.26 0.21 0.15 0.10 0.07 0.05 0.06 0.05 0.06 0.05 0.03 0.01 0.01 0.00 0.00 0.02 0.01
0.02 0.03 0.04 0.19 0.21 0.34 0.42 0.51 0.63 0.77 0.87 0.95 1.10 1.41 1.65 1.87 1.76 1.50 1.11 0.64 0.56 0.50 0.43 0.35 0.42 0.50 0.43 0.42 0.23 0.12 0.10 0.06 0.05 0.07 0.09 0.09 0.06 0.04 0.05 0.06 0.04 0.04 0.06
0.09 0.11 0.28 0.40 0.41 0.78 0.61 0.56 0.69 0.80 0.91 0.81 0.86 0.96 1.26 1.34 1.17 1.44 1.27 0.88 0.66 0.58 0.62 0.58 0.47 0.43 0.43 0.35 0.40 0.18 0.11 0.10 0.09 0.07 0.06 0.06 0.09 0.08 0.08 0.07 0.07 0.07 0.10
0.32 0.55 0.78 0.88 1.32 1.25 0.86 0.74 0.78 0.53 1.13 0.94 0.78 0.67 0.76 0.89 0.74 0.82 1.02 1.39 0.70 0.58 0.62 0.57 0.63 0.55 0.47 0.41 0.37 0.29 0.17 0.12 0.09 0.09 0.08 0.08 0.08 0.07 0.08 0.10 0.11 0.13 0.16
0.82 0.99 1.40 1.76 1.39 1.15 0.79 0.92 0.97 0.82 1.35 1.41 1.11 0.63 0.48 0.70 0.59 0.63 0.71 1.16 1.29 0.73 0.62 0.64 0.60 0.51 0.54 0.52 0.46 0.41 0.42 0.36 0.29 0.22 0.18 0.18 0.20 0.17 0.20 0.25 0.27 0.30 0.29
1.40 1.44 1.50 1.33 1.08 1.05 1.33 1.45 1.66 1.74 1.75 1.79 1.67 1.09 0.74 0.84 0.80 0.67 0.87 0.89 1.18 1.13 0.81 0.76 0.81 0.88 0.74 0.67 0.65 0.56 0.46 0.41 0.35 0.29 0.29 0.31 0.29 0.27 0.29 0.32 0.28 0.30 0.23
2.50 2.68 2.72 2.54 2.21 2.08 2.11 2.16 2.04 1.81 1.37 1.24 1.50 1.35 1.07 1.12 1.44 1.35 1.17 0.91 1.17 1.19 1.06 0.96 1.02 1.00 1.12 1.10 1.04 0.91 0.76 0.67 0.54 0.46 0.39 0.32 0.31 0.30 0.30 0.31 0.24 0.20 0.18
2.51 2.18 1.93 1.71 1.60 1.61 1.65 1.45 1.45 1.32 1.15 1.23 1.23 1.12 1.42 1.40 1.62 1.74 1.46 0.82 1.05 1.03 1.33 1.06 0.94 0.95 0.88 1.08 1.21 1.15 0.98 0.97 0.99 0.86 0.67 0.54 0.52 0.47 0.50 0.52 0.44 0.36 0.31
1.03 0.94 0.98 0.93 0.92 0.98 0.95 1.01 1.12 0.94 0.86 0.83 0.82 1.04 1.29 1.26 1.40 1.32 1.36 1.34 1.37 1.11 1.29 1.28 1.03 1.12 1.11 1.08 1.09 1.30 1.26 1.07 0.95 0.88 0.82 0.81 0.78 0.76 0.72 0.69 0.68 0.70 0.76
0.35 0.40 0.41 0.36 0.37 0.26 0.17 0.15 0.14 0.24 0.31 0.45 0.69 0.89 0.86 0.90 1.02 0.85 1.04 0.88 0.78 0.79 0.66 0.75 0.90 0.91 0.99 0.97 0.87 0.99 1.08 1.24 1.27 1.26 1.22 1.10 1.00 0.99 1.02 0.95 0.91 0.87 0.87
0.00 0.00 0.00 0.00 0.00 0.00 0.00 0.01 0.01 0.01 0.02 0.05 0.10 0.17 0.25 0.23 0.25 0.30 0.29 0.28 0.19 0.15 0.12 0.17 0.24 0.32 0.32 0.46 0.43 0.46 0.45 0.54 0.63 0.74 0.81 0.89 0.94 0.99 0.94 0.83 0.84 0.83 0.81
0.00 0.00 0.00 0.00 0.00 0.00 0.00 0.00 0.00 0.00 0.00 0.00 0.00 0.00 0.01 0.01 0.03 0.04 0.04 0.03 0.01 0.02 0.01 0.01 0.03 0.12 0.24 0.32 0.32 0.32 0.30 0.33 0.38 0.40 0.37 0.42 0.42 0.49 0.51 0.49 0.52 0.55 0.54
0.00 0.00 0.00 0.00 0.00 0.00 0.00 0.00 0.00 0.00 0.00 0.00 0.00 0.00 0.00 0.00 0.01 0.02 0.01 0.01 0.00 0.00 0.00 0.00 0.01 0.01 0.03 0.09 0.15 0.16 0.18 0.19 0.21 0.26 0.34 0.42 0.49 0.47 0.48 0.47 0.43 0.45 0.49
0.00 0.00 0.00 0.00 0.00 0.00 0.00 0.00 0.00 0.00 0.00 0.00 0.00 0.00 0.00 0.00 0.00 0.00 0.00 0.00 0.00 0.00 0.01 0.02 0.03 0.02 0.02 0.03 0.03 0.03 0.04 0.04 0.05 0.08 0.10 0.14 0.18 0.20 0.26 0.28 0.31 0.31 0.28
0.00 0.00 0.00 0.00 0.00 0.00 0.00 0.00 0.00 0.00 0.00 0.00 0.00 0.00 0.00 0.00 0.00 0.00 0.00 0.00 0.00 0.00 0.00 0.00 0.00 0.00 0.00 0.00 0.02 0.04 0.06 0.08 0.09 0.11 0.13 0.13 0.13 0.15 0.18 0.22 0.27 0.29 0.25
0.00 0.00 0.00 0.00 0.00 0.00 0.00 0.00 0.00 0.00 0.00 0.00 0.00 0.00 0.00 0.00 0.00 0.00 0.00 0.00 0.00 0.00 0.00 0.00 0.00 0.00 0.00 0.00 0.00 0.00 0.00 0.01 0.01 0.02 0.05 0.07 0.08 0.09 0.10 0.14 0.15 0.16 0.16
0.00 0.00 0.00 0.00 0.00 0.00 0.00 0.00 0.00 0.00 0.01 0.03 0.05 0.07 0.06 0.06 0.04 0.02 0.03 0.02 0.01 0.02 0.01 0.00 0.01 0.01 0.02 0.03 0.03 0.02 0.01 0.01 0.02 0.03 0.01 0.01 0.02 0.03 0.05 0.09 0.15 0.20 0.22
0.00 0.00 0.00 0.00 0.00 0.00 0.00 0.00 0.00 0.00 0.00 0.00 0.00 0.01 0.03 0.07 0.13 0.19 0.26 0.31 0.32 0.33 0.28 0.24 0.20 0.18 0.23 0.22 0.25 0.25 0.23 0.23 0.26 0.25 0.13 0.11 0.10 0.10 0.13 0.18 0.24 0.30 0.33

GFSMW_prec_precacc24_141.txt.gz
Total_Precipitation_Accumulation
0.00 0.00 0.00 0.00 0.00 0.00 0.14 1.05 1.13 0.95 0.37 0.15 0.18 0.27 0.63 0.59 0.65 0.82 0.43 0.24 0.24 0.17 0.14 0.09 0.06 0.04 0.00 0.00 0.00 0.00 0.00 0.00 0.00 0.00 0.00 0.00 0.00 0.00 0.00 0.00 0.00 0.00 0.00
0.00 0.01 0.00 0.00 0.00 0.01 0.06 0.65 1.36 1.15 0.77 0.13 0.06 0.11 0.16 0.29 0.21 0.26 0.46 0.41 0.30 0.20 0.16 0.14 0.13 0.07 0.01 0.00 0.00 0.00 0.00 0.00 0.00 0.00 0.00 0.00 0.00 0.00 0.00 0.00 0.00 0.00 0.00
0.01 0.02 0.00 0.00 0.01 0.02 0.06 0.34 0.94 1.22 1.03 0.47 0.09 0.13 0.25 0.22 0.19 0.28 0.31 0.43 0.40 0.26 0.22 0.16 0.15 0.15 0.07 0.03 0.00 0.00 0.00 0.00 0.00 0.00 0.00 0.00 0.01 0.01 0.00 0.00 0.00 0.00 0.00
0.03 0.03 0.00 0.00 0.00 0.01 0.02 0.13 0.38 1.34 1.14 0.95 0.47 0.11 0.21 0.23 0.13 0.14 0.22 0.17 0.32 0.35 0.27 0.22 0.16 0.13 0.12 0.06 0.02 0.00 0.01 0.02 0.05 0.01 0.00 0.00 0.01 0.00 0.00 0.00 0.00 0.00 0.00
0.01 0.00 0.00 0.00 0.02 0.03 0.03 0.04 0.30 0.84 1.87 1.33 0.88 0.31 0.09 0.15 0.10 0.07 0.07 0.15 0.11 0.21 0.29 0.35 0.29 0.16 0.12 0.11 0.07 0.02 0.00 0.01 0.00 0.00 0.00 0.00 0.00 0.00 0.00 0.00 0.00 0.00 0.00
0.03 0.00 0.00 0.00 0.04 0.07 0.06 0.09 0.22 0.69 1.91 1.86 1.65 0.76 0.27 0.16 0.31 0.13 0.08 0.11 0.15 0.13 0.19 0.29 0.36 0.31 0.23 0.16 0.15 0.11 0.07 0.03 0.01 0.00 0.01 0.01 0.01 0.01 0.00 0.00 0.00 0.00 0.00
0.06 0.01 0.00 0.00 0.07 0.08 0.08 0.17 0.47 0.69 1.49 1.72 2.37 1.37 0.99 0.48 0.28 0.26 0.09 0.06 0.12 0.16 0.16 0.20 0.24 0.21 0.14 0.13 0.15 0.15 0.13 0.06 0.03 0.01 0.01 0.02 0.03 0.01 0.00 0.00 0.00 0.00 0.00
0.05 0.06 0.03 0.03 0.07 0.10 0.12 0.19 0.45 1.04 1.33 1.35 2.47 2.18 1.80 1.30 0.57 0.43 0.22 0.09 0.04 0.06 0.09 0.16 0.16 0.14 0.10 0.06 0.05 0.06 0.07 0.06 0.06 0.04 0.03 0.05 0.04 0.02 0.01 0.00 0.00 0.00 0.00
0.03 0.05 0.07 0.09 0.12 0.15 0.20 0.24 0.41 0.58 1.19 0.94 1.49 1.98 1.96 1.75 1.09 0.73 0.45 0.26 0.15 0.08 0.09 0.18 0.28 0.19 0.11 0.09 0.09 0.08 0.09 0.07 0.06 0.05 0.07 0.08 0.04 0.02 0.01 0.01 0.00 0.01 0.01
0.01 0.00 0.02 0.16 0.19 0.27 0.29 0.41 0.49 0.63 0.67 0.77 0.90 1.21 1.48 1.70 1.51 1.10 0.74 0.42 0.36 0.24 0.16 0.17 0.28 0.38 0.22 0.14 0.21 0.16 0.13 0.08 0.07 0.07 0.09 0.10 0.07 0.06 0.06 0.07 0.04 0.04 0.07
0.08 0.10 0.24 0.37 0.39 0.74 0.52 0.48 0.61 0.63 0.54 0.56 0.72 0.85 1.19 1.29 1.10 1.30 1.05 0.65 0.44 0.39 0.37 0.34 0.31 0.33 0.39 0.31 0.41 0.23 0.14 0.11 0.10 0.07 0.06 0.06 0.10 0.09 0.10 0.08 0.08 0.08 0.11
0.35 0.56 0.74 0.88 1.31 1.24 0.82 0.70 0.72 0.40 0.91 0.76 0.72 0.64 0.75 0.88 0.73 0.79 0.96 1.31 0.61 0.46 0.50 0.46 0.55 0.52 0.51 0.50 0.42 0.31 0.19 0.14 0.10 0.09 0.09 0.08 0.09 0.08 0.08 0.10 0.11 0.14 0.17
0.80 1.00 1.36 1.77 1.40 1.13 0.75 0.89 0.93 0.75 1.26 1.31 1.06 0.60 0.48 0.69 0.57 0.60 0.66 1.09 1.22 0.65 0.56 0.60 0.56 0.51 0.60 0.62 0.54 0.45 0.43 0.38 0.30 0.23 0.19 0.19 0.21 0.17 0.20 0.26 0.28 0.31 0.31
1.32 1.43 1.51 1.33 1.07 1.03 1.29 1.43 1.65 1.72 1.71 1.73 1.62 1.06 0.74 0.83 0.76 0.62 0.78 0.82 1.11 1.07 0.78 0.75 0.81 0.88 0.74 0.69 0.70 0.62 0.49 0.42 0.35 0.30 0.30 0.31 0.30 0.28 0.30 0.34 0.30 0.32 0.29
2.45 2.60 2.68 2.54 2.21 2.08 2.10 2.15 2.03 1.80 1.36 1.23 1.49 1.34 1.12 1.21 1.51 1.36 1.13 0.88 1.18 1.19 1.09 0.98 1.03 1.01 1.12 1.10 1.05 0.92 0.78 0.67 0.54 0.47 0.40 0.35 0.40 0.42 0.44 0.44 0.36 0.34 0.33
2.52 2.17 1.90 1.68 1.59 1.61 1.65 1.46 1.44 1.32 1.15 1.24 1.29 1.14 1.41 1.39 1.65 1.79 1.48 0.83 1.15 1.18 1.45 1.12 0.99 0.97 0.90 1.10 1.23 1.17 1.00 1.00 1.03 0.93 0.77 0.67 0.74 0.66 0.69 0.68 0.63 0.59 0.59
1.03 0.94 0.98 0.93 0.92 0.98 0.95 1.01 1.13 0.94 0.87 0.89 1.01 1.17 1.32 1.24 1.37 1.30 1.35 1.34 1.42 1.21 1.40 1.32 1.05 1.15 1.21 1.20 1.18 1.41 1.33 1.14 1.04 0.94 0.86 0.86 0.89 0.91 0.86 0.86 0.87 0.89 0.97
0.35 0.40 0.41 0.36 0.37 0.26 0.17 0.15 0.14 0.25 0.32 0.49 0.74 0.96 0.96 0.97 1.05 0.91 1.27 1.09 0.97 1.17 1.16 1.01 1.14 1.14 1.33 1.27 1.05 1.19 1.22 1.31 1.31 1.29 1.27 1.18 1.08 1.07 1.10 1.02 0.98 0.95 0.94
0.00 0.00 0.00 0.00 0.00 0.00 0.00 0.01 0.01 0.01 0.03 0.06 0.11 0.22 0.35 0.36 0.38 0.51 0.72 0.66 0.50 0.52 0.55 0.45 0.51 0.59 0.53 0.64 0.57 0.55 0.48 0.57 0.66 0.76 0.82 0.91 0.95 1.02 0.97 0.84 0.85 0.83 0.82
0.00 0.00 0.00 0.00 0.00 0.00 0.00 0.00 0.00 0.00 0.00 0.00 0.00 0.00 0.01 0.07 0.19 0.30 0.33 0.26 0.27 0.23 0.18 0.13 0.10 0.20 0.28 0.35 0.34 0.33 0.31 0.33 0.38 0.40 0.37 0.42 0.42 0.49 0.51 0.49 0.52 0.55 0.54
0.00 0.00 0.00 0.00 0.00 0.00 0.00 0.00 0.00 0.00 0.00 0.00 0.00 0.00 0.00 0.00 0.02 0.05 0.03 0.02 0.01 0.01 0.01 0.01 0.01 0.01 0.03 0.09 0.15 0.16 0.18 0.19 0.21 0.26 0.34 0.42 0.49 0.47 0.48 0.47 0.43 0.45 0.49
0.00 0.00 0.00 0.00 0.00 0.00 0.00 0.00 0.00 0.00 0.00 0.00 0.00 0.00 0.00 0.00 0.00 0.00 0.00 0.00 0.00 0.00 0.01 0.02 0.03 0.02 0.02 0.03 0.04 0.03 0.04 0.04 0.05 0.08 0.10 0.14 0.18 0.20 0.26 0.28 0.31 0.31 0.28
0.00 0.00 0.00 0.00 0.00 0.00 0.00 0.00 0.00 0.00 0.00 0.00 0.00 0.00 0.00 0.00 0.00 0.00 0.00 0.00 0.00 0.00 0.00 0.00 0.00 0.00 0.00 0.00 0.02 0.04 0.06 0.08 0.09 0.11 0.13 0.13 0.13 0.15 0.18 0.22 0.27 0.29 0.25
0.00 0.00 0.00 0.00 0.00 0.00 0.00 0.00 0.00 0.00 0.00 0.00 0.00 0.00 0.00 0.00 0.00 0.00 0.00 0.00 0.00 0.00 0.00 0.00 0.00 0.00 0.00 0.00 0.00 0.00 0.00 0.01 0.01 0.02 0.05 0.07 0.08 0.09 0.10 0.14 0.15 0.16 0.16
0.00 0.00 0.00 0.00 0.00 0.00 0.00 0.00 0.00 0.00 0.00 0.00 0.00 0.01 0.01 0.02 0.02 0.01 0.01 0.01 0.01 0.02 0.01 0.00 0.01 0.01 0.02 0.03 0.03 0.02 0.01 0.01 0.02 0.03 0.01 0.01 0.02 0.03 0.05 0.09 0.15 0.20 0.23
0.00 0.00 0.00 0.00 0.00 0.00 0.00 0.00 0.00 0.00 0.00 0.00 0.00 0.00 0.00 0.00 0.01 0.03 0.06 0.10 0.13 0.17 0.16 0.16 0.13 0.13 0.19 0.20 0.23 0.23 0.22 0.23 0.26 0.25 0.13 0.11 0.10 0.10 0.13 0.19 0.24 0.30 0.33

GFSMW_prec_precacc24_144.txt.gz
Total_Precipitation_Accumulation
0.00 0.00 0.00 0.00 0.00 0.00 0.00 0.00 0.09 0.55 0.14 0.10 0.18 0.27 0.62 0.59 0.65 0.82 0.43 0.24 0.26 0.22 0.20 0.13 0.08 0.10 0.03 0.00 0.00 0.00 0.00 0.00 0.00 0.00 0.00 0.00 0.00 0.00 0.00 0.00 0.00 0.00 0.00
0.00 0.00 0.00 0.00 0.00 0.01 0.01 0.00 0.08 0.71 0.53 0.09 0.05 0.11 0.16 0.29 0.21 0.26 0.46 0.41 0.31 0.22 0.18 0.15 0.14 0.09 0.03 0.01 0.00 0.00 0.00 0.00 0.00 0.00 0.00 0.00 0.00 0.00 0.00 0.00 0.00 0.00 0.00
0.00 0.01 0.00 0.00 0.01 0.02 0.02 0.00 0.03 0.42 0.78 0.42 0.07 0.10 0.19 0.20 0.19 0.28 0.31 0.43 0.40 0.26 0.24 0.18 0.16 0.16 0.10 0.04 0.01 0.00 0.00 0.00 0.00 0.00 0.00 0.00 0.00 0.00 0.00 0.00 0.00 0.00 0.00
0.02 0.03 0.00 0.00 0.00 0.01 0.02 0.02 0.05 0.37 0.69 0.80 0.43 0.09 0.19 0.21 0.12 0.14 0.22 0.17 0.32 0.35 0.28 0.28 0.23 0.16 0.16 0.10 0.04 0.01 0.00 0.00 0.00 0.00 0.00 0.00 0.00 0.00 0.00 0.00 0.00 0.00 0.00
0.00 0.00 0.00 0.00 0.01 0.02 0.02 0.02 0.07 0.25 0.94 1.02 0.81 0.27 0.08 0.12 0.09 0.07 0.07 0.15 0.11 0.21 0.29 0.36 0.33 0.22 0.15 0.15 0.12 0.08 0.03 0.00 0.00 0.00 0.00 0.00 0.00 0.00 0.00 0.00 0.00 0.00 0.00
0.03 0.00 0.00 0.00 0.02 0.06 0.06 0.04 0.05 0.20 0.68 1.21 1.23 0.61 0.25 0.10 0.29 0.13 0.07 0.10 0.15 0.12 0.19 0.31 0.38 0.35 0.29 0.22 0.20 0.17 0.12 0.05 0.02 0.00 0.00 0.00 0.00 0.00 0.00 0.00 0.00 0.00 0.00
0.06 0.01 0.00 0.00 0.05 0.08 0.06 0.07 0.08 0.09 0.31 0.86 1.71 1.02 0.74 0.31 0.22 0.24 0.09 0.06 0.12 0.16 0.16 0.20 0.26 0.24 0.18 0.17 0.20 0.22 0.18 0.12 0.05 0.02 0.01 0.01 0.01 0.00 0.00 0.00 0.00 0.00 0.00
0.06 0.06 0.03 0.02 0.05 0.10 0.10 0.10 0.08 0.07 0.09 0.36 1.52 1.66 1.41 0.95 0.40 0.34 0.20 0.09 0.04 0.06 0.09 0.15 0.17 0.16 0.17 0.15 0.13 0.12 0.13 0.14 0.13 0.08 0.06 0.06 0.05 0.03 0.03 0.03 0.03 0.05 0.03
0.03 0.05 0.06 0.03 0.08 0.14 0.18 0.15 0.16 0.13 0.12 0.16 0.67 1.48 1.52 1.48 0.93 0.57 0.36 0.23 0.12 0.05 0.08 0.18 0.26 0.19 0.18 0.19 0.18 0.15 0.17 0.16 0.13 0.12 0.15 0.15 0.11 0.14 0.13 0.11 0.13 0.14 0.10
0.05 0.04 0.02 0.06 0.15 0.24 0.29 0.39 0.42 0.37 0.24 0.21 0.48 0.94 1.10 1.41 1.29 0.89 0.59 0.33 0.31 0.20 0.13 0.15 0.26 0.38 0.26 0.20 0.22 0.18 0.15 0.17 0.16 0.16 0.16 0.16 0.12 0.13 0.16 0.18 0.16 0.17 0.20
0.23 0.20 0.18 0.26 0.36 0.73 0.49 0.47 0.59 0.54 0.26 0.30 0.46 0.60 0.96 1.03 0.91 1.12 0.92 0.47 0.32 0.33 0.29 0.27 0.23 0.28 0.36 0.29 0.25 0.18 0.18 0.17 0.15 0.14 0.12 0.11 0.14 0.11 0.11 0.11 0.13 0.15 0.19
0.34 0.44 0.57 0.78 1.25 1.18 0.78 0.68 0.69 0.30 0.24 0.37 0.44 0.43 0.59 0.72 0.59 0.71 0.85 1.17 0.45 0.33 0.40 0.35 0.40 0.40 0.42 0.43 0.39 0.32 0.24 0.19 0.14 0.13 0.12 0.12 0.12 0.09 0.10 0.11 0.12 0.14 0.18
0.75 0.93 1.25 1.72 1.36 1.11 0.74 0.89 0.90 0.68 1.00 0.99 0.84 0.52 0.44 0.65 0.52 0.58 0.63 1.04 1.14 0.55 0.48 0.54 0.48 0.42 0.51 0.55 0.54 0.48 0.53 0.46 0.34 0.27 0.23 0.22 0.23 0.19 0.21 0.27 0.29 0.31 0.31
1.16 1.33 1.40 1.32 1.07 1.02 1.28 1.43 1.66 1.72 1.67 1.67 1.55 1.01 0.77 0.82 0.77 0.63 0.78 0.81 1.10 1.06 0.76 0.72 0.77 0.84 0.72 0.68 0.71 0.67 0.62 0.51 0.43 0.36 0.34 0.34 0.31 0.28 0.31 0.34 0.31 0.33 0.29
2.36 2.52 2.63 2.50 2.16 2.02 2.06 2.12 2.03 1.80 1.36 1.23 1.48 1.32 1.11 1.21 1.53 1.41 1.19 0.88 1.16 1.20 1.12 0.98 1.04 1.03 1.15 1.13 1.09 0.97 0.83 0.75 0.65 0.56 0.44 0.36 0.41 0.43 0.44 0.45 0.38 0.38 0.42
2.49 2.13 1.86 1.66 1.57 1.56 1.60 1.43 1.43 1.32 1.15 1.24 1.30 1.14 1.42 1.39 1.65 1.80 1.49 0.86 1.15 1.20 1.47 1.19 1.08 1.09 0.96 1.16 1.27 1.21 1.05 1.04 1.06 0.96 0.79 0.67 0.74 0.68 0.74 0.73 0.67 0.63 0.63
1.03 0.94 0.97 0.92 0.91 0.97 0.95 1.00 1.11 0.93 0.86 0.89 1.01 1.17 1.32 1.24 1.37 1.29 1.33 1.32 1.38 1.15 1.35 1.34 1.08 1.17 1.23 1.22 1.20 1.44 1.35 1.16 1.05 0.95 0.87 0.87 0.91 0.96 0.89 0.94 0.95 0.96 1.07
0.35 0.40 0.41 0.36 0.37 0.26 0.17 0.15 0.14 0.25 0.32 0.48 0.72 0.92 0.93 0.96 1.06 0.92 1.26 1.07 0.95 1.17 1.19 1.02 1.15 1.17 1.37 1.31 1.09 1.23 1.25 1.34 1.34 1.33 1.31 1.23 1.12 1.12 1.14 1.05 1.01 0.98 0.97
0.00 0.00 0.00 0.00 0.00 0.00 0.00 0.01 0.01 0.01 0.03 0.06 0.11 0.20 0.31 0.33 0.37 0.56 0.78 0.68 0.50 0.57 0.70 0.56 0.60 0.75 0.71 0.94 0.88 0.85 0.73 0.69 0.73 0.87 0.93 0.99 1.02 1.08 1.01 0.85 0.85 0.83 0.82
0.00 0.00 0.00 0.00 0.00 0.00 0.00 0.00 0.00 0.00 0.00 0.00 0.00 0.00 0.00 0.07 0.18 0.30 0.34 0.29 0.31 0.35 0.42 0.37 0.29 0.39 0.46 0.56 0.53 0.54 0.46 0.43 0.44 0.43 0.40 0.44 0.43 0.50 0.51 0.49 0.52 0.55 0.54
0.00 0.00 0.00 0.00 0.00 0.00 0.00 0.00 0.00 0.00 0.00 0.00 0.00 0.00 0.00 0.00 0.01 0.05 0.04 0.03 0.05 0.07 0.10 0.12 0.12 0.10 0.10 0.13 0.18 0.18 0.18 0.19 0.21 0.26 0.34 0.42 0.49 0.47 0.48 0.47 0.43 0.45 0.50
0.00 0.00 0.00 0.00 0.00 0.00 0.00 0.00 0.00 0.00 0.00 0.00 0.00 0.00 0.00 0.00 0.00 0.00 0.00 0.00 0.00 0.00 0.01 0.02 0.03 0.02 0.02 0.03 0.04 0.03 0.04 0.04 0.05 0.08 0.10 0.14 0.18 0.20 0.26 0.28 0.31 0.32 0.28
0.00 0.00 0.00 0.00 0.00 0.00 0.00 0.00 0.00 0.00 0.00 0.00 0.00 0.00 0.00 0.00 0.00 0.00 0.00 0.00 0.00 0.00 0.00 0.00 0.00 0.00 0.00 0.00 0.02 0.04 0.06 0.08 0.09 0.11 0.13 0.13 0.13 0.15 0.18 0.22 0.27 0.29 0.25
0.00 0.00 0.00 0.00 0.00 0.00 0.00 0.00 0.00 0.00 0.00 0.00 0.00 0.00 0.00 0.00 0.00 0.00 0.00 0.00 0.00 0.00 0.00 0.00 0.00 0.00 0.00 0.00 0.00 0.00 0.00 0.01 0.01 0.03 0.05 0.07 0.08 0.09 0.10 0.14 0.16 0.16 0.16
0.00 0.00 0.00 0.00 0.00 0.00 0.00 0.00 0.00 0.00 0.00 0.00 0.00 0.00 0.00 0.00 0.00 0.00 0.00 0.00 0.00 0.01 0.00 0.00 0.01 0.01 0.02 0.03 0.03 0.02 0.01 0.01 0.02 0.03 0.01 0.01 0.02 0.03 0.05 0.09 0.15 0.20 0.23
0.00 0.00 0.00 0.00 0.00 0.00 0.00 0.00 0.00 0.00 0.00 0.00 0.00 0.00 0.00 0.00 0.00 0.00 0.00 0.01 0.03 0.03 0.02 0.03 0.04 0.04 0.09 0.13 0.17 0.19 0.18 0.20 0.24 0.25 0.13 0.11 0.10 0.10 0.13 0.19 0.24 0.30 0.33

GFSMW_prec_precacc24_147.txt.gz
Total_Precipitation_Accumulation
0.00 0.00 0.00 0.00 0.00 0.00 0.00 0.00 0.00 0.00 0.00 0.01 0.00 0.02 0.19 0.49 0.64 0.81 0.43 0.24 0.26 0.25 0.25 0.15 0.09 0.12 0.06 0.00 0.00 0.00 0.00 0.00 0.00 0.00 0.00 0.00 0.00 0.00 0.00 0.00 0.00 0.00 0.00
0.00 0.00 0.00 0.00 0.00 0.00 0.00 0.00 0.00 0.00 0.00 0.01 0.01 0.03 0.09 0.25 0.21 0.26 0.46 0.41 0.31 0.22 0.19 0.16 0.15 0.12 0.06 0.03 0.02 0.01 0.00 0.00 0.00 0.00 0.00 0.00 0.00 0.00 0.00 0.00 0.00 0.00 0.00
0.00 0.00 0.00 0.00 0.00 0.00 0.01 0.00 0.00 0.00 0.00 0.05 0.04 0.07 0.16 0.17 0.18 0.28 0.31 0.43 0.40 0.26 0.24 0.21 0.21 0.20 0.14 0.09 0.03 0.03 0.01 0.00 0.00 0.00 0.00 0.00 0.00 0.00 0.00 0.00 0.00 0.00 0.00
0.00 0.00 0.00 0.00 0.00 0.00 0.00 0.01 0.01 0.01 0.00 0.12 0.33 0.08 0.18 0.21 0.12 0.14 0.22 0.17 0.32 0.35 0.28 0.29 0.28 0.23 0.23 0.15 0.08 0.04 0.03 0.01 0.00 0.01 0.00 0.00 0.00 0.00 0.00 0.00 0.00 0.00 0.00
0.00 0.00 0.00 0.00 0.00 0.00 0.01 0.01 0.03 0.03 0.03 0.17 0.49 0.22 0.07 0.12 0.09 0.07 0.07 0.15 0.11 0.21 0.29 0.37 0.36 0.27 0.24 0.24 0.22 0.15 0.07 0.02 0.00 0.01 0.01 0.00 0.00 0.00 0.00 0.00 0.00 0.00 0.00
0.00 0.00 0.00 0.00 0.00 0.01 0.02 0.03 0.03 0.05 0.07 0.09 0.57 0.39 0.21 0.09 0.29 0.13 0.07 0.10 0.14 0.12 0.19 0.31 0.39 0.37 0.32 0.30 0.32 0.28 0.20 0.11 0.05 0.02 0.03 0.02 0.01 0.00 0.00 0.00 0.00 0.00 0.00
0.01 0.01 0.00 0.00 0.01 0.02 0.02 0.04 0.04 0.03 0.04 0.03 0.49 0.53 0.46 0.19 0.17 0.23 0.09 0.06 0.11 0.15 0.15 0.20 0.27 0.25 0.19 0.21 0.28 0.32 0.30 0.26 0.15 0.07 0.04 0.04 0.04 0.03 0.01 0.00 0.00 0.00 0.00
0.04 0.05 0.03 0.02 0.01 0.03 0.07 0.08 0.06 0.06 0.05 0.04 0.41 0.78 0.80 0.62 0.24 0.23 0.18 0.09 0.04 0.06 0.09 0.15 0.17 0.17 0.18 0.16 0.17 0.19 0.22 0.26 0.29 0.18 0.11 0.11 0.08 0.08 0.07 0.06 0.04 0.06 0.04
0.03 0.05 0.07 0.03 0.01 0.06 0.13 0.13 0.12 0.11 0.08 0.04 0.21 0.44 0.81 1.03 0.63 0.37 0.23 0.19 0.11 0.05 0.08 0.17 0.26 0.19 0.18 0.19 0.20 0.18 0.23 0.24 0.21 0.21 0.26 0.26 0.18 0.19 0.22 0.25 0.23 0.25 0.27
0.12 0.13 0.12 0.07 0.05 0.16 0.23 0.31 0.35 0.34 0.16 0.08 0.07 0.13 0.37 0.71 0.89 0.65 0.37 0.23 0.27 0.17 0.12 0.15 0.26 0.38 0.27 0.21 0.23 0.20 0.18 0.26 0.30 0.26 0.25 0.26 0.21 0.19 0.26 0.36 0.40 0.42 0.43
0.34 0.33 0.24 0.14 0.24 0.70 0.47 0.46 0.58 0.53 0.22 0.19 0.08 0.16 0.35 0.38 0.50 0.78 0.53 0.28 0.24 0.29 0.27 0.26 0.22 0.28 0.36 0.29 0.26 0.20 0.20 0.19 0.18 0.19 0.17 0.17 0.23 0.23 0.22 0.20 0.24 0.28 0.36
0.35 0.28 0.28 0.50 1.16 1.19 0.76 0.66 0.66 0.28 0.21 0.24 0.22 0.18 0.37 0.51 0.39 0.49 0.56 0.56 0.28 0.28 0.34 0.32 0.38 0.39 0.41 0.43 0.39 0.32 0.26 0.23 0.18 0.17 0.15 0.17 0.19 0.17 0.18 0.17 0.16 0.18 0.22
0.31 0.47 0.91 1.45 1.21 1.00 0.66 0.83 0.86 0.64 0.58 0.59 0.58 0.35 0.28 0.50 0.36 0.43 0.51 0.74 0.73 0.36 0.34 0.41 0.39 0.37 0.48 0.53 0.53 0.46 0.48 0.45 0.35 0.30 0.29 0.27 0.30 0.26 0.29 0.33 0.32 0.33 0.33
0.68 0.93 1.07 1.01 0.90 0.92 1.16 1.40 1.66 1.67 1.52 1.38 1.39 0.95 0.67 0.73 0.72 0.60 0.74 0.76 1.01 0.89 0.51 0.45 0.57 0.71 0.64 0.60 0.65 0.62 0.56 0.46 0.43 0.38 0.37 0.39 0.38 0.38 0.40 0.42 0.35 0.37 0.32
1.94 2.17 2.40 2.32 2.04 1.95 2.04 2.11 2.02 1.78 1.30 1.12 1.38 1.27 1.09 1.19 1.52 1.41 1.21 0.88 1.15 1.17 1.04 0.88 0.91 0.82 0.95 1.01 1.01 0.90 0.80 0.73 0.65 0.64 0.57 0.47 0.50 0.55 0.56 0.52 0.42 0.41 0.44
2.21 2.07 1.83 1.62 1.53 1.53 1.57 1.41 1.39 1.31 1.12 1.19 1.26 1.13 1.39 1.35 1.62 1.78 1.48 0.85 1.15 1.19 1.46 1.19 1.07 1.07 0.94 1.13 1.24 1.18 1.03 1.05 1.09 1.00 0.86 0.78 0.84 0.75 0.78 0.75 0.71 0.68 0.68
0.93 0.87 0.91 0.86 0.85 0.93 0.91 0.97 1.10 0.93 0.86 0.89 1.00 1.16 1.31 1.22 1.35 1.27 1.32 1.28 1.32 1.06 1.29 1.25 0.98 1.07 1.18 1.22 1.19 1.46 1.40 1.23 1.10 1.02 0.91 0.90 0.93 0.99 0.92 0.97 0.98 1.00 1.12
0.34 0.39 0.39 0.33 0.32 0.22 0.15 0.13 0.13 0.25 0.32 0.48 0.72 0.92 0.93 0.96 1.05 0.92 1.26 1.06 0.95 1.15 1.16 0.94 0.97 0.98 1.30 1.31 1.09 1.25 1.26 1.36 1.35 1.34 1.33 1.24 1.14 1.14 1.17 1.08 1.05 1.03 1.02
0.00 0.00 0.00 0.00 0.00 0.00 0.00 0.01 0.01 0.01 0.03 0.06 0.11 0.20 0.31 0.32 0.37 0.56 0.78 0.68 0.49 0.57 0.70 0.55 0.56 0.69 0.70 0.94 0.91 0.89 0.76 0.70 0.74 0.87 0.94 1.02 1.05 1.17 1.09 0.90 0.91 0.89 0.85
0.00 0.00 0.00 0.00 0.00 0.00 0.00 0.00 0.00 0.00 0.00 0.00 0.00 0.00 0.00 0.07 0.16 0.29 0.34 0.29 0.31 0.35 0.42 0.37 0.30 0.38 0.46 0.60 0.65 0.71 0.67 0.54 0.50 0.50 0.48 0.54 0.50 0.60 0.59 0.54 0.54 0.55 0.54
0.00 0.00 0.00 0.00 0.00 0.00 0.00 0.00 0.00 0.00 0.00 0.00 0.00 0.00 0.00 0.00 0.01 0.04 0.04 0.03 0.04 0.06 0.10 0.13 0.14 0.14 0.17 0.24 0.33 0.38 0.39 0.33 0.30 0.31 0.38 0.45 0.53 0.49 0.49 0.48 0.43 0.45 0.50
0.00 0.00 0.00 0.00 0.00 0.00 0.00 0.00 0.00 0.00 0.00 0.00 0.00 0.00 0.00 0.00 0.00 0.00 0.00 0.00 0.00 0.00 0.00 0.01 0.02 0.02 0.02 0.04 0.05 0.04 0.04 0.05 0.06 0.09 0.11 0.14 0.18 0.21 0.26 0.29 0.32 0.32 0.28
0.00 0.00 0.00 0.00 0.00 0.00 0.00 0.00 0.00 0.00 0.00 0.00 0.00 0.00 0.00 0.00 0.00 0.00 0.00 0.00 0.00 0.00 0.00 0.00 0.00 0.00 0.00 0.00 0.02 0.04 0.06 0.08 0.09 0.11 0.13 0.13 0.13 0.15 0.18 0.23 0.27 0.29 0.25
0.00 0.00 0.00 0.00 0.00 0.00 0.00 0.00 0.00 0.00 0.00 0.00 0.00 0.00 0.00 0.00 0.00 0.00 0.00 0.00 0.00 0.00 0.00 0.00 0.00 0.00 0.00 0.00 0.00 0.00 0.00 0.01 0.01 0.03 0.05 0.07 0.08 0.09 0.10 0.14 0.16 0.16 0.16
0.00 0.00 0.00 0.00 0.00 0.00 0.00 0.00 0.00 0.00 0.00 0.00 0.00 0.00 0.00 0.00 0.00 0.00 0.00 0.00 0.00 0.00 0.00 0.00 0.00 0.00 0.01 0.02 0.02 0.01 0.01 0.01 0.02 0.03 0.01 0.01 0.02 0.03 0.05 0.09 0.15 0.20 0.23
0.00 0.00 0.00 0.00 0.00 0.00 0.00 0.00 0.00 0.00 0.00 0.00 0.00 0.00 0.00 0.00 0.00 0.00 0.00 0.00 0.00 0.00 0.00 0.00 0.00 0.00 0.01 0.03 0.06 0.08 0.10 0.12 0.17 0.18 0.11 0.10 0.10 0.10 0.13 0.18 0.24 0.30 0.33

GFSMW_prec_precacc24_150.txt.gz
Total_Precipitation_Accumulation
0.00 0.00 0.00 0.00 0.00 0.00 0.00 0.00 0.00 0.00 0.00 0.00 0.00 0.00 0.00 0.02 0.19 0.58 0.33 0.20 0.23 0.26 0.30 0.20 0.14 0.17 0.09 0.04 0.07 0.03 0.00 0.00 0.01 0.00 0.00 0.00 0.00 0.00 0.00 0.00 0.00 0.00 0.00
0.00 0.00 0.00 0.00 0.00 0.00 0.00 0.00 0.00 0.00 0.00 0.00 0.00 0.00 0.00 0.00 0.00 0.07 0.27 0.37 0.28 0.21 0.20 0.20 0.20 0.17 0.11 0.08 0.06 0.06 0.02 0.00 0.01 0.01 0.00 0.00 0.00 0.00 0.00 0.00 0.00 0.00 0.00
0.00 0.00 0.00 0.00 0.00 0.00 0.00 0.00 0.00 0.00 0.00 0.00 0.00 0.00 0.00 0.00 0.00 0.03 0.11 0.33 0.38 0.26 0.25 0.22 0.25 0.25 0.19 0.13 0.07 0.10 0.07 0.03 0.02 0.02 0.01 0.00 0.00 0.00 0.00 0.00 0.00 0.00 0.00
0.00 0.00 0.00 0.00 0.00 0.00 0.00 0.00 0.00 0.00 0.00 0.00 0.00 0.00 0.00 0.00 0.00 0.00 0.03 0.07 0.30 0.34 0.28 0.30 0.30 0.26 0.28 0.20 0.13 0.10 0.10 0.08 0.06 0.04 0.02 0.01 0.00 0.00 0.00 0.00 0.00 0.00 0.00
0.00 0.00 0.00 0.00 0.00 0.00 0.00 0.00 0.01 0.01 0.01 0.02 0.01 0.00 0.00 0.00 0.00 0.00 0.01 0.08 0.09 0.21 0.29 0.37 0.36 0.28 0.27 0.30 0.31 0.23 0.14 0.10 0.09 0.08 0.10 0.05 0.01 0.00 0.00 0.00 0.00 0.00 0.00
0.00 0.00 0.00 0.00 0.00 0.00 0.00 0.00 0.01 0.01 0.03 0.02 0.03 0.01 0.00 0.00 0.05 0.05 0.00 0.05 0.12 0.12 0.19 0.31 0.39 0.37 0.33 0.32 0.37 0.38 0.32 0.21 0.16 0.11 0.11 0.08 0.05 0.03 0.01 0.00 0.00 0.00 0.00
0.00 0.00 0.00 0.00 0.00 0.00 0.00 0.00 0.01 0.00 0.01 0.01 0.04 0.02 0.00 0.02 0.07 0.15 0.03 0.03 0.10 0.15 0.15 0.20 0.27 0.25 0.19 0.21 0.30 0.37 0.39 0.36 0.23 0.15 0.11 0.11 0.09 0.08 0.06 0.03 0.01 0.00 0.00
0.01 0.00 0.00 0.01 0.00 0.00 0.00 0.00 0.00 0.01 0.01 0.02 0.03 0.03 0.06 0.19 0.08 0.17 0.15 0.08 0.03 0.06 0.09 0.15 0.17 0.17 0.18 0.16 0.17 0.20 0.24 0.31 0.37 0.32 0.21 0.17 0.14 0.14 0.13 0.11 0.10 0.12 0.08
0.01 0.01 0.01 0.01 0.02 0.02 0.02 0.01 0.02 0.03 0.04 0.01 0.01 0.03 0.09 0.47 0.36 0.25 0.21 0.19 0.11 0.05 0.08 0.17 0.26 0.19 0.18 0.19 0.19 0.19 0.22 0.26 0.23 0.26 0.33 0.34 0.28 0.29 0.31 0.32 0.30 0.33 0.36
0.12 0.14 0.12 0.08 0.06 0.07 0.07 0.09 0.12 0.20 0.10 0.07 0.01 0.03 0.06 0.25 0.64 0.48 0.33 0.23 0.27 0.17 0.12 0.14 0.25 0.38 0.26 0.21 0.21 0.19 0.18 0.27 0.30 0.29 0.28 0.28 0.26 0.28 0.37 0.46 0.47 0.48 0.49
0.34 0.33 0.26 0.16 0.17 0.21 0.26 0.28 0.46 0.46 0.19 0.18 0.05 0.06 0.11 0.10 0.24 0.58 0.43 0.24 0.20 0.25 0.23 0.21 0.19 0.26 0.35 0.28 0.24 0.19 0.19 0.18 0.18 0.20 0.20 0.19 0.27 0.25 0.24 0.25 0.31 0.41 0.51
0.35 0.28 0.28 0.25 0.27 0.55 0.60 0.61 0.62 0.25 0.17 0.20 0.16 0.07 0.10 0.13 0.12 0.21 0.36 0.42 0.17 0.18 0.26 0.25 0.30 0.30 0.33 0.37 0.37 0.32 0.25 0.23 0.19 0.19 0.17 0.18 0.21 0.19 0.20 0.23 0.25 0.29 0.34
0.19 0.18 0.24 0.50 0.81 0.80 0.60 0.78 0.81 0.60 0.52 0.51 0.47 0.18 0.13 0.13 0.12 0.14 0.16 0.33 0.42 0.17 0.22 0.31 0.32 0.32 0.42 0.46 0.47 0.43 0.46 0.44 0.35 0.30 0.29 0.27 0.32 0.29 0.31 0.38 0.40 0.42 0.40
0.13 0.25 0.56 0.82 0.74 0.72 0.92 1.21 1.49 1.49 1.43 1.28 1.25 0.77 0.51 0.49 0.40 0.33 0.37 0.33 0.46 0.49 0.25 0.28 0.46 0.61 0.54 0.52 0.58 0.59 0.55 0.45 0.41 0.36 0.35 0.39 0.39 0.40 0.44 0.48 0.45 0.49 0.53
1.10 1.41 1.77 1.84 1.65 1.70 1.88 1.95 1.78 1.66 1.20 1.05 1.34 1.24 1.03 1.04 1.37 1.25 1.05 0.68 0.84 0.87 0.72 0.46 0.46 0.56 0.74 0.85 0.91 0.83 0.75 0.68 0.57 0.56 0.54 0.47 0.52 0.60 0.64 0.63 0.57 0.65 0.75
1.63 1.65 1.54 1.34 1.36 1.47 1.53 1.35 1.33 1.21 0.95 1.04 1.18 1.11 1.38 1.33 1.58 1.75 1.45 0.79 1.07 1.10 1.33 0.94 0.70 0.63 0.62 0.72 0.81 0.88 0.86 0.93 0.95 0.82 0.75 0.75 0.85 0.81 0.87 0.84 0.83 0.77 0.78
0.70 0.65 0.74 0.74 0.78 0.89 0.88 0.94 1.09 0.91 0.82 0.85 0.98 1.12 1.20 1.15 1.25 1.24 1.30 1.24 1.26 1.00 1.20 1.10 0.81 0.92 1.04 1.02 0.92 1.11 1.09 1.02 0.98 0.94 0.86 0.86 0.94 1.02 0.96 1.01 1.01 1.02 1.14
0.21 0.23 0.24 0.23 0.23 0.16 0.11 0.11 0.13 0.25 0.32 0.48 0.72 0.92 0.92 0.96 1.05 0.92 1.25 1.06 0.92 1.10 1.08 0.87 0.90 0.85 1.01 1.04 0.86 0.94 0.91 1.06 1.15 1.19 1.24 1.23 1.14 1.15 1.18 1.08 1.06 1.04 1.04
0.00 0.00 0.00 0.00 0.00 0.00 0.00 0.01 0.01 0.01 0.03 0.06 0.11 0.20 0.31 0.32 0.37 0.56 0.78 0.67 0.49 0.56 0.69 0.53 0.53 0.66 0.64 0.84 0.80 0.79 0.67 0.59 0.67 0.84 0.94 1.03 1.06 1.18 1.10 0.91 0.92 0.91 0.90
0.00 0.00 0.00 0.00 0.00 0.00 0.00 0.00 0.00 0.00 0.00 0.00 0.00 0.00 0.00 0.07 0.16 0.29 0.34 0.29 0.31 0.35 0.42 0.37 0.29 0.34 0.31 0.40 0.48 0.55 0.56 0.48 0.48 0.47 0.47 0.55 0.52 0.63 0.63 0.57 0.60 0.64 0.63
0.00 0.00 0.00 0.00 0.00 0.00 0.00 0.00 0.00 0.00 0.00 0.00 0.00 0.00 0.00 0.00 0.01 0.03 0.03 0.03 0.04 0.06 0.10 0.13 0.14 0.13 0.16 0.18 0.26 0.35 0.40 0.40 0.35 0.37 0.41 0.46 0.56 0.56 0.59 0.56 0.47 0.49 0.54
0.00 0.00 0.00 0.00 0.00 0.00 0.00 0.00 0.00 0.00 0.00 0.00 0.00 0.00 0.00 0.00 0.00 0.00 0.00 0.00 0.00 0.00 0.00 0.00 0.00 0.00 0.01 0.01 0.03 0.03 0.04 0.06 0.10 0.14 0.15 0.17 0.22 0.23 0.27 0.29 0.32 0.32 0.28
0.00 0.00 0.00 0.00 0.00 0.00 0.00 0.00 0.00 0.00 0.00 0.00 0.00 0.00 0.00 0.00 0.00 0.00 0.00 0.00 0.00 0.00 0.00 0.00 0.00 0.00 0.00 0.00 0.00 0.00 0.01 0.02 0.03 0.06 0.10 0.12 0.13 0.15 0.18 0.23 0.27 0.29 0.25
0.00 0.00 0.00 0.00 0.00 0.00 0.00 0.00 0.00 0.00 0.00 0.00 0.00 0.00 0.00 0.00 0.00 0.00 0.00 0.00 0.00 0.00 0.00 0.00 0.00 0.00 0.00 0.00 0.00 0.00 0.00 0.00 0.01 0.02 0.05 0.07 0.08 0.09 0.10 0.14 0.16 0.16 0.16
0.00 0.00 0.00 0.00 0.00 0.00 0.00 0.00 0.00 0.00 0.00 0.00 0.00 0.00 0.00 0.00 0.00 0.00 0.00 0.00 0.00 0.00 0.00 0.00 0.00 0.00 0.00 0.01 0.01 0.00 0.00 0.00 0.01 0.01 0.00 0.01 0.01 0.03 0.05 0.09 0.15 0.20 0.23
0.00 0.00 0.00 0.00 0.00 0.00 0.00 0.00 0.00 0.00 0.00 0.00 0.00 0.00 0.00 0.00 0.00 0.00 0.00 0.00 0.00 0.00 0.00 0.00 0.00 0.00 0.00 0.01 0.01 0.01 0.01 0.01 0.02 0.02 0.01 0.03 0.05 0.07 0.10 0.15 0.20 0.27 0.32